<?xml version='1.0' encoding='UTF-8'?><gpx version="1.1" creator="JPX - https://github.com/jenetics/jpx" xmlns="http://www.topografix.com/GPX/1/1"><trk><trkseg><trkpt lat="45.17981193939603" lon="9.153116445148"><ele>68.0</ele><time>2026-03-29T08:39:13Z</time></trkpt><trkpt lat="45.179822111404356" lon="9.152993581149511"><ele>68.0</ele><time>2026-03-29T08:39:18Z</time></trkpt><trkpt lat="45.17983531507379" lon="9.152893736684913"><ele>68.0</ele><time>2026-03-29T08:39:23Z</time></trkpt><trkpt lat="45.17991196579168" lon="9.15292438583082"><ele>68.0</ele><time>2026-03-29T08:39:26Z</time></trkpt><trkpt lat="45.17998992668458" lon="9.152962780317717"><ele>68.0</ele><time>2026-03-29T08:39:29Z</time></trkpt><trkpt lat="45.18007388219876" lon="9.153002241574614"><ele>68.0</ele><time>2026-03-29T08:39:32Z</time></trkpt><trkpt lat="45.18015933038252" lon="9.153041253745483"><ele>67.5</ele><time>2026-03-29T08:39:35Z</time></trkpt><trkpt lat="45.180222057932795" lon="9.15306359310891"><ele>67.0</ele><time>2026-03-29T08:39:37Z</time></trkpt><trkpt lat="45.18029105179728" lon="9.153099577732725"><ele>66.5</ele><time>2026-03-29T08:39:40Z</time></trkpt><trkpt lat="45.18036259093603" lon="9.153129239633687"><ele>66.0</ele><time>2026-03-29T08:39:42Z</time></trkpt><trkpt lat="45.18045542341566" lon="9.153169873013919"><ele>65.5</ele><time>2026-03-29T08:39:45Z</time></trkpt><trkpt lat="45.18053915302405" lon="9.15320512264711"><ele>65.0</ele><time>2026-03-29T08:39:48Z</time></trkpt><trkpt lat="45.180618038872176" lon="9.153237319543061"><ele>63.66666666666667</ele><time>2026-03-29T08:39:51Z</time></trkpt><trkpt lat="45.18068572841364" lon="9.15326169816987"><ele>62.333333333333336</ele><time>2026-03-29T08:39:53Z</time></trkpt><trkpt lat="45.18075961648365" lon="9.153287856530504"><ele>61.0</ele><time>2026-03-29T08:39:55Z</time></trkpt><trkpt lat="45.180840922477756" lon="9.153331390052418"><ele>59.66666666666667</ele><time>2026-03-29T08:39:57Z</time></trkpt><trkpt lat="45.18091939954214" lon="9.153365572615943"><ele>58.333333333333336</ele><time>2026-03-29T08:39:59Z</time></trkpt><trkpt lat="45.18100315597085" lon="9.153402893991625"><ele>57.0</ele><time>2026-03-29T08:40:01Z</time></trkpt><trkpt lat="45.181083795922284" lon="9.153425045948776"><ele>57.0</ele><time>2026-03-29T08:40:03Z</time></trkpt><trkpt lat="45.181152277149316" lon="9.15345830586078"><ele>56.99999999999999</ele><time>2026-03-29T08:40:05Z</time></trkpt><trkpt lat="45.181223126220544" lon="9.153485806532448"><ele>57.0</ele><time>2026-03-29T08:40:07Z</time></trkpt><trkpt lat="45.18128759440451" lon="9.153513423782039"><ele>57.0</ele><time>2026-03-29T08:40:09Z</time></trkpt><trkpt lat="45.18137031066428" lon="9.15354406495337"><ele>56.99999999999999</ele><time>2026-03-29T08:40:12Z</time></trkpt><trkpt lat="45.18144369453881" lon="9.153564253265953"><ele>57.0</ele><time>2026-03-29T08:40:16Z</time></trkpt><trkpt lat="45.181505157008154" lon="9.153600112818351"><ele>57.0</ele><time>2026-03-29T08:40:25Z</time></trkpt><trkpt lat="45.181582113248766" lon="9.153613206454468"><ele>59.166666666666664</ele><time>2026-03-29T08:40:28Z</time></trkpt><trkpt lat="45.18164593761886" lon="9.153581115507311"><ele>61.33333333333333</ele><time>2026-03-29T08:40:30Z</time></trkpt><trkpt lat="45.181709904098376" lon="9.153557373345668"><ele>63.5</ele><time>2026-03-29T08:40:32Z</time></trkpt><trkpt lat="45.18177501651504" lon="9.153545233614706"><ele>65.66666666666666</ele><time>2026-03-29T08:40:34Z</time></trkpt><trkpt lat="45.18184717558696" lon="9.153579245097939"><ele>67.83333333333333</ele><time>2026-03-29T08:40:37Z</time></trkpt><trkpt lat="45.18190999189558" lon="9.15361563865035"><ele>70.0</ele><time>2026-03-29T08:40:41Z</time></trkpt><trkpt lat="45.182154843122454" lon="9.153402038247998"><ele>70.0</ele><time>2026-03-29T08:42:02Z</time></trkpt><trkpt lat="45.18218894960331" lon="9.153302242360422"><ele>70.0</ele><time>2026-03-29T08:42:04Z</time></trkpt><trkpt lat="45.18225672952677" lon="9.153233433770303"><ele>70.0</ele><time>2026-03-29T08:42:06.028Z</time></trkpt><trkpt lat="45.18231038274102" lon="9.153160668225262"><ele>70.0</ele><time>2026-03-29T08:42:08.031Z</time></trkpt><trkpt lat="45.182207247346135" lon="9.153172673079881"><ele>70.0</ele><time>2026-03-29T08:42:19.371Z</time></trkpt><trkpt lat="45.18190691724752" lon="9.1532924138003"><ele>70.0</ele><time>2026-03-29T08:42:31.378Z</time></trkpt><trkpt lat="45.18182367181301" lon="9.153542123143465"><ele>70.0</ele><time>2026-03-29T08:42:38.65Z</time></trkpt><trkpt lat="45.181965047758226" lon="9.153643450360722"><ele>70.0</ele><time>2026-03-29T08:44:32Z</time></trkpt><trkpt lat="45.18189422409629" lon="9.153630160445372"><ele>70.0</ele><time>2026-03-29T08:44:44Z</time></trkpt><trkpt lat="45.18200584686343" lon="9.15362184315989"><ele>70.0</ele><time>2026-03-29T08:48:05Z</time></trkpt><trkpt lat="45.18207252674211" lon="9.153662019985417"><ele>70.0</ele><time>2026-03-29T08:48:08Z</time></trkpt><trkpt lat="45.1821357953343" lon="9.15369674505239"><ele>70.0</ele><time>2026-03-29T08:48:10Z</time></trkpt><trkpt lat="45.18219476857188" lon="9.15373367532286"><ele>70.0</ele><time>2026-03-29T08:48:12Z</time></trkpt><trkpt lat="45.18227868995407" lon="9.153792308785713"><ele>70.0</ele><time>2026-03-29T08:48:15Z</time></trkpt><trkpt lat="45.18233836143663" lon="9.153841491326773"><ele>70.0</ele><time>2026-03-29T08:48:17Z</time></trkpt><trkpt lat="45.18239739819112" lon="9.153884283232976"><ele>70.0</ele><time>2026-03-29T08:48:19Z</time></trkpt><trkpt lat="45.18245671917279" lon="9.153933212722368"><ele>71.0</ele><time>2026-03-29T08:48:21Z</time></trkpt><trkpt lat="45.18254196517089" lon="9.153986346540723"><ele>72.0</ele><time>2026-03-29T08:48:24Z</time></trkpt><trkpt lat="45.18263000784947" lon="9.154026098094423"><ele>73.0</ele><time>2026-03-29T08:48:27Z</time></trkpt><trkpt lat="45.18271139350523" lon="9.154063561778827"><ele>74.0</ele><time>2026-03-29T08:48:30Z</time></trkpt><trkpt lat="45.18277398533955" lon="9.154088356111886"><ele>75.0</ele><time>2026-03-29T08:48:32Z</time></trkpt><trkpt lat="45.182852199447346" lon="9.15412838172579"><ele>76.0</ele><time>2026-03-29T08:48:35Z</time></trkpt><trkpt lat="45.18292999315165" lon="9.154167928366997"><ele>76.16666666666666</ele><time>2026-03-29T08:48:38Z</time></trkpt><trkpt lat="45.18301760373173" lon="9.154195697574439"><ele>76.33333333333333</ele><time>2026-03-29T08:48:41Z</time></trkpt><trkpt lat="45.18310170590005" lon="9.154243339619201"><ele>76.5</ele><time>2026-03-29T08:48:44Z</time></trkpt><trkpt lat="45.183171026779085" lon="9.154259550883586"><ele>76.66666666666667</ele><time>2026-03-29T08:48:46Z</time></trkpt><trkpt lat="45.18324153105593" lon="9.154291359997206"><ele>76.83333333333334</ele><time>2026-03-29T08:48:48Z</time></trkpt><trkpt lat="45.183303745053294" lon="9.154313499759768"><ele>77.0</ele><time>2026-03-29T08:48:50Z</time></trkpt><trkpt lat="45.18337511255246" lon="9.154340363781925"><ele>78.0</ele><time>2026-03-29T08:48:52Z</time></trkpt><trkpt lat="45.183444041938685" lon="9.154361754681771"><ele>79.0</ele><time>2026-03-29T08:48:54Z</time></trkpt><trkpt lat="45.18352881280259" lon="9.154395395964602"><ele>80.0</ele><time>2026-03-29T08:48:57Z</time></trkpt><trkpt lat="45.183616639824095" lon="9.154440739361805"><ele>81.0</ele><time>2026-03-29T08:49:00Z</time></trkpt><trkpt lat="45.183682985940514" lon="9.154467370226659"><ele>82.0</ele><time>2026-03-29T08:49:02Z</time></trkpt><trkpt lat="45.18377318579484" lon="9.15449776162875"><ele>83.0</ele><time>2026-03-29T08:49:05Z</time></trkpt><trkpt lat="45.183859756770836" lon="9.154520953986356"><ele>83.0</ele><time>2026-03-29T08:49:08Z</time></trkpt><trkpt lat="45.18394845150061" lon="9.154573181903151"><ele>83.0</ele><time>2026-03-29T08:49:11Z</time></trkpt><trkpt lat="45.18402980578301" lon="9.154603450255147"><ele>83.0</ele><time>2026-03-29T08:49:14Z</time></trkpt><trkpt lat="45.184100346689796" lon="9.154641366567493"><ele>83.0</ele><time>2026-03-29T08:49:17Z</time></trkpt><trkpt lat="45.184183083247774" lon="9.154666960538577"><ele>83.0</ele><time>2026-03-29T08:49:20Z</time></trkpt><trkpt lat="45.184242485947564" lon="9.154708563947612"><ele>83.0</ele><time>2026-03-29T08:49:22Z</time></trkpt><trkpt lat="45.18432924514757" lon="9.15472963551269"><ele>83.33333333333334</ele><time>2026-03-29T08:49:25Z</time></trkpt><trkpt lat="45.18441362685957" lon="9.15477811702704"><ele>83.66666666666667</ele><time>2026-03-29T08:49:28Z</time></trkpt><trkpt lat="45.184497193266516" lon="9.154804637822464"><ele>84.0</ele><time>2026-03-29T08:49:31Z</time></trkpt><trkpt lat="45.18457495641955" lon="9.154843086287455"><ele>84.33333333333333</ele><time>2026-03-29T08:49:34Z</time></trkpt><trkpt lat="45.18466045577609" lon="9.15487575517646"><ele>84.66666666666666</ele><time>2026-03-29T08:49:37Z</time></trkpt><trkpt lat="45.18474246005315" lon="9.154916724305268"><ele>85.0</ele><time>2026-03-29T08:49:40Z</time></trkpt><trkpt lat="45.18482585453216" lon="9.154962601108394"><ele>85.5</ele><time>2026-03-29T08:49:43Z</time></trkpt><trkpt lat="45.18491009898193" lon="9.155007939593032"><ele>86.0</ele><time>2026-03-29T08:49:46Z</time></trkpt><trkpt lat="45.18498780336909" lon="9.155042327334113"><ele>86.5</ele><time>2026-03-29T08:49:49Z</time></trkpt><trkpt lat="45.185069293076744" lon="9.15509061629508"><ele>87.0</ele><time>2026-03-29T08:49:52Z</time></trkpt><trkpt lat="45.185129173889315" lon="9.155169496136931"><ele>87.5</ele><time>2026-03-29T08:49:55Z</time></trkpt><trkpt lat="45.18519552083354" lon="9.155175305435474"><ele>88.0</ele><time>2026-03-29T08:49:57Z</time></trkpt><trkpt lat="45.18528731710252" lon="9.155186224979104"><ele>88.0</ele><time>2026-03-29T08:50:00Z</time></trkpt><trkpt lat="45.185369922283044" lon="9.155223676585576"><ele>88.0</ele><time>2026-03-29T08:50:03Z</time></trkpt><trkpt lat="45.185430852163776" lon="9.155246892873302"><ele>88.0</ele><time>2026-03-29T08:50:05Z</time></trkpt><trkpt lat="45.18549260091176" lon="9.1552764361928"><ele>88.0</ele><time>2026-03-29T08:50:07Z</time></trkpt><trkpt lat="45.185573687820465" lon="9.155332386510764"><ele>88.0</ele><time>2026-03-29T08:50:10Z</time></trkpt><trkpt lat="45.18566200892595" lon="9.155367357774757"><ele>88.0</ele><time>2026-03-29T08:50:13Z</time></trkpt><trkpt lat="45.185756790604444" lon="9.155388974711888"><ele>88.14285714285714</ele><time>2026-03-29T08:50:16Z</time></trkpt><trkpt lat="45.18582521709616" lon="9.155401676614405"><ele>88.28571428571428</ele><time>2026-03-29T08:50:18Z</time></trkpt><trkpt lat="45.18589751296098" lon="9.155444330184293"><ele>88.42857142857142</ele><time>2026-03-29T08:50:21Z</time></trkpt><trkpt lat="45.18596223060528" lon="9.155462671523669"><ele>88.57142857142857</ele><time>2026-03-29T08:50:23Z</time></trkpt><trkpt lat="45.186027035769804" lon="9.155485906599214"><ele>88.71428571428571</ele><time>2026-03-29T08:50:25Z</time></trkpt><trkpt lat="45.18609219072077" lon="9.15551656247688"><ele>88.85714285714285</ele><time>2026-03-29T08:50:27Z</time></trkpt><trkpt lat="45.186156595467665" lon="9.155541910166718"><ele>89.0</ele><time>2026-03-29T08:50:29Z</time></trkpt><trkpt lat="45.1862192762655" lon="9.15557213682259"><ele>88.99999999999999</ele><time>2026-03-29T08:50:31Z</time></trkpt><trkpt lat="45.18628604535997" lon="9.155594852393495"><ele>89.0</ele><time>2026-03-29T08:50:33Z</time></trkpt><trkpt lat="45.18634663050574" lon="9.155620545745291"><ele>89.0</ele><time>2026-03-29T08:50:35Z</time></trkpt><trkpt lat="45.18640928480326" lon="9.155647858500863"><ele>89.0</ele><time>2026-03-29T08:50:37Z</time></trkpt><trkpt lat="45.18647591291101" lon="9.155695666148713"><ele>89.0</ele><time>2026-03-29T08:50:39Z</time></trkpt><trkpt lat="45.18653777475872" lon="9.155712905925128"><ele>88.99999999999999</ele><time>2026-03-29T08:50:41Z</time></trkpt><trkpt lat="45.18661236743488" lon="9.155748146632886"><ele>89.0</ele><time>2026-03-29T08:50:44Z</time></trkpt><trkpt lat="45.186679736874254" lon="9.15575596390872"><ele>88.83333333333334</ele><time>2026-03-29T08:50:46Z</time></trkpt><trkpt lat="45.18674700726372" lon="9.155783061602207"><ele>88.66666666666667</ele><time>2026-03-29T08:50:48Z</time></trkpt><trkpt lat="45.18681475358391" lon="9.15581180213342"><ele>88.5</ele><time>2026-03-29T08:50:51Z</time></trkpt><trkpt lat="45.18690439013712" lon="9.155859333652046"><ele>88.33333333333333</ele><time>2026-03-29T08:50:54Z</time></trkpt><trkpt lat="45.18698648931637" lon="9.155915729587582"><ele>88.16666666666666</ele><time>2026-03-29T08:50:56Z</time></trkpt><trkpt lat="45.187050324588334" lon="9.155915897095802"><ele>88.0</ele><time>2026-03-29T08:50:57Z</time></trkpt><trkpt lat="45.18716195915139" lon="9.155951392727307"><ele>88.0</ele><time>2026-03-29T08:50:59Z</time></trkpt><trkpt lat="45.187224673765236" lon="9.155995683943797"><ele>88.0</ele><time>2026-03-29T08:51:00Z</time></trkpt><trkpt lat="45.18731617534112" lon="9.156026868317715"><ele>88.0</ele><time>2026-03-29T08:51:02Z</time></trkpt><trkpt lat="45.1874012629739" lon="9.15603686048626"><ele>88.0</ele><time>2026-03-29T08:51:04Z</time></trkpt><trkpt lat="45.18750612738622" lon="9.156085553337466"><ele>88.0</ele><time>2026-03-29T08:51:06Z</time></trkpt><trkpt lat="45.18760139432088" lon="9.156116112277482"><ele>88.0</ele><time>2026-03-29T08:51:08Z</time></trkpt><trkpt lat="45.18766539880691" lon="9.15611930453012"><ele>88.0</ele><time>2026-03-29T08:51:10Z</time></trkpt><trkpt lat="45.18773917749388" lon="9.1562004720227"><ele>88.0</ele><time>2026-03-29T08:51:12Z</time></trkpt><trkpt lat="45.18780727309264" lon="9.156213584909313"><ele>88.0</ele><time>2026-03-29T08:51:14Z</time></trkpt><trkpt lat="45.18787602724986" lon="9.15620790513067"><ele>88.0</ele><time>2026-03-29T08:51:16Z</time></trkpt><trkpt lat="45.18794588611285" lon="9.156222238784416"><ele>88.0</ele><time>2026-03-29T08:51:18Z</time></trkpt><trkpt lat="45.18802108604727" lon="9.156238789499394"><ele>88.0</ele><time>2026-03-29T08:51:20Z</time></trkpt><trkpt lat="45.18809612696231" lon="9.156239876667733"><ele>88.0</ele><time>2026-03-29T08:51:22Z</time></trkpt><trkpt lat="45.188169602908005" lon="9.156253782712307"><ele>88.0</ele><time>2026-03-29T08:51:24Z</time></trkpt><trkpt lat="45.188238817230605" lon="9.15627116135462"><ele>88.0</ele><time>2026-03-29T08:51:26Z</time></trkpt><trkpt lat="45.18831908655574" lon="9.156280979346194"><ele>88.0</ele><time>2026-03-29T08:51:28Z</time></trkpt><trkpt lat="45.188393063012086" lon="9.156290077096738"><ele>88.0</ele><time>2026-03-29T08:51:30Z</time></trkpt><trkpt lat="45.18846776858214" lon="9.15629432113229"><ele>88.0</ele><time>2026-03-29T08:51:32Z</time></trkpt><trkpt lat="45.188546669179594" lon="9.156302288107158"><ele>87.85714285714286</ele><time>2026-03-29T08:51:34Z</time></trkpt><trkpt lat="45.1886239590255" lon="9.156294006617058"><ele>87.71428571428571</ele><time>2026-03-29T08:51:36Z</time></trkpt><trkpt lat="45.18869894632601" lon="9.156299238611648"><ele>87.57142857142857</ele><time>2026-03-29T08:51:38Z</time></trkpt><trkpt lat="45.188768802563686" lon="9.15629131402087"><ele>87.42857142857143</ele><time>2026-03-29T08:51:40Z</time></trkpt><trkpt lat="45.18883782594127" lon="9.156310353533652"><ele>87.28571428571429</ele><time>2026-03-29T08:51:42Z</time></trkpt><trkpt lat="45.18890221154728" lon="9.15631489402566"><ele>87.14285714285714</ele><time>2026-03-29T08:51:44Z</time></trkpt><trkpt lat="45.18898322487313" lon="9.156294717267155"><ele>87.0</ele><time>2026-03-29T08:51:46Z</time></trkpt><trkpt lat="45.18905989817" lon="9.156296683985579"><ele>86.5</ele><time>2026-03-29T08:51:48Z</time></trkpt><trkpt lat="45.18913205693116" lon="9.156303654455531"><ele>86.0</ele><time>2026-03-29T08:51:50Z</time></trkpt><trkpt lat="45.189214779618986" lon="9.15631591690541"><ele>85.5</ele><time>2026-03-29T08:51:52Z</time></trkpt><trkpt lat="45.18929150820911" lon="9.156288627622857"><ele>85.0</ele><time>2026-03-29T08:51:54Z</time></trkpt><trkpt lat="45.18937392664303" lon="9.15632229783299"><ele>84.5</ele><time>2026-03-29T08:51:56Z</time></trkpt><trkpt lat="45.189449038719204" lon="9.156328778980617"><ele>84.0</ele><time>2026-03-29T08:51:58Z</time></trkpt><trkpt lat="45.18953072694119" lon="9.156320748710346"><ele>84.0</ele><time>2026-03-29T08:52:00Z</time></trkpt><trkpt lat="45.18961417606694" lon="9.156321535056128"><ele>84.0</ele><time>2026-03-29T08:52:02Z</time></trkpt><trkpt lat="45.189691977429646" lon="9.156319179961713"><ele>84.0</ele><time>2026-03-29T08:52:04Z</time></trkpt><trkpt lat="45.189772459657895" lon="9.156329144947655"><ele>84.0</ele><time>2026-03-29T08:52:06Z</time></trkpt><trkpt lat="45.18985533543935" lon="9.156340484250213"><ele>84.0</ele><time>2026-03-29T08:52:08Z</time></trkpt><trkpt lat="45.189939966051355" lon="9.156362725414319"><ele>84.0</ele><time>2026-03-29T08:52:10Z</time></trkpt><trkpt lat="45.19002836938626" lon="9.156379647879746"><ele>84.0</ele><time>2026-03-29T08:52:12Z</time></trkpt><trkpt lat="45.190111831640564" lon="9.156404232297891"><ele>84.0</ele><time>2026-03-29T08:52:14Z</time></trkpt><trkpt lat="45.19020178282015" lon="9.156424413204325"><ele>84.0</ele><time>2026-03-29T08:52:16Z</time></trkpt><trkpt lat="45.19029020505859" lon="9.15644744762348"><ele>84.0</ele><time>2026-03-29T08:52:18Z</time></trkpt><trkpt lat="45.19038439139987" lon="9.156468216366894"><ele>84.0</ele><time>2026-03-29T08:52:20Z</time></trkpt><trkpt lat="45.19047886795861" lon="9.156492665835907"><ele>84.0</ele><time>2026-03-29T08:52:22Z</time></trkpt><trkpt lat="45.19057156878348" lon="9.156514959052902"><ele>84.0</ele><time>2026-03-29T08:52:24Z</time></trkpt><trkpt lat="45.190660999129314" lon="9.15653643429338"><ele>84.0</ele><time>2026-03-29T08:52:26Z</time></trkpt><trkpt lat="45.190747939104355" lon="9.156558297570168"><ele>84.0</ele><time>2026-03-29T08:52:28Z</time></trkpt><trkpt lat="45.19083577259384" lon="9.156584454115979"><ele>84.0</ele><time>2026-03-29T08:52:30Z</time></trkpt><trkpt lat="45.19092172200156" lon="9.156591261191357"><ele>84.0</ele><time>2026-03-29T08:52:32Z</time></trkpt><trkpt lat="45.191008306344436" lon="9.156617097844263"><ele>83.4</ele><time>2026-03-29T08:52:34Z</time></trkpt><trkpt lat="45.19110093785941" lon="9.156637505232965"><ele>82.80000000000001</ele><time>2026-03-29T08:52:36Z</time></trkpt><trkpt lat="45.19119126782972" lon="9.156657163696417"><ele>82.19999999999999</ele><time>2026-03-29T08:52:38Z</time></trkpt><trkpt lat="45.1912794155259" lon="9.15668640398626"><ele>81.6</ele><time>2026-03-29T08:52:40Z</time></trkpt><trkpt lat="45.19136932944002" lon="9.156706219713806"><ele>81.0</ele><time>2026-03-29T08:52:42Z</time></trkpt><trkpt lat="45.19145793961656" lon="9.156716911317774"><ele>81.6</ele><time>2026-03-29T08:52:44Z</time></trkpt><trkpt lat="45.19154964272193" lon="9.15671644276096"><ele>82.19999999999999</ele><time>2026-03-29T08:52:46Z</time></trkpt><trkpt lat="45.19164406564309" lon="9.15674201435915"><ele>82.80000000000001</ele><time>2026-03-29T08:52:48Z</time></trkpt><trkpt lat="45.19173966350199" lon="9.156766228390227"><ele>83.4</ele><time>2026-03-29T08:52:50Z</time></trkpt><trkpt lat="45.19183114225413" lon="9.156782870728485"><ele>84.0</ele><time>2026-03-29T08:52:52Z</time></trkpt><trkpt lat="45.19192267166443" lon="9.156796135014329"><ele>84.0</ele><time>2026-03-29T08:52:54Z</time></trkpt><trkpt lat="45.192012327651696" lon="9.156808977579363"><ele>84.0</ele><time>2026-03-29T08:52:56Z</time></trkpt><trkpt lat="45.19209914359193" lon="9.156821123132342"><ele>84.0</ele><time>2026-03-29T08:52:58Z</time></trkpt><trkpt lat="45.192187994866394" lon="9.156839429225746"><ele>84.0</ele><time>2026-03-29T08:53:00Z</time></trkpt><trkpt lat="45.192276310201514" lon="9.156856336700967"><ele>84.0</ele><time>2026-03-29T08:53:02Z</time></trkpt><trkpt lat="45.19236724242282" lon="9.156874056428292"><ele>84.0</ele><time>2026-03-29T08:53:04Z</time></trkpt><trkpt lat="45.192458967930115" lon="9.15690326321579"><ele>83.2</ele><time>2026-03-29T08:53:06Z</time></trkpt><trkpt lat="45.19254152719317" lon="9.156981754332119"><ele>82.4</ele><time>2026-03-29T08:53:08Z</time></trkpt><trkpt lat="45.19262028014937" lon="9.157054845583206"><ele>81.6</ele><time>2026-03-29T08:53:10Z</time></trkpt><trkpt lat="45.19272306614505" lon="9.157061477340173"><ele>80.8</ele><time>2026-03-29T08:53:12Z</time></trkpt><trkpt lat="45.192819016756054" lon="9.157005956366246"><ele>80.0</ele><time>2026-03-29T08:53:14Z</time></trkpt><trkpt lat="45.19290367343984" lon="9.156935359420196"><ele>80.0</ele><time>2026-03-29T08:53:16Z</time></trkpt><trkpt lat="45.19296641570335" lon="9.156958702545657"><ele>80.0</ele><time>2026-03-29T08:53:17Z</time></trkpt><trkpt lat="45.193063802303364" lon="9.156985911770603"><ele>80.0</ele><time>2026-03-29T08:53:19Z</time></trkpt><trkpt lat="45.19316047815657" lon="9.157002219002088"><ele>80.0</ele><time>2026-03-29T08:53:21Z</time></trkpt><trkpt lat="45.19325244319368" lon="9.157013053213992"><ele>80.0</ele><time>2026-03-29T08:53:23Z</time></trkpt><trkpt lat="45.193345452579216" lon="9.157031207771514"><ele>80.0</ele><time>2026-03-29T08:53:25Z</time></trkpt><trkpt lat="45.19344849535979" lon="9.157044410983112"><ele>80.2</ele><time>2026-03-29T08:53:27Z</time></trkpt><trkpt lat="45.1935368054798" lon="9.157066549544643"><ele>80.4</ele><time>2026-03-29T08:53:29Z</time></trkpt><trkpt lat="45.193633891488055" lon="9.157090954394903"><ele>80.6</ele><time>2026-03-29T08:53:31Z</time></trkpt><trkpt lat="45.19373255272684" lon="9.157118338647567"><ele>80.8</ele><time>2026-03-29T08:53:33Z</time></trkpt><trkpt lat="45.193831434932825" lon="9.157137759081516"><ele>81.0</ele><time>2026-03-29T08:53:35Z</time></trkpt><trkpt lat="45.193931085949515" lon="9.157162964399392"><ele>80.8</ele><time>2026-03-29T08:53:37Z</time></trkpt><trkpt lat="45.19403016449575" lon="9.157178105577401"><ele>80.6</ele><time>2026-03-29T08:53:39Z</time></trkpt><trkpt lat="45.19413463594303" lon="9.157207563285855"><ele>80.4</ele><time>2026-03-29T08:53:41Z</time></trkpt><trkpt lat="45.19423674917637" lon="9.157228182918944"><ele>80.2</ele><time>2026-03-29T08:53:43Z</time></trkpt><trkpt lat="45.194340973384264" lon="9.15724685488181"><ele>80.0</ele><time>2026-03-29T08:53:45Z</time></trkpt><trkpt lat="45.19444367298348" lon="9.157269588554803"><ele>80.0</ele><time>2026-03-29T08:53:47Z</time></trkpt><trkpt lat="45.194550305872916" lon="9.157291299070295"><ele>80.0</ele><time>2026-03-29T08:53:49Z</time></trkpt><trkpt lat="45.19465792022113" lon="9.157310955969912"><ele>80.0</ele><time>2026-03-29T08:53:51Z</time></trkpt><trkpt lat="45.19476276424446" lon="9.157329344967652"><ele>80.0</ele><time>2026-03-29T08:53:53Z</time></trkpt><trkpt lat="45.19486609640171" lon="9.157352227650687"><ele>80.0</ele><time>2026-03-29T08:53:55Z</time></trkpt><trkpt lat="45.194971025020294" lon="9.157366433669653"><ele>80.4</ele><time>2026-03-29T08:53:57Z</time></trkpt><trkpt lat="45.1950736548786" lon="9.157392958531798"><ele>80.8</ele><time>2026-03-29T08:53:59Z</time></trkpt><trkpt lat="45.19517928844687" lon="9.15741218263133"><ele>81.19999999999999</ele><time>2026-03-29T08:54:01Z</time></trkpt><trkpt lat="45.1952880393443" lon="9.157432325268461"><ele>81.6</ele><time>2026-03-29T08:54:03Z</time></trkpt><trkpt lat="45.19540006400217" lon="9.157456785089106"><ele>82.0</ele><time>2026-03-29T08:54:05Z</time></trkpt><trkpt lat="45.195519315031" lon="9.157481468575693"><ele>82.0</ele><time>2026-03-29T08:54:07Z</time></trkpt><trkpt lat="45.19563871436609" lon="9.157513744896237"><ele>82.0</ele><time>2026-03-29T08:54:09Z</time></trkpt><trkpt lat="45.19575707973958" lon="9.157536949715611"><ele>82.0</ele><time>2026-03-29T08:54:11Z</time></trkpt><trkpt lat="45.19587454999829" lon="9.157558886563159"><ele>82.0</ele><time>2026-03-29T08:54:13Z</time></trkpt><trkpt lat="45.1959951734229" lon="9.157582692689996"><ele>82.5</ele><time>2026-03-29T08:54:15Z</time></trkpt><trkpt lat="45.196114896457786" lon="9.157606578606092"><ele>83.0</ele><time>2026-03-29T08:54:17Z</time></trkpt><trkpt lat="45.19622842945" lon="9.157632918539163"><ele>83.5</ele><time>2026-03-29T08:54:19Z</time></trkpt><trkpt lat="45.19634111511681" lon="9.157655082150635"><ele>84.0</ele><time>2026-03-29T08:54:21Z</time></trkpt><trkpt lat="45.19645628659714" lon="9.157674280869662"><ele>83.6</ele><time>2026-03-29T08:54:23Z</time></trkpt><trkpt lat="45.196571752015025" lon="9.15769160873112"><ele>83.2</ele><time>2026-03-29T08:54:25Z</time></trkpt><trkpt lat="45.19668360577184" lon="9.157716842709162"><ele>82.8</ele><time>2026-03-29T08:54:27Z</time></trkpt><trkpt lat="45.196790777507104" lon="9.157746772214711"><ele>82.39999999999999</ele><time>2026-03-29T08:54:29Z</time></trkpt><trkpt lat="45.196895105586314" lon="9.157771782023328"><ele>82.0</ele><time>2026-03-29T08:54:31Z</time></trkpt><trkpt lat="45.19699514149821" lon="9.157776298240856"><ele>82.0</ele><time>2026-03-29T08:54:33Z</time></trkpt><trkpt lat="45.19710394021876" lon="9.157775111393539"><ele>82.0</ele><time>2026-03-29T08:54:35Z</time></trkpt><trkpt lat="45.19721920507599" lon="9.157746125493492"><ele>82.0</ele><time>2026-03-29T08:54:37Z</time></trkpt><trkpt lat="45.197297978608646" lon="9.157700019905008"><ele>82.0</ele><time>2026-03-29T08:54:39Z</time></trkpt><trkpt lat="45.197367602488576" lon="9.157656200250258"><ele>82.0</ele><time>2026-03-29T08:54:41Z</time></trkpt><trkpt lat="45.1974449217389" lon="9.157614027742499"><ele>81.66666666666666</ele><time>2026-03-29T08:54:44Z</time></trkpt><trkpt lat="45.19751169105779" lon="9.157579768358442"><ele>81.33333333333333</ele><time>2026-03-29T08:54:47Z</time></trkpt><trkpt lat="45.19749472619183" lon="9.157698143159012"><ele>81.0</ele><time>2026-03-29T08:54:55Z</time></trkpt><trkpt lat="45.19746140995681" lon="9.15779696273882"><ele>80.66666666666667</ele><time>2026-03-29T08:54:57Z</time></trkpt><trkpt lat="45.19749532109189" lon="9.15789465483793"><ele>80.33333333333334</ele><time>2026-03-29T08:54:59Z</time></trkpt><trkpt lat="45.19752094173042" lon="9.157979250951675"><ele>80.0</ele><time>2026-03-29T08:55:01Z</time></trkpt><trkpt lat="45.19761959463246" lon="9.157962016169654"><ele>80.0</ele><time>2026-03-29T08:55:04Z</time></trkpt><trkpt lat="45.197706605316405" lon="9.157898511441784"><ele>80.0</ele><time>2026-03-29T08:55:06Z</time></trkpt><trkpt lat="45.19785325643991" lon="9.157927655094623"><ele>80.0</ele><time>2026-03-29T08:55:08Z</time></trkpt><trkpt lat="45.19792460687832" lon="9.157847108259084"><ele>80.0</ele><time>2026-03-29T08:55:10Z</time></trkpt><trkpt lat="45.198000439348476" lon="9.15777680605857"><ele>80.0</ele><time>2026-03-29T08:55:12Z</time></trkpt><trkpt lat="45.19809302349518" lon="9.157717539932776"><ele>80.75</ele><time>2026-03-29T08:55:14Z</time></trkpt><trkpt lat="45.19819785311122" lon="9.157638739007952"><ele>81.5</ele><time>2026-03-29T08:55:16Z</time></trkpt><trkpt lat="45.19831069483845" lon="9.157575030095956"><ele>82.25</ele><time>2026-03-29T08:55:18Z</time></trkpt><trkpt lat="45.19842464746822" lon="9.157518923032633"><ele>83.0</ele><time>2026-03-29T08:55:20Z</time></trkpt><trkpt lat="45.19853922931031" lon="9.157461818604872"><ele>83.0</ele><time>2026-03-29T08:55:22Z</time></trkpt><trkpt lat="45.198655297190676" lon="9.15741364400409"><ele>83.0</ele><time>2026-03-29T08:55:24Z</time></trkpt><trkpt lat="45.19876877525288" lon="9.157379709195027"><ele>83.0</ele><time>2026-03-29T08:55:26Z</time></trkpt><trkpt lat="45.19886226813292" lon="9.157319697006848"><ele>83.0</ele><time>2026-03-29T08:55:28Z</time></trkpt><trkpt lat="45.19896595953275" lon="9.157259688365672"><ele>82.75</ele><time>2026-03-29T08:55:30Z</time></trkpt><trkpt lat="45.19907481476282" lon="9.157191449428629"><ele>82.5</ele><time>2026-03-29T08:55:32Z</time></trkpt><trkpt lat="45.199179383913815" lon="9.157122041694297"><ele>82.25</ele><time>2026-03-29T08:55:34Z</time></trkpt><trkpt lat="45.19928283215764" lon="9.157044881868092"><ele>82.0</ele><time>2026-03-29T08:55:36Z</time></trkpt><trkpt lat="45.19937918536238" lon="9.156965691084931"><ele>82.0</ele><time>2026-03-29T08:55:38Z</time></trkpt><trkpt lat="45.199473723443894" lon="9.156872322246599"><ele>82.0</ele><time>2026-03-29T08:55:40Z</time></trkpt><trkpt lat="45.199566286237825" lon="9.15677783899113"><ele>82.0</ele><time>2026-03-29T08:55:42Z</time></trkpt><trkpt lat="45.19965926382988" lon="9.156688932052342"><ele>82.0</ele><time>2026-03-29T08:55:44Z</time></trkpt><trkpt lat="45.19975143379103" lon="9.156600821202193"><ele>81.75</ele><time>2026-03-29T08:55:46Z</time></trkpt><trkpt lat="45.19985025549373" lon="9.156506616740957"><ele>81.5</ele><time>2026-03-29T08:55:48Z</time></trkpt><trkpt lat="45.19994897972395" lon="9.156412505213929"><ele>81.25</ele><time>2026-03-29T08:55:50Z</time></trkpt><trkpt lat="45.200051390936956" lon="9.156314724396468"><ele>81.0</ele><time>2026-03-29T08:55:52Z</time></trkpt><trkpt lat="45.200149516872976" lon="9.15621957583131"><ele>81.0</ele><time>2026-03-29T08:55:54Z</time></trkpt><trkpt lat="45.20024835572444" lon="9.156122243679947"><ele>81.0</ele><time>2026-03-29T08:55:56Z</time></trkpt><trkpt lat="45.20034731095531" lon="9.156023415003505"><ele>81.0</ele><time>2026-03-29T08:55:58Z</time></trkpt><trkpt lat="45.20044402124956" lon="9.155926828420636"><ele>81.0</ele><time>2026-03-29T08:56:00Z</time></trkpt><trkpt lat="45.20049625857099" lon="9.155874658076554"><ele>81.0</ele><time>2026-03-29T08:56:01Z</time></trkpt><trkpt lat="45.200591912313534" lon="9.1557791265696"><ele>81.5</ele><time>2026-03-29T08:56:03Z</time></trkpt><trkpt lat="45.200685244493066" lon="9.155685913807934"><ele>82.0</ele><time>2026-03-29T08:56:05Z</time></trkpt><trkpt lat="45.2007800922034" lon="9.155591187502134"><ele>82.5</ele><time>2026-03-29T08:56:07Z</time></trkpt><trkpt lat="45.20087561026113" lon="9.155495791636042"><ele>83.0</ele><time>2026-03-29T08:56:09Z</time></trkpt><trkpt lat="45.20097028389473" lon="9.155401240759275"><ele>83.0</ele><time>2026-03-29T08:56:11Z</time></trkpt><trkpt lat="45.201064165730955" lon="9.155307997076415"><ele>83.0</ele><time>2026-03-29T08:56:13Z</time></trkpt><trkpt lat="45.20115919243435" lon="9.155213667813754"><ele>83.0</ele><time>2026-03-29T08:56:15Z</time></trkpt><trkpt lat="45.20125385760075" lon="9.155119697436465"><ele>83.0</ele><time>2026-03-29T08:56:17Z</time></trkpt><trkpt lat="45.20135070364832" lon="9.155023562192088"><ele>83.0</ele><time>2026-03-29T08:56:19Z</time></trkpt><trkpt lat="45.2014441613111" lon="9.154930790457989"><ele>83.0</ele><time>2026-03-29T08:56:21Z</time></trkpt><trkpt lat="45.201539127884" lon="9.154836822525283"><ele>83.0</ele><time>2026-03-29T08:56:23Z</time></trkpt><trkpt lat="45.201631812040034" lon="9.154745218126797"><ele>83.0</ele><time>2026-03-29T08:56:25Z</time></trkpt><trkpt lat="45.201724186618605" lon="9.154653919695594"><ele>82.80000000000001</ele><time>2026-03-29T08:56:27Z</time></trkpt><trkpt lat="45.201811205877576" lon="9.15456771564656"><ele>82.6</ele><time>2026-03-29T08:56:29Z</time></trkpt><trkpt lat="45.20190362784108" lon="9.154475619632459"><ele>82.4</ele><time>2026-03-29T08:56:31Z</time></trkpt><trkpt lat="45.20199773791397" lon="9.154381841475296"><ele>82.19999999999999</ele><time>2026-03-29T08:56:33Z</time></trkpt><trkpt lat="45.20208930043496" lon="9.154290601889253"><ele>82.0</ele><time>2026-03-29T08:56:35Z</time></trkpt><trkpt lat="45.202182887236944" lon="9.154197345163388"><ele>82.0</ele><time>2026-03-29T08:56:37Z</time></trkpt><trkpt lat="45.202274030414436" lon="9.154106132345394"><ele>82.0</ele><time>2026-03-29T08:56:39Z</time></trkpt><trkpt lat="45.20236896631771" lon="9.154010931566761"><ele>82.0</ele><time>2026-03-29T08:56:41Z</time></trkpt><trkpt lat="45.202463291542216" lon="9.153916343190959"><ele>82.0</ele><time>2026-03-29T08:56:43Z</time></trkpt><trkpt lat="45.20254835590911" lon="9.153804873711698"><ele>81.8</ele><time>2026-03-29T08:56:45Z</time></trkpt><trkpt lat="45.20263460002261" lon="9.153717964019831"><ele>81.6</ele><time>2026-03-29T08:56:47Z</time></trkpt><trkpt lat="45.202709098853596" lon="9.153645686480406"><ele>81.39999999999999</ele><time>2026-03-29T08:56:49Z</time></trkpt><trkpt lat="45.202789585661364" lon="9.153589138370199"><ele>81.19999999999999</ele><time>2026-03-29T08:56:51Z</time></trkpt><trkpt lat="45.20288039337005" lon="9.153500737801396"><ele>81.0</ele><time>2026-03-29T08:56:53Z</time></trkpt><trkpt lat="45.202980781803674" lon="9.153402113502839"><ele>81.0</ele><time>2026-03-29T08:56:55Z</time></trkpt><trkpt lat="45.20303401786056" lon="9.153349812954744"><ele>81.0</ele><time>2026-03-29T08:56:56Z</time></trkpt><trkpt lat="45.20308853741969" lon="9.15329625148317"><ele>81.0</ele><time>2026-03-29T08:56:57Z</time></trkpt><trkpt lat="45.203140691060135" lon="9.153245014346673"><ele>81.0</ele><time>2026-03-29T08:56:58Z</time></trkpt><trkpt lat="45.20324299334203" lon="9.153144509822784"><ele>81.0</ele><time>2026-03-29T08:57:00Z</time></trkpt><trkpt lat="45.203343101010766" lon="9.15304616077647"><ele>81.0</ele><time>2026-03-29T08:57:02Z</time></trkpt><trkpt lat="45.203445009891354" lon="9.152944703762568"><ele>81.4</ele><time>2026-03-29T08:57:04Z</time></trkpt><trkpt lat="45.203540574855765" lon="9.152849990599542"><ele>81.8</ele><time>2026-03-29T08:57:06Z</time></trkpt><trkpt lat="45.20359264781048" lon="9.152798381774696"><ele>82.2</ele><time>2026-03-29T08:57:07Z</time></trkpt><trkpt lat="45.20368695950064" lon="9.15270339271378"><ele>82.60000000000001</ele><time>2026-03-29T08:57:09Z</time></trkpt><trkpt lat="45.20378589948291" lon="9.152602251063186"><ele>83.0</ele><time>2026-03-29T08:57:11Z</time></trkpt><trkpt lat="45.203817525823794" lon="9.152521281488795"><ele>83.0</ele><time>2026-03-29T08:57:12Z</time></trkpt><trkpt lat="45.20391503921762" lon="9.152420479499327"><ele>83.0</ele><time>2026-03-29T08:57:14Z</time></trkpt><trkpt lat="45.20397763082576" lon="9.152374907914126"><ele>83.0</ele><time>2026-03-29T08:57:15Z</time></trkpt><trkpt lat="45.20408830931044" lon="9.152291665133973"><ele>83.0</ele><time>2026-03-29T08:57:17Z</time></trkpt><trkpt lat="45.204145433838036" lon="9.152234658928057"><ele>83.0</ele><time>2026-03-29T08:57:18Z</time></trkpt><trkpt lat="45.2042083378782" lon="9.152172401599437"><ele>83.0</ele><time>2026-03-29T08:57:19Z</time></trkpt><trkpt lat="45.20426897327863" lon="9.152112389625827"><ele>83.0</ele><time>2026-03-29T08:57:20Z</time></trkpt><trkpt lat="45.20432958257158" lon="9.152052403472215"><ele>83.0</ele><time>2026-03-29T08:57:21Z</time></trkpt><trkpt lat="45.20438768045829" lon="9.151994902914247"><ele>83.0</ele><time>2026-03-29T08:57:22Z</time></trkpt><trkpt lat="45.20443238078887" lon="9.151913895570042"><ele>83.0</ele><time>2026-03-29T08:57:23Z</time></trkpt><trkpt lat="45.2044873307957" lon="9.151853841055946"><ele>83.0</ele><time>2026-03-29T08:57:24Z</time></trkpt><trkpt lat="45.204541430219045" lon="9.151792043780212"><ele>83.0</ele><time>2026-03-29T08:57:25Z</time></trkpt><trkpt lat="45.20459679398566" lon="9.151735139469046"><ele>83.0</ele><time>2026-03-29T08:57:26Z</time></trkpt><trkpt lat="45.204652686345" lon="9.1516803353836"><ele>83.0</ele><time>2026-03-29T08:57:27Z</time></trkpt><trkpt lat="45.20471052958947" lon="9.151626124121746"><ele>83.0</ele><time>2026-03-29T08:57:28Z</time></trkpt><trkpt lat="45.204762519907945" lon="9.151574716863404"><ele>83.0</ele><time>2026-03-29T08:57:29Z</time></trkpt><trkpt lat="45.2048141183931" lon="9.1515229591845"><ele>83.0</ele><time>2026-03-29T08:57:30Z</time></trkpt><trkpt lat="45.20488247016634" lon="9.151506035477604"><ele>83.0</ele><time>2026-03-29T08:57:31Z</time></trkpt><trkpt lat="45.20497660131333" lon="9.151411889167091"><ele>83.0</ele><time>2026-03-29T08:57:33Z</time></trkpt><trkpt lat="45.2050526411741" lon="9.151335286044777"><ele>82.66666666666667</ele><time>2026-03-29T08:57:35Z</time></trkpt><trkpt lat="45.20510731124841" lon="9.151280210996758"><ele>82.33333333333334</ele><time>2026-03-29T08:57:37Z</time></trkpt><trkpt lat="45.205176424757965" lon="9.151241576970712"><ele>82.0</ele><time>2026-03-29T08:57:41Z</time></trkpt><trkpt lat="45.20512582743756" lon="9.15134746827919"><ele>81.66666666666667</ele><time>2026-03-29T08:57:49Z</time></trkpt><trkpt lat="45.20519424461461" lon="9.151443832812191"><ele>81.33333333333333</ele><time>2026-03-29T08:57:52Z</time></trkpt><trkpt lat="45.20527742869923" lon="9.15139228204474"><ele>81.0</ele><time>2026-03-29T08:57:54Z</time></trkpt><trkpt lat="45.20534898431461" lon="9.151301250820657"><ele>81.0</ele><time>2026-03-29T08:57:56Z</time></trkpt><trkpt lat="45.2054377568755" lon="9.151237864969053"><ele>81.0</ele><time>2026-03-29T08:57:58Z</time></trkpt><trkpt lat="45.20552668952327" lon="9.151161385265866"><ele>81.0</ele><time>2026-03-29T08:58:00Z</time></trkpt><trkpt lat="45.20561247952292" lon="9.151073499593961"><ele>81.0</ele><time>2026-03-29T08:58:02Z</time></trkpt><trkpt lat="45.20569542934887" lon="9.150975069512322"><ele>81.0</ele><time>2026-03-29T08:58:04Z</time></trkpt><trkpt lat="45.2057748878528" lon="9.15086852673495"><ele>81.0</ele><time>2026-03-29T08:58:06Z</time></trkpt><trkpt lat="45.2058648214067" lon="9.150771698777131"><ele>81.0</ele><time>2026-03-29T08:58:08Z</time></trkpt><trkpt lat="45.20595678852914" lon="9.150686934898348"><ele>81.0</ele><time>2026-03-29T08:58:10Z</time></trkpt><trkpt lat="45.206043786931694" lon="9.150589192193356"><ele>81.0</ele><time>2026-03-29T08:58:12Z</time></trkpt><trkpt lat="45.20612533358007" lon="9.150504343176294"><ele>81.0</ele><time>2026-03-29T08:58:14Z</time></trkpt><trkpt lat="45.206204521369514" lon="9.150414797187738"><ele>81.0</ele><time>2026-03-29T08:58:16Z</time></trkpt><trkpt lat="45.20627769941157" lon="9.15035670975915"><ele>81.0</ele><time>2026-03-29T08:58:18Z</time></trkpt><trkpt lat="45.20634995332114" lon="9.150287593862576"><ele>81.0</ele><time>2026-03-29T08:58:20Z</time></trkpt><trkpt lat="45.206438585563234" lon="9.150245011293318"><ele>81.0</ele><time>2026-03-29T08:58:22Z</time></trkpt><trkpt lat="45.206511939637416" lon="9.15020289735252"><ele>81.0</ele><time>2026-03-29T08:58:24Z</time></trkpt><trkpt lat="45.206588437391225" lon="9.15013240896039"><ele>81.0</ele><time>2026-03-29T08:58:26Z</time></trkpt><trkpt lat="45.206676730852976" lon="9.150231569170767"><ele>80.8</ele><time>2026-03-29T08:58:27Z</time></trkpt><trkpt lat="45.206776676142844" lon="9.150264136509826"><ele>80.6</ele><time>2026-03-29T08:58:29Z</time></trkpt><trkpt lat="45.20687299638333" lon="9.150262350613646"><ele>80.4</ele><time>2026-03-29T08:58:31Z</time></trkpt><trkpt lat="45.20696702425284" lon="9.150268084696014"><ele>80.2</ele><time>2026-03-29T08:58:33Z</time></trkpt><trkpt lat="45.2070619922785" lon="9.150275673925211"><ele>80.0</ele><time>2026-03-29T08:58:35Z</time></trkpt><trkpt lat="45.20714318695887" lon="9.15028513699909"><ele>80.0</ele><time>2026-03-29T08:58:37Z</time></trkpt><trkpt lat="45.207226043202304" lon="9.150289831906568"><ele>80.0</ele><time>2026-03-29T08:58:39Z</time></trkpt><trkpt lat="45.20730247201693" lon="9.15032774290656"><ele>80.0</ele><time>2026-03-29T08:58:41Z</time></trkpt><trkpt lat="45.20737911620627" lon="9.150343148012384"><ele>80.0</ele><time>2026-03-29T08:58:43Z</time></trkpt><trkpt lat="45.207480334705004" lon="9.150343855190915"><ele>80.0</ele><time>2026-03-29T08:58:45Z</time></trkpt><trkpt lat="45.20755565142381" lon="9.150387620350182"><ele>80.0</ele><time>2026-03-29T08:58:47Z</time></trkpt><trkpt lat="45.20762913333107" lon="9.15037485727825"><ele>80.16666666666667</ele><time>2026-03-29T08:58:49Z</time></trkpt><trkpt lat="45.207676510253" lon="9.150435693548202"><ele>80.33333333333334</ele><time>2026-03-29T08:59:00Z</time></trkpt><trkpt lat="45.20773787217258" lon="9.150530837140156"><ele>80.5</ele><time>2026-03-29T08:59:05Z</time></trkpt><trkpt lat="45.20779034745953" lon="9.15061597757181"><ele>80.66666666666667</ele><time>2026-03-29T08:59:07Z</time></trkpt><trkpt lat="45.20785696607679" lon="9.150697280403177"><ele>80.83333333333333</ele><time>2026-03-29T08:59:09Z</time></trkpt><trkpt lat="45.20792800202557" lon="9.150773826983098"><ele>81.0</ele><time>2026-03-29T08:59:11Z</time></trkpt><trkpt lat="45.208020578458296" lon="9.150824153481967"><ele>81.0</ele><time>2026-03-29T08:59:13Z</time></trkpt><trkpt lat="45.20811741893415" lon="9.15080899837477"><ele>81.0</ele><time>2026-03-29T08:59:15Z</time></trkpt><trkpt lat="45.20820411191601" lon="9.150793175408284"><ele>81.0</ele><time>2026-03-29T08:59:17Z</time></trkpt><trkpt lat="45.2082667520401" lon="9.150709080328015"><ele>81.0</ele><time>2026-03-29T08:59:19Z</time></trkpt><trkpt lat="45.20834035339641" lon="9.150650423552914"><ele>81.0</ele><time>2026-03-29T08:59:21Z</time></trkpt><trkpt lat="45.20840649839645" lon="9.15055660014797"><ele>81.0</ele><time>2026-03-29T08:59:23Z</time></trkpt><trkpt lat="45.20848006435892" lon="9.150481419833119"><ele>81.0</ele><time>2026-03-29T08:59:25Z</time></trkpt><trkpt lat="45.208556842009706" lon="9.15041329046511"><ele>81.0</ele><time>2026-03-29T08:59:27Z</time></trkpt><trkpt lat="45.20862996392695" lon="9.150337649320669"><ele>81.0</ele><time>2026-03-29T08:59:29Z</time></trkpt><trkpt lat="45.20871392347938" lon="9.15029204944233"><ele>81.0</ele><time>2026-03-29T08:59:31Z</time></trkpt><trkpt lat="45.20880370890832" lon="9.15025661801677"><ele>81.0</ele><time>2026-03-29T08:59:33Z</time></trkpt><trkpt lat="45.20890062578664" lon="9.150265995661186"><ele>81.0</ele><time>2026-03-29T08:59:35Z</time></trkpt><trkpt lat="45.208989754711844" lon="9.150282527486434"><ele>81.0</ele><time>2026-03-29T08:59:37Z</time></trkpt><trkpt lat="45.209076877747414" lon="9.150280824493239"><ele>81.0</ele><time>2026-03-29T08:59:39Z</time></trkpt><trkpt lat="45.20916252246497" lon="9.150288223855"><ele>81.0</ele><time>2026-03-29T08:59:41Z</time></trkpt><trkpt lat="45.20924898874057" lon="9.150317520085569"><ele>81.0</ele><time>2026-03-29T08:59:43Z</time></trkpt><trkpt lat="45.20935026243769" lon="9.150300996609849"><ele>81.0</ele><time>2026-03-29T08:59:45Z</time></trkpt><trkpt lat="45.209442204033785" lon="9.1503300728037"><ele>81.0</ele><time>2026-03-29T08:59:47Z</time></trkpt><trkpt lat="45.20954318761274" lon="9.150340603480792"><ele>81.0</ele><time>2026-03-29T08:59:49Z</time></trkpt><trkpt lat="45.20964382345578" lon="9.150346020946985"><ele>81.0</ele><time>2026-03-29T08:59:51Z</time></trkpt><trkpt lat="45.20974585340465" lon="9.150360909133733"><ele>81.0</ele><time>2026-03-29T08:59:53Z</time></trkpt><trkpt lat="45.209838820582796" lon="9.15036106721207"><ele>80.83333333333333</ele><time>2026-03-29T08:59:55Z</time></trkpt><trkpt lat="45.209928400049904" lon="9.150367057837222"><ele>80.66666666666667</ele><time>2026-03-29T08:59:57Z</time></trkpt><trkpt lat="45.21001763547106" lon="9.15038504159976"><ele>80.5</ele><time>2026-03-29T08:59:59Z</time></trkpt><trkpt lat="45.210110304123646" lon="9.150386613930168"><ele>80.33333333333334</ele><time>2026-03-29T09:00:01Z</time></trkpt><trkpt lat="45.21019819648689" lon="9.15039726927544"><ele>80.16666666666667</ele><time>2026-03-29T09:00:03Z</time></trkpt><trkpt lat="45.21028102149262" lon="9.150393026502636"><ele>80.0</ele><time>2026-03-29T09:00:05Z</time></trkpt><trkpt lat="45.21036862697612" lon="9.150397609671412"><ele>80.0</ele><time>2026-03-29T09:00:07Z</time></trkpt><trkpt lat="45.21046492200021" lon="9.150408118293132"><ele>80.0</ele><time>2026-03-29T09:00:09Z</time></trkpt><trkpt lat="45.21055291041208" lon="9.150409983070979"><ele>80.0</ele><time>2026-03-29T09:00:11Z</time></trkpt><trkpt lat="45.21064916988581" lon="9.150423003100899"><ele>80.0</ele><time>2026-03-29T09:00:13Z</time></trkpt><trkpt lat="45.210739866533544" lon="9.150433127267824"><ele>80.0</ele><time>2026-03-29T09:00:15Z</time></trkpt><trkpt lat="45.210829829211946" lon="9.150442058377863"><ele>80.4</ele><time>2026-03-29T09:00:17Z</time></trkpt><trkpt lat="45.210922029226026" lon="9.150439485686436"><ele>80.8</ele><time>2026-03-29T09:00:19Z</time></trkpt><trkpt lat="45.2110117183815" lon="9.150452842556495"><ele>81.19999999999999</ele><time>2026-03-29T09:00:21Z</time></trkpt><trkpt lat="45.21111117796183" lon="9.150461238679735"><ele>81.6</ele><time>2026-03-29T09:00:23Z</time></trkpt><trkpt lat="45.21120383082656" lon="9.15045738587495"><ele>82.0</ele><time>2026-03-29T09:00:25Z</time></trkpt><trkpt lat="45.211288786430586" lon="9.15046943970512"><ele>82.0</ele><time>2026-03-29T09:00:27Z</time></trkpt><trkpt lat="45.21138476135896" lon="9.150482240553126"><ele>82.0</ele><time>2026-03-29T09:00:29Z</time></trkpt><trkpt lat="45.21148708266668" lon="9.15046191051433"><ele>82.0</ele><time>2026-03-29T09:00:31Z</time></trkpt><trkpt lat="45.211573824423" lon="9.15050968548103"><ele>82.0</ele><time>2026-03-29T09:00:33Z</time></trkpt><trkpt lat="45.21167772868624" lon="9.15050949441011"><ele>82.0</ele><time>2026-03-29T09:00:35Z</time></trkpt><trkpt lat="45.21176447748894" lon="9.150508213935298"><ele>82.0</ele><time>2026-03-29T09:00:37Z</time></trkpt><trkpt lat="45.211848179281134" lon="9.150518379175317"><ele>82.0</ele><time>2026-03-29T09:00:39Z</time></trkpt><trkpt lat="45.21192967771642" lon="9.150530357459514"><ele>82.0</ele><time>2026-03-29T09:00:41Z</time></trkpt><trkpt lat="45.212054210876296" lon="9.150468200793265"><ele>82.0</ele><time>2026-03-29T09:00:43Z</time></trkpt><trkpt lat="45.21212207995927" lon="9.150528779919266"><ele>82.0</ele><time>2026-03-29T09:00:45Z</time></trkpt><trkpt lat="45.212210332957156" lon="9.150538515831718"><ele>81.99999999999999</ele><time>2026-03-29T09:00:47Z</time></trkpt><trkpt lat="45.2122847097081" lon="9.1505491945492"><ele>82.0</ele><time>2026-03-29T09:00:49Z</time></trkpt><trkpt lat="45.21234752952471" lon="9.150559411032239"><ele>82.0</ele><time>2026-03-29T09:00:51Z</time></trkpt><trkpt lat="45.21242646453345" lon="9.150565981494971"><ele>82.0</ele><time>2026-03-29T09:00:53Z</time></trkpt><trkpt lat="45.21250637161641" lon="9.150578799646514"><ele>82.0</ele><time>2026-03-29T09:00:55Z</time></trkpt><trkpt lat="45.21259354111725" lon="9.150588992960092"><ele>81.99999999999999</ele><time>2026-03-29T09:00:57Z</time></trkpt><trkpt lat="45.21265712004786" lon="9.150600183438408"><ele>82.0</ele><time>2026-03-29T09:00:59Z</time></trkpt><trkpt lat="45.212721013497266" lon="9.150604974338794"><ele>82.0</ele><time>2026-03-29T09:01:00Z</time></trkpt><trkpt lat="45.21281881050566" lon="9.150601652192458"><ele>82.0</ele><time>2026-03-29T09:01:02Z</time></trkpt><trkpt lat="45.212915359495746" lon="9.150613028148207"><ele>82.0</ele><time>2026-03-29T09:01:04Z</time></trkpt><trkpt lat="45.21300887056307" lon="9.150629698195802"><ele>82.0</ele><time>2026-03-29T09:01:06Z</time></trkpt><trkpt lat="45.213106163079956" lon="9.150630121355103"><ele>82.0</ele><time>2026-03-29T09:01:08Z</time></trkpt><trkpt lat="45.21319100979491" lon="9.150641921324254"><ele>82.0</ele><time>2026-03-29T09:01:10Z</time></trkpt><trkpt lat="45.213285218841534" lon="9.150654641698408"><ele>82.0</ele><time>2026-03-29T09:01:12Z</time></trkpt><trkpt lat="45.21337573402921" lon="9.15066067246656"><ele>82.0</ele><time>2026-03-29T09:01:14Z</time></trkpt><trkpt lat="45.213464663665754" lon="9.150665672806937"><ele>82.0</ele><time>2026-03-29T09:01:16Z</time></trkpt><trkpt lat="45.213559514114074" lon="9.150678257497924"><ele>82.0</ele><time>2026-03-29T09:01:18Z</time></trkpt><trkpt lat="45.21365164091584" lon="9.150684375204975"><ele>82.0</ele><time>2026-03-29T09:01:20Z</time></trkpt><trkpt lat="45.213748392018495" lon="9.150691023936545"><ele>82.0</ele><time>2026-03-29T09:01:22Z</time></trkpt><trkpt lat="45.21384686121206" lon="9.150697454441108"><ele>82.0</ele><time>2026-03-29T09:01:24Z</time></trkpt><trkpt lat="45.213938026844964" lon="9.15070895346101"><ele>82.0</ele><time>2026-03-29T09:01:26Z</time></trkpt><trkpt lat="45.214033221801664" lon="9.15072557859992"><ele>82.0</ele><time>2026-03-29T09:01:28Z</time></trkpt><trkpt lat="45.21412471525412" lon="9.15074318668642"><ele>82.19999999999999</ele><time>2026-03-29T09:01:30Z</time></trkpt><trkpt lat="45.214216808446324" lon="9.150760745041357"><ele>82.4</ele><time>2026-03-29T09:01:32Z</time></trkpt><trkpt lat="45.21430011427321" lon="9.150772960286606"><ele>82.6</ele><time>2026-03-29T09:01:34Z</time></trkpt><trkpt lat="45.214397615144364" lon="9.150785606875765"><ele>82.80000000000001</ele><time>2026-03-29T09:01:36Z</time></trkpt><trkpt lat="45.214498569760785" lon="9.150777530857704"><ele>83.0</ele><time>2026-03-29T09:01:38Z</time></trkpt><trkpt lat="45.21459515892667" lon="9.150782701317596"><ele>83.0</ele><time>2026-03-29T09:01:40Z</time></trkpt><trkpt lat="45.21468897395098" lon="9.150794275383786"><ele>83.0</ele><time>2026-03-29T09:01:42Z</time></trkpt><trkpt lat="45.214781140947885" lon="9.1508003656678"><ele>83.0</ele><time>2026-03-29T09:01:44Z</time></trkpt><trkpt lat="45.21487093571992" lon="9.15080368078809"><ele>83.0</ele><time>2026-03-29T09:01:46Z</time></trkpt><trkpt lat="45.214958745971124" lon="9.150812328850646"><ele>83.0</ele><time>2026-03-29T09:01:48Z</time></trkpt><trkpt lat="45.21504852638612" lon="9.150823659244507"><ele>82.83333333333334</ele><time>2026-03-29T09:01:50Z</time></trkpt><trkpt lat="45.215156033784076" lon="9.150838405897035"><ele>82.66666666666667</ele><time>2026-03-29T09:01:52Z</time></trkpt><trkpt lat="45.215250638742766" lon="9.150850454890879"><ele>82.5</ele><time>2026-03-29T09:01:54Z</time></trkpt><trkpt lat="45.21534332245582" lon="9.15086511845364"><ele>82.33333333333333</ele><time>2026-03-29T09:01:56Z</time></trkpt><trkpt lat="45.21542336857178" lon="9.150876707356208"><ele>82.16666666666666</ele><time>2026-03-29T09:01:58Z</time></trkpt><trkpt lat="45.21548913156312" lon="9.150897017861306"><ele>82.0</ele><time>2026-03-29T09:02:00Z</time></trkpt><trkpt lat="45.21555721460817" lon="9.150896906425679"><ele>82.0</ele><time>2026-03-29T09:02:02Z</time></trkpt><trkpt lat="45.2156277518574" lon="9.150913149376526"><ele>82.0</ele><time>2026-03-29T09:02:04Z</time></trkpt><trkpt lat="45.21571440896674" lon="9.150885394379488"><ele>82.0</ele><time>2026-03-29T09:02:07Z</time></trkpt><trkpt lat="45.21580132014756" lon="9.150908655136076"><ele>82.0</ele><time>2026-03-29T09:02:10Z</time></trkpt><trkpt lat="45.21586531860911" lon="9.150922319321088"><ele>82.0</ele><time>2026-03-29T09:02:12Z</time></trkpt><trkpt lat="45.21593249980228" lon="9.150935155766225"><ele>82.0</ele><time>2026-03-29T09:02:14Z</time></trkpt><trkpt lat="45.21601917167702" lon="9.150939637288559"><ele>82.16666666666666</ele><time>2026-03-29T09:02:16Z</time></trkpt><trkpt lat="45.21609428951697" lon="9.150954128350378"><ele>82.33333333333333</ele><time>2026-03-29T09:02:18Z</time></trkpt><trkpt lat="45.21616314975538" lon="9.150955671027367"><ele>82.5</ele><time>2026-03-29T09:02:20Z</time></trkpt><trkpt lat="45.21623202446304" lon="9.150952616667688"><ele>82.66666666666667</ele><time>2026-03-29T09:02:22Z</time></trkpt><trkpt lat="45.21630138301797" lon="9.150947925251051"><ele>82.83333333333334</ele><time>2026-03-29T09:02:24Z</time></trkpt><trkpt lat="45.21638365650889" lon="9.150972370841966"><ele>83.0</ele><time>2026-03-29T09:02:26Z</time></trkpt><trkpt lat="45.21646985371545" lon="9.150983768392415"><ele>82.80000000000001</ele><time>2026-03-29T09:02:28Z</time></trkpt><trkpt lat="45.2165580603406" lon="9.15098941350105"><ele>82.6</ele><time>2026-03-29T09:02:30Z</time></trkpt><trkpt lat="45.216645717699045" lon="9.150993104783293"><ele>82.4</ele><time>2026-03-29T09:02:32Z</time></trkpt><trkpt lat="45.216735260433495" lon="9.150999446469857"><ele>82.19999999999999</ele><time>2026-03-29T09:02:34Z</time></trkpt><trkpt lat="45.21682455372537" lon="9.15100753153698"><ele>82.0</ele><time>2026-03-29T09:02:36Z</time></trkpt><trkpt lat="45.21692042351576" lon="9.151010806790392"><ele>82.0</ele><time>2026-03-29T09:02:38Z</time></trkpt><trkpt lat="45.21701202401893" lon="9.151022496951095"><ele>82.0</ele><time>2026-03-29T09:02:40Z</time></trkpt><trkpt lat="45.21710124444101" lon="9.151030188180028"><ele>82.0</ele><time>2026-03-29T09:02:42Z</time></trkpt><trkpt lat="45.2171835948999" lon="9.1510248151507"><ele>82.0</ele><time>2026-03-29T09:02:44Z</time></trkpt><trkpt lat="45.21726159055134" lon="9.151026702250732"><ele>82.0</ele><time>2026-03-29T09:02:46Z</time></trkpt><trkpt lat="45.217360807583276" lon="9.151038378598235"><ele>82.0</ele><time>2026-03-29T09:02:48Z</time></trkpt><trkpt lat="45.217446716871486" lon="9.151049682181467"><ele>82.14285714285714</ele><time>2026-03-29T09:02:50Z</time></trkpt><trkpt lat="45.21751365449456" lon="9.151064726010805"><ele>82.28571428571428</ele><time>2026-03-29T09:02:52Z</time></trkpt><trkpt lat="45.21757914765651" lon="9.151073468016262"><ele>82.42857142857142</ele><time>2026-03-29T09:02:54Z</time></trkpt><trkpt lat="45.21764978783658" lon="9.151092634975608"><ele>82.57142857142857</ele><time>2026-03-29T09:03:31Z</time></trkpt><trkpt lat="45.21771070381967" lon="9.151130252180922"><ele>82.71428571428572</ele><time>2026-03-29T09:03:34.999Z</time></trkpt><trkpt lat="45.21778286623148" lon="9.151161834054925"><ele>82.85714285714285</ele><time>2026-03-29T09:03:38.999Z</time></trkpt><trkpt lat="45.21785317458895" lon="9.151166354783339"><ele>83.0</ele><time>2026-03-29T09:03:43.999Z</time></trkpt><trkpt lat="45.217883048230426" lon="9.15107927422075"><ele>83.0</ele><time>2026-03-29T09:04:05Z</time></trkpt><trkpt lat="45.217831453247236" lon="9.151145519512662"><ele>83.0</ele><time>2026-03-29T09:04:23Z</time></trkpt><trkpt lat="45.21775814313393" lon="9.151135096897217"><ele>83.0</ele><time>2026-03-29T09:04:29Z</time></trkpt><trkpt lat="45.217691888833514" lon="9.151102289804115"><ele>83.0</ele><time>2026-03-29T09:04:35Z</time></trkpt><trkpt lat="45.21764739023431" lon="9.151027838788096"><ele>83.0</ele><time>2026-03-29T09:04:43Z</time></trkpt><trkpt lat="45.2176675721666" lon="9.151112823720611"><ele>83.0</ele><time>2026-03-29T09:05:49.999Z</time></trkpt><trkpt lat="45.21765987663893" lon="9.15121523534865"><ele>83.0</ele><time>2026-03-29T09:05:52.999Z</time></trkpt><trkpt lat="45.217634493666836" lon="9.151324954784187"><ele>83.0</ele><time>2026-03-29T09:05:54.999Z</time></trkpt><trkpt lat="45.21761286972825" lon="9.151413970303791"><ele>83.0</ele><time>2026-03-29T09:05:56.999Z</time></trkpt><trkpt lat="45.21759195724035" lon="9.151507680068889"><ele>83.0</ele><time>2026-03-29T09:05:58.999Z</time></trkpt><trkpt lat="45.21755754605927" lon="9.151617286706008"><ele>83.0</ele><time>2026-03-29T09:06:00.999Z</time></trkpt><trkpt lat="45.21752369294932" lon="9.151728962393422"><ele>83.0</ele><time>2026-03-29T09:06:02.999Z</time></trkpt><trkpt lat="45.217488906727546" lon="9.151834136717756"><ele>83.0</ele><time>2026-03-29T09:06:04.999Z</time></trkpt><trkpt lat="45.21746865102743" lon="9.151942732285207"><ele>83.16666666666667</ele><time>2026-03-29T09:06:06.999Z</time></trkpt><trkpt lat="45.217453032088635" lon="9.15206226725269"><ele>83.33333333333334</ele><time>2026-03-29T09:06:08.999Z</time></trkpt><trkpt lat="45.217410962328934" lon="9.152162150640711"><ele>83.5</ele><time>2026-03-29T09:06:10.999Z</time></trkpt><trkpt lat="45.21738486919406" lon="9.152275012832582"><ele>83.66666666666667</ele><time>2026-03-29T09:06:12.999Z</time></trkpt><trkpt lat="45.21735906526452" lon="9.152387207777696"><ele>83.83333333333333</ele><time>2026-03-29T09:06:14.999Z</time></trkpt><trkpt lat="45.217333043494015" lon="9.15249505229223"><ele>84.0</ele><time>2026-03-29T09:06:16.999Z</time></trkpt><trkpt lat="45.217304143054776" lon="9.152603187735053"><ele>83.83333333333333</ele><time>2026-03-29T09:06:18.999Z</time></trkpt><trkpt lat="45.21726490231788" lon="9.152707365061541"><ele>83.66666666666667</ele><time>2026-03-29T09:06:20.999Z</time></trkpt><trkpt lat="45.21723814576275" lon="9.152816568017093"><ele>83.5</ele><time>2026-03-29T09:06:22.999Z</time></trkpt><trkpt lat="45.217210216137616" lon="9.152923858103872"><ele>83.33333333333334</ele><time>2026-03-29T09:06:24.999Z</time></trkpt><trkpt lat="45.21718373204094" lon="9.153036807321232"><ele>83.16666666666667</ele><time>2026-03-29T09:06:27Z</time></trkpt><trkpt lat="45.21715211764145" lon="9.153142233919166"><ele>83.0</ele><time>2026-03-29T09:06:29Z</time></trkpt><trkpt lat="45.21712741752725" lon="9.15324986412633"><ele>83.0</ele><time>2026-03-29T09:06:31Z</time></trkpt><trkpt lat="45.21710511691561" lon="9.153362534574562"><ele>83.0</ele><time>2026-03-29T09:06:33Z</time></trkpt><trkpt lat="45.21707497003463" lon="9.15347306261546"><ele>83.0</ele><time>2026-03-29T09:06:35Z</time></trkpt><trkpt lat="45.217050847621465" lon="9.153586007539424"><ele>83.0</ele><time>2026-03-29T09:06:37Z</time></trkpt><trkpt lat="45.21702756898274" lon="9.153704079735462"><ele>83.0</ele><time>2026-03-29T09:06:39Z</time></trkpt><trkpt lat="45.2169867266021" lon="9.153815878652116"><ele>83.0</ele><time>2026-03-29T09:06:41Z</time></trkpt><trkpt lat="45.21697253261303" lon="9.153939470300728"><ele>82.66666666666667</ele><time>2026-03-29T09:06:43Z</time></trkpt><trkpt lat="45.21694346831524" lon="9.15405345149225"><ele>82.33333333333334</ele><time>2026-03-29T09:06:45Z</time></trkpt><trkpt lat="45.216918851258214" lon="9.154153730583605"><ele>82.0</ele><time>2026-03-29T09:06:47Z</time></trkpt><trkpt lat="45.216894495337" lon="9.154248745877835"><ele>81.66666666666667</ele><time>2026-03-29T09:06:49Z</time></trkpt><trkpt lat="45.21687725917513" lon="9.15433495639938"><ele>81.33333333333333</ele><time>2026-03-29T09:06:51Z</time></trkpt><trkpt lat="45.21684161218051" lon="9.154453309645472"><ele>81.0</ele><time>2026-03-29T09:06:54Z</time></trkpt><trkpt lat="45.216828132642064" lon="9.154545413304236"><ele>81.0</ele><time>2026-03-29T09:06:56Z</time></trkpt><trkpt lat="45.216803451806726" lon="9.154636507379273"><ele>81.0</ele><time>2026-03-29T09:06:58Z</time></trkpt><trkpt lat="45.21678252287477" lon="9.154724258470043"><ele>81.0</ele><time>2026-03-29T09:07:00Z</time></trkpt><trkpt lat="45.21676241205712" lon="9.15482457815197"><ele>81.0</ele><time>2026-03-29T09:07:02Z</time></trkpt><trkpt lat="45.21674387687103" lon="9.154915358111431"><ele>81.0</ele><time>2026-03-29T09:07:04Z</time></trkpt><trkpt lat="45.21672645043991" lon="9.155013463644366"><ele>81.0</ele><time>2026-03-29T09:07:06Z</time></trkpt><trkpt lat="45.21669736521969" lon="9.155094589688032"><ele>81.0</ele><time>2026-03-29T09:07:08Z</time></trkpt><trkpt lat="45.21667919423286" lon="9.15518808755262"><ele>81.33333333333333</ele><time>2026-03-29T09:07:10Z</time></trkpt><trkpt lat="45.216670438533896" lon="9.155285935933872"><ele>81.66666666666667</ele><time>2026-03-29T09:07:12Z</time></trkpt><trkpt lat="45.21665138947057" lon="9.155392160616199"><ele>82.0</ele><time>2026-03-29T09:07:14Z</time></trkpt><trkpt lat="45.216628816480316" lon="9.155491959405206"><ele>82.33333333333334</ele><time>2026-03-29T09:07:16Z</time></trkpt><trkpt lat="45.21660373134122" lon="9.155596850826411"><ele>82.66666666666667</ele><time>2026-03-29T09:07:18Z</time></trkpt><trkpt lat="45.21658433803246" lon="9.15570250769131"><ele>83.0</ele><time>2026-03-29T09:07:20.001Z</time></trkpt><trkpt lat="45.216558101968005" lon="9.155801950091643"><ele>83.0</ele><time>2026-03-29T09:07:22.001Z</time></trkpt><trkpt lat="45.216537683277174" lon="9.155893228700757"><ele>83.0</ele><time>2026-03-29T09:07:24.001Z</time></trkpt><trkpt lat="45.21650643015034" lon="9.156017451521233"><ele>83.0</ele><time>2026-03-29T09:07:27.001Z</time></trkpt><trkpt lat="45.21648883051127" lon="9.156105894619584"><ele>83.0</ele><time>2026-03-29T09:07:29.001Z</time></trkpt><trkpt lat="45.21645927571351" lon="9.156198913906193"><ele>83.0</ele><time>2026-03-29T09:07:31.001Z</time></trkpt><trkpt lat="45.21644194376705" lon="9.15630672472263"><ele>83.0</ele><time>2026-03-29T09:07:33.001Z</time></trkpt><trkpt lat="45.21641680905631" lon="9.156416918513193"><ele>83.0</ele><time>2026-03-29T09:07:35.001Z</time></trkpt><trkpt lat="45.21638800978212" lon="9.156525997654287"><ele>83.0</ele><time>2026-03-29T09:07:37.001Z</time></trkpt><trkpt lat="45.21636405009769" lon="9.156616269770275"><ele>83.0</ele><time>2026-03-29T09:07:39.001Z</time></trkpt><trkpt lat="45.21634589787503" lon="9.156702022964275"><ele>83.0</ele><time>2026-03-29T09:07:41Z</time></trkpt><trkpt lat="45.216317309423786" lon="9.156819702124388"><ele>83.0</ele><time>2026-03-29T09:07:44Z</time></trkpt><trkpt lat="45.21629528774291" lon="9.156910232094448"><ele>83.0</ele><time>2026-03-29T09:07:46Z</time></trkpt><trkpt lat="45.21626613006864" lon="9.157022163951035"><ele>83.0</ele><time>2026-03-29T09:07:49Z</time></trkpt><trkpt lat="45.216234118730156" lon="9.157139355919869"><ele>83.0</ele><time>2026-03-29T09:07:52Z</time></trkpt><trkpt lat="45.216206246008355" lon="9.157263695282051"><ele>83.0</ele><time>2026-03-29T09:07:55Z</time></trkpt><trkpt lat="45.216180499500595" lon="9.157376694932196"><ele>83.0</ele><time>2026-03-29T09:07:58Z</time></trkpt><trkpt lat="45.216149583499096" lon="9.157455740070636"><ele>83.0</ele><time>2026-03-29T09:08:00Z</time></trkpt><trkpt lat="45.21612818727896" lon="9.157545471691256"><ele>83.0</ele><time>2026-03-29T09:08:02Z</time></trkpt><trkpt lat="45.21611466522659" lon="9.157648615620998"><ele>83.0</ele><time>2026-03-29T09:08:04Z</time></trkpt><trkpt lat="45.21609172647617" lon="9.157745050428705"><ele>83.0</ele><time>2026-03-29T09:08:06Z</time></trkpt><trkpt lat="45.216067010954575" lon="9.15783949242171"><ele>83.0</ele><time>2026-03-29T09:08:08Z</time></trkpt><trkpt lat="45.216048679666514" lon="9.157928146423824"><ele>83.0</ele><time>2026-03-29T09:08:10Z</time></trkpt><trkpt lat="45.21601849690449" lon="9.158055837344541"><ele>83.0</ele><time>2026-03-29T09:08:13Z</time></trkpt><trkpt lat="45.215990847437766" lon="9.15817498581862"><ele>83.0</ele><time>2026-03-29T09:08:16Z</time></trkpt><trkpt lat="45.21596548633367" lon="9.158302860764453"><ele>83.0</ele><time>2026-03-29T09:08:19Z</time></trkpt><trkpt lat="45.215942338398015" lon="9.158389022729967"><ele>83.0</ele><time>2026-03-29T09:08:21Z</time></trkpt><trkpt lat="45.215927621817464" lon="9.158480842297548"><ele>83.0</ele><time>2026-03-29T09:08:23Z</time></trkpt><trkpt lat="45.21590408355446" lon="9.158611705647212"><ele>83.0</ele><time>2026-03-29T09:08:26Z</time></trkpt><trkpt lat="45.2158887492376" lon="9.15869863920989"><ele>83.0</ele><time>2026-03-29T09:08:28Z</time></trkpt><trkpt lat="45.215873851480296" lon="9.15880585746449"><ele>83.0</ele><time>2026-03-29T09:08:30Z</time></trkpt><trkpt lat="45.21585580750968" lon="9.158903205642908"><ele>83.0</ele><time>2026-03-29T09:08:32.001Z</time></trkpt><trkpt lat="45.21583440388428" lon="9.159001905620855"><ele>82.85714285714285</ele><time>2026-03-29T09:08:34.001Z</time></trkpt><trkpt lat="45.21581582403127" lon="9.159098292062797"><ele>82.71428571428572</ele><time>2026-03-29T09:08:36.001Z</time></trkpt><trkpt lat="45.21579435214865" lon="9.159189438714147"><ele>82.57142857142857</ele><time>2026-03-29T09:08:38.001Z</time></trkpt><trkpt lat="45.21576837333251" lon="9.159288804456997"><ele>82.42857142857142</ele><time>2026-03-29T09:08:40.001Z</time></trkpt><trkpt lat="45.215733148589955" lon="9.159382900921553"><ele>82.28571428571428</ele><time>2026-03-29T09:08:42.001Z</time></trkpt><trkpt lat="45.21571062859584" lon="9.159476036869567"><ele>82.14285714285714</ele><time>2026-03-29T09:08:44.001Z</time></trkpt><trkpt lat="45.21568549666399" lon="9.159579456263721"><ele>82.0</ele><time>2026-03-29T09:08:46.001Z</time></trkpt><trkpt lat="45.2156607114092" lon="9.159681448923791"><ele>82.0</ele><time>2026-03-29T09:08:48.001Z</time></trkpt><trkpt lat="45.215634886819444" lon="9.159787718673103"><ele>82.0</ele><time>2026-03-29T09:08:50.001Z</time></trkpt><trkpt lat="45.2156087209516" lon="9.159895392661367"><ele>82.0</ele><time>2026-03-29T09:08:52.001Z</time></trkpt><trkpt lat="45.21558131271125" lon="9.16000833121956"><ele>82.0</ele><time>2026-03-29T09:08:54.001Z</time></trkpt><trkpt lat="45.21556671794887" lon="9.160119949975826"><ele>82.0</ele><time>2026-03-29T09:08:56.001Z</time></trkpt><trkpt lat="45.21553870973977" lon="9.160234395379067"><ele>82.0</ele><time>2026-03-29T09:08:58.001Z</time></trkpt><trkpt lat="45.21551332765405" lon="9.160354160744948"><ele>82.0</ele><time>2026-03-29T09:09:00.001Z</time></trkpt><trkpt lat="45.215469366482516" lon="9.160473318656221"><ele>82.0</ele><time>2026-03-29T09:09:02.001Z</time></trkpt><trkpt lat="45.215441230605805" lon="9.160589929698153"><ele>82.0</ele><time>2026-03-29T09:09:04.001Z</time></trkpt><trkpt lat="45.21541204968123" lon="9.160710622968077"><ele>82.0</ele><time>2026-03-29T09:09:06.001Z</time></trkpt><trkpt lat="45.215382210721536" lon="9.16083403797297"><ele>82.0</ele><time>2026-03-29T09:09:08.001Z</time></trkpt><trkpt lat="45.215353147717835" lon="9.1609539915054"><ele>82.0</ele><time>2026-03-29T09:09:10.001Z</time></trkpt><trkpt lat="45.21532308690881" lon="9.161077123890726"><ele>82.0</ele><time>2026-03-29T09:09:12.001Z</time></trkpt><trkpt lat="45.215293426592524" lon="9.161198615633039"><ele>82.0</ele><time>2026-03-29T09:09:14.001Z</time></trkpt><trkpt lat="45.2152639732096" lon="9.161320491868336"><ele>82.0</ele><time>2026-03-29T09:09:16.001Z</time></trkpt><trkpt lat="45.21523434654383" lon="9.16144480439172"><ele>82.0</ele><time>2026-03-29T09:09:18.001Z</time></trkpt><trkpt lat="45.21520494397597" lon="9.161567825220162"><ele>81.8</ele><time>2026-03-29T09:09:20.001Z</time></trkpt><trkpt lat="45.215174544254495" lon="9.161693842357401"><ele>81.6</ele><time>2026-03-29T09:09:22.001Z</time></trkpt><trkpt lat="45.21514427359786" lon="9.161820302303946"><ele>81.39999999999999</ele><time>2026-03-29T09:09:24.001Z</time></trkpt><trkpt lat="45.21512663463413" lon="9.161949379812997"><ele>81.19999999999999</ele><time>2026-03-29T09:09:26.001Z</time></trkpt><trkpt lat="45.2150985825858" lon="9.16207863338306"><ele>81.0</ele><time>2026-03-29T09:09:28.001Z</time></trkpt><trkpt lat="45.21506364729689" lon="9.162205638850331"><ele>81.0</ele><time>2026-03-29T09:09:30.001Z</time></trkpt><trkpt lat="45.21503647024752" lon="9.162332470787428"><ele>81.0</ele><time>2026-03-29T09:09:32.001Z</time></trkpt><trkpt lat="45.215009865638656" lon="9.162453000362019"><ele>81.0</ele><time>2026-03-29T09:09:34.001Z</time></trkpt><trkpt lat="45.21497646167836" lon="9.16257654335307"><ele>81.0</ele><time>2026-03-29T09:09:36.001Z</time></trkpt><trkpt lat="45.2149489405613" lon="9.16269591657682"><ele>81.0</ele><time>2026-03-29T09:09:38.001Z</time></trkpt><trkpt lat="45.214921019328244" lon="9.162819910181764"><ele>81.0</ele><time>2026-03-29T09:09:40.001Z</time></trkpt><trkpt lat="45.214887490164124" lon="9.162941572728553"><ele>81.0</ele><time>2026-03-29T09:09:42.001Z</time></trkpt><trkpt lat="45.21485476490586" lon="9.163063643581776"><ele>81.0</ele><time>2026-03-29T09:09:44.001Z</time></trkpt><trkpt lat="45.21482794111736" lon="9.163178907784951"><ele>81.0</ele><time>2026-03-29T09:09:46.001Z</time></trkpt><trkpt lat="45.21479933634111" lon="9.163293569461045"><ele>81.0</ele><time>2026-03-29T09:09:48Z</time></trkpt><trkpt lat="45.21477324066565" lon="9.163389381789322"><ele>81.0</ele><time>2026-03-29T09:09:50Z</time></trkpt><trkpt lat="45.214748538071355" lon="9.163487731859327"><ele>81.42857142857143</ele><time>2026-03-29T09:09:52Z</time></trkpt><trkpt lat="45.21471461788298" lon="9.163575325708132"><ele>81.85714285714286</ele><time>2026-03-29T09:09:54Z</time></trkpt><trkpt lat="45.214683223865784" lon="9.163664884383971"><ele>82.28571428571428</ele><time>2026-03-29T09:09:56Z</time></trkpt><trkpt lat="45.214669453483076" lon="9.163759828838563"><ele>82.71428571428572</ele><time>2026-03-29T09:09:58Z</time></trkpt><trkpt lat="45.214632819746896" lon="9.163880339679476"><ele>83.14285714285714</ele><time>2026-03-29T09:10:01Z</time></trkpt><trkpt lat="45.21460988118196" lon="9.16397703478337"><ele>83.57142857142857</ele><time>2026-03-29T09:10:03Z</time></trkpt><trkpt lat="45.2145978277603" lon="9.16407985841251"><ele>84.0</ele><time>2026-03-29T09:10:05Z</time></trkpt><trkpt lat="45.21458846035571" lon="9.164174798193475"><ele>84.0</ele><time>2026-03-29T09:10:07Z</time></trkpt><trkpt lat="45.21456749086297" lon="9.164293122826047"><ele>84.0</ele><time>2026-03-29T09:10:10.001Z</time></trkpt><trkpt lat="45.21454636518251" lon="9.164391610165762"><ele>84.0</ele><time>2026-03-29T09:10:23.001Z</time></trkpt><trkpt lat="45.21470462830541" lon="9.164460546962303"><ele>84.0</ele><time>2026-03-29T09:10:26.001Z</time></trkpt><trkpt lat="45.21478379118923" lon="9.16448927732003"><ele>84.0</ele><time>2026-03-29T09:10:28.001Z</time></trkpt><trkpt lat="45.21486632118944" lon="9.16452071472757"><ele>84.0</ele><time>2026-03-29T09:10:30.001Z</time></trkpt><trkpt lat="45.214948495856966" lon="9.164553244764871"><ele>84.0</ele><time>2026-03-29T09:10:32.001Z</time></trkpt><trkpt lat="45.215035585724806" lon="9.164566026546058"><ele>84.0</ele><time>2026-03-29T09:10:34.001Z</time></trkpt><trkpt lat="45.215123949456014" lon="9.164585527871973"><ele>84.0</ele><time>2026-03-29T09:10:36.001Z</time></trkpt><trkpt lat="45.215214677704935" lon="9.164611158376259"><ele>84.0</ele><time>2026-03-29T09:10:38.001Z</time></trkpt><trkpt lat="45.215305810129856" lon="9.164644622134396"><ele>84.0</ele><time>2026-03-29T09:10:40.001Z</time></trkpt><trkpt lat="45.215394326219844" lon="9.164672376028223"><ele>84.0</ele><time>2026-03-29T09:10:42.001Z</time></trkpt><trkpt lat="45.21548463054956" lon="9.164708538931256"><ele>84.0</ele><time>2026-03-29T09:10:44.001Z</time></trkpt><trkpt lat="45.21557070562848" lon="9.164734218236292"><ele>84.0</ele><time>2026-03-29T09:10:46.001Z</time></trkpt><trkpt lat="45.215672450427085" lon="9.16477340734202"><ele>84.0</ele><time>2026-03-29T09:10:48.001Z</time></trkpt><trkpt lat="45.21578076054538" lon="9.16482929264708"><ele>84.0</ele><time>2026-03-29T09:10:50.001Z</time></trkpt><trkpt lat="45.21588502758068" lon="9.164883869953822"><ele>84.0</ele><time>2026-03-29T09:10:52.001Z</time></trkpt><trkpt lat="45.215997976868536" lon="9.164944639676392"><ele>84.0</ele><time>2026-03-29T09:10:54.001Z</time></trkpt><trkpt lat="45.21610213518514" lon="9.16499697898425"><ele>84.0</ele><time>2026-03-29T09:10:56.001Z</time></trkpt><trkpt lat="45.2162086825389" lon="9.165050617610254"><ele>84.0</ele><time>2026-03-29T09:10:58.001Z</time></trkpt><trkpt lat="45.21630853503459" lon="9.165113896981108"><ele>84.0</ele><time>2026-03-29T09:11:00.001Z</time></trkpt><trkpt lat="45.2164071168616" lon="9.165170397494993"><ele>84.0</ele><time>2026-03-29T09:11:02.001Z</time></trkpt><trkpt lat="45.21650230323398" lon="9.165224664789154"><ele>84.0</ele><time>2026-03-29T09:11:04.001Z</time></trkpt><trkpt lat="45.21659587418393" lon="9.165271410616455"><ele>84.0</ele><time>2026-03-29T09:11:06.001Z</time></trkpt><trkpt lat="45.216689305939155" lon="9.165326018132024"><ele>84.0</ele><time>2026-03-29T09:11:08.001Z</time></trkpt><trkpt lat="45.216789543061545" lon="9.165380179798778"><ele>83.80000000000001</ele><time>2026-03-29T09:11:10.001Z</time></trkpt><trkpt lat="45.21688495063759" lon="9.165434705403246"><ele>83.60000000000001</ele><time>2026-03-29T09:11:12.001Z</time></trkpt><trkpt lat="45.216986179129194" lon="9.165466693187833"><ele>83.4</ele><time>2026-03-29T09:11:14.001Z</time></trkpt><trkpt lat="45.21708565924572" lon="9.16550254135181"><ele>83.2</ele><time>2026-03-29T09:11:16.001Z</time></trkpt><trkpt lat="45.2171869118952" lon="9.16553126507472"><ele>83.0</ele><time>2026-03-29T09:11:18.001Z</time></trkpt><trkpt lat="45.21724904350577" lon="9.165547200096775"><ele>83.0</ele><time>2026-03-29T09:11:19.001Z</time></trkpt><trkpt lat="45.2173476148534" lon="9.165575363831813"><ele>83.0</ele><time>2026-03-29T09:11:21.001Z</time></trkpt><trkpt lat="45.217448293781175" lon="9.16560561560561"><ele>83.0</ele><time>2026-03-29T09:11:23.001Z</time></trkpt><trkpt lat="45.21754479105756" lon="9.16563502363317"><ele>83.0</ele><time>2026-03-29T09:11:25.001Z</time></trkpt><trkpt lat="45.217644020323114" lon="9.165656777861177"><ele>83.0</ele><time>2026-03-29T09:11:27.001Z</time></trkpt><trkpt lat="45.217739005159885" lon="9.165686198589347"><ele>83.16666666666667</ele><time>2026-03-29T09:11:29.001Z</time></trkpt><trkpt lat="45.217834919753024" lon="9.165711973732263"><ele>83.33333333333334</ele><time>2026-03-29T09:11:31.001Z</time></trkpt><trkpt lat="45.217933189406416" lon="9.165742204575945"><ele>83.5</ele><time>2026-03-29T09:11:33.001Z</time></trkpt><trkpt lat="45.21802387817446" lon="9.16576670473994"><ele>83.66666666666667</ele><time>2026-03-29T09:11:35.001Z</time></trkpt><trkpt lat="45.21809090517333" lon="9.165787965505464"><ele>83.83333333333333</ele><time>2026-03-29T09:11:37.001Z</time></trkpt><trkpt lat="45.21816743063663" lon="9.16580555449444"><ele>84.0</ele><time>2026-03-29T09:11:39.001Z</time></trkpt><trkpt lat="45.21825682743939" lon="9.165828574524353"><ele>84.0</ele><time>2026-03-29T09:11:41.001Z</time></trkpt><trkpt lat="45.21835513674876" lon="9.165866897852982"><ele>84.0</ele><time>2026-03-29T09:11:43.001Z</time></trkpt><trkpt lat="45.21846052359095" lon="9.165884942248542"><ele>84.0</ele><time>2026-03-29T09:11:45.001Z</time></trkpt><trkpt lat="45.21856335502147" lon="9.165908495702615"><ele>84.0</ele><time>2026-03-29T09:11:47.001Z</time></trkpt><trkpt lat="45.21866265960956" lon="9.16593254280788"><ele>84.0</ele><time>2026-03-29T09:11:49.001Z</time></trkpt><trkpt lat="45.21876424506159" lon="9.165956924934196"><ele>84.0</ele><time>2026-03-29T09:11:51.001Z</time></trkpt><trkpt lat="45.21886805907619" lon="9.165974867613173"><ele>84.0</ele><time>2026-03-29T09:11:53.001Z</time></trkpt><trkpt lat="45.218965076131056" lon="9.165996329096625"><ele>84.0</ele><time>2026-03-29T09:11:55.001Z</time></trkpt><trkpt lat="45.219061664988374" lon="9.166002771888252"><ele>84.0</ele><time>2026-03-29T09:11:57.001Z</time></trkpt><trkpt lat="45.2191630286234" lon="9.16600955467078"><ele>84.0</ele><time>2026-03-29T09:11:59.001Z</time></trkpt><trkpt lat="45.21926468707768" lon="9.165997995433198"><ele>84.0</ele><time>2026-03-29T09:12:01.001Z</time></trkpt><trkpt lat="45.21936266564304" lon="9.166009222805767"><ele>84.0</ele><time>2026-03-29T09:12:03.001Z</time></trkpt><trkpt lat="45.21946433763276" lon="9.166013074611445"><ele>84.0</ele><time>2026-03-29T09:12:05.001Z</time></trkpt><trkpt lat="45.219564229972185" lon="9.166018675938238"><ele>84.0</ele><time>2026-03-29T09:12:07.001Z</time></trkpt><trkpt lat="45.21966220658279" lon="9.166041728216205"><ele>84.0</ele><time>2026-03-29T09:12:09.001Z</time></trkpt><trkpt lat="45.21976497693538" lon="9.166044856623941"><ele>84.2</ele><time>2026-03-29T09:12:11.001Z</time></trkpt><trkpt lat="45.219873481614236" lon="9.166048159583461"><ele>84.4</ele><time>2026-03-29T09:12:13.001Z</time></trkpt><trkpt lat="45.21998530047364" lon="9.16605055431085"><ele>84.6</ele><time>2026-03-29T09:12:15.001Z</time></trkpt><trkpt lat="45.22009690212054" lon="9.16605294785514"><ele>84.8</ele><time>2026-03-29T09:12:17.001Z</time></trkpt><trkpt lat="45.220207058268905" lon="9.166055310392908"><ele>85.0</ele><time>2026-03-29T09:12:19.001Z</time></trkpt><trkpt lat="45.22031861850967" lon="9.166057703044677"><ele>85.0</ele><time>2026-03-29T09:12:21.001Z</time></trkpt><trkpt lat="45.220436588561206" lon="9.166035607561925"><ele>85.0</ele><time>2026-03-29T09:12:23.001Z</time></trkpt><trkpt lat="45.22055154864838" lon="9.166040817617105"><ele>85.0</ele><time>2026-03-29T09:12:25.001Z</time></trkpt><trkpt lat="45.220656399613794" lon="9.16606452231247"><ele>85.0</ele><time>2026-03-29T09:12:27.001Z</time></trkpt><trkpt lat="45.22075433752725" lon="9.166087108612986"><ele>85.0</ele><time>2026-03-29T09:12:29.001Z</time></trkpt><trkpt lat="45.22081209066332" lon="9.16623002489436"><ele>84.5</ele><time>2026-03-29T09:12:31.001Z</time></trkpt><trkpt lat="45.22083868998767" lon="9.16635729826174"><ele>84.0</ele><time>2026-03-29T09:12:33.001Z</time></trkpt><trkpt lat="45.22086615047628" lon="9.166476596870455"><ele>83.5</ele><time>2026-03-29T09:12:35.001Z</time></trkpt><trkpt lat="45.220890438823055" lon="9.16659913600275"><ele>83.0</ele><time>2026-03-29T09:12:37.001Z</time></trkpt><trkpt lat="45.2209181748678" lon="9.166709084972437"><ele>82.5</ele><time>2026-03-29T09:12:39.001Z</time></trkpt><trkpt lat="45.22096437749534" lon="9.166802752228834"><ele>82.0</ele><time>2026-03-29T09:12:41.001Z</time></trkpt><trkpt lat="45.22107053383363" lon="9.166798078708691"><ele>82.0</ele><time>2026-03-29T09:12:43.001Z</time></trkpt><trkpt lat="45.2211622109735" lon="9.16676271154258"><ele>82.0</ele><time>2026-03-29T09:12:45.001Z</time></trkpt><trkpt lat="45.221254811181176" lon="9.166749927424325"><ele>82.0</ele><time>2026-03-29T09:12:47.001Z</time></trkpt><trkpt lat="45.221339270088365" lon="9.16676415443222"><ele>82.0</ele><time>2026-03-29T09:12:49.001Z</time></trkpt><trkpt lat="45.221423777601906" lon="9.166751708325844"><ele>82.0</ele><time>2026-03-29T09:12:51.001Z</time></trkpt><trkpt lat="45.221506751492505" lon="9.166700021369309"><ele>82.0</ele><time>2026-03-29T09:12:53.001Z</time></trkpt><trkpt lat="45.22158465910256" lon="9.166636902849907"><ele>82.0</ele><time>2026-03-29T09:12:55.001Z</time></trkpt><trkpt lat="45.22166753456191" lon="9.166589028425276"><ele>82.0</ele><time>2026-03-29T09:12:57.001Z</time></trkpt><trkpt lat="45.221748835102396" lon="9.166531718241606"><ele>82.0</ele><time>2026-03-29T09:12:59.001Z</time></trkpt><trkpt lat="45.2218273553856" lon="9.166492443732956"><ele>82.0</ele><time>2026-03-29T09:13:01.001Z</time></trkpt><trkpt lat="45.22190235729183" lon="9.166499662434042"><ele>82.0</ele><time>2026-03-29T09:13:03.001Z</time></trkpt><trkpt lat="45.221976085503464" lon="9.166552618029106"><ele>82.0</ele><time>2026-03-29T09:13:05.001Z</time></trkpt><trkpt lat="45.222037736893405" lon="9.166623686176958"><ele>82.0</ele><time>2026-03-29T09:13:07.001Z</time></trkpt><trkpt lat="45.222097896461264" lon="9.166687556763327"><ele>82.0</ele><time>2026-03-29T09:13:09.001Z</time></trkpt><trkpt lat="45.22217700209994" lon="9.166693285033393"><ele>82.0</ele><time>2026-03-29T09:13:11.001Z</time></trkpt><trkpt lat="45.22224469805359" lon="9.166629873054507"><ele>82.0</ele><time>2026-03-29T09:13:13.001Z</time></trkpt><trkpt lat="45.222284114473574" lon="9.166529551580954"><ele>82.0</ele><time>2026-03-29T09:13:15.001Z</time></trkpt><trkpt lat="45.222288016989665" lon="9.166414082009416"><ele>82.0</ele><time>2026-03-29T09:13:17.001Z</time></trkpt><trkpt lat="45.22228917509999" lon="9.166310540777065"><ele>82.0</ele><time>2026-03-29T09:13:19.001Z</time></trkpt><trkpt lat="45.22229483835046" lon="9.166204379302293"><ele>82.0</ele><time>2026-03-29T09:13:21.001Z</time></trkpt><trkpt lat="45.22229797077232" lon="9.166107710373355"><ele>82.0</ele><time>2026-03-29T09:13:23.001Z</time></trkpt><trkpt lat="45.22230668764068" lon="9.16599636571046"><ele>82.0</ele><time>2026-03-29T09:13:25.001Z</time></trkpt><trkpt lat="45.22231460777609" lon="9.165852340781324"><ele>82.0</ele><time>2026-03-29T09:13:27.001Z</time></trkpt><trkpt lat="45.22232471803653" lon="9.1657101217821"><ele>82.0</ele><time>2026-03-29T09:13:29.001Z</time></trkpt><trkpt lat="45.22232898951659" lon="9.165573839193895"><ele>82.0</ele><time>2026-03-29T09:13:31.001Z</time></trkpt><trkpt lat="45.22233542754281" lon="9.165441453291697"><ele>82.0</ele><time>2026-03-29T09:13:33.001Z</time></trkpt><trkpt lat="45.22233941391451" lon="9.165334713391015"><ele>82.0</ele><time>2026-03-29T09:13:35.001Z</time></trkpt><trkpt lat="45.222352463941625" lon="9.165204408577013"><ele>82.0</ele><time>2026-03-29T09:13:37.001Z</time></trkpt><trkpt lat="45.2223580669627" lon="9.165096775104404"><ele>82.0</ele><time>2026-03-29T09:13:39.001Z</time></trkpt><trkpt lat="45.22245863582019" lon="9.165091841083388"><ele>82.0</ele><time>2026-03-29T09:13:41.001Z</time></trkpt><trkpt lat="45.22254366638073" lon="9.16509919423568"><ele>82.0</ele><time>2026-03-29T09:13:43.001Z</time></trkpt><trkpt lat="45.22262628919737" lon="9.165086869775209"><ele>82.0</ele><time>2026-03-29T09:13:45.001Z</time></trkpt><trkpt lat="45.222713566901504" lon="9.165096160070917"><ele>82.0</ele><time>2026-03-29T09:13:47.001Z</time></trkpt><trkpt lat="45.22280790989781" lon="9.165088098275566"><ele>82.0</ele><time>2026-03-29T09:13:49.001Z</time></trkpt><trkpt lat="45.222902260481284" lon="9.165089967300917"><ele>82.0</ele><time>2026-03-29T09:13:51.001Z</time></trkpt><trkpt lat="45.223008380910436" lon="9.165087329247873"><ele>82.0</ele><time>2026-03-29T09:13:53.001Z</time></trkpt><trkpt lat="45.223112876067546" lon="9.165085163799064"><ele>82.0</ele><time>2026-03-29T09:13:55.001Z</time></trkpt><trkpt lat="45.22321827106423" lon="9.165081010948297"><ele>82.0</ele><time>2026-03-29T09:13:57.001Z</time></trkpt><trkpt lat="45.22331713005908" lon="9.165086579360318"><ele>82.0</ele><time>2026-03-29T09:13:59.001Z</time></trkpt><trkpt lat="45.22341950936224" lon="9.165085150776568"><ele>82.0</ele><time>2026-03-29T09:14:01.001Z</time></trkpt><trkpt lat="45.22352049406598" lon="9.165082304488836"><ele>81.8</ele><time>2026-03-29T09:14:03.001Z</time></trkpt><trkpt lat="45.223622487585864" lon="9.165082681821543"><ele>81.6</ele><time>2026-03-29T09:14:05.001Z</time></trkpt><trkpt lat="45.22372534327119" lon="9.165080970542196"><ele>81.39999999999999</ele><time>2026-03-29T09:14:07.001Z</time></trkpt><trkpt lat="45.22383612153865" lon="9.165085729999968"><ele>81.19999999999999</ele><time>2026-03-29T09:14:09.001Z</time></trkpt><trkpt lat="45.223939889004235" lon="9.165089072498938"><ele>81.0</ele><time>2026-03-29T09:14:11.001Z</time></trkpt><trkpt lat="45.22405235931404" lon="9.165102471631325"><ele>81.4</ele><time>2026-03-29T09:14:13.001Z</time></trkpt><trkpt lat="45.22415717963881" lon="9.165107518413539"><ele>81.8</ele><time>2026-03-29T09:14:15.001Z</time></trkpt><trkpt lat="45.22426378288915" lon="9.165115068979778"><ele>82.2</ele><time>2026-03-29T09:14:17.001Z</time></trkpt><trkpt lat="45.22437543168614" lon="9.165120355681106"><ele>82.60000000000001</ele><time>2026-03-29T09:14:19.001Z</time></trkpt><trkpt lat="45.22448719209126" lon="9.165121477677298"><ele>83.0</ele><time>2026-03-29T09:14:21.001Z</time></trkpt><trkpt lat="45.22460062933055" lon="9.16512267980673"><ele>83.0</ele><time>2026-03-29T09:14:23.001Z</time></trkpt><trkpt lat="45.22471814788241" lon="9.165114159358776"><ele>83.0</ele><time>2026-03-29T09:14:25.001Z</time></trkpt><trkpt lat="45.22483111213409" lon="9.165117456228641"><ele>83.0</ele><time>2026-03-29T09:14:27.001Z</time></trkpt><trkpt lat="45.22492524516195" lon="9.165111618598036"><ele>83.0</ele><time>2026-03-29T09:14:29.001Z</time></trkpt><trkpt lat="45.22502473662154" lon="9.165112869877994"><ele>83.0</ele><time>2026-03-29T09:14:31.001Z</time></trkpt><trkpt lat="45.2251174563055" lon="9.165110296398266"><ele>82.80000000000001</ele><time>2026-03-29T09:14:33.001Z</time></trkpt><trkpt lat="45.225218784329236" lon="9.165109607578865"><ele>82.6</ele><time>2026-03-29T09:14:35.001Z</time></trkpt><trkpt lat="45.22532019145858" lon="9.16511207060048"><ele>82.4</ele><time>2026-03-29T09:14:37.001Z</time></trkpt><trkpt lat="45.2254249664912" lon="9.165110030278166"><ele>82.19999999999999</ele><time>2026-03-29T09:14:39.001Z</time></trkpt><trkpt lat="45.22553017265765" lon="9.16511406840222"><ele>82.0</ele><time>2026-03-29T09:14:41.001Z</time></trkpt><trkpt lat="45.225635021972586" lon="9.165105897973078"><ele>82.25</ele><time>2026-03-29T09:14:43.001Z</time></trkpt><trkpt lat="45.22574523515743" lon="9.165100631766766"><ele>82.5</ele><time>2026-03-29T09:14:45.001Z</time></trkpt><trkpt lat="45.225857276112485" lon="9.165101600614957"><ele>82.75</ele><time>2026-03-29T09:14:47.001Z</time></trkpt><trkpt lat="45.22597672751183" lon="9.16508849849192"><ele>83.0</ele><time>2026-03-29T09:14:49.001Z</time></trkpt><trkpt lat="45.22609091459865" lon="9.165066383268057"><ele>83.0</ele><time>2026-03-29T09:14:51.001Z</time></trkpt><trkpt lat="45.22620542298259" lon="9.165049116251321"><ele>83.0</ele><time>2026-03-29T09:14:53.001Z</time></trkpt><trkpt lat="45.22631833365626" lon="9.165020467320879"><ele>83.0</ele><time>2026-03-29T09:14:55.001Z</time></trkpt><trkpt lat="45.226425068986536" lon="9.164998960827205"><ele>83.0</ele><time>2026-03-29T09:14:57.001Z</time></trkpt><trkpt lat="45.226529455965135" lon="9.164974937077195"><ele>83.0</ele><time>2026-03-29T09:14:59.001Z</time></trkpt><trkpt lat="45.22663705273735" lon="9.164945724358374"><ele>82.80000000000001</ele><time>2026-03-29T09:15:01.001Z</time></trkpt><trkpt lat="45.22674307597713" lon="9.164919831961662"><ele>82.6</ele><time>2026-03-29T09:15:03.001Z</time></trkpt><trkpt lat="45.22684743256342" lon="9.16489289291044"><ele>82.4</ele><time>2026-03-29T09:15:05.001Z</time></trkpt><trkpt lat="45.226950565577546" lon="9.164869169434276"><ele>82.19999999999999</ele><time>2026-03-29T09:15:07.001Z</time></trkpt><trkpt lat="45.227054440101675" lon="9.164846102272158"><ele>82.0</ele><time>2026-03-29T09:15:09.001Z</time></trkpt><trkpt lat="45.2271555715851" lon="9.164813805859346"><ele>82.0</ele><time>2026-03-29T09:15:11.001Z</time></trkpt><trkpt lat="45.22725844874915" lon="9.164782559039718"><ele>82.0</ele><time>2026-03-29T09:15:13.001Z</time></trkpt><trkpt lat="45.227359678700864" lon="9.164750203262008"><ele>82.0</ele><time>2026-03-29T09:15:15.001Z</time></trkpt><trkpt lat="45.22745802229001" lon="9.16474431889197"><ele>82.0</ele><time>2026-03-29T09:15:17.001Z</time></trkpt><trkpt lat="45.227553983722665" lon="9.164694428926163"><ele>82.0</ele><time>2026-03-29T09:15:19.001Z</time></trkpt><trkpt lat="45.227659256555356" lon="9.164666183874314"><ele>82.8</ele><time>2026-03-29T09:15:21.001Z</time></trkpt><trkpt lat="45.22775435493619" lon="9.164646686717099"><ele>83.6</ele><time>2026-03-29T09:15:23.001Z</time></trkpt><trkpt lat="45.227855153572314" lon="9.164615322516969"><ele>84.39999999999999</ele><time>2026-03-29T09:15:25.001Z</time></trkpt><trkpt lat="45.2279516615407" lon="9.164590268175685"><ele>85.19999999999999</ele><time>2026-03-29T09:15:27.001Z</time></trkpt><trkpt lat="45.22804864175579" lon="9.16456261193038"><ele>86.0</ele><time>2026-03-29T09:15:29.001Z</time></trkpt><trkpt lat="45.2281387803973" lon="9.164544210413384"><ele>85.6</ele><time>2026-03-29T09:15:31.001Z</time></trkpt><trkpt lat="45.22822507974467" lon="9.164525623888174"><ele>85.19999999999999</ele><time>2026-03-29T09:15:33.001Z</time></trkpt><trkpt lat="45.22830628495666" lon="9.164504320389854"><ele>84.80000000000001</ele><time>2026-03-29T09:15:35.001Z</time></trkpt><trkpt lat="45.22840283730746" lon="9.164486036213583"><ele>84.4</ele><time>2026-03-29T09:15:37.001Z</time></trkpt><trkpt lat="45.2284954501946" lon="9.164457351755487"><ele>84.0</ele><time>2026-03-29T09:15:39.001Z</time></trkpt><trkpt lat="45.22859348175821" lon="9.164439081898308"><ele>84.0</ele><time>2026-03-29T09:15:41.001Z</time></trkpt><trkpt lat="45.22869575165877" lon="9.16441755327494"><ele>84.0</ele><time>2026-03-29T09:15:43.001Z</time></trkpt><trkpt lat="45.22879445396848" lon="9.164389576797028"><ele>84.0</ele><time>2026-03-29T09:15:45.001Z</time></trkpt><trkpt lat="45.228895386079415" lon="9.164362790340544"><ele>84.0</ele><time>2026-03-29T09:15:47.001Z</time></trkpt><trkpt lat="45.2289950819979" lon="9.164338504968116"><ele>84.0</ele><time>2026-03-29T09:15:49.001Z</time></trkpt><trkpt lat="45.229095436491114" lon="9.16431160384479"><ele>84.0</ele><time>2026-03-29T09:15:51.001Z</time></trkpt><trkpt lat="45.22919908841568" lon="9.164285467008197"><ele>84.0</ele><time>2026-03-29T09:15:53.001Z</time></trkpt><trkpt lat="45.229296615885715" lon="9.164277363040307"><ele>84.0</ele><time>2026-03-29T09:15:55.001Z</time></trkpt><trkpt lat="45.229410815514626" lon="9.164247500955657"><ele>84.0</ele><time>2026-03-29T09:15:57.001Z</time></trkpt><trkpt lat="45.22951746567077" lon="9.164219697213879"><ele>84.0</ele><time>2026-03-29T09:15:59.001Z</time></trkpt><trkpt lat="45.22962235578245" lon="9.164175927819349"><ele>84.0</ele><time>2026-03-29T09:16:01.001Z</time></trkpt><trkpt lat="45.22972484938263" lon="9.164143732276363"><ele>84.0</ele><time>2026-03-29T09:16:03.001Z</time></trkpt><trkpt lat="45.22983298398386" lon="9.16411967411001"><ele>84.0</ele><time>2026-03-29T09:16:05.001Z</time></trkpt><trkpt lat="45.229938931995264" lon="9.164093967605611"><ele>84.0</ele><time>2026-03-29T09:16:07.001Z</time></trkpt><trkpt lat="45.23004163206129" lon="9.164059136210556"><ele>84.0</ele><time>2026-03-29T09:16:09.001Z</time></trkpt><trkpt lat="45.23014895181017" lon="9.164032450639102"><ele>84.0</ele><time>2026-03-29T09:16:11.001Z</time></trkpt><trkpt lat="45.23024744347054" lon="9.164002324051005"><ele>84.0</ele><time>2026-03-29T09:16:13.001Z</time></trkpt><trkpt lat="45.230355723990094" lon="9.163974069578003"><ele>84.0</ele><time>2026-03-29T09:16:15.001Z</time></trkpt><trkpt lat="45.230461206437454" lon="9.163942868631278"><ele>84.0</ele><time>2026-03-29T09:16:17.001Z</time></trkpt><trkpt lat="45.23056899202606" lon="9.163912519511596"><ele>84.0</ele><time>2026-03-29T09:16:19.001Z</time></trkpt><trkpt lat="45.23067792002441" lon="9.163881482121859"><ele>84.0</ele><time>2026-03-29T09:16:21.001Z</time></trkpt><trkpt lat="45.2307821366393" lon="9.163848932900873"><ele>84.0</ele><time>2026-03-29T09:16:23.001Z</time></trkpt><trkpt lat="45.230890579754885" lon="9.163819616645556"><ele>84.0</ele><time>2026-03-29T09:16:25.001Z</time></trkpt><trkpt lat="45.230954520843085" lon="9.163800690892145"><ele>84.0</ele><time>2026-03-29T09:16:26.001Z</time></trkpt><trkpt lat="45.2310552824153" lon="9.163775859500035"><ele>84.0</ele><time>2026-03-29T09:16:28.001Z</time></trkpt><trkpt lat="45.23116490166606" lon="9.16374940113321"><ele>84.0</ele><time>2026-03-29T09:16:30.001Z</time></trkpt><trkpt lat="45.23127807915419" lon="9.163714714170123"><ele>84.0</ele><time>2026-03-29T09:16:32.001Z</time></trkpt><trkpt lat="45.231383588278554" lon="9.163685111065483"><ele>84.0</ele><time>2026-03-29T09:16:34.001Z</time></trkpt><trkpt lat="45.23149776146715" lon="9.163658593359342"><ele>84.0</ele><time>2026-03-29T09:16:36.001Z</time></trkpt><trkpt lat="45.23160461428981" lon="9.163628490872778"><ele>84.0</ele><time>2026-03-29T09:16:38.001Z</time></trkpt><trkpt lat="45.23171123821024" lon="9.163609743445726"><ele>83.80000000000001</ele><time>2026-03-29T09:16:40.001Z</time></trkpt><trkpt lat="45.23181668349396" lon="9.163576827587306"><ele>83.60000000000001</ele><time>2026-03-29T09:16:42.001Z</time></trkpt><trkpt lat="45.23191574436743" lon="9.163546134761322"><ele>83.4</ele><time>2026-03-29T09:16:44.001Z</time></trkpt><trkpt lat="45.232023538725024" lon="9.163532802794455"><ele>83.2</ele><time>2026-03-29T09:16:46.001Z</time></trkpt><trkpt lat="45.23211751957029" lon="9.163492438430985"><ele>83.0</ele><time>2026-03-29T09:16:48.001Z</time></trkpt><trkpt lat="45.23219510983432" lon="9.16346547584136"><ele>83.0</ele><time>2026-03-29T09:16:50.001Z</time></trkpt><trkpt lat="45.23216242352153" lon="9.1632769293655"><ele>83.0</ele><time>2026-03-29T09:16:51.001Z</time></trkpt><trkpt lat="45.23214708564686" lon="9.163117679322825"><ele>83.0</ele><time>2026-03-29T09:16:53.001Z</time></trkpt><trkpt lat="45.23211210031907" lon="9.162972661934193"><ele>83.0</ele><time>2026-03-29T09:16:55.001Z</time></trkpt><trkpt lat="45.23208858027142" lon="9.162825723375423"><ele>83.0</ele><time>2026-03-29T09:16:57.001Z</time></trkpt><trkpt lat="45.23206353670288" lon="9.162674001804797"><ele>83.0</ele><time>2026-03-29T09:16:59.001Z</time></trkpt><trkpt lat="45.23204162760464" lon="9.162523199757096"><ele>83.0</ele><time>2026-03-29T09:17:01.001Z</time></trkpt><trkpt lat="45.232017778471246" lon="9.162368735836136"><ele>83.0</ele><time>2026-03-29T09:17:03.001Z</time></trkpt><trkpt lat="45.23200108193189" lon="9.162215254969794"><ele>83.0</ele><time>2026-03-29T09:17:05.001Z</time></trkpt><trkpt lat="45.23198172279115" lon="9.162068291556919"><ele>83.0</ele><time>2026-03-29T09:17:07.001Z</time></trkpt><trkpt lat="45.2319609051911" lon="9.161916888596977"><ele>83.0</ele><time>2026-03-29T09:17:09.001Z</time></trkpt><trkpt lat="45.23193751487798" lon="9.161765079085217"><ele>83.0</ele><time>2026-03-29T09:17:11.001Z</time></trkpt><trkpt lat="45.23191513388712" lon="9.161580680671067"><ele>83.0</ele><time>2026-03-29T09:17:13.001Z</time></trkpt><trkpt lat="45.23189221716471" lon="9.161450587130803"><ele>83.0</ele><time>2026-03-29T09:17:15.001Z</time></trkpt><trkpt lat="45.23187336235527" lon="9.161299383790382"><ele>83.4</ele><time>2026-03-29T09:17:17.001Z</time></trkpt><trkpt lat="45.2318549417832" lon="9.161146540435434"><ele>83.80000000000001</ele><time>2026-03-29T09:17:19.001Z</time></trkpt><trkpt lat="45.231831859685016" lon="9.16099356478166"><ele>84.2</ele><time>2026-03-29T09:17:21.001Z</time></trkpt><trkpt lat="45.231810361658304" lon="9.160839076762072"><ele>84.6</ele><time>2026-03-29T09:17:23.001Z</time></trkpt><trkpt lat="45.23178862174205" lon="9.160686671078498"><ele>85.0</ele><time>2026-03-29T09:17:25.001Z</time></trkpt><trkpt lat="45.231767177152946" lon="9.16053465351034"><ele>85.2</ele><time>2026-03-29T09:17:27.001Z</time></trkpt><trkpt lat="45.23174779677795" lon="9.160380597161463"><ele>85.4</ele><time>2026-03-29T09:17:29.001Z</time></trkpt><trkpt lat="45.23172970257273" lon="9.160227035152433"><ele>85.6</ele><time>2026-03-29T09:17:31.001Z</time></trkpt><trkpt lat="45.23170395891393" lon="9.160070546465738"><ele>85.8</ele><time>2026-03-29T09:17:33.001Z</time></trkpt><trkpt lat="45.231678834572676" lon="9.15991058626734"><ele>86.0</ele><time>2026-03-29T09:17:35.001Z</time></trkpt><trkpt lat="45.23167156649432" lon="9.159747485250154"><ele>85.5</ele><time>2026-03-29T09:17:37.001Z</time></trkpt><trkpt lat="45.23163999096271" lon="9.159581054046027"><ele>85.0</ele><time>2026-03-29T09:17:39.001Z</time></trkpt><trkpt lat="45.231612550614926" lon="9.159429152541861"><ele>84.5</ele><time>2026-03-29T09:17:41.001Z</time></trkpt><trkpt lat="45.23160695481835" lon="9.159271264780081"><ele>84.0</ele><time>2026-03-29T09:17:43.001Z</time></trkpt><trkpt lat="45.23157325590427" lon="9.159117373764936"><ele>83.80000000000001</ele><time>2026-03-29T09:17:45.001Z</time></trkpt><trkpt lat="45.23155273871971" lon="9.158962937819346"><ele>83.60000000000001</ele><time>2026-03-29T09:17:47.001Z</time></trkpt><trkpt lat="45.23153316732657" lon="9.158802176936709"><ele>83.4</ele><time>2026-03-29T09:17:49.001Z</time></trkpt><trkpt lat="45.23151428503213" lon="9.158648453018632"><ele>83.2</ele><time>2026-03-29T09:17:51.001Z</time></trkpt><trkpt lat="45.231498855697986" lon="9.158492091276447"><ele>83.0</ele><time>2026-03-29T09:17:53.001Z</time></trkpt><trkpt lat="45.23147720222847" lon="9.15833876630174"><ele>83.2</ele><time>2026-03-29T09:17:55.001Z</time></trkpt><trkpt lat="45.23144857550116" lon="9.158192564051836"><ele>83.4</ele><time>2026-03-29T09:17:57.001Z</time></trkpt><trkpt lat="45.231445224661854" lon="9.158094975896732"><ele>83.60000000000001</ele><time>2026-03-29T09:17:58.001Z</time></trkpt><trkpt lat="45.23141844346458" lon="9.15793625470708"><ele>83.80000000000001</ele><time>2026-03-29T09:18:00.001Z</time></trkpt><trkpt lat="45.23139462925499" lon="9.157778782593589"><ele>84.0</ele><time>2026-03-29T09:18:02.001Z</time></trkpt><trkpt lat="45.23137629450228" lon="9.157629132275556"><ele>84.0</ele><time>2026-03-29T09:18:04.001Z</time></trkpt><trkpt lat="45.23135462834984" lon="9.157473927345068"><ele>84.0</ele><time>2026-03-29T09:18:06.001Z</time></trkpt><trkpt lat="45.23133358693959" lon="9.157317013330482"><ele>84.0</ele><time>2026-03-29T09:18:08.001Z</time></trkpt><trkpt lat="45.23131403724518" lon="9.157167940983982"><ele>84.0</ele><time>2026-03-29T09:18:10.001Z</time></trkpt><trkpt lat="45.2312923037266" lon="9.15701806237296"><ele>84.0</ele><time>2026-03-29T09:18:12.001Z</time></trkpt><trkpt lat="45.23126938728058" lon="9.156873498467915"><ele>84.2</ele><time>2026-03-29T09:18:14.001Z</time></trkpt><trkpt lat="45.23124882566467" lon="9.156732148537818"><ele>84.4</ele><time>2026-03-29T09:18:16.001Z</time></trkpt><trkpt lat="45.23122666787918" lon="9.156582481416935"><ele>84.6</ele><time>2026-03-29T09:18:18.001Z</time></trkpt><trkpt lat="45.231209787697274" lon="9.156435616069375"><ele>84.8</ele><time>2026-03-29T09:18:20.001Z</time></trkpt><trkpt lat="45.231188063416155" lon="9.15629550594626"><ele>85.0</ele><time>2026-03-29T09:18:22.001Z</time></trkpt><trkpt lat="45.23116734525588" lon="9.156148804439686"><ele>84.6</ele><time>2026-03-29T09:18:24Z</time></trkpt><trkpt lat="45.23114917368381" lon="9.15600678666476"><ele>84.2</ele><time>2026-03-29T09:18:26.001Z</time></trkpt><trkpt lat="45.23112933364327" lon="9.155863461426677"><ele>83.80000000000001</ele><time>2026-03-29T09:18:28.001Z</time></trkpt><trkpt lat="45.23111308255222" lon="9.155709372488095"><ele>83.4</ele><time>2026-03-29T09:18:30.001Z</time></trkpt><trkpt lat="45.23109174491882" lon="9.155567722352764"><ele>83.0</ele><time>2026-03-29T09:18:32.001Z</time></trkpt><trkpt lat="45.231070678720414" lon="9.155423925879411"><ele>83.0</ele><time>2026-03-29T09:18:34.001Z</time></trkpt><trkpt lat="45.23105692660859" lon="9.155269563346083"><ele>83.0</ele><time>2026-03-29T09:18:36.001Z</time></trkpt><trkpt lat="45.23103825999957" lon="9.155113726917584"><ele>83.0</ele><time>2026-03-29T09:18:38.001Z</time></trkpt><trkpt lat="45.23105054600034" lon="9.154963339016522"><ele>83.0</ele><time>2026-03-29T09:18:40.001Z</time></trkpt><trkpt lat="45.23104616449105" lon="9.154795181951524"><ele>83.0</ele><time>2026-03-29T09:18:42.001Z</time></trkpt><trkpt lat="45.231019649380144" lon="9.154655566346623"><ele>83.0</ele><time>2026-03-29T09:18:44.001Z</time></trkpt><trkpt lat="45.23099714582394" lon="9.154504322255173"><ele>83.0</ele><time>2026-03-29T09:18:46.001Z</time></trkpt><trkpt lat="45.230974401849394" lon="9.154351427900773"><ele>83.0</ele><time>2026-03-29T09:18:48.001Z</time></trkpt><trkpt lat="45.230952322290506" lon="9.154199105321913"><ele>83.0</ele><time>2026-03-29T09:18:50.001Z</time></trkpt><trkpt lat="45.230932198263105" lon="9.154044413020387"><ele>83.0</ele><time>2026-03-29T09:18:52.001Z</time></trkpt><trkpt lat="45.23090928046427" lon="9.153898306788378"><ele>83.0</ele><time>2026-03-29T09:18:54.001Z</time></trkpt><trkpt lat="45.230888310897946" lon="9.153742848751655"><ele>83.0</ele><time>2026-03-29T09:18:56.001Z</time></trkpt><trkpt lat="45.23086569155777" lon="9.15359736643882"><ele>83.0</ele><time>2026-03-29T09:18:58.001Z</time></trkpt><trkpt lat="45.23084819090227" lon="9.153450626921666"><ele>83.0</ele><time>2026-03-29T09:19:00.001Z</time></trkpt><trkpt lat="45.230828898844024" lon="9.153299621025717"><ele>83.0</ele><time>2026-03-29T09:19:02.001Z</time></trkpt><trkpt lat="45.230806265871976" lon="9.153144373714898"><ele>83.0</ele><time>2026-03-29T09:19:04.001Z</time></trkpt><trkpt lat="45.23078481680465" lon="9.152977935127478"><ele>83.0</ele><time>2026-03-29T09:19:06.001Z</time></trkpt><trkpt lat="45.23077181247912" lon="9.152885100270057"><ele>83.0</ele><time>2026-03-29T09:19:07.001Z</time></trkpt><trkpt lat="45.230748208547155" lon="9.15270047852034"><ele>83.0</ele><time>2026-03-29T09:19:09.001Z</time></trkpt><trkpt lat="45.23073127068465" lon="9.152613704123945"><ele>83.0</ele><time>2026-03-29T09:19:10.001Z</time></trkpt><trkpt lat="45.230716755852676" lon="9.152508729437832"><ele>83.0</ele><time>2026-03-29T09:19:11.001Z</time></trkpt><trkpt lat="45.230699886794014" lon="9.152405683666009"><ele>83.0</ele><time>2026-03-29T09:19:12.001Z</time></trkpt><trkpt lat="45.23068503987687" lon="9.152300303459867"><ele>83.0</ele><time>2026-03-29T09:19:13.001Z</time></trkpt><trkpt lat="45.23067161534709" lon="9.152194780211374"><ele>83.0</ele><time>2026-03-29T09:19:14.001Z</time></trkpt><trkpt lat="45.23065276650918" lon="9.152085243390747"><ele>83.0</ele><time>2026-03-29T09:19:15.001Z</time></trkpt><trkpt lat="45.230640646725675" lon="9.151987533904466"><ele>83.0</ele><time>2026-03-29T09:19:16.001Z</time></trkpt><trkpt lat="45.23062842928171" lon="9.151875564879363"><ele>83.0</ele><time>2026-03-29T09:19:17.001Z</time></trkpt><trkpt lat="45.23060961630459" lon="9.151768998327762"><ele>83.0</ele><time>2026-03-29T09:19:18.001Z</time></trkpt><trkpt lat="45.23060093576281" lon="9.151677713802716"><ele>83.0</ele><time>2026-03-29T09:19:19.001Z</time></trkpt><trkpt lat="45.23057754049531" lon="9.151510861156021"><ele>83.0</ele><time>2026-03-29T09:19:21.001Z</time></trkpt><trkpt lat="45.23055857637369" lon="9.151357617461873"><ele>83.0</ele><time>2026-03-29T09:19:23.001Z</time></trkpt><trkpt lat="45.23054761408271" lon="9.151214290361015"><ele>82.80000000000001</ele><time>2026-03-29T09:19:25.001Z</time></trkpt><trkpt lat="45.23052209392506" lon="9.15107408974541"><ele>82.6</ele><time>2026-03-29T09:19:27.001Z</time></trkpt><trkpt lat="45.23049527995905" lon="9.150935332588638"><ele>82.4</ele><time>2026-03-29T09:19:29.001Z</time></trkpt><trkpt lat="45.230466115492256" lon="9.150796160509334"><ele>82.19999999999999</ele><time>2026-03-29T09:19:31.001Z</time></trkpt><trkpt lat="45.2304409621773" lon="9.150651771802712"><ele>82.0</ele><time>2026-03-29T09:19:33.001Z</time></trkpt><trkpt lat="45.23041245091563" lon="9.15053270104802"><ele>82.0</ele><time>2026-03-29T09:19:35.001Z</time></trkpt><trkpt lat="45.23039266985899" lon="9.150380318222247"><ele>82.0</ele><time>2026-03-29T09:19:37.001Z</time></trkpt><trkpt lat="45.230377838486426" lon="9.150224874862667"><ele>82.0</ele><time>2026-03-29T09:19:39.001Z</time></trkpt><trkpt lat="45.230361643755174" lon="9.15007593749648"><ele>82.0</ele><time>2026-03-29T09:19:41.001Z</time></trkpt><trkpt lat="45.23035091076501" lon="9.149980558858399"><ele>82.0</ele><time>2026-03-29T09:19:42.001Z</time></trkpt><trkpt lat="45.23032919264645" lon="9.149833736575863"><ele>82.0</ele><time>2026-03-29T09:19:44.001Z</time></trkpt><trkpt lat="45.23030972589655" lon="9.149686989333933"><ele>82.0</ele><time>2026-03-29T09:19:46.001Z</time></trkpt><trkpt lat="45.230289586046396" lon="9.149541000061387"><ele>82.0</ele><time>2026-03-29T09:19:48.001Z</time></trkpt><trkpt lat="45.230270319689865" lon="9.149391849325186"><ele>82.0</ele><time>2026-03-29T09:19:50.001Z</time></trkpt><trkpt lat="45.23024987623651" lon="9.149243797058894"><ele>82.0</ele><time>2026-03-29T09:19:52.001Z</time></trkpt><trkpt lat="45.23023439472479" lon="9.149104140146141"><ele>81.8</ele><time>2026-03-29T09:19:54.001Z</time></trkpt><trkpt lat="45.23021356160678" lon="9.148956577809638"><ele>81.6</ele><time>2026-03-29T09:19:56.001Z</time></trkpt><trkpt lat="45.230193844454604" lon="9.148811648289572"><ele>81.39999999999999</ele><time>2026-03-29T09:19:58.001Z</time></trkpt><trkpt lat="45.23017751375875" lon="9.148672617950304"><ele>81.19999999999999</ele><time>2026-03-29T09:20:00.001Z</time></trkpt><trkpt lat="45.230158010281315" lon="9.148529466027899"><ele>81.0</ele><time>2026-03-29T09:20:02.001Z</time></trkpt><trkpt lat="45.23013796765237" lon="9.148387141038102"><ele>81.0</ele><time>2026-03-29T09:20:04.001Z</time></trkpt><trkpt lat="45.23011926842919" lon="9.148241588969194"><ele>81.0</ele><time>2026-03-29T09:20:06.001Z</time></trkpt><trkpt lat="45.23010349182442" lon="9.148096488729934"><ele>81.0</ele><time>2026-03-29T09:20:08.001Z</time></trkpt><trkpt lat="45.23008344709936" lon="9.147948895384522"><ele>81.0</ele><time>2026-03-29T09:20:10.001Z</time></trkpt><trkpt lat="45.230064423482666" lon="9.147807099769452"><ele>81.0</ele><time>2026-03-29T09:20:12.001Z</time></trkpt><trkpt lat="45.230045458206426" lon="9.147669552387802"><ele>81.6</ele><time>2026-03-29T09:20:14.001Z</time></trkpt><trkpt lat="45.23002530580554" lon="9.147536947245756"><ele>82.19999999999999</ele><time>2026-03-29T09:20:16.001Z</time></trkpt><trkpt lat="45.23000917484006" lon="9.147402595706685"><ele>82.80000000000001</ele><time>2026-03-29T09:20:18Z</time></trkpt><trkpt lat="45.22999179149863" lon="9.147270665417158"><ele>83.4</ele><time>2026-03-29T09:20:20Z</time></trkpt><trkpt lat="45.229973643958935" lon="9.147140648766019"><ele>84.0</ele><time>2026-03-29T09:20:22Z</time></trkpt><trkpt lat="45.229955758999616" lon="9.147009205893697"><ele>84.0</ele><time>2026-03-29T09:20:24Z</time></trkpt><trkpt lat="45.22993942011068" lon="9.146880697860695"><ele>84.0</ele><time>2026-03-29T09:20:26Z</time></trkpt><trkpt lat="45.22992305754394" lon="9.146752139921704"><ele>84.0</ele><time>2026-03-29T09:20:28Z</time></trkpt><trkpt lat="45.229905828062336" lon="9.146622269096449"><ele>84.0</ele><time>2026-03-29T09:20:30Z</time></trkpt><trkpt lat="45.22989080708346" lon="9.146501868832463"><ele>84.0</ele><time>2026-03-29T09:20:32Z</time></trkpt><trkpt lat="45.229870621014214" lon="9.146375459642416"><ele>84.0</ele><time>2026-03-29T09:20:34Z</time></trkpt><trkpt lat="45.22985867214835" lon="9.146242217739635"><ele>84.0</ele><time>2026-03-29T09:20:36Z</time></trkpt><trkpt lat="45.229843440495515" lon="9.146109940966346"><ele>84.0</ele><time>2026-03-29T09:20:38Z</time></trkpt><trkpt lat="45.22982529121912" lon="9.145975170235145"><ele>84.0</ele><time>2026-03-29T09:20:40Z</time></trkpt><trkpt lat="45.2298095341937" lon="9.145840940821207"><ele>84.0</ele><time>2026-03-29T09:20:42Z</time></trkpt><trkpt lat="45.22978993848397" lon="9.145708255142523"><ele>84.0</ele><time>2026-03-29T09:20:44Z</time></trkpt><trkpt lat="45.22976696277274" lon="9.14558383881387"><ele>84.0</ele><time>2026-03-29T09:20:46Z</time></trkpt><trkpt lat="45.229753499386995" lon="9.145439508089767"><ele>84.0</ele><time>2026-03-29T09:20:48Z</time></trkpt><trkpt lat="45.229743880342866" lon="9.145295291839208"><ele>84.0</ele><time>2026-03-29T09:20:50Z</time></trkpt><trkpt lat="45.2297254830648" lon="9.145159280356259"><ele>84.0</ele><time>2026-03-29T09:20:52Z</time></trkpt><trkpt lat="45.22970706504892" lon="9.145023115507035"><ele>84.0</ele><time>2026-03-29T09:20:54Z</time></trkpt><trkpt lat="45.22968748005051" lon="9.144877851911462"><ele>84.0</ele><time>2026-03-29T09:20:56Z</time></trkpt><trkpt lat="45.229656719053544" lon="9.144738308424749"><ele>84.0</ele><time>2026-03-29T09:20:58Z</time></trkpt><trkpt lat="45.229636781786056" lon="9.144593146780315"><ele>84.0</ele><time>2026-03-29T09:21:00Z</time></trkpt><trkpt lat="45.229616108504025" lon="9.144449978344932"><ele>84.0</ele><time>2026-03-29T09:21:02Z</time></trkpt><trkpt lat="45.22959694608944" lon="9.144312910002094"><ele>84.0</ele><time>2026-03-29T09:21:04.001Z</time></trkpt><trkpt lat="45.22959166867922" lon="9.144162317428007"><ele>84.0</ele><time>2026-03-29T09:21:06.001Z</time></trkpt><trkpt lat="45.22957313963972" lon="9.144022151129738"><ele>84.0</ele><time>2026-03-29T09:21:08.001Z</time></trkpt><trkpt lat="45.229555108731105" lon="9.143880213710252"><ele>84.0</ele><time>2026-03-29T09:21:10.001Z</time></trkpt><trkpt lat="45.2295379547428" lon="9.143745179305508"><ele>84.0</ele><time>2026-03-29T09:21:12.001Z</time></trkpt><trkpt lat="45.22952071848389" lon="9.143609497272736"><ele>84.2</ele><time>2026-03-29T09:21:14.001Z</time></trkpt><trkpt lat="45.22950255045831" lon="9.143467423576089"><ele>84.4</ele><time>2026-03-29T09:21:16.001Z</time></trkpt><trkpt lat="45.22948706003264" lon="9.143335390608312"><ele>84.6</ele><time>2026-03-29T09:21:18.001Z</time></trkpt><trkpt lat="45.22947021613632" lon="9.14319182221271"><ele>84.8</ele><time>2026-03-29T09:21:20.001Z</time></trkpt><trkpt lat="45.22943683971286" lon="9.143055782335374"><ele>85.0</ele><time>2026-03-29T09:21:22.001Z</time></trkpt><trkpt lat="45.22941722152372" lon="9.142923818352195"><ele>85.0</ele><time>2026-03-29T09:21:24.001Z</time></trkpt><trkpt lat="45.22939667217349" lon="9.142787706813968"><ele>85.0</ele><time>2026-03-29T09:21:26.001Z</time></trkpt><trkpt lat="45.22938725544364" lon="9.142648104504174"><ele>85.0</ele><time>2026-03-29T09:21:28.001Z</time></trkpt><trkpt lat="45.22936711045937" lon="9.142505367284379"><ele>85.0</ele><time>2026-03-29T09:21:30.001Z</time></trkpt><trkpt lat="45.229350571334805" lon="9.142363406290134"><ele>85.0</ele><time>2026-03-29T09:21:32.001Z</time></trkpt><trkpt lat="45.22933115635469" lon="9.14221923096842"><ele>85.0</ele><time>2026-03-29T09:21:34.001Z</time></trkpt><trkpt lat="45.229312776226685" lon="9.142071382927167"><ele>85.0</ele><time>2026-03-29T09:21:36.001Z</time></trkpt><trkpt lat="45.22928905280149" lon="9.141926977939864"><ele>85.0</ele><time>2026-03-29T09:21:38.001Z</time></trkpt><trkpt lat="45.22928427216277" lon="9.141775638597412"><ele>85.0</ele><time>2026-03-29T09:21:40.001Z</time></trkpt><trkpt lat="45.22926465445274" lon="9.141633147439798"><ele>85.0</ele><time>2026-03-29T09:21:42.001Z</time></trkpt><trkpt lat="45.22922928719473" lon="9.14149412640656"><ele>85.0</ele><time>2026-03-29T09:21:44.001Z</time></trkpt><trkpt lat="45.229211882997845" lon="9.141351555498971"><ele>85.0</ele><time>2026-03-29T09:21:46.001Z</time></trkpt><trkpt lat="45.229206529315384" lon="9.141207885992554"><ele>85.0</ele><time>2026-03-29T09:21:48.001Z</time></trkpt><trkpt lat="45.22917142214589" lon="9.141068635220519"><ele>85.0</ele><time>2026-03-29T09:21:50.001Z</time></trkpt><trkpt lat="45.22915227148768" lon="9.140923264874816"><ele>85.0</ele><time>2026-03-29T09:21:52.001Z</time></trkpt><trkpt lat="45.2291478856812" lon="9.140777535094697"><ele>84.8</ele><time>2026-03-29T09:21:54.001Z</time></trkpt><trkpt lat="45.229112733305485" lon="9.140641117542419"><ele>84.6</ele><time>2026-03-29T09:21:56.001Z</time></trkpt><trkpt lat="45.229109846812" lon="9.140500215342916"><ele>84.4</ele><time>2026-03-29T09:21:58.001Z</time></trkpt><trkpt lat="45.22909082724078" lon="9.140369024722462"><ele>84.2</ele><time>2026-03-29T09:22:00.001Z</time></trkpt><trkpt lat="45.22905726894952" lon="9.140246275937573"><ele>84.0</ele><time>2026-03-29T09:22:02.001Z</time></trkpt><trkpt lat="45.22905426467171" lon="9.140119638038236"><ele>84.0</ele><time>2026-03-29T09:22:04.001Z</time></trkpt><trkpt lat="45.229034691372874" lon="9.140001001358623"><ele>84.0</ele><time>2026-03-29T09:22:06.001Z</time></trkpt><trkpt lat="45.22900945678286" lon="9.139894312697047"><ele>84.0</ele><time>2026-03-29T09:22:08.001Z</time></trkpt><trkpt lat="45.22909587125776" lon="9.139849646978165"><ele>84.0</ele><time>2026-03-29T09:22:12.001Z</time></trkpt><trkpt lat="45.2291608889616" lon="9.139825112967355"><ele>84.0</ele><time>2026-03-29T09:22:14.001Z</time></trkpt><trkpt lat="45.22922232265534" lon="9.139802278877024"><ele>84.0</ele><time>2026-03-29T09:22:16.001Z</time></trkpt><trkpt lat="45.229298680683854" lon="9.139772413377363"><ele>84.0</ele><time>2026-03-29T09:22:18.001Z</time></trkpt><trkpt lat="45.229377379192094" lon="9.1397416324035"><ele>84.0</ele><time>2026-03-29T09:22:20.001Z</time></trkpt><trkpt lat="45.229460444131824" lon="9.139709143610716"><ele>84.0</ele><time>2026-03-29T09:22:22.001Z</time></trkpt><trkpt lat="45.229546383884184" lon="9.139675530410273"><ele>84.0</ele><time>2026-03-29T09:22:24Z</time></trkpt><trkpt lat="45.22963457792132" lon="9.13964354488858"><ele>84.0</ele><time>2026-03-29T09:22:26Z</time></trkpt><trkpt lat="45.22972887331919" lon="9.139609473770768"><ele>84.0</ele><time>2026-03-29T09:22:28Z</time></trkpt><trkpt lat="45.22982872720594" lon="9.139568858185633"><ele>84.0</ele><time>2026-03-29T09:22:30Z</time></trkpt><trkpt lat="45.22992321315205" lon="9.139529473259943"><ele>84.0</ele><time>2026-03-29T09:22:32Z</time></trkpt><trkpt lat="45.230015961167425" lon="9.139490812769527"><ele>84.0</ele><time>2026-03-29T09:22:34Z</time></trkpt><trkpt lat="45.230113853845204" lon="9.139452500263133"><ele>84.0</ele><time>2026-03-29T09:22:36Z</time></trkpt><trkpt lat="45.230210165143234" lon="9.139415919016272"><ele>84.0</ele><time>2026-03-29T09:22:38Z</time></trkpt><trkpt lat="45.230305152624524" lon="9.139379840580446"><ele>84.0</ele><time>2026-03-29T09:22:40Z</time></trkpt><trkpt lat="45.230408421691344" lon="9.139339973015838"><ele>84.0</ele><time>2026-03-29T09:22:42Z</time></trkpt><trkpt lat="45.23051122914992" lon="9.139300092757406"><ele>84.0</ele><time>2026-03-29T09:22:44Z</time></trkpt><trkpt lat="45.2306176241786" lon="9.13925882089562"><ele>84.0</ele><time>2026-03-29T09:22:46Z</time></trkpt><trkpt lat="45.23071730030285" lon="9.139183282325204"><ele>84.0</ele><time>2026-03-29T09:22:48Z</time></trkpt><trkpt lat="45.23083296942858" lon="9.139140599149496"><ele>84.0</ele><time>2026-03-29T09:22:50Z</time></trkpt><trkpt lat="45.23094288133838" lon="9.139094788084074"><ele>84.0</ele><time>2026-03-29T09:22:52Z</time></trkpt><trkpt lat="45.231052631631215" lon="9.139050534269689"><ele>84.0</ele><time>2026-03-29T09:22:54Z</time></trkpt><trkpt lat="45.231160742856645" lon="9.139004591081855"><ele>84.0</ele><time>2026-03-29T09:22:56Z</time></trkpt><trkpt lat="45.23127039987161" lon="9.138963730087335"><ele>83.5</ele><time>2026-03-29T09:22:58Z</time></trkpt><trkpt lat="45.23138041198494" lon="9.13892673029582"><ele>83.0</ele><time>2026-03-29T09:23:00Z</time></trkpt><trkpt lat="45.231488406149936" lon="9.138881626438035"><ele>82.5</ele><time>2026-03-29T09:23:02Z</time></trkpt><trkpt lat="45.23159769449029" lon="9.138845030350367"><ele>82.0</ele><time>2026-03-29T09:23:04Z</time></trkpt><trkpt lat="45.23170701378251" lon="9.138804392908337"><ele>82.0</ele><time>2026-03-29T09:23:06Z</time></trkpt><trkpt lat="45.2318153242698" lon="9.138755826575514"><ele>82.0</ele><time>2026-03-29T09:23:08Z</time></trkpt><trkpt lat="45.23192745360971" lon="9.1387208032124"><ele>82.0</ele><time>2026-03-29T09:23:10Z</time></trkpt><trkpt lat="45.23203587161928" lon="9.138673754986915"><ele>82.0</ele><time>2026-03-29T09:23:12Z</time></trkpt><trkpt lat="45.232142473326334" lon="9.138638777037427"><ele>82.0</ele><time>2026-03-29T09:23:14Z</time></trkpt><trkpt lat="45.232253194681846" lon="9.138588791477009"><ele>82.0</ele><time>2026-03-29T09:23:16Z</time></trkpt><trkpt lat="45.23236209495884" lon="9.138547443101213"><ele>82.0</ele><time>2026-03-29T09:23:18Z</time></trkpt><trkpt lat="45.23247625262529" lon="9.138502188936451"><ele>82.0</ele><time>2026-03-29T09:23:20Z</time></trkpt><trkpt lat="45.23258554472025" lon="9.138460854782569"><ele>82.25</ele><time>2026-03-29T09:23:22Z</time></trkpt><trkpt lat="45.232696810838284" lon="9.13841610425395"><ele>82.5</ele><time>2026-03-29T09:23:24.001Z</time></trkpt><trkpt lat="45.23280676330855" lon="9.138375352507252"><ele>82.75</ele><time>2026-03-29T09:23:26.001Z</time></trkpt><trkpt lat="45.232915091184175" lon="9.138330881238565"><ele>83.0</ele><time>2026-03-29T09:23:28.001Z</time></trkpt><trkpt lat="45.23302659707264" lon="9.138285337604579"><ele>83.25</ele><time>2026-03-29T09:23:30.001Z</time></trkpt><trkpt lat="45.23313982380223" lon="9.138248764991488"><ele>83.5</ele><time>2026-03-29T09:23:32.001Z</time></trkpt><trkpt lat="45.23325276841414" lon="9.138203496377708"><ele>83.75</ele><time>2026-03-29T09:23:34.001Z</time></trkpt><trkpt lat="45.23336375976077" lon="9.138158492863823"><ele>84.0</ele><time>2026-03-29T09:23:36.001Z</time></trkpt><trkpt lat="45.233476692903004" lon="9.138115898488975"><ele>83.25</ele><time>2026-03-29T09:23:38.001Z</time></trkpt><trkpt lat="45.233590287589244" lon="9.138073613998703"><ele>82.5</ele><time>2026-03-29T09:23:40.001Z</time></trkpt><trkpt lat="45.2337028569885" lon="9.138029469584701"><ele>81.75</ele><time>2026-03-29T09:23:42.001Z</time></trkpt><trkpt lat="45.23381251671105" lon="9.137985393404815"><ele>81.0</ele><time>2026-03-29T09:23:44.001Z</time></trkpt><trkpt lat="45.23392160339063" lon="9.13794195445476"><ele>81.75</ele><time>2026-03-29T09:23:46.001Z</time></trkpt><trkpt lat="45.23403246375176" lon="9.137901421376403"><ele>82.5</ele><time>2026-03-29T09:23:48.001Z</time></trkpt><trkpt lat="45.23414317575701" lon="9.137855912188659"><ele>83.25</ele><time>2026-03-29T09:23:50.001Z</time></trkpt><trkpt lat="45.234254110508374" lon="9.137815981226288"><ele>84.0</ele><time>2026-03-29T09:23:52.001Z</time></trkpt><trkpt lat="45.23436846749096" lon="9.137773710093184"><ele>84.0</ele><time>2026-03-29T09:23:54.001Z</time></trkpt><trkpt lat="45.234482114395185" lon="9.137728130694368"><ele>84.0</ele><time>2026-03-29T09:23:56.001Z</time></trkpt><trkpt lat="45.2345990810609" lon="9.137686724940131"><ele>84.0</ele><time>2026-03-29T09:23:58.001Z</time></trkpt><trkpt lat="45.23471476141084" lon="9.137639532273033"><ele>84.0</ele><time>2026-03-29T09:24:00.001Z</time></trkpt><trkpt lat="45.23483300208455" lon="9.13759747367098"><ele>84.25</ele><time>2026-03-29T09:24:02.001Z</time></trkpt><trkpt lat="45.23494366666034" lon="9.13755274940106"><ele>84.5</ele><time>2026-03-29T09:24:04.001Z</time></trkpt><trkpt lat="45.235060698396204" lon="9.137508773610826"><ele>84.75</ele><time>2026-03-29T09:24:06.001Z</time></trkpt><trkpt lat="45.235175037528016" lon="9.137462731244781"><ele>85.0</ele><time>2026-03-29T09:24:08.001Z</time></trkpt><trkpt lat="45.23529240732441" lon="9.13742113867946"><ele>85.25</ele><time>2026-03-29T09:24:10.001Z</time></trkpt><trkpt lat="45.235402563345474" lon="9.137378919680183"><ele>85.5</ele><time>2026-03-29T09:24:12.001Z</time></trkpt><trkpt lat="45.23551462101046" lon="9.137336705792665"><ele>85.75</ele><time>2026-03-29T09:24:14.001Z</time></trkpt><trkpt lat="45.23562662423949" lon="9.137295026761036"><ele>86.0</ele><time>2026-03-29T09:24:16.001Z</time></trkpt><trkpt lat="45.23573574940396" lon="9.137259152677888"><ele>85.6</ele><time>2026-03-29T09:24:18.001Z</time></trkpt><trkpt lat="45.23579658062615" lon="9.137234039700083"><ele>85.19999999999999</ele><time>2026-03-29T09:24:19.001Z</time></trkpt><trkpt lat="45.23591519441826" lon="9.137202715303541"><ele>84.80000000000001</ele><time>2026-03-29T09:24:21.001Z</time></trkpt><trkpt lat="45.23604548012551" lon="9.137152670388616"><ele>84.4</ele><time>2026-03-29T09:24:23.001Z</time></trkpt><trkpt lat="45.23615685828802" lon="9.137109888177713"><ele>84.0</ele><time>2026-03-29T09:24:25.001Z</time></trkpt><trkpt lat="45.23627081227462" lon="9.1370658412682"><ele>84.0</ele><time>2026-03-29T09:24:27.001Z</time></trkpt><trkpt lat="45.23638387786154" lon="9.137021850220865"><ele>84.0</ele><time>2026-03-29T09:24:29Z</time></trkpt><trkpt lat="45.23649757524245" lon="9.136978187870525"><ele>84.0</ele><time>2026-03-29T09:24:31Z</time></trkpt><trkpt lat="45.23661124859607" lon="9.136934446981432"><ele>84.0</ele><time>2026-03-29T09:24:33Z</time></trkpt><trkpt lat="45.23672918291182" lon="9.136889067414554"><ele>84.25</ele><time>2026-03-29T09:24:35Z</time></trkpt><trkpt lat="45.236846553550436" lon="9.13684390476573"><ele>84.5</ele><time>2026-03-29T09:24:37Z</time></trkpt><trkpt lat="45.23696521206089" lon="9.136798246564"><ele>84.75</ele><time>2026-03-29T09:24:39Z</time></trkpt><trkpt lat="45.23708998903539" lon="9.13675023404928"><ele>85.0</ele><time>2026-03-29T09:24:41Z</time></trkpt><trkpt lat="45.237194743042735" lon="9.136664434576241"><ele>84.75</ele><time>2026-03-29T09:24:43Z</time></trkpt><trkpt lat="45.23737335370206" lon="9.136601979681185"><ele>84.5</ele><time>2026-03-29T09:24:46Z</time></trkpt><trkpt lat="45.23749211176876" lon="9.136555530124491"><ele>84.25</ele><time>2026-03-29T09:24:48Z</time></trkpt><trkpt lat="45.23760719785904" lon="9.136507625069244"><ele>84.0</ele><time>2026-03-29T09:24:50Z</time></trkpt><trkpt lat="45.237719805725604" lon="9.136465785026402"><ele>83.75</ele><time>2026-03-29T09:24:52Z</time></trkpt><trkpt lat="45.23783443695605" lon="9.136416017039744"><ele>83.5</ele><time>2026-03-29T09:24:54Z</time></trkpt><trkpt lat="45.23794606944249" lon="9.136360916886813"><ele>83.25</ele><time>2026-03-29T09:24:56Z</time></trkpt><trkpt lat="45.23806524183977" lon="9.136321767000565"><ele>83.0</ele><time>2026-03-29T09:24:58Z</time></trkpt><trkpt lat="45.238179919507495" lon="9.136277321728572"><ele>83.0</ele><time>2026-03-29T09:25:00Z</time></trkpt><trkpt lat="45.23829798906044" lon="9.136235395155385"><ele>83.0</ele><time>2026-03-29T09:25:02Z</time></trkpt><trkpt lat="45.238412527969814" lon="9.136191956824998"><ele>83.0</ele><time>2026-03-29T09:25:04Z</time></trkpt><trkpt lat="45.23853214079511" lon="9.136144499189292"><ele>83.0</ele><time>2026-03-29T09:25:06Z</time></trkpt><trkpt lat="45.23864504661038" lon="9.136097597916743"><ele>83.0</ele><time>2026-03-29T09:25:08Z</time></trkpt><trkpt lat="45.23876029544422" lon="9.136054125670793"><ele>83.0</ele><time>2026-03-29T09:25:10Z</time></trkpt><trkpt lat="45.23887375172552" lon="9.136010677666402"><ele>83.0</ele><time>2026-03-29T09:25:12Z</time></trkpt><trkpt lat="45.23898649445452" lon="9.135965553807521"><ele>83.0</ele><time>2026-03-29T09:25:14Z</time></trkpt><trkpt lat="45.239102332345745" lon="9.135919746570616"><ele>83.4</ele><time>2026-03-29T09:25:16Z</time></trkpt><trkpt lat="45.23916333969553" lon="9.135896769499672"><ele>83.80000000000001</ele><time>2026-03-29T09:25:17Z</time></trkpt><trkpt lat="45.2392778905992" lon="9.135854989910214"><ele>84.2</ele><time>2026-03-29T09:25:19Z</time></trkpt><trkpt lat="45.23938504718751" lon="9.135820680614142"><ele>84.6</ele><time>2026-03-29T09:25:21Z</time></trkpt><trkpt lat="45.23947638603799" lon="9.135787426088298"><ele>85.0</ele><time>2026-03-29T09:25:23Z</time></trkpt><trkpt lat="45.23954953658823" lon="9.135762277016315"><ele>85.0</ele><time>2026-03-29T09:25:26Z</time></trkpt><trkpt lat="45.23961903530098" lon="9.135740134663571"><ele>85.0</ele><time>2026-03-29T09:25:31Z</time></trkpt><trkpt lat="45.2396888799066" lon="9.135732700140432"><ele>85.0</ele><time>2026-03-29T09:25:33Z</time></trkpt><trkpt lat="45.23976615180256" lon="9.135698658533185"><ele>85.0</ele><time>2026-03-29T09:25:35Z</time></trkpt><trkpt lat="45.239854122055384" lon="9.135651896718569"><ele>85.0</ele><time>2026-03-29T09:25:37Z</time></trkpt><trkpt lat="45.239953890865955" lon="9.135609808893015"><ele>85.0</ele><time>2026-03-29T09:25:39.001Z</time></trkpt><trkpt lat="45.24006976760218" lon="9.13556689769529"><ele>84.6</ele><time>2026-03-29T09:25:41.001Z</time></trkpt><trkpt lat="45.24019944894949" lon="9.13552833425602"><ele>84.2</ele><time>2026-03-29T09:25:43.001Z</time></trkpt><trkpt lat="45.24026205281409" lon="9.135504054435591"><ele>83.80000000000001</ele><time>2026-03-29T09:25:44.001Z</time></trkpt><trkpt lat="45.24032312136926" lon="9.135475648812799"><ele>83.4</ele><time>2026-03-29T09:25:45.001Z</time></trkpt><trkpt lat="45.24044291838455" lon="9.135428396689674"><ele>83.0</ele><time>2026-03-29T09:25:47.001Z</time></trkpt><trkpt lat="45.2405615991213" lon="9.13538425533234"><ele>83.25</ele><time>2026-03-29T09:25:49.001Z</time></trkpt><trkpt lat="45.24073393663386" lon="9.135325414982324"><ele>83.5</ele><time>2026-03-29T09:25:52.001Z</time></trkpt><trkpt lat="45.24083897991567" lon="9.135271953886791"><ele>83.75</ele><time>2026-03-29T09:25:54.001Z</time></trkpt><trkpt lat="45.240945053207454" lon="9.135235021694179"><ele>84.0</ele><time>2026-03-29T09:25:56.001Z</time></trkpt><trkpt lat="45.24104577190113" lon="9.135194889945994"><ele>84.0</ele><time>2026-03-29T09:25:58.001Z</time></trkpt><trkpt lat="45.24114212116947" lon="9.135155013707777"><ele>84.0</ele><time>2026-03-29T09:26:00.001Z</time></trkpt><trkpt lat="45.24124812299224" lon="9.135127102286132"><ele>84.0</ele><time>2026-03-29T09:26:02.001Z</time></trkpt><trkpt lat="45.24135769022197" lon="9.135093293844792"><ele>84.0</ele><time>2026-03-29T09:26:04.001Z</time></trkpt><trkpt lat="45.24146860094052" lon="9.135049903861416"><ele>84.0</ele><time>2026-03-29T09:26:06.001Z</time></trkpt><trkpt lat="45.241578617690045" lon="9.135005746414848"><ele>84.25</ele><time>2026-03-29T09:26:08.001Z</time></trkpt><trkpt lat="45.24169144569148" lon="9.134965396410031"><ele>84.5</ele><time>2026-03-29T09:26:10.001Z</time></trkpt><trkpt lat="45.241814237895" lon="9.134936241370049"><ele>84.75</ele><time>2026-03-29T09:26:12.001Z</time></trkpt><trkpt lat="45.24192529392632" lon="9.134882209953906"><ele>85.0</ele><time>2026-03-29T09:26:14.001Z</time></trkpt><trkpt lat="45.24204144592489" lon="9.134831286522642"><ele>85.0</ele><time>2026-03-29T09:26:16.001Z</time></trkpt><trkpt lat="45.242156048289154" lon="9.134785413335631"><ele>85.0</ele><time>2026-03-29T09:26:18.001Z</time></trkpt><trkpt lat="45.24227209560933" lon="9.134747712105248"><ele>85.0</ele><time>2026-03-29T09:26:20.001Z</time></trkpt><trkpt lat="45.24238742917659" lon="9.134703955424385"><ele>85.0</ele><time>2026-03-29T09:26:22.001Z</time></trkpt><trkpt lat="45.24250319525377" lon="9.134657782378516"><ele>84.75</ele><time>2026-03-29T09:26:24.001Z</time></trkpt><trkpt lat="45.24261778467661" lon="9.134610447744967"><ele>84.5</ele><time>2026-03-29T09:26:26.001Z</time></trkpt><trkpt lat="45.242734064772705" lon="9.134566846561034"><ele>84.25</ele><time>2026-03-29T09:26:28.001Z</time></trkpt><trkpt lat="45.24284617533935" lon="9.134518435315641"><ele>84.0</ele><time>2026-03-29T09:26:30.001Z</time></trkpt><trkpt lat="45.24295923495161" lon="9.134476201222595"><ele>84.0</ele><time>2026-03-29T09:26:32.001Z</time></trkpt><trkpt lat="45.24307639844177" lon="9.134436683014146"><ele>84.0</ele><time>2026-03-29T09:26:34.001Z</time></trkpt><trkpt lat="45.24318942906862" lon="9.134389005280777"><ele>84.0</ele><time>2026-03-29T09:26:36Z</time></trkpt><trkpt lat="45.24330367307154" lon="9.134341846421277"><ele>84.0</ele><time>2026-03-29T09:26:38Z</time></trkpt><trkpt lat="45.243419176108375" lon="9.134300462482658"><ele>84.25</ele><time>2026-03-29T09:26:40Z</time></trkpt><trkpt lat="45.2435346097775" lon="9.134260063716852"><ele>84.5</ele><time>2026-03-29T09:26:42Z</time></trkpt><trkpt lat="45.24364802384767" lon="9.134215464488838"><ele>84.75</ele><time>2026-03-29T09:26:44Z</time></trkpt><trkpt lat="45.24376307774143" lon="9.134167985909702"><ele>85.0</ele><time>2026-03-29T09:26:46Z</time></trkpt><trkpt lat="45.24388189042476" lon="9.134128195958631"><ele>84.8</ele><time>2026-03-29T09:26:48Z</time></trkpt><trkpt lat="45.244002486260946" lon="9.13408371944584"><ele>84.6</ele><time>2026-03-29T09:26:50Z</time></trkpt><trkpt lat="45.24412384080479" lon="9.134041130662396"><ele>84.4</ele><time>2026-03-29T09:26:52Z</time></trkpt><trkpt lat="45.244185135026946" lon="9.134019824990874"><ele>84.2</ele><time>2026-03-29T09:26:53Z</time></trkpt><trkpt lat="45.24430412577218" lon="9.133969746558108"><ele>84.0</ele><time>2026-03-29T09:26:55Z</time></trkpt><trkpt lat="45.24436478448009" lon="9.133945331971017"><ele>83.83333333333333</ele><time>2026-03-29T09:26:56Z</time></trkpt><trkpt lat="45.24442701458406" lon="9.133927833523629"><ele>83.66666666666667</ele><time>2026-03-29T09:26:57Z</time></trkpt><trkpt lat="45.244488075220765" lon="9.13390600789401"><ele>83.5</ele><time>2026-03-29T09:26:58Z</time></trkpt><trkpt lat="45.24460599859808" lon="9.1338531352669"><ele>83.33333333333334</ele><time>2026-03-29T09:27:00Z</time></trkpt><trkpt lat="45.244666606190506" lon="9.133827807083257"><ele>83.16666666666667</ele><time>2026-03-29T09:27:01Z</time></trkpt><trkpt lat="45.244786775279245" lon="9.133782658585202"><ele>83.0</ele><time>2026-03-29T09:27:03Z</time></trkpt><trkpt lat="45.244907613783724" lon="9.133742569648305"><ele>83.5</ele><time>2026-03-29T09:27:05Z</time></trkpt><trkpt lat="45.245024017688245" lon="9.133691079097218"><ele>84.0</ele><time>2026-03-29T09:27:07Z</time></trkpt><trkpt lat="45.245201514330326" lon="9.133621326210982"><ele>84.5</ele><time>2026-03-29T09:27:10Z</time></trkpt><trkpt lat="45.24532061693802" lon="9.13358464997663"><ele>85.0</ele><time>2026-03-29T09:27:12Z</time></trkpt><trkpt lat="45.245438000103526" lon="9.133541220473049"><ele>85.0</ele><time>2026-03-29T09:27:14Z</time></trkpt><trkpt lat="45.245556080813984" lon="9.133492829964126"><ele>85.0</ele><time>2026-03-29T09:27:16Z</time></trkpt><trkpt lat="45.24561568163066" lon="9.13346268730942"><ele>85.0</ele><time>2026-03-29T09:27:17Z</time></trkpt><trkpt lat="45.2457311905985" lon="9.133406934011967"><ele>85.0</ele><time>2026-03-29T09:27:19Z</time></trkpt><trkpt lat="45.24585463663959" lon="9.133361733423763"><ele>85.0</ele><time>2026-03-29T09:27:21Z</time></trkpt><trkpt lat="45.24596406039978" lon="9.133330208803786"><ele>85.0</ele><time>2026-03-29T09:27:23Z</time></trkpt><trkpt lat="45.24606822140559" lon="9.13328199326704"><ele>85.0</ele><time>2026-03-29T09:27:25Z</time></trkpt><trkpt lat="45.24617294451273" lon="9.133236422424444"><ele>85.0</ele><time>2026-03-29T09:27:27Z</time></trkpt><trkpt lat="45.24628570235913" lon="9.133197607962977"><ele>85.0</ele><time>2026-03-29T09:27:29Z</time></trkpt><trkpt lat="45.2464013914136" lon="9.13316082207699"><ele>85.25</ele><time>2026-03-29T09:27:31Z</time></trkpt><trkpt lat="45.24651143875288" lon="9.1331159496062"><ele>85.5</ele><time>2026-03-29T09:27:33Z</time></trkpt><trkpt lat="45.24661949350101" lon="9.13306627699279"><ele>85.75</ele><time>2026-03-29T09:27:35Z</time></trkpt><trkpt lat="45.24673052813569" lon="9.133030435885349"><ele>86.0</ele><time>2026-03-29T09:27:37Z</time></trkpt><trkpt lat="45.2468418464424" lon="9.13299617924277"><ele>86.0</ele><time>2026-03-29T09:27:39Z</time></trkpt><trkpt lat="45.246950108859906" lon="9.132951568051439"><ele>86.0</ele><time>2026-03-29T09:27:41Z</time></trkpt><trkpt lat="45.2470579331076" lon="9.132902376720871"><ele>86.0</ele><time>2026-03-29T09:27:43Z</time></trkpt><trkpt lat="45.24716938566612" lon="9.13286542154492"><ele>86.0</ele><time>2026-03-29T09:27:45Z</time></trkpt><trkpt lat="45.24728374772511" lon="9.132829599228216"><ele>85.75</ele><time>2026-03-29T09:27:47Z</time></trkpt><trkpt lat="45.247393789936105" lon="9.1327779166261"><ele>85.5</ele><time>2026-03-29T09:27:49Z</time></trkpt><trkpt lat="45.24751443192498" lon="9.13274582741885"><ele>85.25</ele><time>2026-03-29T09:27:51.001Z</time></trkpt><trkpt lat="45.24763253677164" lon="9.132708987145739"><ele>85.0</ele><time>2026-03-29T09:27:53.001Z</time></trkpt><trkpt lat="45.24774518615924" lon="9.132658914066084"><ele>85.0</ele><time>2026-03-29T09:27:55.001Z</time></trkpt><trkpt lat="45.24785747613065" lon="9.132611099693156"><ele>85.0</ele><time>2026-03-29T09:27:57.001Z</time></trkpt><trkpt lat="45.24797227053408" lon="9.1325631709872"><ele>85.0</ele><time>2026-03-29T09:27:59.001Z</time></trkpt><trkpt lat="45.248086693954725" lon="9.132518897935475"><ele>85.0</ele><time>2026-03-29T09:28:01.001Z</time></trkpt><trkpt lat="45.24820110835189" lon="9.132472273302255"><ele>85.0</ele><time>2026-03-29T09:28:03.001Z</time></trkpt><trkpt lat="45.24831165356491" lon="9.132428584753175"><ele>85.0</ele><time>2026-03-29T09:28:05.001Z</time></trkpt><trkpt lat="45.24842207205158" lon="9.13238451644795"><ele>85.0</ele><time>2026-03-29T09:28:07.001Z</time></trkpt><trkpt lat="45.24853544457302" lon="9.132347345187483"><ele>85.0</ele><time>2026-03-29T09:28:09.001Z</time></trkpt><trkpt lat="45.24863752739608" lon="9.13229362846856"><ele>85.0</ele><time>2026-03-29T09:28:11.001Z</time></trkpt><trkpt lat="45.248738441756785" lon="9.132264429949029"><ele>85.0</ele><time>2026-03-29T09:28:13.001Z</time></trkpt><trkpt lat="45.24881940884464" lon="9.132216629632001"><ele>85.0</ele><time>2026-03-29T09:28:15.001Z</time></trkpt><trkpt lat="45.24891415168548" lon="9.132192156224283"><ele>85.0</ele><time>2026-03-29T09:28:17.001Z</time></trkpt><trkpt lat="45.24900376500072" lon="9.132152928208315"><ele>85.0</ele><time>2026-03-29T09:28:19.001Z</time></trkpt><trkpt lat="45.2491033269942" lon="9.132116694393778"><ele>85.0</ele><time>2026-03-29T09:28:21.001Z</time></trkpt><trkpt lat="45.249208516539326" lon="9.132079679889666"><ele>85.0</ele><time>2026-03-29T09:28:23.001Z</time></trkpt><trkpt lat="45.24930980718851" lon="9.132031119501901"><ele>85.0</ele><time>2026-03-29T09:28:25.001Z</time></trkpt><trkpt lat="45.24941100163355" lon="9.131987194021066"><ele>85.0</ele><time>2026-03-29T09:28:27.001Z</time></trkpt><trkpt lat="45.24951229539156" lon="9.131957396162544"><ele>85.0</ele><time>2026-03-29T09:28:29.001Z</time></trkpt><trkpt lat="45.24961243222387" lon="9.131924060256022"><ele>85.0</ele><time>2026-03-29T09:28:31.001Z</time></trkpt><trkpt lat="45.24971517505336" lon="9.131884898906256"><ele>85.0</ele><time>2026-03-29T09:28:33.001Z</time></trkpt><trkpt lat="45.2498167949394" lon="9.13184234907508"><ele>85.0</ele><time>2026-03-29T09:28:35.001Z</time></trkpt><trkpt lat="45.24992176599872" lon="9.131808956830588"><ele>85.0</ele><time>2026-03-29T09:28:37.001Z</time></trkpt><trkpt lat="45.25002713208577" lon="9.131771863317196"><ele>85.0</ele><time>2026-03-29T09:28:39.001Z</time></trkpt><trkpt lat="45.25013160164949" lon="9.13174435009958"><ele>84.8</ele><time>2026-03-29T09:28:41Z</time></trkpt><trkpt lat="45.2502389054542" lon="9.13172174341543"><ele>84.6</ele><time>2026-03-29T09:28:43Z</time></trkpt><trkpt lat="45.25034282421735" lon="9.131695696133717"><ele>84.4</ele><time>2026-03-29T09:28:45Z</time></trkpt><trkpt lat="45.25044267100228" lon="9.131687827338645"><ele>84.2</ele><time>2026-03-29T09:28:47Z</time></trkpt><trkpt lat="45.25052078992382" lon="9.131658627842087"><ele>84.0</ele><time>2026-03-29T09:28:49Z</time></trkpt><trkpt lat="45.250604626097584" lon="9.131647148053244"><ele>84.6</ele><time>2026-03-29T09:28:51Z</time></trkpt><trkpt lat="45.25069837957042" lon="9.131634843012097"><ele>85.2</ele><time>2026-03-29T09:28:53Z</time></trkpt><trkpt lat="45.250799923175414" lon="9.131627459624578"><ele>85.8</ele><time>2026-03-29T09:28:55Z</time></trkpt><trkpt lat="45.25089831301487" lon="9.131619325786104"><ele>86.39999999999999</ele><time>2026-03-29T09:28:57Z</time></trkpt><trkpt lat="45.25099841313489" lon="9.13161569273122"><ele>87.0</ele><time>2026-03-29T09:28:59Z</time></trkpt><trkpt lat="45.25110385620843" lon="9.131614642188776"><ele>87.0</ele><time>2026-03-29T09:29:01Z</time></trkpt><trkpt lat="45.25121649269554" lon="9.131621858499198"><ele>87.0</ele><time>2026-03-29T09:29:03Z</time></trkpt><trkpt lat="45.25132514667307" lon="9.131624144429512"><ele>87.0</ele><time>2026-03-29T09:29:05Z</time></trkpt><trkpt lat="45.251430798001856" lon="9.131627310442395"><ele>87.0</ele><time>2026-03-29T09:29:07Z</time></trkpt><trkpt lat="45.25153956454072" lon="9.131636468999835"><ele>87.0</ele><time>2026-03-29T09:29:09Z</time></trkpt><trkpt lat="45.25165404817155" lon="9.13161428722201"><ele>86.8</ele><time>2026-03-29T09:29:11Z</time></trkpt><trkpt lat="45.251763771484846" lon="9.131621544075816"><ele>86.6</ele><time>2026-03-29T09:29:13Z</time></trkpt><trkpt lat="45.25187181329774" lon="9.131622502405222"><ele>86.39999999999999</ele><time>2026-03-29T09:29:15Z</time></trkpt><trkpt lat="45.25197749357672" lon="9.131634581986257"><ele>86.19999999999999</ele><time>2026-03-29T09:29:17Z</time></trkpt><trkpt lat="45.252085354545216" lon="9.131636543127888"><ele>86.0</ele><time>2026-03-29T09:29:19Z</time></trkpt><trkpt lat="45.25218761398606" lon="9.13163853223323"><ele>86.0</ele><time>2026-03-29T09:29:21Z</time></trkpt><trkpt lat="45.252289028289084" lon="9.131642679786781"><ele>86.0</ele><time>2026-03-29T09:29:23Z</time></trkpt><trkpt lat="45.252389612269624" lon="9.13164880768534"><ele>86.0</ele><time>2026-03-29T09:29:25Z</time></trkpt><trkpt lat="45.25249328256265" lon="9.131644204210497"><ele>86.0</ele><time>2026-03-29T09:29:27Z</time></trkpt><trkpt lat="45.25259453442851" lon="9.131628481545198"><ele>86.0</ele><time>2026-03-29T09:29:29Z</time></trkpt><trkpt lat="45.25269610988254" lon="9.131619912794347"><ele>86.6</ele><time>2026-03-29T09:29:31Z</time></trkpt><trkpt lat="45.25279565738408" lon="9.131594437827706"><ele>87.19999999999999</ele><time>2026-03-29T09:29:33Z</time></trkpt><trkpt lat="45.25288944584745" lon="9.13156875124136"><ele>87.80000000000001</ele><time>2026-03-29T09:29:35Z</time></trkpt><trkpt lat="45.252985528971436" lon="9.13154194689063"><ele>88.4</ele><time>2026-03-29T09:29:37Z</time></trkpt><trkpt lat="45.25307093698547" lon="9.131507007777069"><ele>89.0</ele><time>2026-03-29T09:29:39Z</time></trkpt><trkpt lat="45.253147052593164" lon="9.131482186486915"><ele>89.33333333333334</ele><time>2026-03-29T09:29:41Z</time></trkpt><trkpt lat="45.25321543165144" lon="9.131463310534746"><ele>89.66666666666667</ele><time>2026-03-29T09:29:44Z</time></trkpt><trkpt lat="45.25327602644122" lon="9.131425635796028"><ele>90.0</ele><time>2026-03-29T09:29:48Z</time></trkpt><trkpt lat="45.253341559871956" lon="9.131400872967934"><ele>90.33333333333333</ele><time>2026-03-29T09:29:50.001Z</time></trkpt><trkpt lat="45.25341991094604" lon="9.131365084326319"><ele>90.66666666666666</ele><time>2026-03-29T09:29:52.001Z</time></trkpt><trkpt lat="45.253512335455305" lon="9.13132156144879"><ele>91.0</ele><time>2026-03-29T09:29:54.001Z</time></trkpt><trkpt lat="45.25360712299501" lon="9.131266076046318"><ele>91.0</ele><time>2026-03-29T09:29:56.001Z</time></trkpt><trkpt lat="45.25371031910677" lon="9.131212152476166"><ele>91.0</ele><time>2026-03-29T09:29:58.001Z</time></trkpt><trkpt lat="45.25380991029192" lon="9.131161265210888"><ele>91.0</ele><time>2026-03-29T09:30:00.001Z</time></trkpt><trkpt lat="45.25390534478477" lon="9.131117724475718"><ele>91.0</ele><time>2026-03-29T09:30:02.001Z</time></trkpt><trkpt lat="45.253990583540194" lon="9.131060713016769"><ele>91.0</ele><time>2026-03-29T09:30:04.001Z</time></trkpt><trkpt lat="45.25407615085438" lon="9.13100368745867"><ele>91.19999999999999</ele><time>2026-03-29T09:30:06.001Z</time></trkpt><trkpt lat="45.254162688223175" lon="9.13093860392492"><ele>91.39999999999999</ele><time>2026-03-29T09:30:08.001Z</time></trkpt><trkpt lat="45.254254119605136" lon="9.130868406541806"><ele>91.6</ele><time>2026-03-29T09:30:10.001Z</time></trkpt><trkpt lat="45.25434693389779" lon="9.130802503143782"><ele>91.8</ele><time>2026-03-29T09:30:12.001Z</time></trkpt><trkpt lat="45.25444097856026" lon="9.13073363643361"><ele>92.0</ele><time>2026-03-29T09:30:14.001Z</time></trkpt><trkpt lat="45.254536575236116" lon="9.130659890474965"><ele>91.39999999999999</ele><time>2026-03-29T09:30:16.001Z</time></trkpt><trkpt lat="45.25462730869659" lon="9.130596893024634"><ele>90.8</ele><time>2026-03-29T09:30:18.001Z</time></trkpt><trkpt lat="45.25472285519227" lon="9.13051235520899"><ele>90.2</ele><time>2026-03-29T09:30:20.001Z</time></trkpt><trkpt lat="45.25481090759973" lon="9.130440071066301"><ele>89.6</ele><time>2026-03-29T09:30:22.001Z</time></trkpt><trkpt lat="45.25489270782172" lon="9.130364243375046"><ele>89.0</ele><time>2026-03-29T09:30:24.001Z</time></trkpt><trkpt lat="45.25497247595121" lon="9.13029709350997"><ele>89.0</ele><time>2026-03-29T09:30:26.001Z</time></trkpt><trkpt lat="45.255053131449316" lon="9.130237803588086"><ele>89.0</ele><time>2026-03-29T09:30:28.001Z</time></trkpt><trkpt lat="45.25512680995871" lon="9.130185189016789"><ele>89.0</ele><time>2026-03-29T09:30:30.001Z</time></trkpt><trkpt lat="45.25519756749455" lon="9.13012839994919"><ele>89.0</ele><time>2026-03-29T09:30:32.001Z</time></trkpt><trkpt lat="45.25527336306334" lon="9.130060431214375"><ele>89.0</ele><time>2026-03-29T09:30:34.001Z</time></trkpt><trkpt lat="45.25535645983165" lon="9.129993255796736"><ele>89.0</ele><time>2026-03-29T09:30:36.001Z</time></trkpt><trkpt lat="45.25544634510407" lon="9.129931787964876"><ele>88.80000000000001</ele><time>2026-03-29T09:30:38.001Z</time></trkpt><trkpt lat="45.25554213336038" lon="9.129857551844031"><ele>88.60000000000001</ele><time>2026-03-29T09:30:40.001Z</time></trkpt><trkpt lat="45.25563281275839" lon="9.129777218773107"><ele>88.4</ele><time>2026-03-29T09:30:42.001Z</time></trkpt><trkpt lat="45.25572492655702" lon="9.129697287226216"><ele>88.2</ele><time>2026-03-29T09:30:44.001Z</time></trkpt><trkpt lat="45.25581988528046" lon="9.129617503818515"><ele>88.0</ele><time>2026-03-29T09:30:46.001Z</time></trkpt><trkpt lat="45.255919754423154" lon="9.129546299404131"><ele>87.75</ele><time>2026-03-29T09:30:48Z</time></trkpt><trkpt lat="45.25601588760195" lon="9.129460954169998"><ele>87.5</ele><time>2026-03-29T09:30:50Z</time></trkpt><trkpt lat="45.25611825754769" lon="9.129388328537926"><ele>87.25</ele><time>2026-03-29T09:30:52Z</time></trkpt><trkpt lat="45.25622570573697" lon="9.129321204722702"><ele>87.0</ele><time>2026-03-29T09:30:54Z</time></trkpt><trkpt lat="45.25633949460032" lon="9.129262177840907"><ele>87.0</ele><time>2026-03-29T09:30:56Z</time></trkpt><trkpt lat="45.25645926388439" lon="9.1292088487016"><ele>87.0</ele><time>2026-03-29T09:30:58Z</time></trkpt><trkpt lat="45.25652230888791" lon="9.129188021598823"><ele>87.0</ele><time>2026-03-29T09:30:59Z</time></trkpt><trkpt lat="45.25664284995452" lon="9.129154096417883"><ele>87.0</ele><time>2026-03-29T09:31:01Z</time></trkpt><trkpt lat="45.256762750198796" lon="9.12911909903881"><ele>87.0</ele><time>2026-03-29T09:31:03Z</time></trkpt><trkpt lat="45.256825114918996" lon="9.129092322141668"><ele>87.0</ele><time>2026-03-29T09:31:04Z</time></trkpt><trkpt lat="45.25694360027446" lon="9.129046037261077"><ele>87.0</ele><time>2026-03-29T09:31:06Z</time></trkpt><trkpt lat="45.25700631240573" lon="9.129026612335709"><ele>87.0</ele><time>2026-03-29T09:31:07Z</time></trkpt><trkpt lat="45.25706996094943" lon="9.1290050878131"><ele>87.0</ele><time>2026-03-29T09:31:08Z</time></trkpt><trkpt lat="45.257131455575056" lon="9.128978888314697"><ele>87.0</ele><time>2026-03-29T09:31:09Z</time></trkpt><trkpt lat="45.25719512626771" lon="9.128958246514578"><ele>87.0</ele><time>2026-03-29T09:31:10Z</time></trkpt><trkpt lat="45.25726094649345" lon="9.128935081615612"><ele>86.85714285714286</ele><time>2026-03-29T09:31:11Z</time></trkpt><trkpt lat="45.25732407043114" lon="9.128909215558057"><ele>86.71428571428572</ele><time>2026-03-29T09:31:12Z</time></trkpt><trkpt lat="45.25739007674387" lon="9.128886924076344"><ele>86.57142857142858</ele><time>2026-03-29T09:31:13Z</time></trkpt><trkpt lat="45.25745505423379" lon="9.128862288414991"><ele>86.42857142857143</ele><time>2026-03-29T09:31:14Z</time></trkpt><trkpt lat="45.257517835335854" lon="9.128834611120258"><ele>86.28571428571429</ele><time>2026-03-29T09:31:15Z</time></trkpt><trkpt lat="45.2575820231057" lon="9.128809386170012"><ele>86.14285714285715</ele><time>2026-03-29T09:31:16Z</time></trkpt><trkpt lat="45.25764668392134" lon="9.12878725222643"><ele>86.0</ele><time>2026-03-29T09:31:17Z</time></trkpt><trkpt lat="45.25771215105658" lon="9.128763714991717"><ele>86.00000000000001</ele><time>2026-03-29T09:31:18Z</time></trkpt><trkpt lat="45.2577758615912" lon="9.128731326120256"><ele>86.0</ele><time>2026-03-29T09:31:19Z</time></trkpt><trkpt lat="45.257842245206355" lon="9.128701845789337"><ele>86.0</ele><time>2026-03-29T09:31:20Z</time></trkpt><trkpt lat="45.257907777071104" lon="9.128686655411663"><ele>86.0</ele><time>2026-03-29T09:31:21Z</time></trkpt><trkpt lat="45.25797236691167" lon="9.128662389501127"><ele>86.0</ele><time>2026-03-29T09:31:22Z</time></trkpt><trkpt lat="45.258037226704054" lon="9.12863366723084"><ele>86.00000000000001</ele><time>2026-03-29T09:31:23Z</time></trkpt><trkpt lat="45.25809968540545" lon="9.128605495530596"><ele>86.0</ele><time>2026-03-29T09:31:24Z</time></trkpt><trkpt lat="45.25816538541539" lon="9.128582927517565"><ele>86.28571428571429</ele><time>2026-03-29T09:31:25Z</time></trkpt><trkpt lat="45.258232926528656" lon="9.128560906712762"><ele>86.57142857142857</ele><time>2026-03-29T09:31:26Z</time></trkpt><trkpt lat="45.25829845312803" lon="9.128539668097769"><ele>86.85714285714286</ele><time>2026-03-29T09:31:27Z</time></trkpt><trkpt lat="45.25836403388971" lon="9.12851399225368"><ele>87.14285714285714</ele><time>2026-03-29T09:31:28Z</time></trkpt><trkpt lat="45.25842853079257" lon="9.128491498870757"><ele>87.42857142857143</ele><time>2026-03-29T09:31:29Z</time></trkpt><trkpt lat="45.258492648316185" lon="9.128467374324085"><ele>87.71428571428572</ele><time>2026-03-29T09:31:30Z</time></trkpt><trkpt lat="45.258555600393606" lon="9.128442319224309"><ele>88.0</ele><time>2026-03-29T09:31:31Z</time></trkpt><trkpt lat="45.25861571515315" lon="9.128411640358197"><ele>88.0</ele><time>2026-03-29T09:31:32Z</time></trkpt><trkpt lat="45.25868493896989" lon="9.128380067177217"><ele>88.0</ele><time>2026-03-29T09:31:33Z</time></trkpt><trkpt lat="45.258791603678596" lon="9.128340708004789"><ele>88.0</ele><time>2026-03-29T09:31:35Z</time></trkpt><trkpt lat="45.25890059700497" lon="9.128316354687565"><ele>88.0</ele><time>2026-03-29T09:31:37Z</time></trkpt><trkpt lat="45.25899582382715" lon="9.128262742762363"><ele>88.0</ele><time>2026-03-29T09:31:39Z</time></trkpt><trkpt lat="45.25908481891218" lon="9.1282235931533"><ele>87.66666666666666</ele><time>2026-03-29T09:31:41Z</time></trkpt><trkpt lat="45.259164162909244" lon="9.128218308066426"><ele>87.33333333333333</ele><time>2026-03-29T09:31:43Z</time></trkpt><trkpt lat="45.25924649486421" lon="9.128170521764646"><ele>87.0</ele><time>2026-03-29T09:31:45Z</time></trkpt><trkpt lat="45.259319745537596" lon="9.128139585245123"><ele>86.66666666666667</ele><time>2026-03-29T09:31:47Z</time></trkpt><trkpt lat="45.25940132636193" lon="9.128123402795058"><ele>86.33333333333334</ele><time>2026-03-29T09:31:49Z</time></trkpt><trkpt lat="45.259477171649095" lon="9.128081199290621"><ele>86.0</ele><time>2026-03-29T09:31:51Z</time></trkpt><trkpt lat="45.259561824052845" lon="9.128049583447087"><ele>86.0</ele><time>2026-03-29T09:31:53.001Z</time></trkpt><trkpt lat="45.259645326754274" lon="9.128027724101056"><ele>86.0</ele><time>2026-03-29T09:31:55.001Z</time></trkpt><trkpt lat="45.25972766599641" lon="9.12799630948331"><ele>86.0</ele><time>2026-03-29T09:31:57.001Z</time></trkpt><trkpt lat="45.259807264049726" lon="9.127963746758562"><ele>86.0</ele><time>2026-03-29T09:31:59.001Z</time></trkpt><trkpt lat="45.25988898938122" lon="9.127936092990065"><ele>86.0</ele><time>2026-03-29T09:32:01.001Z</time></trkpt><trkpt lat="45.25997300076494" lon="9.127903537018133"><ele>86.0</ele><time>2026-03-29T09:32:03.001Z</time></trkpt><trkpt lat="45.2600596499675" lon="9.127868093375609"><ele>86.0</ele><time>2026-03-29T09:32:05.001Z</time></trkpt><trkpt lat="45.26015225456109" lon="9.12784560946016"><ele>86.0</ele><time>2026-03-29T09:32:07.001Z</time></trkpt><trkpt lat="45.26024169929743" lon="9.127801297089288"><ele>86.0</ele><time>2026-03-29T09:32:09.001Z</time></trkpt><trkpt lat="45.26034432567434" lon="9.127774146661173"><ele>86.0</ele><time>2026-03-29T09:32:11.001Z</time></trkpt><trkpt lat="45.26042995818105" lon="9.127743810186166"><ele>86.0</ele><time>2026-03-29T09:32:13.001Z</time></trkpt><trkpt lat="45.26052953742458" lon="9.12771496205363"><ele>86.19999999999999</ele><time>2026-03-29T09:32:15.001Z</time></trkpt><trkpt lat="45.260619872739625" lon="9.127677947500352"><ele>86.39999999999999</ele><time>2026-03-29T09:32:17.001Z</time></trkpt><trkpt lat="45.2607125237709" lon="9.127637202273485"><ele>86.6</ele><time>2026-03-29T09:32:19.001Z</time></trkpt><trkpt lat="45.26080603864447" lon="9.127601152004615"><ele>86.8</ele><time>2026-03-29T09:32:21.001Z</time></trkpt><trkpt lat="45.26089983230015" lon="9.12756560767087"><ele>87.0</ele><time>2026-03-29T09:32:23.001Z</time></trkpt><trkpt lat="45.26098980733475" lon="9.127524425605255"><ele>87.0</ele><time>2026-03-29T09:32:25.001Z</time></trkpt><trkpt lat="45.2610741284343" lon="9.12750182578241"><ele>87.0</ele><time>2026-03-29T09:32:27.001Z</time></trkpt><trkpt lat="45.261153399616866" lon="9.127470450266186"><ele>87.0</ele><time>2026-03-29T09:32:29.001Z</time></trkpt><trkpt lat="45.26123333384075" lon="9.127442523896978"><ele>87.0</ele><time>2026-03-29T09:32:31.001Z</time></trkpt><trkpt lat="45.261312070059766" lon="9.127404526232036"><ele>87.0</ele><time>2026-03-29T09:32:33.001Z</time></trkpt><trkpt lat="45.26140490492375" lon="9.127372761715277"><ele>87.0</ele><time>2026-03-29T09:32:35.001Z</time></trkpt><trkpt lat="45.26149574541227" lon="9.127339195811995"><ele>87.0</ele><time>2026-03-29T09:32:37.001Z</time></trkpt><trkpt lat="45.26158700294558" lon="9.127303622780207"><ele>87.0</ele><time>2026-03-29T09:32:39.001Z</time></trkpt><trkpt lat="45.261677660891515" lon="9.127266091254334"><ele>87.0</ele><time>2026-03-29T09:32:41.001Z</time></trkpt><trkpt lat="45.26176881525474" lon="9.127232311718364"><ele>87.0</ele><time>2026-03-29T09:32:43.001Z</time></trkpt><trkpt lat="45.261864982742814" lon="9.127198760006083"><ele>87.0</ele><time>2026-03-29T09:32:45.001Z</time></trkpt><trkpt lat="45.26195917390333" lon="9.12716189275937"><ele>87.0</ele><time>2026-03-29T09:32:47.001Z</time></trkpt><trkpt lat="45.26204756679202" lon="9.127126220095088"><ele>87.0</ele><time>2026-03-29T09:32:49.001Z</time></trkpt><trkpt lat="45.26213157685661" lon="9.127092340893077"><ele>87.0</ele><time>2026-03-29T09:32:51.001Z</time></trkpt><trkpt lat="45.26221292921782" lon="9.127065687309084"><ele>87.0</ele><time>2026-03-29T09:32:53Z</time></trkpt><trkpt lat="45.26229559580609" lon="9.127034776256984"><ele>87.0</ele><time>2026-03-29T09:32:55Z</time></trkpt><trkpt lat="45.26238520378266" lon="9.126997542636964"><ele>87.0</ele><time>2026-03-29T09:32:57Z</time></trkpt><trkpt lat="45.26247836392747" lon="9.12696527476254"><ele>87.0</ele><time>2026-03-29T09:32:59Z</time></trkpt><trkpt lat="45.26257281153834" lon="9.126931042170828"><ele>87.0</ele><time>2026-03-29T09:33:01Z</time></trkpt><trkpt lat="45.262667599308664" lon="9.126894137499045"><ele>87.0</ele><time>2026-03-29T09:33:03Z</time></trkpt><trkpt lat="45.262761362331936" lon="9.126859422446742"><ele>87.0</ele><time>2026-03-29T09:33:05Z</time></trkpt><trkpt lat="45.26285710739426" lon="9.126825662475804"><ele>87.0</ele><time>2026-03-29T09:33:07Z</time></trkpt><trkpt lat="45.262953613461036" lon="9.126789741618209"><ele>87.0</ele><time>2026-03-29T09:33:09Z</time></trkpt><trkpt lat="45.263050407172045" lon="9.126749765977012"><ele>87.0</ele><time>2026-03-29T09:33:11Z</time></trkpt><trkpt lat="45.2631448029805" lon="9.126712704026112"><ele>87.0</ele><time>2026-03-29T09:33:13Z</time></trkpt><trkpt lat="45.26324262930771" lon="9.126669783969673"><ele>87.0</ele><time>2026-03-29T09:33:15Z</time></trkpt><trkpt lat="45.26333693379935" lon="9.126625426670781"><ele>87.0</ele><time>2026-03-29T09:33:17Z</time></trkpt><trkpt lat="45.26342691463521" lon="9.126602744977426"><ele>87.19999999999999</ele><time>2026-03-29T09:33:19Z</time></trkpt><trkpt lat="45.26351235172926" lon="9.126569292528515"><ele>87.4</ele><time>2026-03-29T09:33:21Z</time></trkpt><trkpt lat="45.263604731762065" lon="9.126527818359518"><ele>87.6</ele><time>2026-03-29T09:33:23Z</time></trkpt><trkpt lat="45.26369985023164" lon="9.126499532335755"><ele>87.80000000000001</ele><time>2026-03-29T09:33:25Z</time></trkpt><trkpt lat="45.26379295535834" lon="9.126463978081695"><ele>88.0</ele><time>2026-03-29T09:33:27Z</time></trkpt><trkpt lat="45.26388782472767" lon="9.126426446862625"><ele>88.0</ele><time>2026-03-29T09:33:29Z</time></trkpt><trkpt lat="45.26398602053109" lon="9.126393592281051"><ele>88.0</ele><time>2026-03-29T09:33:31Z</time></trkpt><trkpt lat="45.2640796182417" lon="9.126354982827749"><ele>88.0</ele><time>2026-03-29T09:33:33Z</time></trkpt><trkpt lat="45.26417247502649" lon="9.126315885442216"><ele>88.0</ele><time>2026-03-29T09:33:35Z</time></trkpt><trkpt lat="45.26426040566913" lon="9.126277493190507"><ele>88.0</ele><time>2026-03-29T09:33:37Z</time></trkpt><trkpt lat="45.26436051368737" lon="9.12625490216395"><ele>88.0</ele><time>2026-03-29T09:33:39Z</time></trkpt><trkpt lat="45.26446925421979" lon="9.126221331647388"><ele>88.0</ele><time>2026-03-29T09:33:41Z</time></trkpt><trkpt lat="45.26456911382799" lon="9.126179330103518"><ele>88.0</ele><time>2026-03-29T09:33:43Z</time></trkpt><trkpt lat="45.26466625718614" lon="9.126141358655026"><ele>88.0</ele><time>2026-03-29T09:33:45Z</time></trkpt><trkpt lat="45.264759857970695" lon="9.126101739574475"><ele>88.0</ele><time>2026-03-29T09:33:47Z</time></trkpt><trkpt lat="45.264853720658024" lon="9.126071879651072"><ele>88.2</ele><time>2026-03-29T09:33:49Z</time></trkpt><trkpt lat="45.264942939859196" lon="9.126033167573496"><ele>88.4</ele><time>2026-03-29T09:33:51Z</time></trkpt><trkpt lat="45.26504478359907" lon="9.125993616340255"><ele>88.60000000000001</ele><time>2026-03-29T09:33:53Z</time></trkpt><trkpt lat="45.26514633207702" lon="9.125959032882575"><ele>88.80000000000001</ele><time>2026-03-29T09:33:55Z</time></trkpt><trkpt lat="45.26525041911309" lon="9.125922879782246"><ele>89.0</ele><time>2026-03-29T09:33:57Z</time></trkpt><trkpt lat="45.26535055240387" lon="9.125887079907368"><ele>89.0</ele><time>2026-03-29T09:33:59Z</time></trkpt><trkpt lat="45.265453925880095" lon="9.125859608258237"><ele>89.0</ele><time>2026-03-29T09:34:01Z</time></trkpt><trkpt lat="45.265552151254475" lon="9.12582091750213"><ele>89.0</ele><time>2026-03-29T09:34:03Z</time></trkpt><trkpt lat="45.26564920928899" lon="9.125779003475515"><ele>89.0</ele><time>2026-03-29T09:34:05Z</time></trkpt><trkpt lat="45.26574475887467" lon="9.125746265185255"><ele>89.0</ele><time>2026-03-29T09:34:07Z</time></trkpt><trkpt lat="45.26584005804938" lon="9.125712012663355"><ele>88.80000000000001</ele><time>2026-03-29T09:34:09Z</time></trkpt><trkpt lat="45.26593924558132" lon="9.125677973996412"><ele>88.60000000000001</ele><time>2026-03-29T09:34:11Z</time></trkpt><trkpt lat="45.2660369590908" lon="9.125636554209166"><ele>88.4</ele><time>2026-03-29T09:34:13.001Z</time></trkpt><trkpt lat="45.26613519272826" lon="9.125598292682875"><ele>88.2</ele><time>2026-03-29T09:34:15.001Z</time></trkpt><trkpt lat="45.26622658588817" lon="9.12555186438603"><ele>88.0</ele><time>2026-03-29T09:34:17.001Z</time></trkpt><trkpt lat="45.2663189531016" lon="9.12551853350845"><ele>88.0</ele><time>2026-03-29T09:34:19.001Z</time></trkpt><trkpt lat="45.266407556100006" lon="9.125480011619123"><ele>88.0</ele><time>2026-03-29T09:34:21.001Z</time></trkpt><trkpt lat="45.26649739017668" lon="9.125449381881158"><ele>88.0</ele><time>2026-03-29T09:34:23.001Z</time></trkpt><trkpt lat="45.266588633093384" lon="9.125410122166347"><ele>88.0</ele><time>2026-03-29T09:34:25.001Z</time></trkpt><trkpt lat="45.266679261256726" lon="9.125375770587793"><ele>88.0</ele><time>2026-03-29T09:34:27.001Z</time></trkpt><trkpt lat="45.266772339539635" lon="9.125343275805449"><ele>88.0</ele><time>2026-03-29T09:34:29.001Z</time></trkpt><trkpt lat="45.266866644968175" lon="9.125296446586217"><ele>88.0</ele><time>2026-03-29T09:34:31.001Z</time></trkpt><trkpt lat="45.26696627112746" lon="9.125270838140228"><ele>88.0</ele><time>2026-03-29T09:34:33.001Z</time></trkpt><trkpt lat="45.26705469354857" lon="9.125232769890193"><ele>88.0</ele><time>2026-03-29T09:34:35.001Z</time></trkpt><trkpt lat="45.26714314684414" lon="9.125207391111207"><ele>88.0</ele><time>2026-03-29T09:34:37.001Z</time></trkpt><trkpt lat="45.26723020134298" lon="9.125175668647334"><ele>88.0</ele><time>2026-03-29T09:34:39.001Z</time></trkpt><trkpt lat="45.2673181378028" lon="9.12513671320691"><ele>88.0</ele><time>2026-03-29T09:34:41.001Z</time></trkpt><trkpt lat="45.267413081933086" lon="9.125096899386863"><ele>88.0</ele><time>2026-03-29T09:34:43.001Z</time></trkpt><trkpt lat="45.26750777040782" lon="9.125064707238389"><ele>88.0</ele><time>2026-03-29T09:34:45.001Z</time></trkpt><trkpt lat="45.26760521300371" lon="9.125031943313235"><ele>88.0</ele><time>2026-03-29T09:34:47.001Z</time></trkpt><trkpt lat="45.26770140079432" lon="9.124992970346675"><ele>88.0</ele><time>2026-03-29T09:34:49.001Z</time></trkpt><trkpt lat="45.267801061652335" lon="9.12496025236013"><ele>88.0</ele><time>2026-03-29T09:34:51.001Z</time></trkpt><trkpt lat="45.26789464985277" lon="9.124922727245792"><ele>88.0</ele><time>2026-03-29T09:34:53.001Z</time></trkpt><trkpt lat="45.26798954072573" lon="9.1248885817151"><ele>88.0</ele><time>2026-03-29T09:34:55.001Z</time></trkpt><trkpt lat="45.26808890183125" lon="9.124852463686109"><ele>88.0</ele><time>2026-03-29T09:34:57.001Z</time></trkpt><trkpt lat="45.268189742040995" lon="9.124811355054486"><ele>87.80000000000001</ele><time>2026-03-29T09:34:59Z</time></trkpt><trkpt lat="45.26828244383203" lon="9.124795302433366"><ele>87.6</ele><time>2026-03-29T09:35:01Z</time></trkpt><trkpt lat="45.26838470399701" lon="9.124738994954784"><ele>87.4</ele><time>2026-03-29T09:35:03Z</time></trkpt><trkpt lat="45.268484542520866" lon="9.12471565136198"><ele>87.19999999999999</ele><time>2026-03-29T09:35:05Z</time></trkpt><trkpt lat="45.26858810019978" lon="9.12467282807924"><ele>87.0</ele><time>2026-03-29T09:35:07Z</time></trkpt><trkpt lat="45.26868907285138" lon="9.124627134798638"><ele>87.0</ele><time>2026-03-29T09:35:09Z</time></trkpt><trkpt lat="45.26878651673575" lon="9.12459510240611"><ele>87.0</ele><time>2026-03-29T09:35:11Z</time></trkpt><trkpt lat="45.268889246658475" lon="9.124557888814675"><ele>87.0</ele><time>2026-03-29T09:35:13Z</time></trkpt><trkpt lat="45.26899232212606" lon="9.124512927770953"><ele>87.0</ele><time>2026-03-29T09:35:15Z</time></trkpt><trkpt lat="45.269095618856156" lon="9.124475762729416"><ele>87.0</ele><time>2026-03-29T09:35:17Z</time></trkpt><trkpt lat="45.26919848531227" lon="9.124435504574038"><ele>87.19999999999999</ele><time>2026-03-29T09:35:19Z</time></trkpt><trkpt lat="45.26930031219952" lon="9.124398875574595"><ele>87.4</ele><time>2026-03-29T09:35:21Z</time></trkpt><trkpt lat="45.269398503459946" lon="9.124361237019075"><ele>87.6</ele><time>2026-03-29T09:35:23Z</time></trkpt><trkpt lat="45.26949168352455" lon="9.1243200095443"><ele>87.80000000000001</ele><time>2026-03-29T09:35:25Z</time></trkpt><trkpt lat="45.26958137340853" lon="9.124289852369145"><ele>88.0</ele><time>2026-03-29T09:35:27Z</time></trkpt><trkpt lat="45.269674246118754" lon="9.124254605368552"><ele>88.0</ele><time>2026-03-29T09:35:29Z</time></trkpt><trkpt lat="45.26976977229691" lon="9.124214148160684"><ele>88.0</ele><time>2026-03-29T09:35:31Z</time></trkpt><trkpt lat="45.26987634535304" lon="9.124186518404844"><ele>88.0</ele><time>2026-03-29T09:35:33Z</time></trkpt><trkpt lat="45.26997281576453" lon="9.124143155104942"><ele>88.0</ele><time>2026-03-29T09:35:35Z</time></trkpt><trkpt lat="45.27008051162278" lon="9.124104918331582"><ele>88.0</ele><time>2026-03-29T09:35:37Z</time></trkpt><trkpt lat="45.270186798612265" lon="9.124063825130554"><ele>88.4</ele><time>2026-03-29T09:35:39Z</time></trkpt><trkpt lat="45.27029350857589" lon="9.124023608100472"><ele>88.80000000000001</ele><time>2026-03-29T09:35:41Z</time></trkpt><trkpt lat="45.270398511888594" lon="9.123985137618565"><ele>89.2</ele><time>2026-03-29T09:35:43Z</time></trkpt><trkpt lat="45.270503906054735" lon="9.123944687786638"><ele>89.6</ele><time>2026-03-29T09:35:45Z</time></trkpt><trkpt lat="45.27060766308409" lon="9.12389509257566"><ele>90.0</ele><time>2026-03-29T09:35:47Z</time></trkpt><trkpt lat="45.27071318534796" lon="9.123861185546287"><ele>90.0</ele><time>2026-03-29T09:35:49Z</time></trkpt><trkpt lat="45.27081874826459" lon="9.123816266332323"><ele>90.0</ele><time>2026-03-29T09:35:51Z</time></trkpt><trkpt lat="45.27092201661038" lon="9.123775924088733"><ele>90.0</ele><time>2026-03-29T09:35:53Z</time></trkpt><trkpt lat="45.27103095594969" lon="9.123736387023058"><ele>90.0</ele><time>2026-03-29T09:35:55Z</time></trkpt><trkpt lat="45.2711386886506" lon="9.123696326353402"><ele>90.0</ele><time>2026-03-29T09:35:57Z</time></trkpt><trkpt lat="45.27124557357919" lon="9.12365186668616"><ele>90.0</ele><time>2026-03-29T09:35:59Z</time></trkpt><trkpt lat="45.271351123597654" lon="9.123614185248085"><ele>90.0</ele><time>2026-03-29T09:36:01Z</time></trkpt><trkpt lat="45.27147372250623" lon="9.123582630790251"><ele>90.0</ele><time>2026-03-29T09:36:03Z</time></trkpt><trkpt lat="45.27156595269346" lon="9.123534015477803"><ele>90.0</ele><time>2026-03-29T09:36:05.001Z</time></trkpt><trkpt lat="45.271664781807424" lon="9.123487210663498"><ele>90.0</ele><time>2026-03-29T09:36:07.001Z</time></trkpt><trkpt lat="45.271754994400574" lon="9.123439126969302"><ele>89.8</ele><time>2026-03-29T09:36:09.001Z</time></trkpt><trkpt lat="45.27184278516297" lon="9.12339636747846"><ele>89.6</ele><time>2026-03-29T09:36:11.001Z</time></trkpt><trkpt lat="45.27192825128407" lon="9.123377308145521"><ele>89.4</ele><time>2026-03-29T09:36:13.001Z</time></trkpt><trkpt lat="45.27201844428834" lon="9.123346485979054"><ele>89.2</ele><time>2026-03-29T09:36:15.001Z</time></trkpt><trkpt lat="45.27210919100248" lon="9.123305369089405"><ele>89.0</ele><time>2026-03-29T09:36:17.001Z</time></trkpt><trkpt lat="45.27219951907067" lon="9.123272757100295"><ele>89.0</ele><time>2026-03-29T09:36:19.001Z</time></trkpt><trkpt lat="45.27228536930011" lon="9.123240590174989"><ele>89.0</ele><time>2026-03-29T09:36:21.001Z</time></trkpt><trkpt lat="45.27237022775575" lon="9.123216285998454"><ele>89.0</ele><time>2026-03-29T09:36:23.001Z</time></trkpt><trkpt lat="45.272462059862974" lon="9.123181064448683"><ele>89.0</ele><time>2026-03-29T09:36:25.001Z</time></trkpt><trkpt lat="45.27255556839856" lon="9.123153580411085"><ele>89.0</ele><time>2026-03-29T09:36:27.001Z</time></trkpt><trkpt lat="45.272650265204796" lon="9.123113119962763"><ele>89.0</ele><time>2026-03-29T09:36:29.001Z</time></trkpt><trkpt lat="45.27274094905074" lon="9.123066133845857"><ele>89.0</ele><time>2026-03-29T09:36:31.001Z</time></trkpt><trkpt lat="45.2728366563835" lon="9.12303522748626"><ele>89.0</ele><time>2026-03-29T09:36:33.001Z</time></trkpt><trkpt lat="45.2729345291369" lon="9.12299267181523"><ele>89.0</ele><time>2026-03-29T09:36:35.001Z</time></trkpt><trkpt lat="45.27303475286572" lon="9.12295761875553"><ele>89.0</ele><time>2026-03-29T09:36:37.001Z</time></trkpt><trkpt lat="45.27313542644465" lon="9.122918318601068"><ele>89.0</ele><time>2026-03-29T09:36:39.001Z</time></trkpt><trkpt lat="45.27323580350135" lon="9.122879735535648"><ele>89.0</ele><time>2026-03-29T09:36:41.001Z</time></trkpt><trkpt lat="45.27333758562978" lon="9.12283369681864"><ele>89.0</ele><time>2026-03-29T09:36:43.001Z</time></trkpt><trkpt lat="45.2734410481728" lon="9.122801884722081"><ele>89.0</ele><time>2026-03-29T09:36:45.001Z</time></trkpt><trkpt lat="45.27354221297" lon="9.122759240997318"><ele>89.0</ele><time>2026-03-29T09:36:47.001Z</time></trkpt><trkpt lat="45.2736464184601" lon="9.122719467706654"><ele>89.0</ele><time>2026-03-29T09:36:49.001Z</time></trkpt><trkpt lat="45.27374924047711" lon="9.122684219830656"><ele>89.0</ele><time>2026-03-29T09:36:51.001Z</time></trkpt><trkpt lat="45.27385148660994" lon="9.12264493652024"><ele>89.0</ele><time>2026-03-29T09:36:53.001Z</time></trkpt><trkpt lat="45.27395458505339" lon="9.122601518588874"><ele>89.0</ele><time>2026-03-29T09:36:55.001Z</time></trkpt><trkpt lat="45.2740581920691" lon="9.122565214245228"><ele>89.0</ele><time>2026-03-29T09:36:57.001Z</time></trkpt><trkpt lat="45.27416126414297" lon="9.122539277940964"><ele>89.2</ele><time>2026-03-29T09:36:59.001Z</time></trkpt><trkpt lat="45.274264548552175" lon="9.122484920480549"><ele>89.4</ele><time>2026-03-29T09:37:01.001Z</time></trkpt><trkpt lat="45.274366959311244" lon="9.122444937219978"><ele>89.6</ele><time>2026-03-29T09:37:03.001Z</time></trkpt><trkpt lat="45.274472763337634" lon="9.12240789873889"><ele>89.8</ele><time>2026-03-29T09:37:05Z</time></trkpt><trkpt lat="45.27457972550367" lon="9.122372707206067"><ele>90.0</ele><time>2026-03-29T09:37:07Z</time></trkpt><trkpt lat="45.27468818554448" lon="9.12232707378158"><ele>90.0</ele><time>2026-03-29T09:37:09Z</time></trkpt><trkpt lat="45.274795327301845" lon="9.12228793787444"><ele>90.0</ele><time>2026-03-29T09:37:11Z</time></trkpt><trkpt lat="45.27490413456337" lon="9.122251403854824"><ele>90.0</ele><time>2026-03-29T09:37:13Z</time></trkpt><trkpt lat="45.275014108663775" lon="9.122210367980623"><ele>90.0</ele><time>2026-03-29T09:37:15Z</time></trkpt><trkpt lat="45.27512404703013" lon="9.122166360743694"><ele>90.0</ele><time>2026-03-29T09:37:17Z</time></trkpt><trkpt lat="45.275240123071704" lon="9.122129148544937"><ele>90.0</ele><time>2026-03-29T09:37:19Z</time></trkpt><trkpt lat="45.27535877911046" lon="9.122093526123773"><ele>90.0</ele><time>2026-03-29T09:37:21Z</time></trkpt><trkpt lat="45.275477919220556" lon="9.122056761382654"><ele>90.0</ele><time>2026-03-29T09:37:23Z</time></trkpt><trkpt lat="45.275591819507206" lon="9.122022434915456"><ele>89.5</ele><time>2026-03-29T09:37:25Z</time></trkpt><trkpt lat="45.275702154044225" lon="9.121978210546452"><ele>89.0</ele><time>2026-03-29T09:37:27Z</time></trkpt><trkpt lat="45.27581196469556" lon="9.12193400579136"><ele>88.5</ele><time>2026-03-29T09:37:29Z</time></trkpt><trkpt lat="45.275921833563864" lon="9.121889210122195"><ele>88.0</ele><time>2026-03-29T09:37:31Z</time></trkpt><trkpt lat="45.27603032867674" lon="9.121846975483745"><ele>88.0</ele><time>2026-03-29T09:37:33Z</time></trkpt><trkpt lat="45.276136759981334" lon="9.121799597884557"><ele>88.0</ele><time>2026-03-29T09:37:35Z</time></trkpt><trkpt lat="45.276242614062944" lon="9.121751729734834"><ele>88.0</ele><time>2026-03-29T09:37:37Z</time></trkpt><trkpt lat="45.27635364464052" lon="9.12172151553432"><ele>88.0</ele><time>2026-03-29T09:37:39Z</time></trkpt><trkpt lat="45.276461402063674" lon="9.121680948324316"><ele>88.0</ele><time>2026-03-29T09:37:41Z</time></trkpt><trkpt lat="45.276566704497945" lon="9.121639639784634"><ele>88.2</ele><time>2026-03-29T09:37:43Z</time></trkpt><trkpt lat="45.27667307393076" lon="9.121603071824895"><ele>88.4</ele><time>2026-03-29T09:37:45Z</time></trkpt><trkpt lat="45.276779322206494" lon="9.121563832455317"><ele>88.60000000000001</ele><time>2026-03-29T09:37:47Z</time></trkpt><trkpt lat="45.276891716065265" lon="9.121525522540807"><ele>88.80000000000001</ele><time>2026-03-29T09:37:49Z</time></trkpt><trkpt lat="45.276996490609754" lon="9.121475276180023"><ele>89.0</ele><time>2026-03-29T09:37:51Z</time></trkpt><trkpt lat="45.27709990312246" lon="9.12142575856509"><ele>89.0</ele><time>2026-03-29T09:37:53Z</time></trkpt><trkpt lat="45.27720643806022" lon="9.121390295575969"><ele>89.0</ele><time>2026-03-29T09:37:55Z</time></trkpt><trkpt lat="45.27731241414035" lon="9.121354064462256"><ele>89.0</ele><time>2026-03-29T09:37:57Z</time></trkpt><trkpt lat="45.27741843674693" lon="9.121308914387576"><ele>89.0</ele><time>2026-03-29T09:37:59Z</time></trkpt><trkpt lat="45.27752202530936" lon="9.12125917944647"><ele>89.0</ele><time>2026-03-29T09:38:01Z</time></trkpt><trkpt lat="45.277625899435556" lon="9.121208605939666"><ele>88.80000000000001</ele><time>2026-03-29T09:38:03Z</time></trkpt><trkpt lat="45.277726228994204" lon="9.121166728469063"><ele>88.60000000000001</ele><time>2026-03-29T09:38:05Z</time></trkpt><trkpt lat="45.27782383816817" lon="9.121143693846362"><ele>88.4</ele><time>2026-03-29T09:38:07Z</time></trkpt><trkpt lat="45.27791541806385" lon="9.121103998792128"><ele>88.2</ele><time>2026-03-29T09:38:09Z</time></trkpt><trkpt lat="45.27802159964693" lon="9.121064792960285"><ele>88.0</ele><time>2026-03-29T09:38:11Z</time></trkpt><trkpt lat="45.27812570975496" lon="9.121026192362335"><ele>88.75</ele><time>2026-03-29T09:38:13Z</time></trkpt><trkpt lat="45.278234363988865" lon="9.120982424873395"><ele>89.5</ele><time>2026-03-29T09:38:15Z</time></trkpt><trkpt lat="45.2783426812787" lon="9.120938116772706"><ele>90.25</ele><time>2026-03-29T09:38:17Z</time></trkpt><trkpt lat="45.278452103121346" lon="9.120900339327763"><ele>91.0</ele><time>2026-03-29T09:38:19Z</time></trkpt><trkpt lat="45.278561118450035" lon="9.120859690617184"><ele>91.0</ele><time>2026-03-29T09:38:21.001Z</time></trkpt><trkpt lat="45.2786686653049" lon="9.12081945275294"><ele>91.0</ele><time>2026-03-29T09:38:23.001Z</time></trkpt><trkpt lat="45.27877705941918" lon="9.120776989569128"><ele>91.0</ele><time>2026-03-29T09:38:25.001Z</time></trkpt><trkpt lat="45.27888476460726" lon="9.120738574365012"><ele>91.0</ele><time>2026-03-29T09:38:27.001Z</time></trkpt><trkpt lat="45.27899333564158" lon="9.120696697185725"><ele>91.0</ele><time>2026-03-29T09:38:29.001Z</time></trkpt><trkpt lat="45.27910267222012" lon="9.120653373158019"><ele>90.8</ele><time>2026-03-29T09:38:31.001Z</time></trkpt><trkpt lat="45.27921189482097" lon="9.120617170483241"><ele>90.6</ele><time>2026-03-29T09:38:33.001Z</time></trkpt><trkpt lat="45.279315950147335" lon="9.12057191350043"><ele>90.4</ele><time>2026-03-29T09:38:35.001Z</time></trkpt><trkpt lat="45.279424701658684" lon="9.120534682876189"><ele>90.2</ele><time>2026-03-29T09:38:37.001Z</time></trkpt><trkpt lat="45.27953204015843" lon="9.120493042222282"><ele>90.0</ele><time>2026-03-29T09:38:39.001Z</time></trkpt><trkpt lat="45.27963908949332" lon="9.120455744540097"><ele>90.0</ele><time>2026-03-29T09:38:41.001Z</time></trkpt><trkpt lat="45.27974784230419" lon="9.120415805414773"><ele>90.0</ele><time>2026-03-29T09:38:43.001Z</time></trkpt><trkpt lat="45.27985799082484" lon="9.120373522875372"><ele>90.0</ele><time>2026-03-29T09:38:45.001Z</time></trkpt><trkpt lat="45.27996985212017" lon="9.120332284584114"><ele>90.0</ele><time>2026-03-29T09:38:47.001Z</time></trkpt><trkpt lat="45.28007876051505" lon="9.120289241252447"><ele>89.8</ele><time>2026-03-29T09:38:49.001Z</time></trkpt><trkpt lat="45.2801832619913" lon="9.120262337097454"><ele>89.6</ele><time>2026-03-29T09:38:51.001Z</time></trkpt><trkpt lat="45.28028557419275" lon="9.120223821130365"><ele>89.4</ele><time>2026-03-29T09:38:53.001Z</time></trkpt><trkpt lat="45.28039092758265" lon="9.120185734723059"><ele>89.2</ele><time>2026-03-29T09:38:55.001Z</time></trkpt><trkpt lat="45.28049981223086" lon="9.120134137905735"><ele>89.0</ele><time>2026-03-29T09:38:57.001Z</time></trkpt><trkpt lat="45.28061284088636" lon="9.120085237360442"><ele>89.0</ele><time>2026-03-29T09:38:59.001Z</time></trkpt><trkpt lat="45.28072179022808" lon="9.120048029841666"><ele>89.0</ele><time>2026-03-29T09:39:01.001Z</time></trkpt><trkpt lat="45.280827143019344" lon="9.12001054220134"><ele>89.0</ele><time>2026-03-29T09:39:03.001Z</time></trkpt><trkpt lat="45.28093623408508" lon="9.11996946477456"><ele>89.0</ele><time>2026-03-29T09:39:05.001Z</time></trkpt><trkpt lat="45.28104881006775" lon="9.119921913891247"><ele>89.0</ele><time>2026-03-29T09:39:07.001Z</time></trkpt><trkpt lat="45.281159863833246" lon="9.119879324856617"><ele>89.0</ele><time>2026-03-29T09:39:09.001Z</time></trkpt><trkpt lat="45.28126910786221" lon="9.119839411031924"><ele>89.0</ele><time>2026-03-29T09:39:11Z</time></trkpt><trkpt lat="45.28137354342775" lon="9.119799340411419"><ele>89.0</ele><time>2026-03-29T09:39:13Z</time></trkpt><trkpt lat="45.281477039433824" lon="9.119759266179647"><ele>89.0</ele><time>2026-03-29T09:39:15Z</time></trkpt><trkpt lat="45.28158126695737" lon="9.119721758850961"><ele>89.2</ele><time>2026-03-29T09:39:17Z</time></trkpt><trkpt lat="45.28168864006797" lon="9.119682584702778"><ele>89.4</ele><time>2026-03-29T09:39:19Z</time></trkpt><trkpt lat="45.28179394868791" lon="9.119642674899527"><ele>89.6</ele><time>2026-03-29T09:39:21Z</time></trkpt><trkpt lat="45.281893596255564" lon="9.119601621107657"><ele>89.8</ele><time>2026-03-29T09:39:23Z</time></trkpt><trkpt lat="45.282002822881196" lon="9.119569594037602"><ele>90.0</ele><time>2026-03-29T09:39:25Z</time></trkpt><trkpt lat="45.28211325088698" lon="9.11953664504081"><ele>90.0</ele><time>2026-03-29T09:39:27Z</time></trkpt><trkpt lat="45.282220291386466" lon="9.119494838060254"><ele>90.0</ele><time>2026-03-29T09:39:29Z</time></trkpt><trkpt lat="45.28232671704482" lon="9.119453069215439"><ele>90.0</ele><time>2026-03-29T09:39:31Z</time></trkpt><trkpt lat="45.28243443153816" lon="9.119407978663348"><ele>90.0</ele><time>2026-03-29T09:39:33Z</time></trkpt><trkpt lat="45.28254505864557" lon="9.119369482419891"><ele>90.0</ele><time>2026-03-29T09:39:35Z</time></trkpt><trkpt lat="45.28265490164883" lon="9.11933013360519"><ele>90.0</ele><time>2026-03-29T09:39:37Z</time></trkpt><trkpt lat="45.28276117979826" lon="9.119282823662509"><ele>90.0</ele><time>2026-03-29T09:39:39Z</time></trkpt><trkpt lat="45.28286939501721" lon="9.119241869018348"><ele>90.0</ele><time>2026-03-29T09:39:41Z</time></trkpt><trkpt lat="45.282965619169026" lon="9.119202429039907"><ele>90.0</ele><time>2026-03-29T09:39:43Z</time></trkpt><trkpt lat="45.28306886419894" lon="9.119164605661412"><ele>90.0</ele><time>2026-03-29T09:39:45Z</time></trkpt><trkpt lat="45.28316880349721" lon="9.119126246853904"><ele>90.0</ele><time>2026-03-29T09:39:47Z</time></trkpt><trkpt lat="45.283270295814575" lon="9.119086110113301"><ele>90.0</ele><time>2026-03-29T09:39:49Z</time></trkpt><trkpt lat="45.28337310315038" lon="9.119049670967758"><ele>90.0</ele><time>2026-03-29T09:39:51Z</time></trkpt><trkpt lat="45.283471689389295" lon="9.119014560381377"><ele>90.0</ele><time>2026-03-29T09:39:53Z</time></trkpt><trkpt lat="45.283564591748224" lon="9.118979696555364"><ele>90.0</ele><time>2026-03-29T09:39:55Z</time></trkpt><trkpt lat="45.283650270226474" lon="9.118955614326895"><ele>90.0</ele><time>2026-03-29T09:39:57Z</time></trkpt><trkpt lat="45.28372889545409" lon="9.118920680716917"><ele>90.0</ele><time>2026-03-29T09:39:59Z</time></trkpt><trkpt lat="45.283799432161274" lon="9.118890722396243"><ele>90.0</ele><time>2026-03-29T09:40:01Z</time></trkpt><trkpt lat="45.28387194061789" lon="9.118862206011514"><ele>90.0</ele><time>2026-03-29T09:40:03Z</time></trkpt><trkpt lat="45.28394382311862" lon="9.118837799183233"><ele>90.0</ele><time>2026-03-29T09:40:05Z</time></trkpt><trkpt lat="45.28402727409945" lon="9.118803271630533"><ele>90.0</ele><time>2026-03-29T09:40:07Z</time></trkpt><trkpt lat="45.28410968034345" lon="9.118789172677518"><ele>89.83333333333333</ele><time>2026-03-29T09:40:09Z</time></trkpt><trkpt lat="45.284183790746546" lon="9.118762432897565"><ele>89.66666666666667</ele><time>2026-03-29T09:40:12Z</time></trkpt><trkpt lat="45.28424641113561" lon="9.118837146830268"><ele>89.5</ele><time>2026-03-29T09:40:19Z</time></trkpt><trkpt lat="45.28426678060799" lon="9.118962484067099"><ele>89.33333333333334</ele><time>2026-03-29T09:40:22Z</time></trkpt><trkpt lat="45.284292526418916" lon="9.119076084779667"><ele>89.16666666666667</ele><time>2026-03-29T09:40:24Z</time></trkpt><trkpt lat="45.28431936547978" lon="9.119201609176278"><ele>89.0</ele><time>2026-03-29T09:40:26Z</time></trkpt><trkpt lat="45.28434592111541" lon="9.119330835781316"><ele>89.4</ele><time>2026-03-29T09:40:28Z</time></trkpt><trkpt lat="45.28437319368287" lon="9.119467087501539"><ele>89.80000000000001</ele><time>2026-03-29T09:40:30Z</time></trkpt><trkpt lat="45.28439178103989" lon="9.119608819996378"><ele>90.19999999999999</ele><time>2026-03-29T09:40:32.001Z</time></trkpt><trkpt lat="45.28442054062172" lon="9.119750254571805"><ele>90.6</ele><time>2026-03-29T09:40:34.001Z</time></trkpt><trkpt lat="45.28444304432598" lon="9.119886536958614"><ele>91.0</ele><time>2026-03-29T09:40:36.001Z</time></trkpt><trkpt lat="45.28446876672154" lon="9.120012489265005"><ele>91.0</ele><time>2026-03-29T09:40:38.001Z</time></trkpt><trkpt lat="45.28449475309205" lon="9.120133280972619"><ele>91.0</ele><time>2026-03-29T09:40:40.001Z</time></trkpt><trkpt lat="45.28451076240745" lon="9.120250280242491"><ele>91.0</ele><time>2026-03-29T09:40:42.001Z</time></trkpt><trkpt lat="45.2845334561106" lon="9.12036839886919"><ele>91.0</ele><time>2026-03-29T09:40:44.001Z</time></trkpt><trkpt lat="45.28454270184523" lon="9.120485505697918"><ele>91.0</ele><time>2026-03-29T09:40:46.001Z</time></trkpt><trkpt lat="45.28454048755566" lon="9.120630289321115"><ele>91.0</ele><time>2026-03-29T09:40:48.001Z</time></trkpt><trkpt lat="45.28456669345101" lon="9.12075127002262"><ele>91.0</ele><time>2026-03-29T09:40:50.001Z</time></trkpt><trkpt lat="45.28456926754375" lon="9.12088549819781"><ele>91.0</ele><time>2026-03-29T09:40:52.001Z</time></trkpt><trkpt lat="45.28457985968455" lon="9.121020268656139"><ele>91.0</ele><time>2026-03-29T09:40:54.001Z</time></trkpt><trkpt lat="45.28459385449849" lon="9.121157788280708"><ele>91.0</ele><time>2026-03-29T09:40:56.001Z</time></trkpt><trkpt lat="45.28459843119058" lon="9.12129631691966"><ele>91.0</ele><time>2026-03-29T09:40:58.001Z</time></trkpt><trkpt lat="45.28459942310799" lon="9.121437863874686"><ele>90.8</ele><time>2026-03-29T09:41:00.001Z</time></trkpt><trkpt lat="45.28459928675674" lon="9.121583577830995"><ele>90.6</ele><time>2026-03-29T09:41:02.001Z</time></trkpt><trkpt lat="45.28460009820948" lon="9.121731773943102"><ele>90.4</ele><time>2026-03-29T09:41:04.001Z</time></trkpt><trkpt lat="45.28460586500985" lon="9.121884566147516"><ele>90.2</ele><time>2026-03-29T09:41:06.001Z</time></trkpt><trkpt lat="45.28460785098131" lon="9.12203241297226"><ele>90.0</ele><time>2026-03-29T09:41:08.001Z</time></trkpt><trkpt lat="45.28460603260822" lon="9.122186861325885"><ele>90.0</ele><time>2026-03-29T09:41:10.001Z</time></trkpt><trkpt lat="45.284602210519765" lon="9.122344716464335"><ele>90.0</ele><time>2026-03-29T09:41:12.001Z</time></trkpt><trkpt lat="45.28460004555691" lon="9.122519108541814"><ele>90.0</ele><time>2026-03-29T09:41:14.001Z</time></trkpt><trkpt lat="45.28459631753041" lon="9.122688049451074"><ele>90.0</ele><time>2026-03-29T09:41:16.001Z</time></trkpt><trkpt lat="45.28459275706078" lon="9.122856155344873"><ele>90.0</ele><time>2026-03-29T09:41:18Z</time></trkpt><trkpt lat="45.28459047348868" lon="9.123026132649276"><ele>90.0</ele><time>2026-03-29T09:41:20Z</time></trkpt><trkpt lat="45.2845870024049" lon="9.12319487053336"><ele>90.0</ele><time>2026-03-29T09:41:22Z</time></trkpt><trkpt lat="45.28458415464945" lon="9.123368774606595"><ele>90.0</ele><time>2026-03-29T09:41:24Z</time></trkpt><trkpt lat="45.28458179565196" lon="9.123543231089592"><ele>90.0</ele><time>2026-03-29T09:41:26Z</time></trkpt><trkpt lat="45.28457628690153" lon="9.123716234581737"><ele>90.0</ele><time>2026-03-29T09:41:28Z</time></trkpt><trkpt lat="45.284574051695834" lon="9.123887402750636"><ele>90.0</ele><time>2026-03-29T09:41:30Z</time></trkpt><trkpt lat="45.284571157540384" lon="9.124060337376383"><ele>90.0</ele><time>2026-03-29T09:41:32Z</time></trkpt><trkpt lat="45.284566580527304" lon="9.124227947260884"><ele>90.0</ele><time>2026-03-29T09:41:34Z</time></trkpt><trkpt lat="45.284564019680495" lon="9.124399496323036"><ele>90.0</ele><time>2026-03-29T09:41:36Z</time></trkpt><trkpt lat="45.28456102961747" lon="9.124570824099202"><ele>90.0</ele><time>2026-03-29T09:41:38Z</time></trkpt><trkpt lat="45.284560206031784" lon="9.124742476006492"><ele>90.0</ele><time>2026-03-29T09:41:40Z</time></trkpt><trkpt lat="45.28455454984171" lon="9.124910592364316"><ele>90.25</ele><time>2026-03-29T09:41:42Z</time></trkpt><trkpt lat="45.28455155142482" lon="9.125081887979473"><ele>90.5</ele><time>2026-03-29T09:41:44Z</time></trkpt><trkpt lat="45.28455268425932" lon="9.12524635245311"><ele>90.75</ele><time>2026-03-29T09:41:46Z</time></trkpt><trkpt lat="45.28454871613778" lon="9.125407154655678"><ele>91.0</ele><time>2026-03-29T09:41:48Z</time></trkpt><trkpt lat="45.284550663793105" lon="9.125574055590468"><ele>91.0</ele><time>2026-03-29T09:41:50Z</time></trkpt><trkpt lat="45.284549094968185" lon="9.125725687546913"><ele>91.0</ele><time>2026-03-29T09:41:52Z</time></trkpt><trkpt lat="45.28454664980863" lon="9.125883357772917"><ele>91.0</ele><time>2026-03-29T09:41:54Z</time></trkpt><trkpt lat="45.28454114837594" lon="9.1260468610085"><ele>91.0</ele><time>2026-03-29T09:41:56Z</time></trkpt><trkpt lat="45.28453839725441" lon="9.126212794774863"><ele>91.0</ele><time>2026-03-29T09:41:58Z</time></trkpt><trkpt lat="45.284537264708106" lon="9.126373820684595"><ele>91.0</ele><time>2026-03-29T09:42:00Z</time></trkpt><trkpt lat="45.28453654740424" lon="9.12653664832493"><ele>91.0</ele><time>2026-03-29T09:42:02Z</time></trkpt><trkpt lat="45.2845309131738" lon="9.126694923989348"><ele>91.0</ele><time>2026-03-29T09:42:04Z</time></trkpt><trkpt lat="45.28453033034263" lon="9.126851010081246"><ele>91.0</ele><time>2026-03-29T09:42:06Z</time></trkpt><trkpt lat="45.28452849681089" lon="9.126998114050837"><ele>91.0</ele><time>2026-03-29T09:42:08Z</time></trkpt><trkpt lat="45.28452845600953" lon="9.12713584144051"><ele>91.0</ele><time>2026-03-29T09:42:10Z</time></trkpt><trkpt lat="45.28452123219889" lon="9.127276092200157"><ele>91.0</ele><time>2026-03-29T09:42:12Z</time></trkpt><trkpt lat="45.28451780257338" lon="9.127417675985994"><ele>91.0</ele><time>2026-03-29T09:42:14Z</time></trkpt><trkpt lat="45.2845141072703" lon="9.127561935973684"><ele>91.0</ele><time>2026-03-29T09:42:16Z</time></trkpt><trkpt lat="45.284512059528026" lon="9.127709300638168"><ele>91.0</ele><time>2026-03-29T09:42:18Z</time></trkpt><trkpt lat="45.284509639517964" lon="9.127857286210462"><ele>91.0</ele><time>2026-03-29T09:42:20Z</time></trkpt><trkpt lat="45.28450908156761" lon="9.128005993060016"><ele>91.0</ele><time>2026-03-29T09:42:22Z</time></trkpt><trkpt lat="45.28450727766364" lon="9.128156578925301"><ele>91.0</ele><time>2026-03-29T09:42:24Z</time></trkpt><trkpt lat="45.28450244668453" lon="9.128308373341739"><ele>91.0</ele><time>2026-03-29T09:42:26Z</time></trkpt><trkpt lat="45.28450345613565" lon="9.12845830593827"><ele>91.0</ele><time>2026-03-29T09:42:28Z</time></trkpt><trkpt lat="45.28449643472786" lon="9.128602796247142"><ele>91.0</ele><time>2026-03-29T09:42:30Z</time></trkpt><trkpt lat="45.284495158951685" lon="9.128751110651418"><ele>91.0</ele><time>2026-03-29T09:42:32Z</time></trkpt><trkpt lat="45.284492516625235" lon="9.128900557554811"><ele>91.0</ele><time>2026-03-29T09:42:34Z</time></trkpt><trkpt lat="45.28448750969173" lon="9.129049344606463"><ele>91.0</ele><time>2026-03-29T09:42:36Z</time></trkpt><trkpt lat="45.284489574987795" lon="9.129195901615306"><ele>90.8</ele><time>2026-03-29T09:42:38.001Z</time></trkpt><trkpt lat="45.284483820079714" lon="9.129342832714089"><ele>90.6</ele><time>2026-03-29T09:42:40.001Z</time></trkpt><trkpt lat="45.284481554825106" lon="9.129488667809115"><ele>90.4</ele><time>2026-03-29T09:42:42.001Z</time></trkpt><trkpt lat="45.28448039793033" lon="9.129634533252023"><ele>90.2</ele><time>2026-03-29T09:42:44.001Z</time></trkpt><trkpt lat="45.284481698775096" lon="9.12978022895587"><ele>90.0</ele><time>2026-03-29T09:42:46.001Z</time></trkpt><trkpt lat="45.284474695755044" lon="9.129923121330137"><ele>90.0</ele><time>2026-03-29T09:42:48.001Z</time></trkpt><trkpt lat="45.28447085643414" lon="9.130058822986921"><ele>90.0</ele><time>2026-03-29T09:42:50.001Z</time></trkpt><trkpt lat="45.284470760417165" lon="9.130189928781318"><ele>90.0</ele><time>2026-03-29T09:42:52.001Z</time></trkpt><trkpt lat="45.284469839208796" lon="9.130324071453009"><ele>90.0</ele><time>2026-03-29T09:42:54.001Z</time></trkpt><trkpt lat="45.28446677512098" lon="9.130459939625439"><ele>90.0</ele><time>2026-03-29T09:42:56.001Z</time></trkpt><trkpt lat="45.28446430596473" lon="9.130599309459035"><ele>89.8</ele><time>2026-03-29T09:42:58.001Z</time></trkpt><trkpt lat="45.2844617747076" lon="9.130737366001059"><ele>89.6</ele><time>2026-03-29T09:43:00.001Z</time></trkpt><trkpt lat="45.28445709768214" lon="9.130879121450088"><ele>89.4</ele><time>2026-03-29T09:43:02.001Z</time></trkpt><trkpt lat="45.284455124172894" lon="9.131023550456188"><ele>89.2</ele><time>2026-03-29T09:43:04.001Z</time></trkpt><trkpt lat="45.28445544040946" lon="9.131159846602625"><ele>89.0</ele><time>2026-03-29T09:43:06.001Z</time></trkpt><trkpt lat="45.28445329538845" lon="9.131297526201976"><ele>89.0</ele><time>2026-03-29T09:43:08.001Z</time></trkpt><trkpt lat="45.28445296767412" lon="9.13142950074853"><ele>89.0</ele><time>2026-03-29T09:43:10.001Z</time></trkpt><trkpt lat="45.28445571643095" lon="9.131559154018756"><ele>89.0</ele><time>2026-03-29T09:43:12.001Z</time></trkpt><trkpt lat="45.284461057718765" lon="9.131689541084215"><ele>89.0</ele><time>2026-03-29T09:43:14.001Z</time></trkpt><trkpt lat="45.28446992396787" lon="9.131818070130318"><ele>89.0</ele><time>2026-03-29T09:43:16.001Z</time></trkpt><trkpt lat="45.284477332044446" lon="9.131948895966946"><ele>89.0</ele><time>2026-03-29T09:43:18.001Z</time></trkpt><trkpt lat="45.28448672848987" lon="9.132073344095042"><ele>89.0</ele><time>2026-03-29T09:43:20.001Z</time></trkpt><trkpt lat="45.28449623471613" lon="9.132195681215041"><ele>89.0</ele><time>2026-03-29T09:43:22.001Z</time></trkpt><trkpt lat="45.284505264720245" lon="9.132320672032405"><ele>89.0</ele><time>2026-03-29T09:43:24Z</time></trkpt><trkpt lat="45.2845203764625" lon="9.132436725946476"><ele>89.0</ele><time>2026-03-29T09:43:26Z</time></trkpt><trkpt lat="45.28453096848561" lon="9.132552401756213"><ele>89.0</ele><time>2026-03-29T09:43:28Z</time></trkpt><trkpt lat="45.284537624311206" lon="9.13265210556677"><ele>89.0</ele><time>2026-03-29T09:43:30Z</time></trkpt><trkpt lat="45.28454899225131" lon="9.132750693701167"><ele>89.0</ele><time>2026-03-29T09:43:32Z</time></trkpt><trkpt lat="45.284570433733975" lon="9.132875986092765"><ele>89.0</ele><time>2026-03-29T09:43:35Z</time></trkpt><trkpt lat="45.28460065569401" lon="9.133001408823977"><ele>89.0</ele><time>2026-03-29T09:43:38Z</time></trkpt><trkpt lat="45.28460855573586" lon="9.133137956096883"><ele>89.0</ele><time>2026-03-29T09:43:41Z</time></trkpt><trkpt lat="45.28463012035134" lon="9.133230225401624"><ele>89.0</ele><time>2026-03-29T09:43:43Z</time></trkpt><trkpt lat="45.28464809664249" lon="9.133325745463571"><ele>88.99999999999999</ele><time>2026-03-29T09:43:45Z</time></trkpt><trkpt lat="45.28466952263051" lon="9.133423751690259"><ele>89.0</ele><time>2026-03-29T09:43:47Z</time></trkpt><trkpt lat="45.28469472839234" lon="9.133522347275346"><ele>89.0</ele><time>2026-03-29T09:43:49Z</time></trkpt><trkpt lat="45.284721490904815" lon="9.133620079001759"><ele>89.0</ele><time>2026-03-29T09:43:51Z</time></trkpt><trkpt lat="45.2847443609734" lon="9.133713018869026"><ele>89.0</ele><time>2026-03-29T09:43:53Z</time></trkpt><trkpt lat="45.28476761385271" lon="9.133806411095929"><ele>88.99999999999999</ele><time>2026-03-29T09:43:55Z</time></trkpt><trkpt lat="45.28479093448551" lon="9.133895724753023"><ele>89.0</ele><time>2026-03-29T09:43:57Z</time></trkpt><trkpt lat="45.284812207490724" lon="9.133997521080527"><ele>89.28571428571428</ele><time>2026-03-29T09:43:59Z</time></trkpt><trkpt lat="45.284831763092555" lon="9.134096247391955"><ele>89.57142857142857</ele><time>2026-03-29T09:44:01Z</time></trkpt><trkpt lat="45.28484436054996" lon="9.13418474720229"><ele>89.85714285714286</ele><time>2026-03-29T09:44:03Z</time></trkpt><trkpt lat="45.284850947750904" lon="9.13427944499334"><ele>90.14285714285714</ele><time>2026-03-29T09:44:05Z</time></trkpt><trkpt lat="45.28486443252044" lon="9.13437025833974"><ele>90.42857142857143</ele><time>2026-03-29T09:44:07Z</time></trkpt><trkpt lat="45.284890510458276" lon="9.134470858826854"><ele>90.71428571428571</ele><time>2026-03-29T09:44:09Z</time></trkpt><trkpt lat="45.284932272787565" lon="9.134573378502264"><ele>91.0</ele><time>2026-03-29T09:44:11Z</time></trkpt><trkpt lat="45.28500392844317" lon="9.134663912979178"><ele>91.0</ele><time>2026-03-29T09:44:13Z</time></trkpt><trkpt lat="45.285096087849894" lon="9.13472544053752"><ele>91.0</ele><time>2026-03-29T09:44:15Z</time></trkpt><trkpt lat="45.28519517169199" lon="9.13472561409077"><ele>91.0</ele><time>2026-03-29T09:44:17Z</time></trkpt><trkpt lat="45.285291097441906" lon="9.134692614171307"><ele>91.0</ele><time>2026-03-29T09:44:19Z</time></trkpt><trkpt lat="45.28539250111624" lon="9.134642461160052"><ele>91.0</ele><time>2026-03-29T09:44:21Z</time></trkpt><trkpt lat="45.28549478403626" lon="9.13460402688167"><ele>90.6</ele><time>2026-03-29T09:44:23Z</time></trkpt><trkpt lat="45.28559971040223" lon="9.134597336475595"><ele>90.19999999999999</ele><time>2026-03-29T09:44:25Z</time></trkpt><trkpt lat="45.28566856100895" lon="9.134601086515522"><ele>89.80000000000001</ele><time>2026-03-29T09:44:26Z</time></trkpt><trkpt lat="45.28575402450044" lon="9.13458854026499"><ele>89.4</ele><time>2026-03-29T09:44:28Z</time></trkpt><trkpt lat="45.28584834201667" lon="9.134595073491463"><ele>89.0</ele><time>2026-03-29T09:44:30Z</time></trkpt><trkpt lat="45.28594810305146" lon="9.134604753855607"><ele>89.0</ele><time>2026-03-29T09:44:32Z</time></trkpt><trkpt lat="45.2860474498218" lon="9.134629389810103"><ele>89.0</ele><time>2026-03-29T09:44:34Z</time></trkpt><trkpt lat="45.286151203263664" lon="9.134641612799365"><ele>89.0</ele><time>2026-03-29T09:44:36Z</time></trkpt><trkpt lat="45.286253310220765" lon="9.134671159755449"><ele>89.0</ele><time>2026-03-29T09:44:38.001Z</time></trkpt><trkpt lat="45.28635718123471" lon="9.13471032523892"><ele>89.0</ele><time>2026-03-29T09:44:40.001Z</time></trkpt><trkpt lat="45.28646262220402" lon="9.134759290472799"><ele>89.0</ele><time>2026-03-29T09:44:42.001Z</time></trkpt><trkpt lat="45.28656659504885" lon="9.134825515171375"><ele>89.0</ele><time>2026-03-29T09:44:44.001Z</time></trkpt><trkpt lat="45.286666739189755" lon="9.134903773730507"><ele>89.0</ele><time>2026-03-29T09:44:46.001Z</time></trkpt><trkpt lat="45.286759157795245" lon="9.13500271545155"><ele>89.0</ele><time>2026-03-29T09:44:48.001Z</time></trkpt><trkpt lat="45.286841446409134" lon="9.135106111716507"><ele>89.0</ele><time>2026-03-29T09:44:50.001Z</time></trkpt><trkpt lat="45.28692093230738" lon="9.135216822233822"><ele>89.0</ele><time>2026-03-29T09:44:52.001Z</time></trkpt><trkpt lat="45.2869872293463" lon="9.135341479625378"><ele>89.0</ele><time>2026-03-29T09:44:54.001Z</time></trkpt><trkpt lat="45.28705221729832" lon="9.1354833564195"><ele>89.0</ele><time>2026-03-29T09:44:56.001Z</time></trkpt><trkpt lat="45.28709564891868" lon="9.135641786463646"><ele>88.75</ele><time>2026-03-29T09:44:58.001Z</time></trkpt><trkpt lat="45.28713671900714" lon="9.135803024826384"><ele>88.5</ele><time>2026-03-29T09:45:00.001Z</time></trkpt><trkpt lat="45.28716314149859" lon="9.135968477039805"><ele>88.25</ele><time>2026-03-29T09:45:02.001Z</time></trkpt><trkpt lat="45.28717634144662" lon="9.136137872300354"><ele>88.0</ele><time>2026-03-29T09:45:04.001Z</time></trkpt><trkpt lat="45.28717909490046" lon="9.1363048880993"><ele>88.0</ele><time>2026-03-29T09:45:06.001Z</time></trkpt><trkpt lat="45.28718243714508" lon="9.136464972088264"><ele>88.0</ele><time>2026-03-29T09:45:08.001Z</time></trkpt><trkpt lat="45.28717646047785" lon="9.136618623165374"><ele>88.0</ele><time>2026-03-29T09:45:10.001Z</time></trkpt><trkpt lat="45.287178052830804" lon="9.136763452227889"><ele>88.0</ele><time>2026-03-29T09:45:12.001Z</time></trkpt><trkpt lat="45.28717980216579" lon="9.136912207318396"><ele>88.0</ele><time>2026-03-29T09:45:14.001Z</time></trkpt><trkpt lat="45.28717651693396" lon="9.137063448174883"><ele>88.0</ele><time>2026-03-29T09:45:16.001Z</time></trkpt><trkpt lat="45.28717800519537" lon="9.137216269700295"><ele>88.0</ele><time>2026-03-29T09:45:18.001Z</time></trkpt><trkpt lat="45.28718001356683" lon="9.137372723889525"><ele>88.0</ele><time>2026-03-29T09:45:20.001Z</time></trkpt><trkpt lat="45.28717642224525" lon="9.137523522357567"><ele>88.0</ele><time>2026-03-29T09:45:22.001Z</time></trkpt><trkpt lat="45.28718032272729" lon="9.137678550494215"><ele>88.0</ele><time>2026-03-29T09:45:24.001Z</time></trkpt><trkpt lat="45.28718118096811" lon="9.137832637777215"><ele>88.0</ele><time>2026-03-29T09:45:26.001Z</time></trkpt><trkpt lat="45.28717923519888" lon="9.137986540207882"><ele>88.0</ele><time>2026-03-29T09:45:28.001Z</time></trkpt><trkpt lat="45.28718171286019" lon="9.138142864353277"><ele>88.0</ele><time>2026-03-29T09:45:30Z</time></trkpt><trkpt lat="45.28717835736574" lon="9.138304158730175"><ele>88.0</ele><time>2026-03-29T09:45:32Z</time></trkpt><trkpt lat="45.28718138658115" lon="9.138460029323097"><ele>88.0</ele><time>2026-03-29T09:45:34Z</time></trkpt><trkpt lat="45.28717781577524" lon="9.138616221626394"><ele>87.80000000000001</ele><time>2026-03-29T09:45:36Z</time></trkpt><trkpt lat="45.28718173341815" lon="9.138773538034554"><ele>87.6</ele><time>2026-03-29T09:45:38Z</time></trkpt><trkpt lat="45.28717920954865" lon="9.138932383246832"><ele>87.4</ele><time>2026-03-29T09:45:40Z</time></trkpt><trkpt lat="45.287181406198926" lon="9.139094191620798"><ele>87.19999999999999</ele><time>2026-03-29T09:45:42Z</time></trkpt><trkpt lat="45.28718140053976" lon="9.139253806878466"><ele>87.0</ele><time>2026-03-29T09:45:44Z</time></trkpt><trkpt lat="45.28718034545595" lon="9.139408361609885"><ele>87.0</ele><time>2026-03-29T09:45:46Z</time></trkpt><trkpt lat="45.287182327003094" lon="9.139563808865105"><ele>87.0</ele><time>2026-03-29T09:45:48Z</time></trkpt><trkpt lat="45.28718009176461" lon="9.139719245484386"><ele>87.0</ele><time>2026-03-29T09:45:50Z</time></trkpt><trkpt lat="45.287182419219924" lon="9.139874432608892"><ele>87.0</ele><time>2026-03-29T09:45:52Z</time></trkpt><trkpt lat="45.287186562374" lon="9.140030639909064"><ele>87.0</ele><time>2026-03-29T09:45:54Z</time></trkpt><trkpt lat="45.28717954238515" lon="9.140188429534666"><ele>87.0</ele><time>2026-03-29T09:45:56Z</time></trkpt><trkpt lat="45.28718365924667" lon="9.140342723053484"><ele>87.0</ele><time>2026-03-29T09:45:58Z</time></trkpt><trkpt lat="45.287181834889694" lon="9.140493631448729"><ele>87.0</ele><time>2026-03-29T09:46:00Z</time></trkpt><trkpt lat="45.287180960994455" lon="9.140639253519533"><ele>87.0</ele><time>2026-03-29T09:46:02Z</time></trkpt><trkpt lat="45.287185079375696" lon="9.140779425852408"><ele>87.0</ele><time>2026-03-29T09:46:04Z</time></trkpt><trkpt lat="45.287179888513904" lon="9.140911353523652"><ele>87.19999999999999</ele><time>2026-03-29T09:46:06Z</time></trkpt><trkpt lat="45.28718310591379" lon="9.141061193961383"><ele>87.4</ele><time>2026-03-29T09:46:08Z</time></trkpt><trkpt lat="45.287184065154605" lon="9.141207717750712"><ele>87.6</ele><time>2026-03-29T09:46:10Z</time></trkpt><trkpt lat="45.28718445686692" lon="9.141355366150854"><ele>87.80000000000001</ele><time>2026-03-29T09:46:12Z</time></trkpt><trkpt lat="45.2871869766898" lon="9.141499820699337"><ele>88.0</ele><time>2026-03-29T09:46:14Z</time></trkpt><trkpt lat="45.28718414004351" lon="9.141640682317998"><ele>88.2</ele><time>2026-03-29T09:46:16Z</time></trkpt><trkpt lat="45.28718206512778" lon="9.141773355727409"><ele>88.4</ele><time>2026-03-29T09:46:18Z</time></trkpt><trkpt lat="45.28717094111647" lon="9.141910925085208"><ele>88.60000000000001</ele><time>2026-03-29T09:46:20Z</time></trkpt><trkpt lat="45.28717357705802" lon="9.142060103905973"><ele>88.80000000000001</ele><time>2026-03-29T09:46:22Z</time></trkpt><trkpt lat="45.28720823794542" lon="9.142199963031285"><ele>89.0</ele><time>2026-03-29T09:46:24Z</time></trkpt><trkpt lat="45.28728473098856" lon="9.142313394605502"><ele>88.80000000000001</ele><time>2026-03-29T09:46:26Z</time></trkpt><trkpt lat="45.287384883873735" lon="9.142382661101228"><ele>88.60000000000001</ele><time>2026-03-29T09:46:28Z</time></trkpt><trkpt lat="45.28748975173384" lon="9.14241514064558"><ele>88.4</ele><time>2026-03-29T09:46:30Z</time></trkpt><trkpt lat="45.287596049628185" lon="9.142423597123413"><ele>88.2</ele><time>2026-03-29T09:46:32Z</time></trkpt><trkpt lat="45.28769053081471" lon="9.142447437422401"><ele>88.0</ele><time>2026-03-29T09:46:34Z</time></trkpt><trkpt lat="45.287775057068814" lon="9.142479294153834"><ele>88.0</ele><time>2026-03-29T09:46:36Z</time></trkpt><trkpt lat="45.28784655253563" lon="9.14250078636121"><ele>88.0</ele><time>2026-03-29T09:46:38Z</time></trkpt><trkpt lat="45.287920175811564" lon="9.142530188305198"><ele>88.0</ele><time>2026-03-29T09:46:40Z</time></trkpt><trkpt lat="45.288002533657455" lon="9.142547780555045"><ele>88.0</ele><time>2026-03-29T09:46:42Z</time></trkpt><trkpt lat="45.288097004906156" lon="9.142577255769583"><ele>88.0</ele><time>2026-03-29T09:46:44Z</time></trkpt><trkpt lat="45.28819576658064" lon="9.142610978907467"><ele>88.0</ele><time>2026-03-29T09:46:46Z</time></trkpt><trkpt lat="45.28830152746284" lon="9.142646845235811"><ele>88.0</ele><time>2026-03-29T09:46:48Z</time></trkpt><trkpt lat="45.28841017925668" lon="9.14267686937402"><ele>88.0</ele><time>2026-03-29T09:46:50Z</time></trkpt><trkpt lat="45.288511090560505" lon="9.142707159372607"><ele>88.0</ele><time>2026-03-29T09:46:52Z</time></trkpt><trkpt lat="45.28860724714713" lon="9.142730440888885"><ele>88.0</ele><time>2026-03-29T09:46:54Z</time></trkpt><trkpt lat="45.28869890635032" lon="9.14276114630185"><ele>88.0</ele><time>2026-03-29T09:46:56.001Z</time></trkpt><trkpt lat="45.28879043079038" lon="9.142788190667892"><ele>88.0</ele><time>2026-03-29T09:46:58.001Z</time></trkpt><trkpt lat="45.288885514602796" lon="9.142809707015234"><ele>88.0</ele><time>2026-03-29T09:47:00.001Z</time></trkpt><trkpt lat="45.288980717794416" lon="9.142845075848873"><ele>88.0</ele><time>2026-03-29T09:47:02.001Z</time></trkpt><trkpt lat="45.28908332105738" lon="9.142876836948117"><ele>88.0</ele><time>2026-03-29T09:47:04.001Z</time></trkpt><trkpt lat="45.289184272123464" lon="9.142906361462337"><ele>88.0</ele><time>2026-03-29T09:47:06.001Z</time></trkpt><trkpt lat="45.28928272244998" lon="9.14293885900316"><ele>88.2</ele><time>2026-03-29T09:47:08.001Z</time></trkpt><trkpt lat="45.28938426927576" lon="9.142966083738534"><ele>88.4</ele><time>2026-03-29T09:47:10.001Z</time></trkpt><trkpt lat="45.28947909117544" lon="9.14299572828822"><ele>88.60000000000001</ele><time>2026-03-29T09:47:12.001Z</time></trkpt><trkpt lat="45.28957625450818" lon="9.14301722735274"><ele>88.80000000000001</ele><time>2026-03-29T09:47:14.001Z</time></trkpt><trkpt lat="45.28967798467682" lon="9.14303241089755"><ele>89.0</ele><time>2026-03-29T09:47:16.001Z</time></trkpt><trkpt lat="45.28978248451379" lon="9.143045177269842"><ele>89.0</ele><time>2026-03-29T09:47:18.001Z</time></trkpt><trkpt lat="45.28988942026943" lon="9.143048786626679"><ele>89.0</ele><time>2026-03-29T09:47:20.001Z</time></trkpt><trkpt lat="45.289999650770355" lon="9.143051352696713"><ele>89.0</ele><time>2026-03-29T09:47:22.001Z</time></trkpt><trkpt lat="45.290105522933736" lon="9.143046541780107"><ele>89.0</ele><time>2026-03-29T09:47:24.001Z</time></trkpt><trkpt lat="45.290213143002376" lon="9.143035539581096"><ele>89.0</ele><time>2026-03-29T09:47:26.001Z</time></trkpt><trkpt lat="45.29031931521629" lon="9.143013391598869"><ele>89.0</ele><time>2026-03-29T09:47:28.001Z</time></trkpt><trkpt lat="45.29042501652363" lon="9.142992475881124"><ele>89.0</ele><time>2026-03-29T09:47:30.001Z</time></trkpt><trkpt lat="45.290526552930196" lon="9.142960489750148"><ele>89.0</ele><time>2026-03-29T09:47:32.001Z</time></trkpt><trkpt lat="45.29062578633557" lon="9.142942112715629"><ele>89.0</ele><time>2026-03-29T09:47:34.001Z</time></trkpt><trkpt lat="45.290722911288384" lon="9.142914967875686"><ele>89.0</ele><time>2026-03-29T09:47:36Z</time></trkpt><trkpt lat="45.2908197734934" lon="9.142891358744928"><ele>88.80000000000001</ele><time>2026-03-29T09:47:38Z</time></trkpt><trkpt lat="45.29091537898324" lon="9.142866867255131"><ele>88.60000000000001</ele><time>2026-03-29T09:47:40Z</time></trkpt><trkpt lat="45.29101080418934" lon="9.142841740912173"><ele>88.4</ele><time>2026-03-29T09:47:42Z</time></trkpt><trkpt lat="45.2911168034213" lon="9.142818460024042"><ele>88.2</ele><time>2026-03-29T09:47:44Z</time></trkpt><trkpt lat="45.29122102710278" lon="9.142794774384978"><ele>88.0</ele><time>2026-03-29T09:47:46Z</time></trkpt><trkpt lat="45.29132305928893" lon="9.14276869273942"><ele>88.0</ele><time>2026-03-29T09:47:48Z</time></trkpt><trkpt lat="45.291422778487714" lon="9.142735764761662"><ele>88.0</ele><time>2026-03-29T09:47:50Z</time></trkpt><trkpt lat="45.291524850808216" lon="9.142717111634646"><ele>88.0</ele><time>2026-03-29T09:47:52Z</time></trkpt><trkpt lat="45.29162665342667" lon="9.142687836468202"><ele>88.0</ele><time>2026-03-29T09:47:54Z</time></trkpt><trkpt lat="45.29173189303052" lon="9.142665508506381"><ele>88.0</ele><time>2026-03-29T09:47:56Z</time></trkpt><trkpt lat="45.291833480582945" lon="9.142634060496015"><ele>88.60000000000001</ele><time>2026-03-29T09:47:58Z</time></trkpt><trkpt lat="45.29194085872607" lon="9.142607629673638"><ele>89.2</ele><time>2026-03-29T09:48:00Z</time></trkpt><trkpt lat="45.29204446287664" lon="9.142579335147202"><ele>89.8</ele><time>2026-03-29T09:48:02Z</time></trkpt><trkpt lat="45.292149280614275" lon="9.142549682728182"><ele>90.4</ele><time>2026-03-29T09:48:04Z</time></trkpt><trkpt lat="45.29224914570462" lon="9.142519052554947"><ele>91.0</ele><time>2026-03-29T09:48:06Z</time></trkpt><trkpt lat="45.292349419745975" lon="9.142498164235692"><ele>91.0</ele><time>2026-03-29T09:48:08Z</time></trkpt><trkpt lat="45.292450076243746" lon="9.142472794766539"><ele>91.0</ele><time>2026-03-29T09:48:10Z</time></trkpt><trkpt lat="45.29255123562225" lon="9.142446181554796"><ele>91.0</ele><time>2026-03-29T09:48:12Z</time></trkpt><trkpt lat="45.29265179885006" lon="9.142417916896877"><ele>91.0</ele><time>2026-03-29T09:48:14Z</time></trkpt><trkpt lat="45.29275455833487" lon="9.142396745543133"><ele>91.0</ele><time>2026-03-29T09:48:16Z</time></trkpt><trkpt lat="45.292858617040594" lon="9.142369735900562"><ele>90.6</ele><time>2026-03-29T09:48:18Z</time></trkpt><trkpt lat="45.29296088356538" lon="9.14234293464789"><ele>90.19999999999999</ele><time>2026-03-29T09:48:20Z</time></trkpt><trkpt lat="45.29306247107258" lon="9.142320289327252"><ele>89.80000000000001</ele><time>2026-03-29T09:48:22Z</time></trkpt><trkpt lat="45.29316708841048" lon="9.142290903130263"><ele>89.4</ele><time>2026-03-29T09:48:24Z</time></trkpt><trkpt lat="45.293266654045226" lon="9.142264158952544"><ele>89.0</ele><time>2026-03-29T09:48:26Z</time></trkpt><trkpt lat="45.293365155163315" lon="9.142246475122475"><ele>89.0</ele><time>2026-03-29T09:48:28Z</time></trkpt><trkpt lat="45.2934574344309" lon="9.142254822253456"><ele>89.0</ele><time>2026-03-29T09:48:30Z</time></trkpt><trkpt lat="45.29352324071628" lon="9.142322347756638"><ele>89.0</ele><time>2026-03-29T09:48:32Z</time></trkpt><trkpt lat="45.29362817432452" lon="9.14231528546976"><ele>89.0</ele><time>2026-03-29T09:48:34Z</time></trkpt><trkpt lat="45.29370446992463" lon="9.1422251216589"><ele>89.0</ele><time>2026-03-29T09:48:36Z</time></trkpt><trkpt lat="45.29379059345198" lon="9.142148410522825"><ele>89.0</ele><time>2026-03-29T09:48:38Z</time></trkpt><trkpt lat="45.293883455653834" lon="9.14208234827688"><ele>89.0</ele><time>2026-03-29T09:48:40Z</time></trkpt><trkpt lat="45.29398401132541" lon="9.14206807262678"><ele>89.0</ele><time>2026-03-29T09:48:42Z</time></trkpt><trkpt lat="45.29408781282572" lon="9.142032883250277"><ele>89.0</ele><time>2026-03-29T09:48:44Z</time></trkpt><trkpt lat="45.29418785473071" lon="9.142001625120606"><ele>89.0</ele><time>2026-03-29T09:48:46Z</time></trkpt><trkpt lat="45.294290997923206" lon="9.141971819327319"><ele>89.2</ele><time>2026-03-29T09:48:48Z</time></trkpt><trkpt lat="45.29439305135027" lon="9.141937165007699"><ele>89.4</ele><time>2026-03-29T09:48:50Z</time></trkpt><trkpt lat="45.29449836605864" lon="9.141921640980332"><ele>89.6</ele><time>2026-03-29T09:48:52Z</time></trkpt><trkpt lat="45.29460212495022" lon="9.141922402385747"><ele>89.8</ele><time>2026-03-29T09:48:54Z</time></trkpt><trkpt lat="45.294704469051936" lon="9.141934085508197"><ele>90.0</ele><time>2026-03-29T09:48:56Z</time></trkpt><trkpt lat="45.294805978869" lon="9.141942078060731"><ele>90.0</ele><time>2026-03-29T09:48:58Z</time></trkpt><trkpt lat="45.294907825050984" lon="9.14195559218198"><ele>90.0</ele><time>2026-03-29T09:49:00Z</time></trkpt><trkpt lat="45.295012749856674" lon="9.141968115511533"><ele>90.0</ele><time>2026-03-29T09:49:02Z</time></trkpt><trkpt lat="45.29511899552403" lon="9.141978471386723"><ele>90.0</ele><time>2026-03-29T09:49:04Z</time></trkpt><trkpt lat="45.295217632622666" lon="9.141993759395039"><ele>90.0</ele><time>2026-03-29T09:49:06Z</time></trkpt><trkpt lat="45.295321407215575" lon="9.142011717947108"><ele>90.0</ele><time>2026-03-29T09:49:08Z</time></trkpt><trkpt lat="45.29541677630106" lon="9.142020253376142"><ele>90.0</ele><time>2026-03-29T09:49:10Z</time></trkpt><trkpt lat="45.29551936298549" lon="9.142030014700977"><ele>90.0</ele><time>2026-03-29T09:49:12Z</time></trkpt><trkpt lat="45.29562230794373" lon="9.1420456582305"><ele>90.0</ele><time>2026-03-29T09:49:14Z</time></trkpt><trkpt lat="45.2957231690802" lon="9.14205807432258"><ele>90.0</ele><time>2026-03-29T09:49:16Z</time></trkpt><trkpt lat="45.29583246387748" lon="9.142068749299805"><ele>89.6</ele><time>2026-03-29T09:49:18.001Z</time></trkpt><trkpt lat="45.295937042893" lon="9.142083370381815"><ele>89.2</ele><time>2026-03-29T09:49:20.001Z</time></trkpt><trkpt lat="45.296045258606526" lon="9.142091446402866"><ele>88.80000000000001</ele><time>2026-03-29T09:49:22.001Z</time></trkpt><trkpt lat="45.296144360009094" lon="9.142100018432497"><ele>88.4</ele><time>2026-03-29T09:49:24.001Z</time></trkpt><trkpt lat="45.29624362938405" lon="9.14210976890161"><ele>88.0</ele><time>2026-03-29T09:49:26.001Z</time></trkpt><trkpt lat="45.29634194335427" lon="9.142113914825295"><ele>88.2</ele><time>2026-03-29T09:49:28.001Z</time></trkpt><trkpt lat="45.29644500961853" lon="9.14211076363224"><ele>88.4</ele><time>2026-03-29T09:49:30.001Z</time></trkpt><trkpt lat="45.296540187115944" lon="9.142120683107155"><ele>88.60000000000001</ele><time>2026-03-29T09:49:32.001Z</time></trkpt><trkpt lat="45.29663632182691" lon="9.142127549855614"><ele>88.80000000000001</ele><time>2026-03-29T09:49:34.001Z</time></trkpt><trkpt lat="45.296741814432536" lon="9.142128465239995"><ele>89.0</ele><time>2026-03-29T09:49:36.001Z</time></trkpt><trkpt lat="45.29684162325177" lon="9.142136586540312"><ele>89.0</ele><time>2026-03-29T09:49:38.001Z</time></trkpt><trkpt lat="45.29695369007416" lon="9.142136672956852"><ele>89.0</ele><time>2026-03-29T09:49:40.001Z</time></trkpt><trkpt lat="45.29705763030133" lon="9.142144205619745"><ele>89.0</ele><time>2026-03-29T09:49:42Z</time></trkpt><trkpt lat="45.297161625237656" lon="9.142140627578815"><ele>89.0</ele><time>2026-03-29T09:49:44Z</time></trkpt><trkpt lat="45.29726595778835" lon="9.142141973183138"><ele>89.0</ele><time>2026-03-29T09:49:46Z</time></trkpt><trkpt lat="45.29736867891773" lon="9.142136106972563"><ele>89.2</ele><time>2026-03-29T09:49:48Z</time></trkpt><trkpt lat="45.29747413213315" lon="9.142113669024747"><ele>89.4</ele><time>2026-03-29T09:49:50Z</time></trkpt><trkpt lat="45.29757798544061" lon="9.142085700791531"><ele>89.6</ele><time>2026-03-29T09:49:52Z</time></trkpt><trkpt lat="45.297684390827754" lon="9.142057738441405"><ele>89.8</ele><time>2026-03-29T09:49:54Z</time></trkpt><trkpt lat="45.29778806562186" lon="9.142023903968196"><ele>90.0</ele><time>2026-03-29T09:49:56Z</time></trkpt><trkpt lat="45.29789284014522" lon="9.141997583349083"><ele>90.0</ele><time>2026-03-29T09:49:58Z</time></trkpt><trkpt lat="45.29799667597848" lon="9.14196349763227"><ele>90.0</ele><time>2026-03-29T09:50:00Z</time></trkpt><trkpt lat="45.298100558011114" lon="9.141937049444063"><ele>90.0</ele><time>2026-03-29T09:50:02Z</time></trkpt><trkpt lat="45.29820035462243" lon="9.141906052682007"><ele>90.0</ele><time>2026-03-29T09:50:04Z</time></trkpt><trkpt lat="45.29830378675978" lon="9.141875838708165"><ele>90.0</ele><time>2026-03-29T09:50:06Z</time></trkpt><trkpt lat="45.29840755750823" lon="9.141847366341358"><ele>90.8</ele><time>2026-03-29T09:50:08Z</time></trkpt><trkpt lat="45.29850903316865" lon="9.141816932737656"><ele>91.6</ele><time>2026-03-29T09:50:10Z</time></trkpt><trkpt lat="45.29861038398186" lon="9.141787125958844"><ele>92.4</ele><time>2026-03-29T09:50:12Z</time></trkpt><trkpt lat="45.29871268314587" lon="9.14177198108736"><ele>93.2</ele><time>2026-03-29T09:50:14Z</time></trkpt><trkpt lat="45.29881585219485" lon="9.141780209812733"><ele>94.0</ele><time>2026-03-29T09:50:16Z</time></trkpt><trkpt lat="45.29891364726864" lon="9.141819942846455"><ele>94.6</ele><time>2026-03-29T09:50:18Z</time></trkpt><trkpt lat="45.299011027412355" lon="9.141885921971875"><ele>95.2</ele><time>2026-03-29T09:50:20Z</time></trkpt><trkpt lat="45.29911102678739" lon="9.141959453163793"><ele>95.8</ele><time>2026-03-29T09:50:22Z</time></trkpt><trkpt lat="45.29921457529687" lon="9.142030044399046"><ele>96.39999999999999</ele><time>2026-03-29T09:50:24Z</time></trkpt><trkpt lat="45.29931494714515" lon="9.142086423742635"><ele>97.0</ele><time>2026-03-29T09:50:26Z</time></trkpt><trkpt lat="45.29941902292358" lon="9.142138316969346"><ele>97.00000000000001</ele><time>2026-03-29T09:50:28Z</time></trkpt><trkpt lat="45.29948149629934" lon="9.142157975920115"><ele>97.0</ele><time>2026-03-29T09:50:29Z</time></trkpt><trkpt lat="45.29954569759666" lon="9.142176037167909"><ele>97.0</ele><time>2026-03-29T09:50:30Z</time></trkpt><trkpt lat="45.29962116191777" lon="9.14221992967261"><ele>97.0</ele><time>2026-03-29T09:50:32Z</time></trkpt><trkpt lat="45.29971864603343" lon="9.142258150960457"><ele>97.00000000000001</ele><time>2026-03-29T09:50:34Z</time></trkpt><trkpt lat="45.299814189536924" lon="9.142297047743087"><ele>97.0</ele><time>2026-03-29T09:50:36Z</time></trkpt><trkpt lat="45.29990707599987" lon="9.142339082156674"><ele>97.0</ele><time>2026-03-29T09:50:38Z</time></trkpt><trkpt lat="45.299994322929244" lon="9.142365128070304"><ele>97.0</ele><time>2026-03-29T09:50:40Z</time></trkpt><trkpt lat="45.300073529137066" lon="9.142407563352904"><ele>97.0</ele><time>2026-03-29T09:50:42Z</time></trkpt><trkpt lat="45.30016252469987" lon="9.142447497646362"><ele>97.0</ele><time>2026-03-29T09:50:44Z</time></trkpt><trkpt lat="45.30025974582397" lon="9.142479409507592"><ele>97.0</ele><time>2026-03-29T09:50:46Z</time></trkpt><trkpt lat="45.3003452514781" lon="9.142512080979538"><ele>97.0</ele><time>2026-03-29T09:50:48Z</time></trkpt><trkpt lat="45.30043116700642" lon="9.142553324128883"><ele>97.0</ele><time>2026-03-29T09:50:50Z</time></trkpt><trkpt lat="45.30052939599724" lon="9.142597986039599"><ele>97.0</ele><time>2026-03-29T09:50:52Z</time></trkpt><trkpt lat="45.30063013093404" lon="9.142633123316383"><ele>97.0</ele><time>2026-03-29T09:50:54Z</time></trkpt><trkpt lat="45.300723675767514" lon="9.14267538332762"><ele>97.0</ele><time>2026-03-29T09:50:56Z</time></trkpt><trkpt lat="45.30081340026992" lon="9.142716307211153"><ele>97.39999999999999</ele><time>2026-03-29T09:50:58Z</time></trkpt><trkpt lat="45.30090373391806" lon="9.142746786773634"><ele>97.8</ele><time>2026-03-29T09:51:00Z</time></trkpt><trkpt lat="45.30099900314841" lon="9.142785200805678"><ele>98.2</ele><time>2026-03-29T09:51:02Z</time></trkpt><trkpt lat="45.30109174677529" lon="9.142827445208189"><ele>98.6</ele><time>2026-03-29T09:51:04Z</time></trkpt><trkpt lat="45.30118580894555" lon="9.142868543714947"><ele>99.0</ele><time>2026-03-29T09:51:06Z</time></trkpt><trkpt lat="45.301272203660304" lon="9.142902223606885"><ele>99.0</ele><time>2026-03-29T09:51:08Z</time></trkpt><trkpt lat="45.30135802301832" lon="9.142934705526468"><ele>99.0</ele><time>2026-03-29T09:51:10Z</time></trkpt><trkpt lat="45.301444069243615" lon="9.142961680782996"><ele>99.0</ele><time>2026-03-29T09:51:12Z</time></trkpt><trkpt lat="45.30153904344207" lon="9.143003313900365"><ele>99.0</ele><time>2026-03-29T09:51:14Z</time></trkpt><trkpt lat="45.301615443713594" lon="9.143102683758618"><ele>99.0</ele><time>2026-03-29T09:51:16Z</time></trkpt><trkpt lat="45.30169149242962" lon="9.143167561687893"><ele>98.4</ele><time>2026-03-29T09:51:18Z</time></trkpt><trkpt lat="45.30175916551799" lon="9.143173288619382"><ele>97.80000000000001</ele><time>2026-03-29T09:51:19Z</time></trkpt><trkpt lat="45.301866579923" lon="9.14317071356038"><ele>97.19999999999999</ele><time>2026-03-29T09:51:21Z</time></trkpt><trkpt lat="45.30196698953869" lon="9.143245940210495"><ele>96.6</ele><time>2026-03-29T09:51:23Z</time></trkpt><trkpt lat="45.302066315463755" lon="9.143339697412872"><ele>96.0</ele><time>2026-03-29T09:51:25Z</time></trkpt><trkpt lat="45.30216258934482" lon="9.14343426028138"><ele>95.4</ele><time>2026-03-29T09:51:27Z</time></trkpt><trkpt lat="45.30225474163708" lon="9.143519044303105"><ele>94.8</ele><time>2026-03-29T09:51:29Z</time></trkpt><trkpt lat="45.30233636111793" lon="9.143622434626037"><ele>94.2</ele><time>2026-03-29T09:51:31Z</time></trkpt><trkpt lat="45.3024112720402" lon="9.143735791837154"><ele>93.60000000000001</ele><time>2026-03-29T09:51:33Z</time></trkpt><trkpt lat="45.302484446256685" lon="9.14384661472901"><ele>93.0</ele><time>2026-03-29T09:51:35Z</time></trkpt><trkpt lat="45.30255549346242" lon="9.143967227732267"><ele>93.4</ele><time>2026-03-29T09:51:37.001Z</time></trkpt><trkpt lat="45.302619194749354" lon="9.144093219779517"><ele>93.80000000000001</ele><time>2026-03-29T09:51:39.001Z</time></trkpt><trkpt lat="45.30267689899449" lon="9.144228710324969"><ele>94.2</ele><time>2026-03-29T09:51:41.001Z</time></trkpt><trkpt lat="45.30273138289753" lon="9.14436814330141"><ele>94.6</ele><time>2026-03-29T09:51:43.001Z</time></trkpt><trkpt lat="45.30278353808794" lon="9.144507249314925"><ele>95.0</ele><time>2026-03-29T09:51:45.001Z</time></trkpt><trkpt lat="45.30283003396295" lon="9.144655202508428"><ele>95.0</ele><time>2026-03-29T09:51:47Z</time></trkpt><trkpt lat="45.30287568247716" lon="9.14479918747662"><ele>95.0</ele><time>2026-03-29T09:51:49Z</time></trkpt><trkpt lat="45.3029241769917" lon="9.144933338571958"><ele>95.0</ele><time>2026-03-29T09:51:51Z</time></trkpt><trkpt lat="45.30296954400807" lon="9.145073213979046"><ele>95.0</ele><time>2026-03-29T09:51:53Z</time></trkpt><trkpt lat="45.30301494249166" lon="9.145208753646537"><ele>95.0</ele><time>2026-03-29T09:51:55Z</time></trkpt><trkpt lat="45.30306097426505" lon="9.145349895780871"><ele>94.6</ele><time>2026-03-29T09:51:57Z</time></trkpt><trkpt lat="45.303116071897165" lon="9.145480564642169"><ele>94.2</ele><time>2026-03-29T09:51:59Z</time></trkpt><trkpt lat="45.3031630468651" lon="9.145625615530141"><ele>93.80000000000001</ele><time>2026-03-29T09:52:01Z</time></trkpt><trkpt lat="45.30320980373544" lon="9.145766229213947"><ele>93.4</ele><time>2026-03-29T09:52:03Z</time></trkpt><trkpt lat="45.30326517990687" lon="9.14589675478053"><ele>93.0</ele><time>2026-03-29T09:52:05Z</time></trkpt><trkpt lat="45.30332893817532" lon="9.146013325432886"><ele>93.0</ele><time>2026-03-29T09:52:07Z</time></trkpt><trkpt lat="45.30340221727515" lon="9.146115813243158"><ele>93.0</ele><time>2026-03-29T09:52:09Z</time></trkpt><trkpt lat="45.30348712996412" lon="9.146195668811286"><ele>93.0</ele><time>2026-03-29T09:52:11Z</time></trkpt><trkpt lat="45.30358651717564" lon="9.146235427721486"><ele>93.0</ele><time>2026-03-29T09:52:13Z</time></trkpt><trkpt lat="45.30368938331664" lon="9.146263361626653"><ele>93.0</ele><time>2026-03-29T09:52:15Z</time></trkpt><trkpt lat="45.30378840819469" lon="9.146263573422981"><ele>93.0</ele><time>2026-03-29T09:52:17Z</time></trkpt><trkpt lat="45.30388958166142" lon="9.146222428813468"><ele>93.0</ele><time>2026-03-29T09:52:19Z</time></trkpt><trkpt lat="45.30398895943872" lon="9.146172155094662"><ele>93.0</ele><time>2026-03-29T09:52:21Z</time></trkpt><trkpt lat="45.30408267097199" lon="9.146098115325675"><ele>93.0</ele><time>2026-03-29T09:52:23Z</time></trkpt><trkpt lat="45.304180361054385" lon="9.146038322615976"><ele>93.0</ele><time>2026-03-29T09:52:25Z</time></trkpt><trkpt lat="45.304279660557796" lon="9.145971832472876"><ele>92.80000000000001</ele><time>2026-03-29T09:52:27Z</time></trkpt><trkpt lat="45.304380127119586" lon="9.145913004075615"><ele>92.6</ele><time>2026-03-29T09:52:29Z</time></trkpt><trkpt lat="45.30447811917963" lon="9.145851128619888"><ele>92.4</ele><time>2026-03-29T09:52:31Z</time></trkpt><trkpt lat="45.30457566551578" lon="9.145783142106099"><ele>92.19999999999999</ele><time>2026-03-29T09:52:33Z</time></trkpt><trkpt lat="45.30467019131724" lon="9.145717743344338"><ele>92.0</ele><time>2026-03-29T09:52:35Z</time></trkpt><trkpt lat="45.304768143820965" lon="9.145656261857257"><ele>92.8</ele><time>2026-03-29T09:52:37Z</time></trkpt><trkpt lat="45.30486570651387" lon="9.145592448072014"><ele>93.6</ele><time>2026-03-29T09:52:39Z</time></trkpt><trkpt lat="45.304963529093506" lon="9.145534385411603"><ele>94.39999999999999</ele><time>2026-03-29T09:52:41Z</time></trkpt><trkpt lat="45.30505843460233" lon="9.145466251982079"><ele>95.19999999999999</ele><time>2026-03-29T09:52:43Z</time></trkpt><trkpt lat="45.305116954508044" lon="9.145428316478911"><ele>96.0</ele><time>2026-03-29T09:52:44Z</time></trkpt><trkpt lat="45.3051919719982" lon="9.14536454016494"><ele>96.0</ele><time>2026-03-29T09:52:46Z</time></trkpt><trkpt lat="45.30527379048923" lon="9.145327743045268"><ele>96.0</ele><time>2026-03-29T09:52:48Z</time></trkpt><trkpt lat="45.305356874004296" lon="9.14528115802065"><ele>96.0</ele><time>2026-03-29T09:52:50Z</time></trkpt><trkpt lat="45.305431095328395" lon="9.145233329133477"><ele>96.0</ele><time>2026-03-29T09:52:52Z</time></trkpt><trkpt lat="45.30550515786351" lon="9.14518814691451"><ele>96.0</ele><time>2026-03-29T09:52:54Z</time></trkpt><trkpt lat="45.30560457239183" lon="9.145135717967987"><ele>96.0</ele><time>2026-03-29T09:52:56Z</time></trkpt><trkpt lat="45.30571761971061" lon="9.145060381076055"><ele>96.0</ele><time>2026-03-29T09:52:58Z</time></trkpt><trkpt lat="45.30582805189993" lon="9.145001041975368"><ele>96.0</ele><time>2026-03-29T09:53:00Z</time></trkpt><trkpt lat="45.305927102454056" lon="9.144953611266423"><ele>96.0</ele><time>2026-03-29T09:53:02Z</time></trkpt><trkpt lat="45.30601874642509" lon="9.144906338347333"><ele>96.0</ele><time>2026-03-29T09:53:04Z</time></trkpt><trkpt lat="45.306109745726594" lon="9.144876478460489"><ele>96.0</ele><time>2026-03-29T09:53:06Z</time></trkpt><trkpt lat="45.30619507283774" lon="9.144838629833107"><ele>96.5</ele><time>2026-03-29T09:53:08Z</time></trkpt><trkpt lat="45.3062674597349" lon="9.144787747626246"><ele>97.0</ele><time>2026-03-29T09:53:10Z</time></trkpt><trkpt lat="45.306342419535675" lon="9.144751039706785"><ele>97.5</ele><time>2026-03-29T09:53:12Z</time></trkpt><trkpt lat="45.306429471333594" lon="9.144714965710595"><ele>98.0</ele><time>2026-03-29T09:53:14Z</time></trkpt><trkpt lat="45.30651492692847" lon="9.144670711622728"><ele>98.5</ele><time>2026-03-29T09:53:16Z</time></trkpt><trkpt lat="45.30660334134696" lon="9.14463618807787"><ele>99.0</ele><time>2026-03-29T09:53:18Z</time></trkpt><trkpt lat="45.306693968188355" lon="9.1446150813542"><ele>99.0</ele><time>2026-03-29T09:53:20Z</time></trkpt><trkpt lat="45.30678188943432" lon="9.144578140539714"><ele>99.0</ele><time>2026-03-29T09:53:22Z</time></trkpt><trkpt lat="45.30687505398331" lon="9.144545962291364"><ele>99.0</ele><time>2026-03-29T09:53:24Z</time></trkpt><trkpt lat="45.30697158436983" lon="9.144519991386474"><ele>99.0</ele><time>2026-03-29T09:53:26Z</time></trkpt><trkpt lat="45.30706797653308" lon="9.144492726060651"><ele>99.0</ele><time>2026-03-29T09:53:28Z</time></trkpt><trkpt lat="45.307165946444336" lon="9.14446693854861"><ele>98.80000000000001</ele><time>2026-03-29T09:53:30Z</time></trkpt><trkpt lat="45.307263850005555" lon="9.14444286603107"><ele>98.60000000000001</ele><time>2026-03-29T09:53:32Z</time></trkpt><trkpt lat="45.307361916804844" lon="9.144421603842082"><ele>98.4</ele><time>2026-03-29T09:53:34Z</time></trkpt><trkpt lat="45.30744712042349" lon="9.144384788142062"><ele>98.2</ele><time>2026-03-29T09:53:36Z</time></trkpt><trkpt lat="45.307556085863084" lon="9.144372584830283"><ele>98.0</ele><time>2026-03-29T09:53:38Z</time></trkpt><trkpt lat="45.30765553205758" lon="9.144346512375446"><ele>98.0</ele><time>2026-03-29T09:53:40Z</time></trkpt><trkpt lat="45.30775830993037" lon="9.144334138167087"><ele>98.0</ele><time>2026-03-29T09:53:42Z</time></trkpt><trkpt lat="45.30786269566189" lon="9.144310210425578"><ele>98.0</ele><time>2026-03-29T09:53:44Z</time></trkpt><trkpt lat="45.307967971184425" lon="9.14428362211263"><ele>98.0</ele><time>2026-03-29T09:53:46Z</time></trkpt><trkpt lat="45.30807331279674" lon="9.14425828231514"><ele>98.0</ele><time>2026-03-29T09:53:48Z</time></trkpt><trkpt lat="45.308171920949874" lon="9.144232721032688"><ele>97.33333333333333</ele><time>2026-03-29T09:53:50Z</time></trkpt><trkpt lat="45.308264963053595" lon="9.144211455513217"><ele>96.66666666666666</ele><time>2026-03-29T09:53:52.001Z</time></trkpt><trkpt lat="45.30835346541978" lon="9.14418116101289"><ele>96.0</ele><time>2026-03-29T09:53:54Z</time></trkpt><trkpt lat="45.3084402684472" lon="9.144162104290144"><ele>95.33333333333333</ele><time>2026-03-29T09:53:56Z</time></trkpt><trkpt lat="45.308521146471904" lon="9.14413494661653"><ele>94.66666666666666</ele><time>2026-03-29T09:53:58Z</time></trkpt><trkpt lat="45.308606771103" lon="9.144106268881886"><ele>94.0</ele><time>2026-03-29T09:54:00Z</time></trkpt><trkpt lat="45.308698409073756" lon="9.144080053490086"><ele>94.0</ele><time>2026-03-29T09:54:02Z</time></trkpt><trkpt lat="45.30879204513042" lon="9.144056102069891"><ele>94.0</ele><time>2026-03-29T09:54:04Z</time></trkpt><trkpt lat="45.308882223779655" lon="9.144028616743324"><ele>94.0</ele><time>2026-03-29T09:54:06Z</time></trkpt><trkpt lat="45.30897248018939" lon="9.144004418325716"><ele>94.0</ele><time>2026-03-29T09:54:08Z</time></trkpt><trkpt lat="45.30906219180165" lon="9.143981882914996"><ele>94.0</ele><time>2026-03-29T09:54:10Z</time></trkpt><trkpt lat="45.30914713687587" lon="9.143960449071413"><ele>93.4</ele><time>2026-03-29T09:54:12Z</time></trkpt><trkpt lat="45.30924599281683" lon="9.143939148836756"><ele>92.80000000000001</ele><time>2026-03-29T09:54:14Z</time></trkpt><trkpt lat="45.30933968500922" lon="9.143913675652662"><ele>92.19999999999999</ele><time>2026-03-29T09:54:16Z</time></trkpt><trkpt lat="45.3094415808423" lon="9.143893586180074"><ele>91.6</ele><time>2026-03-29T09:54:18Z</time></trkpt><trkpt lat="45.30954255963211" lon="9.14386957695965"><ele>91.0</ele><time>2026-03-29T09:54:20Z</time></trkpt><trkpt lat="45.30965895677931" lon="9.143846303438837"><ele>90.75</ele><time>2026-03-29T09:54:22Z</time></trkpt><trkpt lat="45.30977692428249" lon="9.143812308926691"><ele>90.5</ele><time>2026-03-29T09:54:24Z</time></trkpt><trkpt lat="45.30989170446606" lon="9.143790570328136"><ele>90.25</ele><time>2026-03-29T09:54:26Z</time></trkpt><trkpt lat="45.31000188257251" lon="9.143773270285806"><ele>90.0</ele><time>2026-03-29T09:54:28Z</time></trkpt><trkpt lat="45.31010851771122" lon="9.143735575090263"><ele>90.0</ele><time>2026-03-29T09:54:30Z</time></trkpt><trkpt lat="45.31021854842741" lon="9.143706883325677"><ele>90.0</ele><time>2026-03-29T09:54:32Z</time></trkpt><trkpt lat="45.310325591706" lon="9.14367798536622"><ele>90.0</ele><time>2026-03-29T09:54:34Z</time></trkpt><trkpt lat="45.31042950275661" lon="9.143648027691837"><ele>90.0</ele><time>2026-03-29T09:54:36Z</time></trkpt><trkpt lat="45.3105334874661" lon="9.143611137925756"><ele>90.0</ele><time>2026-03-29T09:54:38Z</time></trkpt><trkpt lat="45.31064010922807" lon="9.143582662965034"><ele>90.2</ele><time>2026-03-29T09:54:40Z</time></trkpt><trkpt lat="45.310746332726325" lon="9.143546273096362"><ele>90.4</ele><time>2026-03-29T09:54:42Z</time></trkpt><trkpt lat="45.31084925887515" lon="9.14351080871511"><ele>90.6</ele><time>2026-03-29T09:54:44Z</time></trkpt><trkpt lat="45.31094363313248" lon="9.143501723557115"><ele>90.8</ele><time>2026-03-29T09:54:46Z</time></trkpt><trkpt lat="45.31105388800407" lon="9.143430813004935"><ele>91.0</ele><time>2026-03-29T09:54:48Z</time></trkpt><trkpt lat="45.31115574504648" lon="9.143388101253274"><ele>91.0</ele><time>2026-03-29T09:54:50Z</time></trkpt><trkpt lat="45.311257505757304" lon="9.143350677594334"><ele>91.0</ele><time>2026-03-29T09:54:52Z</time></trkpt><trkpt lat="45.31135192678907" lon="9.143301055949088"><ele>91.0</ele><time>2026-03-29T09:54:54Z</time></trkpt><trkpt lat="45.31143514003806" lon="9.143247425153149"><ele>91.0</ele><time>2026-03-29T09:54:56Z</time></trkpt><trkpt lat="45.31151208213678" lon="9.143202331306666"><ele>91.0</ele><time>2026-03-29T09:54:58Z</time></trkpt><trkpt lat="45.31158248805045" lon="9.143174898083357"><ele>91.33333333333333</ele><time>2026-03-29T09:55:00Z</time></trkpt><trkpt lat="45.31165406112599" lon="9.143144035734212"><ele>91.66666666666666</ele><time>2026-03-29T09:55:02Z</time></trkpt><trkpt lat="45.31171379294508" lon="9.143112707056806"><ele>92.0</ele><time>2026-03-29T09:55:04Z</time></trkpt><trkpt lat="45.31181103446202" lon="9.143079080385684"><ele>92.33333333333333</ele><time>2026-03-29T09:55:07Z</time></trkpt><trkpt lat="45.31188620755909" lon="9.143058674550886"><ele>92.66666666666667</ele><time>2026-03-29T09:55:09Z</time></trkpt><trkpt lat="45.31196621695555" lon="9.143054874763443"><ele>93.0</ele><time>2026-03-29T09:55:11Z</time></trkpt><trkpt lat="45.31203857921276" lon="9.143033419474845"><ele>93.0</ele><time>2026-03-29T09:55:13Z</time></trkpt><trkpt lat="45.31211212947302" lon="9.143001278440396"><ele>93.0</ele><time>2026-03-29T09:55:15Z</time></trkpt><trkpt lat="45.31219287904403" lon="9.14296341755258"><ele>93.0</ele><time>2026-03-29T09:55:17Z</time></trkpt><trkpt lat="45.31227571490439" lon="9.142931780851914"><ele>93.0</ele><time>2026-03-29T09:55:19Z</time></trkpt><trkpt lat="45.31235791407485" lon="9.142892948347761"><ele>93.0</ele><time>2026-03-29T09:55:21Z</time></trkpt><trkpt lat="45.31244619753826" lon="9.14285791504566"><ele>93.0</ele><time>2026-03-29T09:55:23Z</time></trkpt><trkpt lat="45.31253804502165" lon="9.142823936009561"><ele>93.0</ele><time>2026-03-29T09:55:25Z</time></trkpt><trkpt lat="45.31263574761764" lon="9.142788012640404"><ele>93.0</ele><time>2026-03-29T09:55:27Z</time></trkpt><trkpt lat="45.312731313624944" lon="9.14274809765429"><ele>93.0</ele><time>2026-03-29T09:55:29Z</time></trkpt><trkpt lat="45.31282695682617" lon="9.14270322180336"><ele>93.0</ele><time>2026-03-29T09:55:31Z</time></trkpt><trkpt lat="45.31292588319533" lon="9.142663980617153"><ele>93.0</ele><time>2026-03-29T09:55:33Z</time></trkpt><trkpt lat="45.31302682645268" lon="9.142632083226166"><ele>93.2</ele><time>2026-03-29T09:55:35Z</time></trkpt><trkpt lat="45.31312721531116" lon="9.142600571737502"><ele>93.4</ele><time>2026-03-29T09:55:37Z</time></trkpt><trkpt lat="45.313226500492206" lon="9.142572973302457"><ele>93.60000000000001</ele><time>2026-03-29T09:55:39Z</time></trkpt><trkpt lat="45.31332586618581" lon="9.142545056375996"><ele>93.80000000000001</ele><time>2026-03-29T09:55:41Z</time></trkpt><trkpt lat="45.31342366937842" lon="9.1425163544425"><ele>94.0</ele><time>2026-03-29T09:55:43Z</time></trkpt><trkpt lat="45.31352061532258" lon="9.142486463921223"><ele>94.0</ele><time>2026-03-29T09:55:45Z</time></trkpt><trkpt lat="45.31362272707663" lon="9.142464482585998"><ele>94.0</ele><time>2026-03-29T09:55:47Z</time></trkpt><trkpt lat="45.313720101521696" lon="9.142439689929864"><ele>94.0</ele><time>2026-03-29T09:55:49Z</time></trkpt><trkpt lat="45.313822991700945" lon="9.142435700111427"><ele>94.0</ele><time>2026-03-29T09:55:51Z</time></trkpt><trkpt lat="45.31392364087194" lon="9.142437645525101"><ele>94.0</ele><time>2026-03-29T09:55:53Z</time></trkpt><trkpt lat="45.31402321628714" lon="9.142468186918226"><ele>94.0</ele><time>2026-03-29T09:55:55Z</time></trkpt><trkpt lat="45.31411498397784" lon="9.142539137794074"><ele>94.0</ele><time>2026-03-29T09:55:57Z</time></trkpt><trkpt lat="45.31419890640528" lon="9.142629305798511"><ele>94.0</ele><time>2026-03-29T09:55:59Z</time></trkpt><trkpt lat="45.31427137367219" lon="9.142735815401851"><ele>94.0</ele><time>2026-03-29T09:56:01Z</time></trkpt><trkpt lat="45.314346609250904" lon="9.142840448071352"><ele>94.0</ele><time>2026-03-29T09:56:03Z</time></trkpt><trkpt lat="45.31442360199756" lon="9.142946492628276"><ele>94.0</ele><time>2026-03-29T09:56:05Z</time></trkpt><trkpt lat="45.31450397090358" lon="9.143048520554595"><ele>94.0</ele><time>2026-03-29T09:56:07Z</time></trkpt><trkpt lat="45.31457844415723" lon="9.143148105392713"><ele>94.0</ele><time>2026-03-29T09:56:09Z</time></trkpt><trkpt lat="45.3146511215173" lon="9.143253210369497"><ele>94.0</ele><time>2026-03-29T09:56:11Z</time></trkpt><trkpt lat="45.31472559538622" lon="9.143349545840062"><ele>94.0</ele><time>2026-03-29T09:56:13Z</time></trkpt><trkpt lat="45.314799541069014" lon="9.14344714591964"><ele>93.4</ele><time>2026-03-29T09:56:15Z</time></trkpt><trkpt lat="45.31487651057161" lon="9.143539487230795"><ele>92.80000000000001</ele><time>2026-03-29T09:56:17Z</time></trkpt><trkpt lat="45.3149535878708" lon="9.143626826534678"><ele>92.19999999999999</ele><time>2026-03-29T09:56:19Z</time></trkpt><trkpt lat="45.31502794577971" lon="9.143715637623446"><ele>91.6</ele><time>2026-03-29T09:56:21Z</time></trkpt><trkpt lat="45.3151089276968" lon="9.143798216744894"><ele>91.0</ele><time>2026-03-29T09:56:23Z</time></trkpt><trkpt lat="45.31518877093237" lon="9.1438759343004"><ele>91.0</ele><time>2026-03-29T09:56:25Z</time></trkpt><trkpt lat="45.315268718626434" lon="9.14394641724325"><ele>91.0</ele><time>2026-03-29T09:56:27Z</time></trkpt><trkpt lat="45.31534536963363" lon="9.144019121487444"><ele>91.0</ele><time>2026-03-29T09:56:29Z</time></trkpt><trkpt lat="45.31542721655508" lon="9.14407974612534"><ele>91.0</ele><time>2026-03-29T09:56:31Z</time></trkpt><trkpt lat="45.31550494739724" lon="9.144138717195997"><ele>91.0</ele><time>2026-03-29T09:56:33Z</time></trkpt><trkpt lat="45.3155882630239" lon="9.14419562308027"><ele>91.19999999999999</ele><time>2026-03-29T09:56:35Z</time></trkpt><trkpt lat="45.31567510092758" lon="9.14424810301337"><ele>91.39999999999999</ele><time>2026-03-29T09:56:37Z</time></trkpt><trkpt lat="45.31576434731042" lon="9.144307878583176"><ele>91.6</ele><time>2026-03-29T09:56:39Z</time></trkpt><trkpt lat="45.3158518016821" lon="9.144365749119022"><ele>91.8</ele><time>2026-03-29T09:56:41Z</time></trkpt><trkpt lat="45.31594039868129" lon="9.144423707256895"><ele>92.0</ele><time>2026-03-29T09:56:43Z</time></trkpt><trkpt lat="45.31603122858575" lon="9.144478206374854"><ele>92.0</ele><time>2026-03-29T09:56:45Z</time></trkpt><trkpt lat="45.316120335030696" lon="9.144542520218808"><ele>92.0</ele><time>2026-03-29T09:56:47Z</time></trkpt><trkpt lat="45.316211364027744" lon="9.144598939981385"><ele>92.0</ele><time>2026-03-29T09:56:49Z</time></trkpt><trkpt lat="45.31629949735341" lon="9.144651449486684"><ele>92.0</ele><time>2026-03-29T09:56:51Z</time></trkpt><trkpt lat="45.31638766403036" lon="9.144709130492002"><ele>92.0</ele><time>2026-03-29T09:56:53Z</time></trkpt><trkpt lat="45.316478750511884" lon="9.144761131597221"><ele>92.0</ele><time>2026-03-29T09:56:55Z</time></trkpt><trkpt lat="45.31657002036323" lon="9.144804637289942"><ele>92.0</ele><time>2026-03-29T09:56:57Z</time></trkpt><trkpt lat="45.31665732981409" lon="9.144846483040899"><ele>92.0</ele><time>2026-03-29T09:56:59Z</time></trkpt><trkpt lat="45.316747417280574" lon="9.144886018779351"><ele>92.0</ele><time>2026-03-29T09:57:01Z</time></trkpt><trkpt lat="45.31684410120603" lon="9.144919543517922"><ele>92.0</ele><time>2026-03-29T09:57:03Z</time></trkpt><trkpt lat="45.31694404232121" lon="9.14494102617408"><ele>92.0</ele><time>2026-03-29T09:57:05Z</time></trkpt><trkpt lat="45.317047795705705" lon="9.14496703645729"><ele>92.0</ele><time>2026-03-29T09:57:07Z</time></trkpt><trkpt lat="45.31715319090534" lon="9.144992098581694"><ele>92.0</ele><time>2026-03-29T09:57:09Z</time></trkpt><trkpt lat="45.31725846487299" lon="9.14500037541102"><ele>92.0</ele><time>2026-03-29T09:57:11Z</time></trkpt><trkpt lat="45.317355721321" lon="9.14501258609501"><ele>92.0</ele><time>2026-03-29T09:57:13Z</time></trkpt><trkpt lat="45.31745395475358" lon="9.14502022049326"><ele>92.39999999999999</ele><time>2026-03-29T09:57:15Z</time></trkpt><trkpt lat="45.317550726907704" lon="9.145019682429705"><ele>92.8</ele><time>2026-03-29T09:57:17Z</time></trkpt><trkpt lat="45.31765314831676" lon="9.145010825481151"><ele>93.2</ele><time>2026-03-29T09:57:19Z</time></trkpt><trkpt lat="45.31775240658444" lon="9.144998204276337"><ele>93.6</ele><time>2026-03-29T09:57:21Z</time></trkpt><trkpt lat="45.31784785737629" lon="9.144989814293407"><ele>94.0</ele><time>2026-03-29T09:57:23Z</time></trkpt><trkpt lat="45.31794122371018" lon="9.144979685178077"><ele>94.0</ele><time>2026-03-29T09:57:25Z</time></trkpt><trkpt lat="45.318039934796815" lon="9.144968837416215"><ele>94.0</ele><time>2026-03-29T09:57:27Z</time></trkpt><trkpt lat="45.31813709222042" lon="9.144959669595886"><ele>94.0</ele><time>2026-03-29T09:57:29Z</time></trkpt><trkpt lat="45.31823979697095" lon="9.144953163718261"><ele>94.0</ele><time>2026-03-29T09:57:31Z</time></trkpt><trkpt lat="45.31834423304726" lon="9.144938709837248"><ele>94.0</ele><time>2026-03-29T09:57:33Z</time></trkpt><trkpt lat="45.318448851766384" lon="9.14492940066259"><ele>93.80000000000001</ele><time>2026-03-29T09:57:35Z</time></trkpt><trkpt lat="45.31854464807145" lon="9.144916897777804"><ele>93.60000000000001</ele><time>2026-03-29T09:57:37Z</time></trkpt><trkpt lat="45.3186544567679" lon="9.14490218398968"><ele>93.4</ele><time>2026-03-29T09:57:39Z</time></trkpt><trkpt lat="45.31875856757878" lon="9.144891961652943"><ele>93.2</ele><time>2026-03-29T09:57:41Z</time></trkpt><trkpt lat="45.31886206361261" lon="9.144881909689557"><ele>93.0</ele><time>2026-03-29T09:57:43Z</time></trkpt><trkpt lat="45.318964298410634" lon="9.144870934955021"><ele>92.80000000000001</ele><time>2026-03-29T09:57:45Z</time></trkpt><trkpt lat="45.31906787820729" lon="9.144856878707825"><ele>92.6</ele><time>2026-03-29T09:57:47Z</time></trkpt><trkpt lat="45.31916874132021" lon="9.144846394876943"><ele>92.4</ele><time>2026-03-29T09:57:49Z</time></trkpt><trkpt lat="45.31927094775096" lon="9.144830416836342"><ele>92.19999999999999</ele><time>2026-03-29T09:57:51Z</time></trkpt><trkpt lat="45.3193710496763" lon="9.144820905699659"><ele>92.0</ele><time>2026-03-29T09:57:53Z</time></trkpt><trkpt lat="45.31947025452828" lon="9.144806068586357"><ele>92.0</ele><time>2026-03-29T09:57:55Z</time></trkpt><trkpt lat="45.31956946557254" lon="9.144793353783685"><ele>92.0</ele><time>2026-03-29T09:57:57Z</time></trkpt><trkpt lat="45.31966539306063" lon="9.144783982328727"><ele>92.0</ele><time>2026-03-29T09:57:59Z</time></trkpt><trkpt lat="45.31975610778663" lon="9.144794157037408"><ele>92.0</ele><time>2026-03-29T09:58:01Z</time></trkpt><trkpt lat="45.31986283956645" lon="9.144828174357807"><ele>92.0</ele><time>2026-03-29T09:58:03Z</time></trkpt><trkpt lat="45.319964160624735" lon="9.144852706787157"><ele>91.8</ele><time>2026-03-29T09:58:05Z</time></trkpt><trkpt lat="45.32006465085608" lon="9.144821515507896"><ele>91.6</ele><time>2026-03-29T09:58:07Z</time></trkpt><trkpt lat="45.320166690517595" lon="9.144737292765168"><ele>91.39999999999999</ele><time>2026-03-29T09:58:09Z</time></trkpt><trkpt lat="45.32022990642786" lon="9.14471515991514"><ele>91.19999999999999</ele><time>2026-03-29T09:58:10Z</time></trkpt><trkpt lat="45.320295373953996" lon="9.144702479707126"><ele>91.0</ele><time>2026-03-29T09:58:11Z</time></trkpt><trkpt lat="45.320413232909914" lon="9.144696421522662"><ele>91.0</ele><time>2026-03-29T09:58:13Z</time></trkpt><trkpt lat="45.32052577117919" lon="9.144681701888263"><ele>91.0</ele><time>2026-03-29T09:58:15Z</time></trkpt><trkpt lat="45.320635249701276" lon="9.14466620519455"><ele>91.0</ele><time>2026-03-29T09:58:17Z</time></trkpt><trkpt lat="45.320737129128915" lon="9.14465894377905"><ele>91.0</ele><time>2026-03-29T09:58:19Z</time></trkpt><trkpt lat="45.32080115334473" lon="9.144644883331278"><ele>91.0</ele><time>2026-03-29T09:58:20Z</time></trkpt><trkpt lat="45.32086605191068" lon="9.144629478023413"><ele>91.6</ele><time>2026-03-29T09:58:21Z</time></trkpt><trkpt lat="45.32098555157246" lon="9.144624338506906"><ele>92.19999999999999</ele><time>2026-03-29T09:58:23Z</time></trkpt><trkpt lat="45.321107280272145" lon="9.144622968418814"><ele>92.80000000000001</ele><time>2026-03-29T09:58:25Z</time></trkpt><trkpt lat="45.321201392625944" lon="9.144632208078374"><ele>93.4</ele><time>2026-03-29T09:58:27Z</time></trkpt><trkpt lat="45.32129901961446" lon="9.144651746911181"><ele>94.0</ele><time>2026-03-29T09:58:29Z</time></trkpt><trkpt lat="45.32139426481711" lon="9.144672835979886"><ele>94.2</ele><time>2026-03-29T09:58:31Z</time></trkpt><trkpt lat="45.321494151563904" lon="9.14466066001931"><ele>94.4</ele><time>2026-03-29T09:58:33Z</time></trkpt><trkpt lat="45.32159288790006" lon="9.144601570303047"><ele>94.6</ele><time>2026-03-29T09:58:35Z</time></trkpt><trkpt lat="45.3216867558133" lon="9.144576035082862"><ele>94.8</ele><time>2026-03-29T09:58:37Z</time></trkpt><trkpt lat="45.32178312138032" lon="9.144550084146674"><ele>95.0</ele><time>2026-03-29T09:58:39Z</time></trkpt><trkpt lat="45.32187956681848" lon="9.144509383105124"><ele>95.0</ele><time>2026-03-29T09:58:41Z</time></trkpt><trkpt lat="45.32197288464332" lon="9.144468088024714"><ele>95.0</ele><time>2026-03-29T09:58:43Z</time></trkpt><trkpt lat="45.322066468383774" lon="9.14441559538516"><ele>95.0</ele><time>2026-03-29T09:58:45Z</time></trkpt><trkpt lat="45.32216348782137" lon="9.144377287154278"><ele>95.0</ele><time>2026-03-29T09:58:47Z</time></trkpt><trkpt lat="45.32225848056921" lon="9.144325831145798"><ele>95.0</ele><time>2026-03-29T09:58:49Z</time></trkpt><trkpt lat="45.32235293116645" lon="9.144287428656789"><ele>95.2</ele><time>2026-03-29T09:58:51Z</time></trkpt><trkpt lat="45.3224453185815" lon="9.144240038787327"><ele>95.4</ele><time>2026-03-29T09:58:53Z</time></trkpt><trkpt lat="45.32254160347374" lon="9.144200583146098"><ele>95.6</ele><time>2026-03-29T09:58:55Z</time></trkpt><trkpt lat="45.32263867686849" lon="9.14415464951824"><ele>95.8</ele><time>2026-03-29T09:58:57Z</time></trkpt><trkpt lat="45.32273828715174" lon="9.144122598032752"><ele>96.0</ele><time>2026-03-29T09:58:59Z</time></trkpt><trkpt lat="45.32282976587064" lon="9.144063684717269"><ele>95.8</ele><time>2026-03-29T09:59:01Z</time></trkpt><trkpt lat="45.322923732489215" lon="9.144012138003516"><ele>95.6</ele><time>2026-03-29T09:59:03Z</time></trkpt><trkpt lat="45.323018987505286" lon="9.143965558955063"><ele>95.4</ele><time>2026-03-29T09:59:05Z</time></trkpt><trkpt lat="45.32311493413667" lon="9.143919344530525"><ele>95.2</ele><time>2026-03-29T09:59:07Z</time></trkpt><trkpt lat="45.32321146349052" lon="9.143868094459178"><ele>95.0</ele><time>2026-03-29T09:59:09Z</time></trkpt><trkpt lat="45.32328785103789" lon="9.143842119049166"><ele>94.8</ele><time>2026-03-29T09:59:11Z</time></trkpt><trkpt lat="45.32339308288601" lon="9.143789494409715"><ele>94.6</ele><time>2026-03-29T09:59:13Z</time></trkpt><trkpt lat="45.32348287995464" lon="9.143738278227433"><ele>94.4</ele><time>2026-03-29T09:59:15Z</time></trkpt><trkpt lat="45.32357532126414" lon="9.143711281592749"><ele>94.2</ele><time>2026-03-29T09:59:17Z</time></trkpt><trkpt lat="45.32366855585079" lon="9.143724877422455"><ele>94.0</ele><time>2026-03-29T09:59:19Z</time></trkpt><trkpt lat="45.323708375939596" lon="9.143868688792516"><ele>94.0</ele><time>2026-03-29T09:59:21Z</time></trkpt><trkpt lat="45.323704721827305" lon="9.144012949529174"><ele>94.0</ele><time>2026-03-29T09:59:23Z</time></trkpt><trkpt lat="45.32371690255863" lon="9.144148053176158"><ele>94.0</ele><time>2026-03-29T09:59:25Z</time></trkpt><trkpt lat="45.32372719519023" lon="9.144284672073235"><ele>94.0</ele><time>2026-03-29T09:59:27Z</time></trkpt><trkpt lat="45.32374581135492" lon="9.144420144564005"><ele>94.0</ele><time>2026-03-29T09:59:29Z</time></trkpt><trkpt lat="45.32375171741624" lon="9.144564417022153"><ele>94.2</ele><time>2026-03-29T09:59:31Z</time></trkpt><trkpt lat="45.32375344614241" lon="9.144702978185842"><ele>94.4</ele><time>2026-03-29T09:59:33Z</time></trkpt><trkpt lat="45.32374309641549" lon="9.144847585373467"><ele>94.6</ele><time>2026-03-29T09:59:35Z</time></trkpt><trkpt lat="45.323711533943694" lon="9.144993684760044"><ele>94.8</ele><time>2026-03-29T09:59:37Z</time></trkpt><trkpt lat="45.32367836966418" lon="9.145141274398997"><ele>95.0</ele><time>2026-03-29T09:59:39Z</time></trkpt><trkpt lat="45.32364343492171" lon="9.14528588930377"><ele>95.0</ele><time>2026-03-29T09:59:41Z</time></trkpt><trkpt lat="45.32361747494278" lon="9.1454232693322"><ele>95.0</ele><time>2026-03-29T09:59:43Z</time></trkpt><trkpt lat="45.32358562539845" lon="9.145573944688692"><ele>95.0</ele><time>2026-03-29T09:59:45Z</time></trkpt><trkpt lat="45.32355822555197" lon="9.145706259860743"><ele>95.0</ele><time>2026-03-29T09:59:47Z</time></trkpt><trkpt lat="45.323535599396926" lon="9.145835893181967"><ele>95.0</ele><time>2026-03-29T09:59:49Z</time></trkpt><trkpt lat="45.32351654059491" lon="9.145954339037592"><ele>95.0</ele><time>2026-03-29T09:59:51Z</time></trkpt><trkpt lat="45.323499606579745" lon="9.146067482246762"><ele>95.0</ele><time>2026-03-29T09:59:53Z</time></trkpt><trkpt lat="45.32349459647316" lon="9.146206948780142"><ele>95.0</ele><time>2026-03-29T09:59:55Z</time></trkpt><trkpt lat="45.3234825617484" lon="9.146349799603376"><ele>95.0</ele><time>2026-03-29T09:59:57Z</time></trkpt><trkpt lat="45.32348131835543" lon="9.146493828111222"><ele>95.0</ele><time>2026-03-29T09:59:59Z</time></trkpt><trkpt lat="45.32347520215474" lon="9.146643370379923"><ele>95.0</ele><time>2026-03-29T10:00:01Z</time></trkpt><trkpt lat="45.32347042189411" lon="9.146799894612279"><ele>95.0</ele><time>2026-03-29T10:00:03Z</time></trkpt><trkpt lat="45.3234471801234" lon="9.146954595804369"><ele>95.0</ele><time>2026-03-29T10:00:05Z</time></trkpt><trkpt lat="45.32338918642759" lon="9.147077785798562"><ele>95.0</ele><time>2026-03-29T10:00:07Z</time></trkpt><trkpt lat="45.32331077331443" lon="9.147148482988019"><ele>95.0</ele><time>2026-03-29T10:00:09Z</time></trkpt><trkpt lat="45.3232560452421" lon="9.147252627735757"><ele>95.0</ele><time>2026-03-29T10:00:11Z</time></trkpt><trkpt lat="45.3232176820578" lon="9.147367257666273"><ele>95.0</ele><time>2026-03-29T10:00:13Z</time></trkpt><trkpt lat="45.32322801382319" lon="9.147507476229647"><ele>95.0</ele><time>2026-03-29T10:00:15Z</time></trkpt><trkpt lat="45.32327097120834" lon="9.147654700463319"><ele>95.0</ele><time>2026-03-29T10:00:17Z</time></trkpt><trkpt lat="45.32331365828047" lon="9.147809638376438"><ele>95.0</ele><time>2026-03-29T10:00:19Z</time></trkpt><trkpt lat="45.32336033473303" lon="9.147961739998548"><ele>94.8</ele><time>2026-03-29T10:00:21Z</time></trkpt><trkpt lat="45.32340352950208" lon="9.148116819521896"><ele>94.6</ele><time>2026-03-29T10:00:23Z</time></trkpt><trkpt lat="45.32345030494704" lon="9.148262546092427"><ele>94.4</ele><time>2026-03-29T10:00:25Z</time></trkpt><trkpt lat="45.323488568479796" lon="9.148407048959763"><ele>94.2</ele><time>2026-03-29T10:00:27Z</time></trkpt><trkpt lat="45.323526538280085" lon="9.148536890389613"><ele>94.0</ele><time>2026-03-29T10:00:29Z</time></trkpt><trkpt lat="45.32356119031596" lon="9.148627255188188"><ele>93.66666666666666</ele><time>2026-03-29T10:00:31Z</time></trkpt><trkpt lat="45.32358786053965" lon="9.148735471802937"><ele>93.33333333333333</ele><time>2026-03-29T10:00:34Z</time></trkpt><trkpt lat="45.32358671561435" lon="9.148885829331794"><ele>93.0</ele><time>2026-03-29T10:08:24Z</time></trkpt><trkpt lat="45.32356354788889" lon="9.148969966439859"><ele>92.66666666666667</ele><time>2026-03-29T10:08:26Z</time></trkpt><trkpt lat="45.32352858477705" lon="9.149066181766322"><ele>92.33333333333334</ele><time>2026-03-29T10:08:28Z</time></trkpt><trkpt lat="45.32348160918769" lon="9.149155052902927"><ele>92.0</ele><time>2026-03-29T10:08:30Z</time></trkpt><trkpt lat="45.323429404503" lon="9.149248470729262"><ele>91.8</ele><time>2026-03-29T10:08:32Z</time></trkpt><trkpt lat="45.32337405118457" lon="9.149349080713481"><ele>91.6</ele><time>2026-03-29T10:08:34Z</time></trkpt><trkpt lat="45.323309472573236" lon="9.149446182909202"><ele>91.39999999999999</ele><time>2026-03-29T10:08:36Z</time></trkpt><trkpt lat="45.32323448578594" lon="9.149535593852903"><ele>91.19999999999999</ele><time>2026-03-29T10:08:38Z</time></trkpt><trkpt lat="45.32314952726279" lon="9.149605517621923"><ele>91.0</ele><time>2026-03-29T10:08:40Z</time></trkpt><trkpt lat="45.3230678705916" lon="9.149666956623008"><ele>91.0</ele><time>2026-03-29T10:08:42Z</time></trkpt><trkpt lat="45.32300102400334" lon="9.14974972152457"><ele>91.0</ele><time>2026-03-29T10:08:44Z</time></trkpt><trkpt lat="45.32295854371712" lon="9.149852556759782"><ele>91.0</ele><time>2026-03-29T10:08:46Z</time></trkpt><trkpt lat="45.322987727649746" lon="9.149969469411172"><ele>91.0</ele><time>2026-03-29T10:08:48Z</time></trkpt><trkpt lat="45.323047154924474" lon="9.150060825097112"><ele>91.0</ele><time>2026-03-29T10:08:50Z</time></trkpt><trkpt lat="45.323104511043724" lon="9.150165844717778"><ele>91.0</ele><time>2026-03-29T10:08:52Z</time></trkpt><trkpt lat="45.32317328754692" lon="9.15027295609057"><ele>91.0</ele><time>2026-03-29T10:08:54Z</time></trkpt><trkpt lat="45.323234654319684" lon="9.150397893817724"><ele>91.0</ele><time>2026-03-29T10:08:56Z</time></trkpt><trkpt lat="45.323289083805804" lon="9.150519495793892"><ele>91.0</ele><time>2026-03-29T10:08:58Z</time></trkpt><trkpt lat="45.32331927245772" lon="9.150637792463698"><ele>91.0</ele><time>2026-03-29T10:09:00Z</time></trkpt><trkpt lat="45.32334341342461" lon="9.150766967873396"><ele>91.0</ele><time>2026-03-29T10:09:02Z</time></trkpt><trkpt lat="45.32336267865392" lon="9.150900903740151"><ele>91.19999999999999</ele><time>2026-03-29T10:09:04Z</time></trkpt><trkpt lat="45.323358495593226" lon="9.151037585143532"><ele>91.39999999999999</ele><time>2026-03-29T10:09:06Z</time></trkpt><trkpt lat="45.32336353208921" lon="9.151182838122772"><ele>91.6</ele><time>2026-03-29T10:09:08Z</time></trkpt><trkpt lat="45.32337875344873" lon="9.151328341766162"><ele>91.8</ele><time>2026-03-29T10:09:10Z</time></trkpt><trkpt lat="45.32339930248813" lon="9.151472175814687"><ele>92.0</ele><time>2026-03-29T10:09:12Z</time></trkpt><trkpt lat="45.32341526117843" lon="9.151618020943452"><ele>92.19999999999999</ele><time>2026-03-29T10:09:14Z</time></trkpt><trkpt lat="45.323424321461495" lon="9.151760899569295"><ele>92.4</ele><time>2026-03-29T10:09:16Z</time></trkpt><trkpt lat="45.323429285734804" lon="9.151900254227984"><ele>92.6</ele><time>2026-03-29T10:09:18Z</time></trkpt><trkpt lat="45.32343594131957" lon="9.15204549613553"><ele>92.80000000000001</ele><time>2026-03-29T10:09:20Z</time></trkpt><trkpt lat="45.32345480723736" lon="9.152182606014014"><ele>93.0</ele><time>2026-03-29T10:09:22Z</time></trkpt><trkpt lat="45.32351588093465" lon="9.152306401816587"><ele>92.60000000000001</ele><time>2026-03-29T10:09:24Z</time></trkpt><trkpt lat="45.32357870465473" lon="9.1524229946582"><ele>92.2</ele><time>2026-03-29T10:09:26Z</time></trkpt><trkpt lat="45.323629386193886" lon="9.152542332251867"><ele>91.8</ele><time>2026-03-29T10:09:28Z</time></trkpt><trkpt lat="45.32366196258563" lon="9.152677025385172"><ele>91.4</ele><time>2026-03-29T10:09:30Z</time></trkpt><trkpt lat="45.3236926100087" lon="9.152809018365177"><ele>91.0</ele><time>2026-03-29T10:09:32Z</time></trkpt><trkpt lat="45.32372013973299" lon="9.152939952672483"><ele>91.0</ele><time>2026-03-29T10:09:34Z</time></trkpt><trkpt lat="45.32374320638494" lon="9.153070466161838"><ele>91.0</ele><time>2026-03-29T10:09:36Z</time></trkpt><trkpt lat="45.32377045589638" lon="9.15319718532328"><ele>91.0</ele><time>2026-03-29T10:09:38Z</time></trkpt><trkpt lat="45.32379715521463" lon="9.153318652781328"><ele>91.0</ele><time>2026-03-29T10:09:40Z</time></trkpt><trkpt lat="45.323833827227155" lon="9.153434623283955"><ele>91.0</ele><time>2026-03-29T10:09:42Z</time></trkpt><trkpt lat="45.323881824134396" lon="9.153549525543838"><ele>90.8</ele><time>2026-03-29T10:09:44Z</time></trkpt><trkpt lat="45.32393376528786" lon="9.153660916576403"><ele>90.6</ele><time>2026-03-29T10:09:46Z</time></trkpt><trkpt lat="45.32398912946069" lon="9.153771564319937"><ele>90.4</ele><time>2026-03-29T10:09:48Z</time></trkpt><trkpt lat="45.32404468477496" lon="9.153882023788555"><ele>90.2</ele><time>2026-03-29T10:09:50Z</time></trkpt><trkpt lat="45.324093528969065" lon="9.153996314876558"><ele>90.0</ele><time>2026-03-29T10:09:52Z</time></trkpt><trkpt lat="45.324147956596065" lon="9.154107442320813"><ele>89.8</ele><time>2026-03-29T10:09:54Z</time></trkpt><trkpt lat="45.32419702790411" lon="9.154219879412185"><ele>89.6</ele><time>2026-03-29T10:09:56Z</time></trkpt><trkpt lat="45.32425103057757" lon="9.154325280780185"><ele>89.4</ele><time>2026-03-29T10:09:58Z</time></trkpt><trkpt lat="45.32430540411685" lon="9.154438236783884"><ele>89.2</ele><time>2026-03-29T10:10:00Z</time></trkpt><trkpt lat="45.324362097121366" lon="9.15454917796947"><ele>89.0</ele><time>2026-03-29T10:10:02Z</time></trkpt><trkpt lat="45.324417690136535" lon="9.154660442538033"><ele>89.0</ele><time>2026-03-29T10:10:04Z</time></trkpt><trkpt lat="45.32446987152298" lon="9.154779308796533"><ele>89.0</ele><time>2026-03-29T10:10:06Z</time></trkpt><trkpt lat="45.32452248346684" lon="9.154892455410211"><ele>89.0</ele><time>2026-03-29T10:10:08Z</time></trkpt><trkpt lat="45.32457839917521" lon="9.155004578530471"><ele>89.0</ele><time>2026-03-29T10:10:10Z</time></trkpt><trkpt lat="45.324629514483334" lon="9.155122485921641"><ele>89.0</ele><time>2026-03-29T10:10:12Z</time></trkpt><trkpt lat="45.32468601237349" lon="9.155238386091694"><ele>89.4</ele><time>2026-03-29T10:10:14Z</time></trkpt><trkpt lat="45.32473645549604" lon="9.15535324441007"><ele>89.80000000000001</ele><time>2026-03-29T10:10:16Z</time></trkpt><trkpt lat="45.324791995415495" lon="9.155466592857227"><ele>90.19999999999999</ele><time>2026-03-29T10:10:18Z</time></trkpt><trkpt lat="45.3248426279317" lon="9.155580083391952"><ele>90.6</ele><time>2026-03-29T10:10:20Z</time></trkpt><trkpt lat="45.32489048643382" lon="9.155690050005322"><ele>91.0</ele><time>2026-03-29T10:10:22Z</time></trkpt><trkpt lat="45.324946508480465" lon="9.155801727948434"><ele>91.0</ele><time>2026-03-29T10:10:24Z</time></trkpt><trkpt lat="45.32499993663199" lon="9.155917332228444"><ele>91.0</ele><time>2026-03-29T10:10:26Z</time></trkpt><trkpt lat="45.325052335771716" lon="9.15603748560603"><ele>91.0</ele><time>2026-03-29T10:10:28Z</time></trkpt><trkpt lat="45.32510219740434" lon="9.15615787050808"><ele>91.0</ele><time>2026-03-29T10:10:30Z</time></trkpt><trkpt lat="45.32513959707041" lon="9.156279494327675"><ele>91.0</ele><time>2026-03-29T10:10:32Z</time></trkpt><trkpt lat="45.32519458607243" lon="9.156381291157325"><ele>91.0</ele><time>2026-03-29T10:10:34Z</time></trkpt><trkpt lat="45.32524329443089" lon="9.156504349196396"><ele>91.0</ele><time>2026-03-29T10:10:36Z</time></trkpt><trkpt lat="45.32529239196563" lon="9.156634990299457"><ele>91.0</ele><time>2026-03-29T10:10:38Z</time></trkpt><trkpt lat="45.32534694541242" lon="9.156752780055353"><ele>91.0</ele><time>2026-03-29T10:10:40Z</time></trkpt><trkpt lat="45.32539808038505" lon="9.156872682991775"><ele>91.0</ele><time>2026-03-29T10:10:42Z</time></trkpt><trkpt lat="45.3254503403344" lon="9.1569922099893"><ele>91.0</ele><time>2026-03-29T10:10:44Z</time></trkpt><trkpt lat="45.3255040421856" lon="9.157110941382527"><ele>91.0</ele><time>2026-03-29T10:10:46Z</time></trkpt><trkpt lat="45.325561675953054" lon="9.157231772195892"><ele>91.0</ele><time>2026-03-29T10:10:48Z</time></trkpt><trkpt lat="45.325611382941055" lon="9.15735580062653"><ele>91.0</ele><time>2026-03-29T10:10:50Z</time></trkpt><trkpt lat="45.32564712154791" lon="9.157496774838917"><ele>91.0</ele><time>2026-03-29T10:10:52Z</time></trkpt><trkpt lat="45.32561477986517" lon="9.157642084783001"><ele>91.0</ele><time>2026-03-29T10:10:54Z</time></trkpt><trkpt lat="45.32552797841864" lon="9.157734124144499"><ele>91.0</ele><time>2026-03-29T10:10:56Z</time></trkpt><trkpt lat="45.32544300773562" lon="9.157819465856337"><ele>91.0</ele><time>2026-03-29T10:10:58Z</time></trkpt><trkpt lat="45.325364094726886" lon="9.157909029718741"><ele>91.0</ele><time>2026-03-29T10:11:00Z</time></trkpt><trkpt lat="45.325287067737" lon="9.157999299264086"><ele>91.0</ele><time>2026-03-29T10:11:02Z</time></trkpt><trkpt lat="45.32525490587756" lon="9.158140700142914"><ele>91.0</ele><time>2026-03-29T10:11:04Z</time></trkpt><trkpt lat="45.325281531176074" lon="9.158232545256258"><ele>91.0</ele><time>2026-03-29T10:11:05Z</time></trkpt><trkpt lat="45.32533736938657" lon="9.158345699738424"><ele>91.0</ele><time>2026-03-29T10:11:07Z</time></trkpt><trkpt lat="45.325399600868316" lon="9.158463861807453"><ele>91.0</ele><time>2026-03-29T10:11:09Z</time></trkpt><trkpt lat="45.325447269400684" lon="9.15859021654716"><ele>91.0</ele><time>2026-03-29T10:11:11Z</time></trkpt><trkpt lat="45.32550498692638" lon="9.158708335148347"><ele>91.0</ele><time>2026-03-29T10:11:13Z</time></trkpt><trkpt lat="45.32555997553199" lon="9.158831608903604"><ele>91.0</ele><time>2026-03-29T10:11:15Z</time></trkpt><trkpt lat="45.32560495643434" lon="9.158962332938938"><ele>91.0</ele><time>2026-03-29T10:11:17Z</time></trkpt><trkpt lat="45.32559387159442" lon="9.159108096771925"><ele>91.0</ele><time>2026-03-29T10:11:19Z</time></trkpt><trkpt lat="45.32551208932767" lon="9.159212503383323"><ele>91.0</ele><time>2026-03-29T10:11:21Z</time></trkpt><trkpt lat="45.32542307144575" lon="9.159290544927169"><ele>90.8</ele><time>2026-03-29T10:11:23Z</time></trkpt><trkpt lat="45.325338829681044" lon="9.15937345745172"><ele>90.6</ele><time>2026-03-29T10:11:25Z</time></trkpt><trkpt lat="45.32525663145764" lon="9.159461628250721"><ele>90.4</ele><time>2026-03-29T10:11:27Z</time></trkpt><trkpt lat="45.32517642754343" lon="9.159548335742747"><ele>90.2</ele><time>2026-03-29T10:11:29Z</time></trkpt><trkpt lat="45.3250958111781" lon="9.159633816070139"><ele>90.0</ele><time>2026-03-29T10:11:31Z</time></trkpt><trkpt lat="45.32501488909256" lon="9.159717159649755"><ele>90.0</ele><time>2026-03-29T10:11:33Z</time></trkpt><trkpt lat="45.32493484749315" lon="9.159807850482013"><ele>90.0</ele><time>2026-03-29T10:11:35Z</time></trkpt><trkpt lat="45.324854081695015" lon="9.159891472108137"><ele>90.0</ele><time>2026-03-29T10:11:37Z</time></trkpt><trkpt lat="45.32477340580476" lon="9.159976540634842"><ele>90.0</ele><time>2026-03-29T10:11:39Z</time></trkpt><trkpt lat="45.32469154670642" lon="9.16006161305273"><ele>90.0</ele><time>2026-03-29T10:11:41Z</time></trkpt><trkpt lat="45.324613160789816" lon="9.160152808575186"><ele>90.0</ele><time>2026-03-29T10:11:43Z</time></trkpt><trkpt lat="45.324532352691165" lon="9.160234470667636"><ele>90.0</ele><time>2026-03-29T10:11:45Z</time></trkpt><trkpt lat="45.32447649489547" lon="9.160345121851655"><ele>90.0</ele><time>2026-03-29T10:11:47Z</time></trkpt><trkpt lat="45.32450472446077" lon="9.160477197812064"><ele>90.0</ele><time>2026-03-29T10:11:49Z</time></trkpt><trkpt lat="45.324556346185254" lon="9.160605030586876"><ele>90.0</ele><time>2026-03-29T10:11:51Z</time></trkpt><trkpt lat="45.32459085282834" lon="9.160730341849662"><ele>90.0</ele><time>2026-03-29T10:11:53Z</time></trkpt><trkpt lat="45.324636964977365" lon="9.160848004582267"><ele>90.0</ele><time>2026-03-29T10:11:55Z</time></trkpt><trkpt lat="45.324676950818656" lon="9.160967002922908"><ele>90.0</ele><time>2026-03-29T10:11:57Z</time></trkpt><trkpt lat="45.32471882670839" lon="9.161080686511935"><ele>90.0</ele><time>2026-03-29T10:11:59Z</time></trkpt><trkpt lat="45.32474851873381" lon="9.161203003263573"><ele>90.0</ele><time>2026-03-29T10:12:01Z</time></trkpt><trkpt lat="45.3247746183662" lon="9.16132760864495"><ele>90.16666666666667</ele><time>2026-03-29T10:12:03Z</time></trkpt><trkpt lat="45.324772538498486" lon="9.161450221346504"><ele>90.33333333333333</ele><time>2026-03-29T10:12:05Z</time></trkpt><trkpt lat="45.324770161961574" lon="9.161565578894466"><ele>90.5</ele><time>2026-03-29T10:12:07Z</time></trkpt><trkpt lat="45.32477022947491" lon="9.161678880281231"><ele>90.66666666666666</ele><time>2026-03-29T10:12:09Z</time></trkpt><trkpt lat="45.32477563075925" lon="9.161791397448223"><ele>90.83333333333333</ele><time>2026-03-29T10:12:11Z</time></trkpt><trkpt lat="45.32476941251455" lon="9.161905889468072"><ele>91.0</ele><time>2026-03-29T10:12:13Z</time></trkpt><trkpt lat="45.32477999584601" lon="9.162062003450938"><ele>91.0</ele><time>2026-03-29T10:12:16Z</time></trkpt><trkpt lat="45.32476979843556" lon="9.162206757402743"><ele>91.0</ele><time>2026-03-29T10:12:18Z</time></trkpt><trkpt lat="45.32481072982633" lon="9.162293507516845"><ele>91.0</ele><time>2026-03-29T10:12:20Z</time></trkpt><trkpt lat="45.3248298745904" lon="9.162401329079229"><ele>91.0</ele><time>2026-03-29T10:12:22Z</time></trkpt><trkpt lat="45.324827442287486" lon="9.162516524671153"><ele>91.0</ele><time>2026-03-29T10:12:24Z</time></trkpt><trkpt lat="45.3248232739694" lon="9.162630898069931"><ele>91.0</ele><time>2026-03-29T10:12:26Z</time></trkpt><trkpt lat="45.32482086052089" lon="9.162744084066222"><ele>91.0</ele><time>2026-03-29T10:12:28Z</time></trkpt><trkpt lat="45.324819706695976" lon="9.162847362725778"><ele>91.0</ele><time>2026-03-29T10:12:30Z</time></trkpt><trkpt lat="45.32481629572205" lon="9.16295177670415"><ele>91.0</ele><time>2026-03-29T10:12:32Z</time></trkpt><trkpt lat="45.324819908781805" lon="9.16305637923176"><ele>91.0</ele><time>2026-03-29T10:12:34Z</time></trkpt><trkpt lat="45.32482550803989" lon="9.163159975038077"><ele>91.0</ele><time>2026-03-29T10:12:36Z</time></trkpt><trkpt lat="45.32482321496666" lon="9.163297917888546"><ele>91.0</ele><time>2026-03-29T10:12:38Z</time></trkpt><trkpt lat="45.32483912218958" lon="9.163409126614566"><ele>90.66666666666666</ele><time>2026-03-29T10:12:40Z</time></trkpt><trkpt lat="45.32485505691367" lon="9.163533285456504"><ele>90.33333333333333</ele><time>2026-03-29T10:12:42Z</time></trkpt><trkpt lat="45.324872325600914" lon="9.163661742073643"><ele>90.0</ele><time>2026-03-29T10:12:44Z</time></trkpt><trkpt lat="45.32488784811576" lon="9.163786572429004"><ele>89.66666666666667</ele><time>2026-03-29T10:12:46Z</time></trkpt><trkpt lat="45.32490450875061" lon="9.163910477933644"><ele>89.33333333333334</ele><time>2026-03-29T10:12:48Z</time></trkpt><trkpt lat="45.324917928213075" lon="9.164030810126425"><ele>89.0</ele><time>2026-03-29T10:12:50Z</time></trkpt><trkpt lat="45.32493020002108" lon="9.16415405490563"><ele>89.0</ele><time>2026-03-29T10:12:52Z</time></trkpt><trkpt lat="45.324934515052085" lon="9.164273809162138"><ele>89.0</ele><time>2026-03-29T10:12:54Z</time></trkpt><trkpt lat="45.32496312533235" lon="9.16440573855184"><ele>89.0</ele><time>2026-03-29T10:12:56Z</time></trkpt><trkpt lat="45.325016518975254" lon="9.164529946628843"><ele>89.0</ele><time>2026-03-29T10:12:58Z</time></trkpt><trkpt lat="45.325001330340115" lon="9.164657929340583"><ele>89.0</ele><time>2026-03-29T10:13:00Z</time></trkpt><trkpt lat="45.32501652825005" lon="9.164784419114733"><ele>89.2</ele><time>2026-03-29T10:13:02Z</time></trkpt><trkpt lat="45.32503041164962" lon="9.164913303344559"><ele>89.4</ele><time>2026-03-29T10:13:04Z</time></trkpt><trkpt lat="45.325045541161856" lon="9.165042383756742"><ele>89.6</ele><time>2026-03-29T10:13:06Z</time></trkpt><trkpt lat="45.325062248532525" lon="9.165173396158508"><ele>89.8</ele><time>2026-03-29T10:13:08Z</time></trkpt><trkpt lat="45.32507927584943" lon="9.165299751761875"><ele>90.0</ele><time>2026-03-29T10:13:10Z</time></trkpt><trkpt lat="45.32509743634228" lon="9.165422545407226"><ele>90.0</ele><time>2026-03-29T10:13:12Z</time></trkpt><trkpt lat="45.32510742444497" lon="9.16554847745473"><ele>90.0</ele><time>2026-03-29T10:13:14Z</time></trkpt><trkpt lat="45.32512693162468" lon="9.165672125798793"><ele>90.0</ele><time>2026-03-29T10:13:16Z</time></trkpt><trkpt lat="45.325146100272576" lon="9.165797321729068"><ele>90.0</ele><time>2026-03-29T10:13:18Z</time></trkpt><trkpt lat="45.32516129774781" lon="9.165923063328778"><ele>90.0</ele><time>2026-03-29T10:13:20Z</time></trkpt><trkpt lat="45.32517068753506" lon="9.166051912739263"><ele>90.0</ele><time>2026-03-29T10:13:22Z</time></trkpt><trkpt lat="45.3252067164837" lon="9.166170405986419"><ele>90.16666666666667</ele><time>2026-03-29T10:13:24Z</time></trkpt><trkpt lat="45.32521005563775" lon="9.16628875988876"><ele>90.33333333333333</ele><time>2026-03-29T10:13:26Z</time></trkpt><trkpt lat="45.325220565368035" lon="9.166385734195027"><ele>90.5</ele><time>2026-03-29T10:13:28Z</time></trkpt><trkpt lat="45.32517522756695" lon="9.166499559775534"><ele>90.66666666666666</ele><time>2026-03-29T10:13:30Z</time></trkpt><trkpt lat="45.32509155174475" lon="9.166570796654664"><ele>90.83333333333333</ele><time>2026-03-29T10:13:32Z</time></trkpt><trkpt lat="45.325036052289754" lon="9.166641058243243"><ele>91.0</ele><time>2026-03-29T10:13:34Z</time></trkpt><trkpt lat="45.32498380738792" lon="9.166697838029854"><ele>90.8</ele><time>2026-03-29T10:13:35Z</time></trkpt><trkpt lat="45.324908951254955" lon="9.166777668567674"><ele>90.6</ele><time>2026-03-29T10:13:37Z</time></trkpt><trkpt lat="45.32483635212673" lon="9.166864765813656"><ele>90.4</ele><time>2026-03-29T10:13:39Z</time></trkpt><trkpt lat="45.32476083781057" lon="9.166945913752953"><ele>90.2</ele><time>2026-03-29T10:13:41Z</time></trkpt><trkpt lat="45.324683442946835" lon="9.167024755790376"><ele>90.0</ele><time>2026-03-29T10:13:43Z</time></trkpt><trkpt lat="45.32461495118594" lon="9.16709968628301"><ele>90.0</ele><time>2026-03-29T10:13:45Z</time></trkpt><trkpt lat="45.324544767220715" lon="9.16717549021631"><ele>90.0</ele><time>2026-03-29T10:13:47Z</time></trkpt><trkpt lat="45.32447396514518" lon="9.167254257906817"><ele>90.0</ele><time>2026-03-29T10:13:49Z</time></trkpt><trkpt lat="45.324399234027226" lon="9.167331591750026"><ele>90.0</ele><time>2026-03-29T10:13:51Z</time></trkpt><trkpt lat="45.32432760165645" lon="9.167411886137629"><ele>90.0</ele><time>2026-03-29T10:13:53Z</time></trkpt><trkpt lat="45.324252768632135" lon="9.167491138980813"><ele>90.0</ele><time>2026-03-29T10:13:55Z</time></trkpt><trkpt lat="45.3241811685305" lon="9.167571436688588"><ele>90.0</ele><time>2026-03-29T10:13:57Z</time></trkpt><trkpt lat="45.32410466571375" lon="9.167650161792173"><ele>90.0</ele><time>2026-03-29T10:13:59Z</time></trkpt><trkpt lat="45.324033045327475" lon="9.167723838879345"><ele>90.0</ele><time>2026-03-29T10:14:01Z</time></trkpt><trkpt lat="45.3239630743124" lon="9.16780449470415"><ele>90.0</ele><time>2026-03-29T10:14:03Z</time></trkpt><trkpt lat="45.323889432204766" lon="9.167877139996014"><ele>90.0</ele><time>2026-03-29T10:14:05Z</time></trkpt><trkpt lat="45.32381870882153" lon="9.167957216977605"><ele>90.0</ele><time>2026-03-29T10:14:07Z</time></trkpt><trkpt lat="45.32374937326682" lon="9.16803167950605"><ele>90.0</ele><time>2026-03-29T10:14:09Z</time></trkpt><trkpt lat="45.323687677809275" lon="9.168117489331918"><ele>90.0</ele><time>2026-03-29T10:14:11Z</time></trkpt><trkpt lat="45.32364329627884" lon="9.168230465419411"><ele>90.0</ele><time>2026-03-29T10:14:13Z</time></trkpt><trkpt lat="45.32366176308018" lon="9.168374031044767"><ele>90.0</ele><time>2026-03-29T10:14:15Z</time></trkpt><trkpt lat="45.32366732155885" lon="9.16851528166428"><ele>90.0</ele><time>2026-03-29T10:14:17Z</time></trkpt><trkpt lat="45.32366299908814" lon="9.168646582765806"><ele>90.0</ele><time>2026-03-29T10:14:19Z</time></trkpt><trkpt lat="45.32366754984849" lon="9.168778006596249"><ele>90.0</ele><time>2026-03-29T10:14:21Z</time></trkpt><trkpt lat="45.323667843356546" lon="9.168902211355592"><ele>90.0</ele><time>2026-03-29T10:14:23Z</time></trkpt><trkpt lat="45.32366145493567" lon="9.169022022695119"><ele>90.16666666666667</ele><time>2026-03-29T10:14:25Z</time></trkpt><trkpt lat="45.323661498518476" lon="9.169134742486976"><ele>90.33333333333333</ele><time>2026-03-29T10:14:27Z</time></trkpt><trkpt lat="45.323663288040535" lon="9.16925423394985"><ele>90.5</ele><time>2026-03-29T10:14:29Z</time></trkpt><trkpt lat="45.32366661420444" lon="9.169378756589452"><ele>90.66666666666666</ele><time>2026-03-29T10:14:31Z</time></trkpt><trkpt lat="45.32368014422525" lon="9.169511610544616"><ele>90.83333333333333</ele><time>2026-03-29T10:14:33Z</time></trkpt><trkpt lat="45.32368651711448" lon="9.169617116311539"><ele>91.0</ele><time>2026-03-29T10:14:35Z</time></trkpt><trkpt lat="45.32370357796503" lon="9.169736845936535"><ele>91.0</ele><time>2026-03-29T10:14:37Z</time></trkpt><trkpt lat="45.32371810884152" lon="9.169853615438472"><ele>91.0</ele><time>2026-03-29T10:14:39Z</time></trkpt><trkpt lat="45.32372860749772" lon="9.169983350046095"><ele>91.0</ele><time>2026-03-29T10:14:41Z</time></trkpt><trkpt lat="45.32373869192525" lon="9.170115998644297"><ele>91.0</ele><time>2026-03-29T10:14:43Z</time></trkpt><trkpt lat="45.323750185068306" lon="9.170249866816594"><ele>91.0</ele><time>2026-03-29T10:14:45Z</time></trkpt><trkpt lat="45.32375612792026" lon="9.170382320723268"><ele>91.0</ele><time>2026-03-29T10:14:47Z</time></trkpt><trkpt lat="45.32376797164499" lon="9.170514196948114"><ele>91.0</ele><time>2026-03-29T10:14:49Z</time></trkpt><trkpt lat="45.32378041508214" lon="9.170640557352531"><ele>91.0</ele><time>2026-03-29T10:14:51Z</time></trkpt><trkpt lat="45.323789893008666" lon="9.17076144269356"><ele>91.0</ele><time>2026-03-29T10:14:53Z</time></trkpt><trkpt lat="45.3238123943327" lon="9.1708723918823"><ele>91.0</ele><time>2026-03-29T10:14:55Z</time></trkpt><trkpt lat="45.3238225130369" lon="9.170984864730668"><ele>91.0</ele><time>2026-03-29T10:14:57Z</time></trkpt><trkpt lat="45.32383883415851" lon="9.171086041882397"><ele>91.0</ele><time>2026-03-29T10:14:59Z</time></trkpt><trkpt lat="45.32385198498661" lon="9.171186516657347"><ele>91.0</ele><time>2026-03-29T10:15:01Z</time></trkpt><trkpt lat="45.323865594361735" lon="9.171275517825979"><ele>91.0</ele><time>2026-03-29T10:15:03Z</time></trkpt><trkpt lat="45.32387965696108" lon="9.171376685103436"><ele>91.0</ele><time>2026-03-29T10:15:05Z</time></trkpt><trkpt lat="45.323891265732506" lon="9.171487417641309"><ele>91.0</ele><time>2026-03-29T10:15:07Z</time></trkpt><trkpt lat="45.32389973533143" lon="9.171602136176698"><ele>91.0</ele><time>2026-03-29T10:15:09Z</time></trkpt><trkpt lat="45.32390269731869" lon="9.171718635322291"><ele>91.0</ele><time>2026-03-29T10:15:11Z</time></trkpt><trkpt lat="45.32391339047097" lon="9.171837294568952"><ele>91.0</ele><time>2026-03-29T10:15:13Z</time></trkpt><trkpt lat="45.32392132174118" lon="9.17195956676668"><ele>91.0</ele><time>2026-03-29T10:15:15Z</time></trkpt><trkpt lat="45.32393795596096" lon="9.17208083135772"><ele>91.0</ele><time>2026-03-29T10:15:17Z</time></trkpt><trkpt lat="45.323961141886265" lon="9.172202473503189"><ele>91.0</ele><time>2026-03-29T10:15:19Z</time></trkpt><trkpt lat="45.32398826531582" lon="9.172319559094566"><ele>91.0</ele><time>2026-03-29T10:15:21Z</time></trkpt><trkpt lat="45.3240235599484" lon="9.172431207587183"><ele>91.33333333333333</ele><time>2026-03-29T10:15:23Z</time></trkpt><trkpt lat="45.324056293944835" lon="9.17254403964713"><ele>91.66666666666666</ele><time>2026-03-29T10:15:25Z</time></trkpt><trkpt lat="45.32409514149658" lon="9.172661141213656"><ele>92.0</ele><time>2026-03-29T10:15:27Z</time></trkpt><trkpt lat="45.324135997487986" lon="9.172758769786142"><ele>92.33333333333333</ele><time>2026-03-29T10:15:29Z</time></trkpt><trkpt lat="45.32417421365703" lon="9.172887651165878"><ele>92.66666666666667</ele><time>2026-03-29T10:15:31Z</time></trkpt><trkpt lat="45.32420786656193" lon="9.173012625186443"><ele>93.0</ele><time>2026-03-29T10:15:33Z</time></trkpt><trkpt lat="45.32424063893086" lon="9.173136747866945"><ele>93.2</ele><time>2026-03-29T10:15:35Z</time></trkpt><trkpt lat="45.324273010265166" lon="9.173259740651877"><ele>93.4</ele><time>2026-03-29T10:15:37Z</time></trkpt><trkpt lat="45.32430423225866" lon="9.173386753239368"><ele>93.60000000000001</ele><time>2026-03-29T10:15:39Z</time></trkpt><trkpt lat="45.32433981534232" lon="9.173506566563649"><ele>93.80000000000001</ele><time>2026-03-29T10:15:41Z</time></trkpt><trkpt lat="45.324370882954554" lon="9.173629610115922"><ele>94.0</ele><time>2026-03-29T10:15:43Z</time></trkpt><trkpt lat="45.32440117758597" lon="9.173752553297833"><ele>94.0</ele><time>2026-03-29T10:15:45Z</time></trkpt><trkpt lat="45.32444377105808" lon="9.17387280177224"><ele>94.0</ele><time>2026-03-29T10:15:47Z</time></trkpt><trkpt lat="45.32447801222256" lon="9.173996176029789"><ele>94.0</ele><time>2026-03-29T10:15:49Z</time></trkpt><trkpt lat="45.32452371653526" lon="9.174125458646024"><ele>94.0</ele><time>2026-03-29T10:15:51Z</time></trkpt><trkpt lat="45.3245513094482" lon="9.174239590778631"><ele>94.0</ele><time>2026-03-29T10:15:53Z</time></trkpt><trkpt lat="45.32459178431267" lon="9.17435713574789"><ele>93.80000000000001</ele><time>2026-03-29T10:15:55Z</time></trkpt><trkpt lat="45.32460856290043" lon="9.174478957072546"><ele>93.60000000000001</ele><time>2026-03-29T10:15:57Z</time></trkpt><trkpt lat="45.32464042494433" lon="9.174609384735241"><ele>93.4</ele><time>2026-03-29T10:15:59Z</time></trkpt><trkpt lat="45.324668950372846" lon="9.174742868395734"><ele>93.2</ele><time>2026-03-29T10:16:01Z</time></trkpt><trkpt lat="45.324686871297956" lon="9.174873331625456"><ele>93.0</ele><time>2026-03-29T10:16:03Z</time></trkpt><trkpt lat="45.32470898275572" lon="9.17500153826135"><ele>93.4</ele><time>2026-03-29T10:16:05Z</time></trkpt><trkpt lat="45.324722550843774" lon="9.175132111733326"><ele>93.80000000000001</ele><time>2026-03-29T10:16:07Z</time></trkpt><trkpt lat="45.324735244704314" lon="9.175265198788837"><ele>94.2</ele><time>2026-03-29T10:16:09Z</time></trkpt><trkpt lat="45.324747639114086" lon="9.175399244002264"><ele>94.6</ele><time>2026-03-29T10:16:11Z</time></trkpt><trkpt lat="45.324766289711846" lon="9.175532868316898"><ele>95.0</ele><time>2026-03-29T10:16:13Z</time></trkpt><trkpt lat="45.324779032048454" lon="9.175663777944626"><ele>94.6</ele><time>2026-03-29T10:16:15Z</time></trkpt><trkpt lat="45.32479387158545" lon="9.175791827671526"><ele>94.2</ele><time>2026-03-29T10:16:17Z</time></trkpt><trkpt lat="45.32480022237206" lon="9.175920943829066"><ele>93.80000000000001</ele><time>2026-03-29T10:16:19Z</time></trkpt><trkpt lat="45.32480477817618" lon="9.176051749329579"><ele>93.4</ele><time>2026-03-29T10:16:21Z</time></trkpt><trkpt lat="45.324797205278834" lon="9.176184923814812"><ele>93.0</ele><time>2026-03-29T10:16:23Z</time></trkpt><trkpt lat="45.324789910733024" lon="9.17632296943393"><ele>93.0</ele><time>2026-03-29T10:16:25Z</time></trkpt><trkpt lat="45.32477105911547" lon="9.176448932471493"><ele>93.0</ele><time>2026-03-29T10:16:27Z</time></trkpt><trkpt lat="45.3247618557061" lon="9.176574803360921"><ele>93.0</ele><time>2026-03-29T10:16:29Z</time></trkpt><trkpt lat="45.32475013807802" lon="9.17669784536456"><ele>93.0</ele><time>2026-03-29T10:16:31Z</time></trkpt><trkpt lat="45.32474311944601" lon="9.176825589568564"><ele>93.0</ele><time>2026-03-29T10:16:33Z</time></trkpt><trkpt lat="45.32473081368241" lon="9.176951225240236"><ele>93.0</ele><time>2026-03-29T10:16:35Z</time></trkpt><trkpt lat="45.32471674829002" lon="9.177074759410067"><ele>92.4</ele><time>2026-03-29T10:16:37Z</time></trkpt><trkpt lat="45.324709947101624" lon="9.177201821102232"><ele>91.80000000000001</ele><time>2026-03-29T10:16:39Z</time></trkpt><trkpt lat="45.32469951122685" lon="9.17732977582673"><ele>91.2</ele><time>2026-03-29T10:16:41Z</time></trkpt><trkpt lat="45.324687233564894" lon="9.177458905868798"><ele>90.6</ele><time>2026-03-29T10:16:43Z</time></trkpt><trkpt lat="45.32467607467239" lon="9.177588854171814"><ele>90.0</ele><time>2026-03-29T10:16:45Z</time></trkpt><trkpt lat="45.324661834044996" lon="9.177710290882512"><ele>89.83333333333333</ele><time>2026-03-29T10:16:47Z</time></trkpt><trkpt lat="45.32464211839896" lon="9.17783962194957"><ele>89.66666666666667</ele><time>2026-03-29T10:16:49Z</time></trkpt><trkpt lat="45.3246185588734" lon="9.17796483357326"><ele>89.5</ele><time>2026-03-29T10:16:51Z</time></trkpt><trkpt lat="45.32459217303765" lon="9.178084222450495"><ele>89.33333333333334</ele><time>2026-03-29T10:16:53Z</time></trkpt><trkpt lat="45.324560932142525" lon="9.178196669563183"><ele>89.16666666666667</ele><time>2026-03-29T10:16:55Z</time></trkpt><trkpt lat="45.32453202777576" lon="9.178312109012108"><ele>89.0</ele><time>2026-03-29T10:16:57Z</time></trkpt><trkpt lat="45.32450153159061" lon="9.178425455056114"><ele>89.0</ele><time>2026-03-29T10:16:59Z</time></trkpt><trkpt lat="45.324475345442664" lon="9.178543902541534"><ele>89.0</ele><time>2026-03-29T10:17:01Z</time></trkpt><trkpt lat="45.324444309837226" lon="9.178661822123836"><ele>89.0</ele><time>2026-03-29T10:17:03Z</time></trkpt><trkpt lat="45.32441798832307" lon="9.178784775579558"><ele>89.0</ele><time>2026-03-29T10:17:05Z</time></trkpt><trkpt lat="45.32438721156909" lon="9.178909478393182"><ele>89.0</ele><time>2026-03-29T10:17:07Z</time></trkpt><trkpt lat="45.32435294124828" lon="9.179031534735902"><ele>89.0</ele><time>2026-03-29T10:17:09Z</time></trkpt><trkpt lat="45.324311384279014" lon="9.179149097888345"><ele>89.0</ele><time>2026-03-29T10:17:11Z</time></trkpt><trkpt lat="45.32425788556064" lon="9.179253721920382"><ele>89.0</ele><time>2026-03-29T10:17:13Z</time></trkpt><trkpt lat="45.32420111622726" lon="9.179363219508577"><ele>89.0</ele><time>2026-03-29T10:17:15Z</time></trkpt><trkpt lat="45.32414273492175" lon="9.179470598745722"><ele>89.0</ele><time>2026-03-29T10:17:17Z</time></trkpt><trkpt lat="45.324083035108885" lon="9.179579151301532"><ele>89.0</ele><time>2026-03-29T10:17:19Z</time></trkpt><trkpt lat="45.32402535745079" lon="9.179689464734581"><ele>89.0</ele><time>2026-03-29T10:17:21Z</time></trkpt><trkpt lat="45.3239694402769" lon="9.17979462819142"><ele>89.0</ele><time>2026-03-29T10:17:23Z</time></trkpt><trkpt lat="45.3239073777906" lon="9.179901689902032"><ele>89.0</ele><time>2026-03-29T10:17:25Z</time></trkpt><trkpt lat="45.32384734300019" lon="9.180012205780287"><ele>89.0</ele><time>2026-03-29T10:17:27Z</time></trkpt><trkpt lat="45.32378375951965" lon="9.180116372815013"><ele>88.6</ele><time>2026-03-29T10:17:29Z</time></trkpt><trkpt lat="45.3237246717933" lon="9.180221427471515"><ele>88.2</ele><time>2026-03-29T10:17:31Z</time></trkpt><trkpt lat="45.323662222836596" lon="9.180316908164539"><ele>87.8</ele><time>2026-03-29T10:17:33Z</time></trkpt><trkpt lat="45.32360780607234" lon="9.180427446254418"><ele>87.39999999999999</ele><time>2026-03-29T10:17:35Z</time></trkpt><trkpt lat="45.32356556591044" lon="9.18054453595495"><ele>87.0</ele><time>2026-03-29T10:17:37Z</time></trkpt><trkpt lat="45.32353145715067" lon="9.18067043882717"><ele>87.16666666666667</ele><time>2026-03-29T10:17:39Z</time></trkpt><trkpt lat="45.32349950311099" lon="9.180797234434358"><ele>87.33333333333333</ele><time>2026-03-29T10:17:41Z</time></trkpt><trkpt lat="45.32349823173148" lon="9.18092587597421"><ele>87.5</ele><time>2026-03-29T10:17:43Z</time></trkpt><trkpt lat="45.323509718239265" lon="9.1810533245279"><ele>87.66666666666666</ele><time>2026-03-29T10:17:45Z</time></trkpt><trkpt lat="45.32353625290567" lon="9.181168555637818"><ele>87.83333333333333</ele><time>2026-03-29T10:17:47Z</time></trkpt><trkpt lat="45.32356945314588" lon="9.18128170793085"><ele>88.0</ele><time>2026-03-29T10:17:49Z</time></trkpt><trkpt lat="45.323620660675324" lon="9.181379303476222"><ele>88.0</ele><time>2026-03-29T10:17:51Z</time></trkpt><trkpt lat="45.32366434066765" lon="9.181484240672896"><ele>88.0</ele><time>2026-03-29T10:17:53Z</time></trkpt><trkpt lat="45.323652733414626" lon="9.181607167424277"><ele>88.0</ele><time>2026-03-29T10:17:55Z</time></trkpt><trkpt lat="45.32359076775843" lon="9.181692814119883"><ele>88.0</ele><time>2026-03-29T10:17:57Z</time></trkpt><trkpt lat="45.32358379459141" lon="9.18179557903066"><ele>88.0</ele><time>2026-03-29T10:17:59Z</time></trkpt><trkpt lat="45.32363633810208" lon="9.181911342342714"><ele>88.0</ele><time>2026-03-29T10:18:01Z</time></trkpt><trkpt lat="45.32368802919351" lon="9.182011746523049"><ele>88.16666666666666</ele><time>2026-03-29T10:18:03Z</time></trkpt><trkpt lat="45.32373941120203" lon="9.182115840707361"><ele>88.33333333333333</ele><time>2026-03-29T10:18:05Z</time></trkpt><trkpt lat="45.32378853890656" lon="9.182222193472418"><ele>88.5</ele><time>2026-03-29T10:18:07Z</time></trkpt><trkpt lat="45.323843378502644" lon="9.182314156187617"><ele>88.66666666666667</ele><time>2026-03-29T10:18:09Z</time></trkpt><trkpt lat="45.32389524372888" lon="9.18241636050502"><ele>88.83333333333334</ele><time>2026-03-29T10:18:11Z</time></trkpt><trkpt lat="45.32394729292516" lon="9.18251692521017"><ele>89.0</ele><time>2026-03-29T10:18:13Z</time></trkpt><trkpt lat="45.324002471651966" lon="9.182614944618766"><ele>89.0</ele><time>2026-03-29T10:18:15Z</time></trkpt><trkpt lat="45.32405581281431" lon="9.182709081337373"><ele>89.0</ele><time>2026-03-29T10:18:17Z</time></trkpt><trkpt lat="45.32410298564841" lon="9.182812234811411"><ele>89.0</ele><time>2026-03-29T10:18:19Z</time></trkpt><trkpt lat="45.324159247977846" lon="9.182907213537156"><ele>89.0</ele><time>2026-03-29T10:18:21Z</time></trkpt><trkpt lat="45.324220033118756" lon="9.182999135831418"><ele>89.0</ele><time>2026-03-29T10:18:23Z</time></trkpt><trkpt lat="45.32427642211223" lon="9.183087066561702"><ele>89.0</ele><time>2026-03-29T10:18:25Z</time></trkpt><trkpt lat="45.32433514711449" lon="9.183178985201799"><ele>89.16666666666667</ele><time>2026-03-29T10:18:27Z</time></trkpt><trkpt lat="45.32439380720744" lon="9.18326699396138"><ele>89.33333333333334</ele><time>2026-03-29T10:18:29Z</time></trkpt><trkpt lat="45.32444996679597" lon="9.183361677210176"><ele>89.5</ele><time>2026-03-29T10:18:31Z</time></trkpt><trkpt lat="45.32450906848405" lon="9.183453088536695"><ele>89.66666666666667</ele><time>2026-03-29T10:18:33Z</time></trkpt><trkpt lat="45.324565726455035" lon="9.183546456072737"><ele>89.83333333333333</ele><time>2026-03-29T10:18:35Z</time></trkpt><trkpt lat="45.32462275795671" lon="9.183643000337769"><ele>90.0</ele><time>2026-03-29T10:18:37Z</time></trkpt><trkpt lat="45.32468382915617" lon="9.183728668576194"><ele>89.83333333333333</ele><time>2026-03-29T10:18:39Z</time></trkpt><trkpt lat="45.324744155013356" lon="9.183816990475044"><ele>89.66666666666667</ele><time>2026-03-29T10:18:41Z</time></trkpt><trkpt lat="45.324807058419616" lon="9.183886390113964"><ele>89.5</ele><time>2026-03-29T10:18:43Z</time></trkpt><trkpt lat="45.32486498858124" lon="9.18396648317551"><ele>89.33333333333334</ele><time>2026-03-29T10:18:45Z</time></trkpt><trkpt lat="45.32492576370631" lon="9.184039096851638"><ele>89.16666666666667</ele><time>2026-03-29T10:18:47Z</time></trkpt><trkpt lat="45.32498166984744" lon="9.184117269781215"><ele>89.0</ele><time>2026-03-29T10:18:49Z</time></trkpt><trkpt lat="45.32503398481899" lon="9.184192383526977"><ele>88.83333333333334</ele><time>2026-03-29T10:18:51Z</time></trkpt><trkpt lat="45.325089824931744" lon="9.184265552922401"><ele>88.66666666666667</ele><time>2026-03-29T10:18:53Z</time></trkpt><trkpt lat="45.325148767937144" lon="9.184344030116005"><ele>88.5</ele><time>2026-03-29T10:18:55Z</time></trkpt><trkpt lat="45.325193094827796" lon="9.18443294760482"><ele>88.33333333333333</ele><time>2026-03-29T10:18:57Z</time></trkpt><trkpt lat="45.325235044401964" lon="9.184527539171338"><ele>88.16666666666666</ele><time>2026-03-29T10:18:59Z</time></trkpt><trkpt lat="45.325274580293375" lon="9.184625263997631"><ele>88.0</ele><time>2026-03-29T10:19:01Z</time></trkpt><trkpt lat="45.32531962818056" lon="9.184733118781661"><ele>88.0</ele><time>2026-03-29T10:19:03Z</time></trkpt><trkpt lat="45.325355387874055" lon="9.18482791957541"><ele>88.0</ele><time>2026-03-29T10:19:05Z</time></trkpt><trkpt lat="45.3253940309705" lon="9.184933276964198"><ele>88.0</ele><time>2026-03-29T10:19:07Z</time></trkpt><trkpt lat="45.325430444365786" lon="9.18503812059182"><ele>88.0</ele><time>2026-03-29T10:19:09Z</time></trkpt><trkpt lat="45.3254706768083" lon="9.185141859439625"><ele>88.0</ele><time>2026-03-29T10:19:11Z</time></trkpt><trkpt lat="45.32551726332673" lon="9.185216631372455"><ele>88.0</ele><time>2026-03-29T10:19:13Z</time></trkpt><trkpt lat="45.325547363647395" lon="9.185333410743398"><ele>88.16666666666666</ele><time>2026-03-29T10:19:15Z</time></trkpt><trkpt lat="45.325582413809464" lon="9.185435586044134"><ele>88.33333333333333</ele><time>2026-03-29T10:19:17Z</time></trkpt><trkpt lat="45.32562131403226" lon="9.185538885894111"><ele>88.5</ele><time>2026-03-29T10:19:19Z</time></trkpt><trkpt lat="45.325659049580814" lon="9.185636629168519"><ele>88.66666666666667</ele><time>2026-03-29T10:19:21Z</time></trkpt><trkpt lat="45.32569583834382" lon="9.185736456062289"><ele>88.83333333333334</ele><time>2026-03-29T10:19:23Z</time></trkpt><trkpt lat="45.32573565252172" lon="9.185831599246535"><ele>89.0</ele><time>2026-03-29T10:19:25Z</time></trkpt><trkpt lat="45.32576937958047" lon="9.185933550936241"><ele>89.0</ele><time>2026-03-29T10:19:27Z</time></trkpt><trkpt lat="45.32580148113064" lon="9.186036922273084"><ele>89.0</ele><time>2026-03-29T10:19:29Z</time></trkpt><trkpt lat="45.325844436119304" lon="9.186140108641307"><ele>89.0</ele><time>2026-03-29T10:19:31Z</time></trkpt><trkpt lat="45.32588152687208" lon="9.186238132397913"><ele>89.0</ele><time>2026-03-29T10:19:33Z</time></trkpt><trkpt lat="45.325921701163594" lon="9.186330438770886"><ele>89.0</ele><time>2026-03-29T10:19:35Z</time></trkpt><trkpt lat="45.32595160585952" lon="9.186424479903646"><ele>89.0</ele><time>2026-03-29T10:19:37Z</time></trkpt><trkpt lat="45.32598058882253" lon="9.186511673978323"><ele>89.16666666666667</ele><time>2026-03-29T10:19:39Z</time></trkpt><trkpt lat="45.326023249425646" lon="9.186626347691767"><ele>89.33333333333334</ele><time>2026-03-29T10:19:41Z</time></trkpt><trkpt lat="45.32606076277632" lon="9.186724910920189"><ele>89.5</ele><time>2026-03-29T10:19:43Z</time></trkpt><trkpt lat="45.32609751468072" lon="9.186819312220905"><ele>89.66666666666667</ele><time>2026-03-29T10:19:45Z</time></trkpt><trkpt lat="45.32613065458825" lon="9.186911957427943"><ele>89.83333333333333</ele><time>2026-03-29T10:19:47Z</time></trkpt><trkpt lat="45.3261907518643" lon="9.187026026707786"><ele>90.0</ele><time>2026-03-29T10:19:49Z</time></trkpt><trkpt lat="45.326214473649685" lon="9.187137845503385"><ele>90.0</ele><time>2026-03-29T10:19:51Z</time></trkpt><trkpt lat="45.32624526595611" lon="9.187239176870555"><ele>90.0</ele><time>2026-03-29T10:19:53Z</time></trkpt><trkpt lat="45.32629095090341" lon="9.187327220079364"><ele>90.0</ele><time>2026-03-29T10:19:55Z</time></trkpt><trkpt lat="45.32631818058368" lon="9.187422833283753"><ele>90.0</ele><time>2026-03-29T10:19:57Z</time></trkpt><trkpt lat="45.326352344502055" lon="9.187535057666748"><ele>90.0</ele><time>2026-03-29T10:19:59Z</time></trkpt><trkpt lat="45.326398084544216" lon="9.18766159687259"><ele>90.0</ele><time>2026-03-29T10:20:01Z</time></trkpt><trkpt lat="45.326437653986616" lon="9.187753750038535"><ele>90.0</ele><time>2026-03-29T10:20:03Z</time></trkpt><trkpt lat="45.326475393734505" lon="9.1878472926075"><ele>90.0</ele><time>2026-03-29T10:20:05Z</time></trkpt><trkpt lat="45.326511486571874" lon="9.187940025200973"><ele>90.0</ele><time>2026-03-29T10:20:07Z</time></trkpt><trkpt lat="45.326544387168006" lon="9.188033785399742"><ele>90.0</ele><time>2026-03-29T10:20:09Z</time></trkpt><trkpt lat="45.32657994237426" lon="9.188137318697024"><ele>90.0</ele><time>2026-03-29T10:20:11Z</time></trkpt><trkpt lat="45.32655308151264" lon="9.188239092297852"><ele>90.0</ele><time>2026-03-29T10:20:13Z</time></trkpt><trkpt lat="45.32664310141815" lon="9.188313604185554"><ele>90.0</ele><time>2026-03-29T10:20:15Z</time></trkpt><trkpt lat="45.32667862847681" lon="9.188436287094458"><ele>90.0</ele><time>2026-03-29T10:20:18Z</time></trkpt><trkpt lat="45.32673541614272" lon="9.188535570263456"><ele>90.0</ele><time>2026-03-29T10:20:21Z</time></trkpt><trkpt lat="45.326741621625324" lon="9.188639651718338"><ele>90.0</ele><time>2026-03-29T10:20:23Z</time></trkpt><trkpt lat="45.3268050064667" lon="9.188715339403737"><ele>90.0</ele><time>2026-03-29T10:20:26Z</time></trkpt><trkpt lat="45.326851491645094" lon="9.188813151148175"><ele>90.0</ele><time>2026-03-29T10:20:28Z</time></trkpt><trkpt lat="45.32688218583136" lon="9.188932585432998"><ele>90.0</ele><time>2026-03-29T10:20:30Z</time></trkpt><trkpt lat="45.32687612004084" lon="9.189040294567134"><ele>90.0</ele><time>2026-03-29T10:20:32Z</time></trkpt><trkpt lat="45.32687391498426" lon="9.189165497750572"><ele>90.0</ele><time>2026-03-29T10:20:34Z</time></trkpt><trkpt lat="45.32692217586301" lon="9.18927415563374"><ele>90.0</ele><time>2026-03-29T10:20:36Z</time></trkpt><trkpt lat="45.326954893775515" lon="9.189374061524115"><ele>90.0</ele><time>2026-03-29T10:20:38Z</time></trkpt><trkpt lat="45.3269873883294" lon="9.189463366514076"><ele>90.0</ele><time>2026-03-29T10:20:40Z</time></trkpt><trkpt lat="45.32701811893938" lon="9.189552220485988"><ele>90.0</ele><time>2026-03-29T10:20:42Z</time></trkpt><trkpt lat="45.327057074133464" lon="9.189659315961094"><ele>90.0</ele><time>2026-03-29T10:20:45Z</time></trkpt><trkpt lat="45.32709038312641" lon="9.189736055879447"><ele>90.0</ele><time>2026-03-29T10:20:47Z</time></trkpt><trkpt lat="45.32713742036935" lon="9.189856673005448"><ele>90.0</ele><time>2026-03-29T10:20:50Z</time></trkpt><trkpt lat="45.327173151862624" lon="9.18994547722277"><ele>90.0</ele><time>2026-03-29T10:20:52Z</time></trkpt><trkpt lat="45.327211804581005" lon="9.19004357902296"><ele>90.0</ele><time>2026-03-29T10:20:54Z</time></trkpt><trkpt lat="45.327248647697374" lon="9.19013594669086"><ele>89.83333333333333</ele><time>2026-03-29T10:20:56Z</time></trkpt><trkpt lat="45.3272797526649" lon="9.190227640425226"><ele>89.66666666666667</ele><time>2026-03-29T10:20:58Z</time></trkpt><trkpt lat="45.32731791010791" lon="9.190310416355429"><ele>89.5</ele><time>2026-03-29T10:21:00Z</time></trkpt><trkpt lat="45.32736345123554" lon="9.190405547075445"><ele>89.33333333333334</ele><time>2026-03-29T10:21:02Z</time></trkpt><trkpt lat="45.327402527412076" lon="9.19051817651347"><ele>89.16666666666667</ele><time>2026-03-29T10:21:04Z</time></trkpt><trkpt lat="45.327443286337974" lon="9.190635817773602"><ele>89.0</ele><time>2026-03-29T10:21:06Z</time></trkpt><trkpt lat="45.32748049464572" lon="9.190740015480351"><ele>89.0</ele><time>2026-03-29T10:21:08Z</time></trkpt><trkpt lat="45.32752347572426" lon="9.190842171566487"><ele>89.0</ele><time>2026-03-29T10:21:10Z</time></trkpt><trkpt lat="45.32756742858993" lon="9.190942483790979"><ele>89.0</ele><time>2026-03-29T10:21:12Z</time></trkpt><trkpt lat="45.32760417669008" lon="9.191047360688922"><ele>89.0</ele><time>2026-03-29T10:21:14Z</time></trkpt><trkpt lat="45.32764660587387" lon="9.191154603978305"><ele>89.0</ele><time>2026-03-29T10:21:16Z</time></trkpt><trkpt lat="45.327693575620216" lon="9.19126487609483"><ele>89.0</ele><time>2026-03-29T10:21:18Z</time></trkpt><trkpt lat="45.32775895951594" lon="9.191379822435794"><ele>89.0</ele><time>2026-03-29T10:21:20Z</time></trkpt><trkpt lat="45.32778644276234" lon="9.191500991016843"><ele>89.0</ele><time>2026-03-29T10:21:22Z</time></trkpt><trkpt lat="45.327833049133744" lon="9.191617536209558"><ele>89.0</ele><time>2026-03-29T10:21:24Z</time></trkpt><trkpt lat="45.32787980711952" lon="9.191725787706838"><ele>89.0</ele><time>2026-03-29T10:21:26Z</time></trkpt><trkpt lat="45.327926348897414" lon="9.191814897076561"><ele>89.0</ele><time>2026-03-29T10:21:28Z</time></trkpt><trkpt lat="45.32797112272763" lon="9.191916010979133"><ele>89.0</ele><time>2026-03-29T10:21:30Z</time></trkpt><trkpt lat="45.328027708869605" lon="9.1920312730512"><ele>89.5</ele><time>2026-03-29T10:21:33Z</time></trkpt><trkpt lat="45.328064352132046" lon="9.192124452137909"><ele>90.0</ele><time>2026-03-29T10:21:35Z</time></trkpt><trkpt lat="45.3281002104737" lon="9.192207095126001"><ele>90.5</ele><time>2026-03-29T10:21:37Z</time></trkpt><trkpt lat="45.32812612156775" lon="9.192290318188471"><ele>91.0</ele><time>2026-03-29T10:21:39Z</time></trkpt><trkpt lat="45.328162246324446" lon="9.192410308291866"><ele>91.5</ele><time>2026-03-29T10:21:42Z</time></trkpt><trkpt lat="45.3281926952229" lon="9.192494317169558"><ele>92.0</ele><time>2026-03-29T10:21:44Z</time></trkpt><trkpt lat="45.32824019657964" lon="9.192621015557188"><ele>92.0</ele><time>2026-03-29T10:21:47Z</time></trkpt><trkpt lat="45.32827997981651" lon="9.192711963244323"><ele>92.0</ele><time>2026-03-29T10:21:50Z</time></trkpt><trkpt lat="45.32830904564789" lon="9.19279264896017"><ele>92.0</ele><time>2026-03-29T10:21:52Z</time></trkpt><trkpt lat="45.32834334478295" lon="9.192898511324067"><ele>92.0</ele><time>2026-03-29T10:21:55Z</time></trkpt><trkpt lat="45.328371841705305" lon="9.192979440545383"><ele>92.0</ele><time>2026-03-29T10:21:57Z</time></trkpt><trkpt lat="45.32841511352638" lon="9.193092723434471"><ele>92.0</ele><time>2026-03-29T10:22:00Z</time></trkpt><trkpt lat="45.328451197310784" lon="9.193200191883234"><ele>92.0</ele><time>2026-03-29T10:22:03Z</time></trkpt><trkpt lat="45.32848885243758" lon="9.193319702083427"><ele>92.0</ele><time>2026-03-29T10:22:06Z</time></trkpt><trkpt lat="45.32851994004579" lon="9.193429228130913"><ele>92.0</ele><time>2026-03-29T10:22:09Z</time></trkpt><trkpt lat="45.3285464685317" lon="9.193542944872181"><ele>92.0</ele><time>2026-03-29T10:22:12Z</time></trkpt><trkpt lat="45.328586489854025" lon="9.19363504987623"><ele>92.0</ele><time>2026-03-29T10:22:21Z</time></trkpt><trkpt lat="45.32860537053348" lon="9.193727852768328"><ele>92.0</ele><time>2026-03-29T10:22:29Z</time></trkpt><trkpt lat="45.3286177120561" lon="9.193829214471203"><ele>92.0</ele><time>2026-03-29T10:22:39Z</time></trkpt><trkpt lat="45.3286491633117" lon="9.193923941766204"><ele>92.0</ele><time>2026-03-29T10:23:16Z</time></trkpt><trkpt lat="45.32867995996833" lon="9.194019891518208"><ele>92.0</ele><time>2026-03-29T10:23:20Z</time></trkpt><trkpt lat="45.328715393345284" lon="9.194138978383124"><ele>92.0</ele><time>2026-03-29T10:23:23Z</time></trkpt><trkpt lat="45.32874300549315" lon="9.194228131544419"><ele>92.0</ele><time>2026-03-29T10:23:25Z</time></trkpt><trkpt lat="45.32876882413284" lon="9.194311290232804"><ele>92.0</ele><time>2026-03-29T10:23:27Z</time></trkpt><trkpt lat="45.328796353974035" lon="9.19441678606959"><ele>92.14285714285715</ele><time>2026-03-29T10:23:29Z</time></trkpt><trkpt lat="45.328825095631665" lon="9.194516045933915"><ele>92.28571428571428</ele><time>2026-03-29T10:23:31Z</time></trkpt><trkpt lat="45.32888017045017" lon="9.19457639111146"><ele>92.42857142857143</ele><time>2026-03-29T10:23:33Z</time></trkpt><trkpt lat="45.328948325838965" lon="9.194571706221964"><ele>92.57142857142858</ele><time>2026-03-29T10:23:35Z</time></trkpt><trkpt lat="45.32903008830835" lon="9.19451946784502"><ele>92.71428571428572</ele><time>2026-03-29T10:23:38Z</time></trkpt><trkpt lat="45.32909667593249" lon="9.19448693585711"><ele>92.85714285714286</ele><time>2026-03-29T10:23:40Z</time></trkpt><trkpt lat="45.32915480741359" lon="9.194450382106082"><ele>93.0</ele><time>2026-03-29T10:23:42Z</time></trkpt><trkpt lat="45.32921281108662" lon="9.194414627606879"><ele>92.71428571428572</ele><time>2026-03-29T10:23:44Z</time></trkpt><trkpt lat="45.32927534683339" lon="9.194379458454794"><ele>92.42857142857143</ele><time>2026-03-29T10:23:46Z</time></trkpt><trkpt lat="45.32933703023604" lon="9.194345187268341"><ele>92.14285714285714</ele><time>2026-03-29T10:23:48Z</time></trkpt><trkpt lat="45.329404646965436" lon="9.194307698401623"><ele>91.85714285714286</ele><time>2026-03-29T10:23:50Z</time></trkpt><trkpt lat="45.32946984482462" lon="9.194266777476654"><ele>91.57142857142857</ele><time>2026-03-29T10:23:52Z</time></trkpt><trkpt lat="45.32953915572292" lon="9.194231259416085"><ele>91.28571428571429</ele><time>2026-03-29T10:23:54Z</time></trkpt><trkpt lat="45.32960802975727" lon="9.194189474169216"><ele>91.0</ele><time>2026-03-29T10:23:56Z</time></trkpt><trkpt lat="45.329672471362755" lon="9.194153956704959"><ele>90.85714285714286</ele><time>2026-03-29T10:23:58Z</time></trkpt><trkpt lat="45.329736828818504" lon="9.194117881503926"><ele>90.71428571428572</ele><time>2026-03-29T10:24:00Z</time></trkpt><trkpt lat="45.329803420424476" lon="9.194082272737896"><ele>90.57142857142857</ele><time>2026-03-29T10:24:02Z</time></trkpt><trkpt lat="45.32987148064537" lon="9.19404499496297"><ele>90.42857142857143</ele><time>2026-03-29T10:24:04Z</time></trkpt><trkpt lat="45.329940785826366" lon="9.194006606608117"><ele>90.28571428571429</ele><time>2026-03-29T10:24:06Z</time></trkpt><trkpt lat="45.330005636576686" lon="9.193968264876801"><ele>90.14285714285714</ele><time>2026-03-29T10:24:08Z</time></trkpt><trkpt lat="45.330073354604856" lon="9.193930517925557"><ele>90.0</ele><time>2026-03-29T10:24:10Z</time></trkpt><trkpt lat="45.33014269599073" lon="9.193890805972675"><ele>90.0</ele><time>2026-03-29T10:24:12Z</time></trkpt><trkpt lat="45.33021039673151" lon="9.193851924886513"><ele>90.0</ele><time>2026-03-29T10:24:14Z</time></trkpt><trkpt lat="45.33028240081365" lon="9.193813210265489"><ele>90.0</ele><time>2026-03-29T10:24:16Z</time></trkpt><trkpt lat="45.33035106483904" lon="9.193773007046127"><ele>90.0</ele><time>2026-03-29T10:24:18Z</time></trkpt><trkpt lat="45.330420286409606" lon="9.193733376866552"><ele>90.0</ele><time>2026-03-29T10:24:20Z</time></trkpt><trkpt lat="45.330490709756894" lon="9.19369625948055"><ele>90.0</ele><time>2026-03-29T10:24:22Z</time></trkpt><trkpt lat="45.33055942416954" lon="9.193658932940627"><ele>90.0</ele><time>2026-03-29T10:24:24Z</time></trkpt><trkpt lat="45.33062801194053" lon="9.19362368189634"><ele>90.33333333333333</ele><time>2026-03-29T10:24:26Z</time></trkpt><trkpt lat="45.33069993114878" lon="9.193597237851266"><ele>90.66666666666667</ele><time>2026-03-29T10:24:28Z</time></trkpt><trkpt lat="45.3307718915573" lon="9.19357986404677"><ele>91.0</ele><time>2026-03-29T10:24:30Z</time></trkpt><trkpt lat="45.33084860636038" lon="9.193575605700705"><ele>91.33333333333334</ele><time>2026-03-29T10:24:32Z</time></trkpt><trkpt lat="45.33091527579667" lon="9.193585839969613"><ele>91.66666666666667</ele><time>2026-03-29T10:24:34Z</time></trkpt><trkpt lat="45.330989698568665" lon="9.193599018130572"><ele>92.0</ele><time>2026-03-29T10:24:36Z</time></trkpt><trkpt lat="45.33107894388075" lon="9.193626382896122"><ele>92.0</ele><time>2026-03-29T10:24:39Z</time></trkpt><trkpt lat="45.33117751389477" lon="9.193609158713446"><ele>92.0</ele><time>2026-03-29T10:24:42Z</time></trkpt><trkpt lat="45.331214045597434" lon="9.193529731466446"><ele>92.0</ele><time>2026-03-29T10:24:44Z</time></trkpt><trkpt lat="45.33125365256839" lon="9.193442558539545"><ele>92.0</ele><time>2026-03-29T10:24:47Z</time></trkpt><trkpt lat="45.331321188190614" lon="9.193456358200518"><ele>92.0</ele><time>2026-03-29T10:24:49Z</time></trkpt><trkpt lat="45.3313860391731" lon="9.193543969681535"><ele>92.0</ele><time>2026-03-29T10:24:52Z</time></trkpt><trkpt lat="45.331457621261194" lon="9.193615907624627"><ele>92.0</ele><time>2026-03-29T10:24:55Z</time></trkpt><trkpt lat="45.33151202611319" lon="9.193669621724883"><ele>92.0</ele><time>2026-03-29T10:24:57Z</time></trkpt><trkpt lat="45.33156754377871" lon="9.193737428288285"><ele>92.0</ele><time>2026-03-29T10:24:59Z</time></trkpt><trkpt lat="45.33163217921308" lon="9.193799256299684"><ele>92.0</ele><time>2026-03-29T10:25:01Z</time></trkpt><trkpt lat="45.33170043483501" lon="9.193881100545745"><ele>92.0</ele><time>2026-03-29T10:25:03Z</time></trkpt><trkpt lat="45.331774611286754" lon="9.193949957939331"><ele>92.0</ele><time>2026-03-29T10:25:05Z</time></trkpt><trkpt lat="45.33184234687285" lon="9.194033753006275"><ele>91.8</ele><time>2026-03-29T10:25:07Z</time></trkpt><trkpt lat="45.33190139265359" lon="9.194145744288159"><ele>91.6</ele><time>2026-03-29T10:25:09Z</time></trkpt><trkpt lat="45.33198316501758" lon="9.19419645888692"><ele>91.39999999999999</ele><time>2026-03-29T10:25:11Z</time></trkpt><trkpt lat="45.332060884508934" lon="9.19427265319774"><ele>91.19999999999999</ele><time>2026-03-29T10:25:13Z</time></trkpt><trkpt lat="45.33213159603294" lon="9.194354880896054"><ele>91.0</ele><time>2026-03-29T10:25:15Z</time></trkpt><trkpt lat="45.33220587040403" lon="9.194437106110282"><ele>91.19999999999999</ele><time>2026-03-29T10:25:17Z</time></trkpt><trkpt lat="45.33228436078494" lon="9.19452504134165"><ele>91.39999999999999</ele><time>2026-03-29T10:25:19Z</time></trkpt><trkpt lat="45.332363557497516" lon="9.194613880789776"><ele>91.6</ele><time>2026-03-29T10:25:21Z</time></trkpt><trkpt lat="45.332443609247385" lon="9.19470211640237"><ele>91.8</ele><time>2026-03-29T10:25:23Z</time></trkpt><trkpt lat="45.332524970375005" lon="9.19478688247158"><ele>92.0</ele><time>2026-03-29T10:25:25Z</time></trkpt><trkpt lat="45.332607164372966" lon="9.194878121023367"><ele>92.19999999999999</ele><time>2026-03-29T10:25:27Z</time></trkpt><trkpt lat="45.332689267855834" lon="9.194971970270993"><ele>92.4</ele><time>2026-03-29T10:25:29Z</time></trkpt><trkpt lat="45.33277437891645" lon="9.195066696641653"><ele>92.6</ele><time>2026-03-29T10:25:31Z</time></trkpt><trkpt lat="45.33286424084629" lon="9.195165204846436"><ele>92.80000000000001</ele><time>2026-03-29T10:25:33Z</time></trkpt><trkpt lat="45.33295690247196" lon="9.195263463662778"><ele>93.0</ele><time>2026-03-29T10:25:35Z</time></trkpt><trkpt lat="45.333045600822174" lon="9.195361615405997"><ele>93.0</ele><time>2026-03-29T10:25:37Z</time></trkpt><trkpt lat="45.333136574819314" lon="9.195458865965119"><ele>93.0</ele><time>2026-03-29T10:25:39Z</time></trkpt><trkpt lat="45.333222712757895" lon="9.195559903984055"><ele>93.0</ele><time>2026-03-29T10:25:41Z</time></trkpt><trkpt lat="45.33331417991974" lon="9.19566090788613"><ele>93.0</ele><time>2026-03-29T10:25:43Z</time></trkpt><trkpt lat="45.33340466213183" lon="9.195759487111838"><ele>92.60000000000001</ele><time>2026-03-29T10:25:45Z</time></trkpt><trkpt lat="45.33348882123003" lon="9.195859331352397"><ele>92.2</ele><time>2026-03-29T10:25:47Z</time></trkpt><trkpt lat="45.333564057325766" lon="9.195970789180906"><ele>91.8</ele><time>2026-03-29T10:25:49Z</time></trkpt><trkpt lat="45.33358239319439" lon="9.196129385482283"><ele>91.4</ele><time>2026-03-29T10:25:51Z</time></trkpt><trkpt lat="45.3336147684542" lon="9.196281662183841"><ele>91.0</ele><time>2026-03-29T10:25:53Z</time></trkpt><trkpt lat="45.33366639929029" lon="9.196334803588947"><ele>91.0</ele><time>2026-03-29T10:25:54Z</time></trkpt><trkpt lat="45.333767683804005" lon="9.196392505374877"><ele>91.0</ele><time>2026-03-29T10:25:56Z</time></trkpt><trkpt lat="45.33388014575017" lon="9.196411019333292"><ele>91.0</ele><time>2026-03-29T10:25:58Z</time></trkpt><trkpt lat="45.333991002115184" lon="9.19644734654858"><ele>91.0</ele><time>2026-03-29T10:26:00Z</time></trkpt><trkpt lat="45.334094718038436" lon="9.196517389689527"><ele>92.25</ele><time>2026-03-29T10:26:02Z</time></trkpt><trkpt lat="45.3341917678642" lon="9.196602789744082"><ele>93.5</ele><time>2026-03-29T10:26:04Z</time></trkpt><trkpt lat="45.33428004079368" lon="9.196706126557508"><ele>94.75</ele><time>2026-03-29T10:26:06Z</time></trkpt><trkpt lat="45.3343699709941" lon="9.196806958419721"><ele>96.0</ele><time>2026-03-29T10:26:08Z</time></trkpt><trkpt lat="45.3344618841993" lon="9.196902888632835"><ele>96.0</ele><time>2026-03-29T10:26:10Z</time></trkpt><trkpt lat="45.3345535449429" lon="9.197003547145973"><ele>96.0</ele><time>2026-03-29T10:26:12Z</time></trkpt><trkpt lat="45.334648997566745" lon="9.197103474215444"><ele>96.0</ele><time>2026-03-29T10:26:14Z</time></trkpt><trkpt lat="45.3347017125127" lon="9.197161181666115"><ele>96.0</ele><time>2026-03-29T10:26:15Z</time></trkpt><trkpt lat="45.33475632694394" lon="9.197219372080983"><ele>96.0</ele><time>2026-03-29T10:26:16Z</time></trkpt><trkpt lat="45.334809887433" lon="9.197280525294353"><ele>96.0</ele><time>2026-03-29T10:26:17Z</time></trkpt><trkpt lat="45.334864082325396" lon="9.197338801025067"><ele>95.71428571428571</ele><time>2026-03-29T10:26:18Z</time></trkpt><trkpt lat="45.334917375497895" lon="9.19739646038419"><ele>95.42857142857143</ele><time>2026-03-29T10:26:19Z</time></trkpt><trkpt lat="45.3349707117795" lon="9.197455010626948"><ele>95.14285714285714</ele><time>2026-03-29T10:26:20Z</time></trkpt><trkpt lat="45.3350230375756" lon="9.197509989638517"><ele>94.85714285714286</ele><time>2026-03-29T10:26:21Z</time></trkpt><trkpt lat="45.33507309628256" lon="9.197564782654819"><ele>94.57142857142857</ele><time>2026-03-29T10:26:22Z</time></trkpt><trkpt lat="45.335123990033225" lon="9.197619383948597"><ele>94.28571428571428</ele><time>2026-03-29T10:26:23Z</time></trkpt><trkpt lat="45.335175341552876" lon="9.197674262231299"><ele>94.0</ele><time>2026-03-29T10:26:24Z</time></trkpt><trkpt lat="45.335228015242805" lon="9.197728746006248"><ele>94.0</ele><time>2026-03-29T10:26:25Z</time></trkpt><trkpt lat="45.33527899059433" lon="9.197782408551795"><ele>94.0</ele><time>2026-03-29T10:26:26Z</time></trkpt><trkpt lat="45.33532955297817" lon="9.197835838807393"><ele>94.0</ele><time>2026-03-29T10:26:27Z</time></trkpt><trkpt lat="45.33538101300859" lon="9.197889779410811"><ele>94.0</ele><time>2026-03-29T10:26:28Z</time></trkpt><trkpt lat="45.335433018580524" lon="9.197943656657259"><ele>94.0</ele><time>2026-03-29T10:26:29Z</time></trkpt><trkpt lat="45.33548380950473" lon="9.19799860651431"><ele>94.0</ele><time>2026-03-29T10:26:30Z</time></trkpt><trkpt lat="45.33558669706723" lon="9.198104378644075"><ele>94.0</ele><time>2026-03-29T10:26:32Z</time></trkpt><trkpt lat="45.335636581579905" lon="9.198160052316624"><ele>94.0</ele><time>2026-03-29T10:26:33Z</time></trkpt><trkpt lat="45.335688927434575" lon="9.198212076628765"><ele>94.0</ele><time>2026-03-29T10:26:34Z</time></trkpt><trkpt lat="45.33574157126651" lon="9.198266263862466"><ele>94.0</ele><time>2026-03-29T10:26:35Z</time></trkpt><trkpt lat="45.33584202123476" lon="9.19836938263726"><ele>94.0</ele><time>2026-03-29T10:26:37Z</time></trkpt><trkpt lat="45.33589465103115" lon="9.198419077058437"><ele>94.0</ele><time>2026-03-29T10:26:38Z</time></trkpt><trkpt lat="45.335948820770554" lon="9.198468207849993"><ele>94.0</ele><time>2026-03-29T10:26:39Z</time></trkpt><trkpt lat="45.33605811857482" lon="9.198552918190932"><ele>94.0</ele><time>2026-03-29T10:26:41Z</time></trkpt><trkpt lat="45.33617041247975" lon="9.198630192728679"><ele>94.0</ele><time>2026-03-29T10:26:43Z</time></trkpt><trkpt lat="45.336279144940335" lon="9.19871981929939"><ele>94.0</ele><time>2026-03-29T10:26:45Z</time></trkpt><trkpt lat="45.33633833365872" lon="9.1987604936838"><ele>94.0</ele><time>2026-03-29T10:26:46Z</time></trkpt><trkpt lat="45.336394061965265" lon="9.198805677115278"><ele>94.0</ele><time>2026-03-29T10:26:47Z</time></trkpt><trkpt lat="45.33644996482544" lon="9.198854632976907"><ele>94.0</ele><time>2026-03-29T10:26:48Z</time></trkpt><trkpt lat="45.33650653514139" lon="9.198899761701592"><ele>94.0</ele><time>2026-03-29T10:26:49Z</time></trkpt><trkpt lat="45.336559808042814" lon="9.198948281101986"><ele>94.0</ele><time>2026-03-29T10:26:50Z</time></trkpt><trkpt lat="45.33661473984271" lon="9.198993089614472"><ele>94.0</ele><time>2026-03-29T10:26:51Z</time></trkpt><trkpt lat="45.33666817316411" lon="9.199040675222513"><ele>94.0</ele><time>2026-03-29T10:26:52Z</time></trkpt><trkpt lat="45.33676306121645" lon="9.19914885504391"><ele>94.0</ele><time>2026-03-29T10:26:54Z</time></trkpt><trkpt lat="45.336815970747935" lon="9.199300020494723"><ele>94.0</ele><time>2026-03-29T10:26:56Z</time></trkpt><trkpt lat="45.33686426990199" lon="9.199454880798374"><ele>94.0</ele><time>2026-03-29T10:26:58Z</time></trkpt><trkpt lat="45.33696220156911" lon="9.199561496086835"><ele>94.0</ele><time>2026-03-29T10:27:00Z</time></trkpt><trkpt lat="45.33705854041907" lon="9.199668204473895"><ele>94.0</ele><time>2026-03-29T10:27:02Z</time></trkpt><trkpt lat="45.337145727503305" lon="9.19979293987075"><ele>94.0</ele><time>2026-03-29T10:27:04Z</time></trkpt><trkpt lat="45.33724411963312" lon="9.199895313126722"><ele>93.75</ele><time>2026-03-29T10:27:06Z</time></trkpt><trkpt lat="45.337334430278155" lon="9.199996534361569"><ele>93.5</ele><time>2026-03-29T10:27:08Z</time></trkpt><trkpt lat="45.33742779317535" lon="9.200094035544168"><ele>93.25</ele><time>2026-03-29T10:27:10Z</time></trkpt><trkpt lat="45.33751533864832" lon="9.200192051738625"><ele>93.0</ele><time>2026-03-29T10:27:12Z</time></trkpt><trkpt lat="45.33760060782994" lon="9.20028999302056"><ele>93.0</ele><time>2026-03-29T10:27:14Z</time></trkpt><trkpt lat="45.33768503696093" lon="9.200380288581421"><ele>93.0</ele><time>2026-03-29T10:27:16Z</time></trkpt><trkpt lat="45.33777118330608" lon="9.2004740117808"><ele>93.0</ele><time>2026-03-29T10:27:18Z</time></trkpt><trkpt lat="45.33785476587766" lon="9.200566491280005"><ele>93.0</ele><time>2026-03-29T10:27:20Z</time></trkpt><trkpt lat="45.33794069182573" lon="9.200654130696075"><ele>93.0</ele><time>2026-03-29T10:27:22Z</time></trkpt><trkpt lat="45.338021744138196" lon="9.200743490240042"><ele>93.0</ele><time>2026-03-29T10:27:24Z</time></trkpt><trkpt lat="45.3381028449764" lon="9.200831253918793"><ele>93.0</ele><time>2026-03-29T10:27:26Z</time></trkpt><trkpt lat="45.33818431491329" lon="9.20091767165217"><ele>93.0</ele><time>2026-03-29T10:27:28Z</time></trkpt><trkpt lat="45.33826546436444" lon="9.201002287554605"><ele>93.0</ele><time>2026-03-29T10:27:30Z</time></trkpt><trkpt lat="45.33834546656776" lon="9.20108689120235"><ele>93.0</ele><time>2026-03-29T10:27:32Z</time></trkpt><trkpt lat="45.338434404120314" lon="9.201161923101308"><ele>93.0</ele><time>2026-03-29T10:27:34Z</time></trkpt><trkpt lat="45.33852936957537" lon="9.201236822719554"><ele>93.0</ele><time>2026-03-29T10:27:36Z</time></trkpt><trkpt lat="45.33862174916662" lon="9.201299665720795"><ele>93.0</ele><time>2026-03-29T10:27:38Z</time></trkpt><trkpt lat="45.33871216554149" lon="9.201361176793972"><ele>93.0</ele><time>2026-03-29T10:27:40Z</time></trkpt><trkpt lat="45.338802903682506" lon="9.201418386829786"><ele>93.0</ele><time>2026-03-29T10:27:42Z</time></trkpt><trkpt lat="45.338890358932304" lon="9.201474088312292"><ele>93.16666666666667</ele><time>2026-03-29T10:27:44Z</time></trkpt><trkpt lat="45.33894885943337" lon="9.20158048010548"><ele>93.33333333333333</ele><time>2026-03-29T10:27:46Z</time></trkpt><trkpt lat="45.33896984736562" lon="9.201706748212308"><ele>93.5</ele><time>2026-03-29T10:27:48Z</time></trkpt><trkpt lat="45.33902406617691" lon="9.201781514750428"><ele>93.66666666666666</ele><time>2026-03-29T10:27:50Z</time></trkpt><trkpt lat="45.33910208474253" lon="9.20177889586754"><ele>93.83333333333333</ele><time>2026-03-29T10:27:52Z</time></trkpt><trkpt lat="45.33917786420331" lon="9.20170786019369"><ele>94.0</ele><time>2026-03-29T10:27:54Z</time></trkpt><trkpt lat="45.33926653340124" lon="9.201703098136035"><ele>94.0</ele><time>2026-03-29T10:27:56Z</time></trkpt><trkpt lat="45.339361363895" lon="9.201698839670387"><ele>94.0</ele><time>2026-03-29T10:27:58Z</time></trkpt><trkpt lat="45.33946015210497" lon="9.201701567126467"><ele>94.0</ele><time>2026-03-29T10:28:00Z</time></trkpt><trkpt lat="45.33955998758192" lon="9.20170271142739"><ele>94.0</ele><time>2026-03-29T10:28:02Z</time></trkpt><trkpt lat="45.33965373150633" lon="9.201703011719454"><ele>94.0</ele><time>2026-03-29T10:28:04Z</time></trkpt><trkpt lat="45.33974494149081" lon="9.201704644067572"><ele>94.0</ele><time>2026-03-29T10:28:06Z</time></trkpt><trkpt lat="45.33983252290507" lon="9.201700946261482"><ele>94.0</ele><time>2026-03-29T10:28:08Z</time></trkpt><trkpt lat="45.33991606285116" lon="9.20170081674591"><ele>94.0</ele><time>2026-03-29T10:28:10Z</time></trkpt><trkpt lat="45.33999684815571" lon="9.201694308072911"><ele>94.0</ele><time>2026-03-29T10:28:12Z</time></trkpt><trkpt lat="45.340066730509214" lon="9.201731818438393"><ele>94.0</ele><time>2026-03-29T10:28:14Z</time></trkpt><trkpt lat="45.34013261308821" lon="9.201779381755756"><ele>94.0</ele><time>2026-03-29T10:28:16Z</time></trkpt><trkpt lat="45.34021748341902" lon="9.201749114561752"><ele>94.0</ele><time>2026-03-29T10:28:18Z</time></trkpt><trkpt lat="45.34029316817862" lon="9.201681717944838"><ele>94.0</ele><time>2026-03-29T10:28:20Z</time></trkpt><trkpt lat="45.340380632984875" lon="9.201639558489523"><ele>94.0</ele><time>2026-03-29T10:28:22Z</time></trkpt><trkpt lat="45.34047635343863" lon="9.201645487238185"><ele>94.0</ele><time>2026-03-29T10:28:24Z</time></trkpt><trkpt lat="45.34057360546126" lon="9.201652044619925"><ele>94.0</ele><time>2026-03-29T10:28:26Z</time></trkpt><trkpt lat="45.34066929159265" lon="9.201646062381986"><ele>94.2</ele><time>2026-03-29T10:28:28Z</time></trkpt><trkpt lat="45.340764730461586" lon="9.201646779943545"><ele>94.4</ele><time>2026-03-29T10:28:30Z</time></trkpt><trkpt lat="45.34085837816695" lon="9.201647904210953"><ele>94.6</ele><time>2026-03-29T10:28:32Z</time></trkpt><trkpt lat="45.34094775476997" lon="9.201646460420891"><ele>94.8</ele><time>2026-03-29T10:28:34Z</time></trkpt><trkpt lat="45.341036903741006" lon="9.201644682524265"><ele>95.0</ele><time>2026-03-29T10:28:36Z</time></trkpt><trkpt lat="45.341128384104294" lon="9.201646093455228"><ele>95.0</ele><time>2026-03-29T10:28:38Z</time></trkpt><trkpt lat="45.34121815403676" lon="9.201640639501353"><ele>95.0</ele><time>2026-03-29T10:28:40Z</time></trkpt><trkpt lat="45.34130973960797" lon="9.201643576640114"><ele>95.0</ele><time>2026-03-29T10:28:42Z</time></trkpt><trkpt lat="45.34140650988107" lon="9.20164506347015"><ele>95.0</ele><time>2026-03-29T10:28:44Z</time></trkpt><trkpt lat="45.3415070907282" lon="9.201640455179437"><ele>95.0</ele><time>2026-03-29T10:28:46Z</time></trkpt><trkpt lat="45.34160793012373" lon="9.201644719734263"><ele>95.4</ele><time>2026-03-29T10:28:48Z</time></trkpt><trkpt lat="45.34171028021215" lon="9.201638920296551"><ele>95.8</ele><time>2026-03-29T10:28:50Z</time></trkpt><trkpt lat="45.341813936907094" lon="9.20164028954148"><ele>96.19999999999999</ele><time>2026-03-29T10:28:52Z</time></trkpt><trkpt lat="45.34192375337931" lon="9.201629080960256"><ele>96.6</ele><time>2026-03-29T10:28:54Z</time></trkpt><trkpt lat="45.34203065285315" lon="9.201632357650688"><ele>97.0</ele><time>2026-03-29T10:28:56Z</time></trkpt><trkpt lat="45.34213336187926" lon="9.201638141709997"><ele>97.19999999999999</ele><time>2026-03-29T10:28:58Z</time></trkpt><trkpt lat="45.342232975633266" lon="9.201633833337615"><ele>97.4</ele><time>2026-03-29T10:29:00Z</time></trkpt><trkpt lat="45.34232997094048" lon="9.201632881721485"><ele>97.6</ele><time>2026-03-29T10:29:02Z</time></trkpt><trkpt lat="45.342423705454955" lon="9.201629822869384"><ele>97.80000000000001</ele><time>2026-03-29T10:29:04Z</time></trkpt><trkpt lat="45.3425359288991" lon="9.201619154203588"><ele>98.0</ele><time>2026-03-29T10:29:06Z</time></trkpt><trkpt lat="45.342647172090835" lon="9.201611051106894"><ele>98.0</ele><time>2026-03-29T10:29:08Z</time></trkpt><trkpt lat="45.34274900843268" lon="9.201637177607074"><ele>98.0</ele><time>2026-03-29T10:29:10Z</time></trkpt><trkpt lat="45.342848362750196" lon="9.201625447856285"><ele>98.0</ele><time>2026-03-29T10:29:12Z</time></trkpt><trkpt lat="45.342943988677824" lon="9.201635822970285"><ele>98.0</ele><time>2026-03-29T10:29:14Z</time></trkpt><trkpt lat="45.34303884213749" lon="9.201628054700409"><ele>98.0</ele><time>2026-03-29T10:29:16Z</time></trkpt><trkpt lat="45.343128900006384" lon="9.20162943624436"><ele>97.99999999999999</ele><time>2026-03-29T10:29:18Z</time></trkpt><trkpt lat="45.3432175459835" lon="9.201621251235743"><ele>98.0</ele><time>2026-03-29T10:29:20Z</time></trkpt><trkpt lat="45.34330605828326" lon="9.201623331320926"><ele>98.0</ele><time>2026-03-29T10:29:22Z</time></trkpt><trkpt lat="45.34338055527918" lon="9.201576238501442"><ele>98.0</ele><time>2026-03-29T10:29:24Z</time></trkpt><trkpt lat="45.34342208045444" lon="9.201501602969703"><ele>97.99999999999999</ele><time>2026-03-29T10:29:26Z</time></trkpt><trkpt lat="45.34347359774953" lon="9.201393258783403"><ele>98.0</ele><time>2026-03-29T10:29:29Z</time></trkpt><trkpt lat="45.34351731808848" lon="9.201307458304742"><ele>97.99999999999999</ele><time>2026-03-29T10:29:31Z</time></trkpt><trkpt lat="45.343555078831464" lon="9.201227039632583"><ele>98.0</ele><time>2026-03-29T10:29:33Z</time></trkpt><trkpt lat="45.34361092449487" lon="9.20114773527178"><ele>98.0</ele><time>2026-03-29T10:29:34.999Z</time></trkpt><trkpt lat="45.34367874709142" lon="9.201092301839816"><ele>98.0</ele><time>2026-03-29T10:29:36.999Z</time></trkpt><trkpt lat="45.343715923541794" lon="9.201014334775843"><ele>97.99999999999999</ele><time>2026-03-29T10:29:38.999Z</time></trkpt><trkpt lat="45.34379406098946" lon="9.201000011480689"><ele>98.0</ele><time>2026-03-29T10:29:42.999Z</time></trkpt><trkpt lat="45.34387584062775" lon="9.201034560195591"><ele>98.14285714285714</ele><time>2026-03-29T10:29:46Z</time></trkpt><trkpt lat="45.34391001454361" lon="9.20111649234403"><ele>98.28571428571428</ele><time>2026-03-29T10:29:47.999Z</time></trkpt><trkpt lat="45.34396721843929" lon="9.201168093009843"><ele>98.42857142857143</ele><time>2026-03-29T10:29:51Z</time></trkpt><trkpt lat="45.343994327503005" lon="9.201264652823518"><ele>98.57142857142857</ele><time>2026-03-29T10:29:53Z</time></trkpt><trkpt lat="45.344022363426824" lon="9.201353136778241"><ele>98.71428571428571</ele><time>2026-03-29T10:29:56Z</time></trkpt><trkpt lat="45.34395932279471" lon="9.2014175584216"><ele>98.85714285714286</ele><time>2026-03-29T10:29:59Z</time></trkpt><trkpt lat="45.34390354300447" lon="9.201494541084445"><ele>99.0</ele><time>2026-03-29T10:30:02Z</time></trkpt><trkpt lat="45.34393896810635" lon="9.201592267078961"><ele>98.4</ele><time>2026-03-29T10:30:04Z</time></trkpt><trkpt lat="45.34400153527292" lon="9.20167381178973"><ele>97.80000000000001</ele><time>2026-03-29T10:30:06Z</time></trkpt><trkpt lat="45.34411774118409" lon="9.20164877219639"><ele>97.19999999999999</ele><time>2026-03-29T10:30:08Z</time></trkpt><trkpt lat="45.34420608552" lon="9.201659145416372"><ele>96.6</ele><time>2026-03-29T10:30:10Z</time></trkpt><trkpt lat="45.34429304656253" lon="9.201652187140185"><ele>96.0</ele><time>2026-03-29T10:30:12Z</time></trkpt><trkpt lat="45.34437929029853" lon="9.201655889449986"><ele>96.0</ele><time>2026-03-29T10:30:14Z</time></trkpt><trkpt lat="45.34446942567837" lon="9.20165373135761"><ele>96.0</ele><time>2026-03-29T10:30:16Z</time></trkpt><trkpt lat="45.34455751103037" lon="9.20165191716608"><ele>96.0</ele><time>2026-03-29T10:30:18Z</time></trkpt><trkpt lat="45.34464102925946" lon="9.201656589753984"><ele>96.0</ele><time>2026-03-29T10:30:20Z</time></trkpt><trkpt lat="45.34473340997561" lon="9.201651242328513"><ele>96.0</ele><time>2026-03-29T10:30:22Z</time></trkpt><trkpt lat="45.34483122914429" lon="9.201652106654759"><ele>95.8</ele><time>2026-03-29T10:30:24Z</time></trkpt><trkpt lat="45.3449298267499" lon="9.20164817458563"><ele>95.6</ele><time>2026-03-29T10:30:26Z</time></trkpt><trkpt lat="45.34503245769043" lon="9.201648028838854"><ele>95.4</ele><time>2026-03-29T10:30:28Z</time></trkpt><trkpt lat="45.34513450992599" lon="9.201644092802384"><ele>95.2</ele><time>2026-03-29T10:30:30Z</time></trkpt><trkpt lat="45.34523498389917" lon="9.201646649957054"><ele>95.0</ele><time>2026-03-29T10:30:32Z</time></trkpt><trkpt lat="45.34534312600787" lon="9.201638039131742"><ele>95.0</ele><time>2026-03-29T10:30:34Z</time></trkpt><trkpt lat="45.345441050455854" lon="9.201638844300652"><ele>95.0</ele><time>2026-03-29T10:30:36Z</time></trkpt><trkpt lat="45.345544148799476" lon="9.201633665112576"><ele>95.0</ele><time>2026-03-29T10:30:38Z</time></trkpt><trkpt lat="45.34564656760124" lon="9.201634340051701"><ele>95.0</ele><time>2026-03-29T10:30:40Z</time></trkpt><trkpt lat="45.34575053099506" lon="9.201633562217552"><ele>95.0</ele><time>2026-03-29T10:30:42Z</time></trkpt><trkpt lat="45.345856520837145" lon="9.201632899838437"><ele>95.8</ele><time>2026-03-29T10:30:44Z</time></trkpt><trkpt lat="45.345959106583344" lon="9.201630425975592"><ele>96.6</ele><time>2026-03-29T10:30:46Z</time></trkpt><trkpt lat="45.3460605201464" lon="9.201627742049896"><ele>97.4</ele><time>2026-03-29T10:30:48Z</time></trkpt><trkpt lat="45.34616627217515" lon="9.201629886398573"><ele>98.2</ele><time>2026-03-29T10:30:50Z</time></trkpt><trkpt lat="45.346275728913035" lon="9.201629194508312"><ele>99.0</ele><time>2026-03-29T10:30:52Z</time></trkpt><trkpt lat="45.34638153851348" lon="9.201626644768949"><ele>99.0</ele><time>2026-03-29T10:30:54Z</time></trkpt><trkpt lat="45.346488366115665" lon="9.201624950901488"><ele>99.0</ele><time>2026-03-29T10:30:56Z</time></trkpt><trkpt lat="45.34659961992131" lon="9.201618476087559"><ele>99.0</ele><time>2026-03-29T10:30:58Z</time></trkpt><trkpt lat="45.34671132994306" lon="9.201618877081966"><ele>99.0</ele><time>2026-03-29T10:31:00Z</time></trkpt><trkpt lat="45.34682256029904" lon="9.201609286417085"><ele>99.0</ele><time>2026-03-29T10:31:02Z</time></trkpt><trkpt lat="45.34693183501857" lon="9.201602126568618"><ele>99.0</ele><time>2026-03-29T10:31:04Z</time></trkpt><trkpt lat="45.34704163795919" lon="9.201607294160402"><ele>99.0</ele><time>2026-03-29T10:31:06Z</time></trkpt><trkpt lat="45.3471551885689" lon="9.201618250407963"><ele>99.0</ele><time>2026-03-29T10:31:08Z</time></trkpt><trkpt lat="45.347266776794584" lon="9.201619051796916"><ele>99.0</ele><time>2026-03-29T10:31:10Z</time></trkpt><trkpt lat="45.34737938728101" lon="9.201617488503269"><ele>99.0</ele><time>2026-03-29T10:31:12Z</time></trkpt><trkpt lat="45.347490847445" lon="9.201611888553678"><ele>98.6</ele><time>2026-03-29T10:31:14Z</time></trkpt><trkpt lat="45.34759336060408" lon="9.201611104432853"><ele>98.2</ele><time>2026-03-29T10:31:16Z</time></trkpt><trkpt lat="45.34769453159964" lon="9.201610343087443"><ele>97.8</ele><time>2026-03-29T10:31:18Z</time></trkpt><trkpt lat="45.34780315005688" lon="9.201609315039539"><ele>97.39999999999999</ele><time>2026-03-29T10:31:20Z</time></trkpt><trkpt lat="45.34790600803561" lon="9.201603784051352"><ele>97.0</ele><time>2026-03-29T10:31:22Z</time></trkpt><trkpt lat="45.34800969937328" lon="9.201601576885526"><ele>96.8</ele><time>2026-03-29T10:31:24Z</time></trkpt><trkpt lat="45.34811266932093" lon="9.201604566472644"><ele>96.6</ele><time>2026-03-29T10:31:26Z</time></trkpt><trkpt lat="45.34821864031438" lon="9.201604692333845"><ele>96.39999999999999</ele><time>2026-03-29T10:31:28Z</time></trkpt><trkpt lat="45.34832658469205" lon="9.201599845065909"><ele>96.19999999999999</ele><time>2026-03-29T10:31:30Z</time></trkpt><trkpt lat="45.348434250331344" lon="9.201600919019393"><ele>96.0</ele><time>2026-03-29T10:31:32Z</time></trkpt><trkpt lat="45.34853823803434" lon="9.201599582412161"><ele>96.0</ele><time>2026-03-29T10:31:34Z</time></trkpt><trkpt lat="45.348639049853176" lon="9.201592526268838"><ele>96.0</ele><time>2026-03-29T10:31:36Z</time></trkpt><trkpt lat="45.348738673021955" lon="9.201587543374576"><ele>96.0</ele><time>2026-03-29T10:31:38Z</time></trkpt><trkpt lat="45.34884204927905" lon="9.201574305244272"><ele>96.0</ele><time>2026-03-29T10:31:40Z</time></trkpt><trkpt lat="45.3489503029539" lon="9.20157829124425"><ele>96.0</ele><time>2026-03-29T10:31:41.999Z</time></trkpt><trkpt lat="45.349063091690695" lon="9.201579668387552"><ele>96.25</ele><time>2026-03-29T10:31:43.999Z</time></trkpt><trkpt lat="45.34918095948973" lon="9.201578685260063"><ele>96.5</ele><time>2026-03-29T10:31:45.999Z</time></trkpt><trkpt lat="45.34929743013008" lon="9.201575849293992"><ele>96.75</ele><time>2026-03-29T10:31:47.999Z</time></trkpt><trkpt lat="45.34941219022414" lon="9.201579231829204"><ele>97.0</ele><time>2026-03-29T10:31:49.999Z</time></trkpt><trkpt lat="45.34952187728537" lon="9.201575823885987"><ele>97.0</ele><time>2026-03-29T10:31:51.999Z</time></trkpt><trkpt lat="45.34961934815564" lon="9.201562742232793"><ele>97.0</ele><time>2026-03-29T10:31:53.999Z</time></trkpt><trkpt lat="45.349721127258114" lon="9.201569846160142"><ele>97.0</ele><time>2026-03-29T10:31:55.999Z</time></trkpt><trkpt lat="45.34982412497356" lon="9.201567806952342"><ele>97.0</ele><time>2026-03-29T10:31:58Z</time></trkpt><trkpt lat="45.34993279627878" lon="9.201560974829638"><ele>97.0</ele><time>2026-03-29T10:32:00Z</time></trkpt><trkpt lat="45.35004948887327" lon="9.201569642280921"><ele>96.8</ele><time>2026-03-29T10:32:02Z</time></trkpt><trkpt lat="45.35016210185774" lon="9.201579710084616"><ele>96.6</ele><time>2026-03-29T10:32:04Z</time></trkpt><trkpt lat="45.35027218617901" lon="9.201578016550496"><ele>96.39999999999999</ele><time>2026-03-29T10:32:06Z</time></trkpt><trkpt lat="45.350376030353154" lon="9.201580547546849"><ele>96.19999999999999</ele><time>2026-03-29T10:32:08Z</time></trkpt><trkpt lat="45.35047433304101" lon="9.201581833488335"><ele>96.0</ele><time>2026-03-29T10:32:10Z</time></trkpt><trkpt lat="45.35057685542302" lon="9.201582561143692"><ele>96.33333333333333</ele><time>2026-03-29T10:32:12Z</time></trkpt><trkpt lat="45.35067407086365" lon="9.201575630521129"><ele>96.66666666666666</ele><time>2026-03-29T10:32:14Z</time></trkpt><trkpt lat="45.35076094816035" lon="9.2015711806932"><ele>97.0</ele><time>2026-03-29T10:32:16Z</time></trkpt><trkpt lat="45.35083119893152" lon="9.201579137389063"><ele>97.33333333333333</ele><time>2026-03-29T10:32:18Z</time></trkpt><trkpt lat="45.350916615299965" lon="9.201620969104825"><ele>97.66666666666666</ele><time>2026-03-29T10:32:21Z</time></trkpt><trkpt lat="45.350950936481325" lon="9.201743951554251"><ele>98.0</ele><time>2026-03-29T10:32:24Z</time></trkpt><trkpt lat="45.35099844550543" lon="9.201828169731726"><ele>98.0</ele><time>2026-03-29T10:32:26Z</time></trkpt><trkpt lat="45.35108208895971" lon="9.201778980321924"><ele>98.0</ele><time>2026-03-29T10:32:28Z</time></trkpt><trkpt lat="45.35114166014198" lon="9.20166462996821"><ele>98.0</ele><time>2026-03-29T10:32:30Z</time></trkpt><trkpt lat="45.351214116041604" lon="9.201563684632491"><ele>98.0</ele><time>2026-03-29T10:32:32Z</time></trkpt><trkpt lat="45.35132179109534" lon="9.201549116168712"><ele>98.0</ele><time>2026-03-29T10:32:34Z</time></trkpt><trkpt lat="45.35143739413742" lon="9.201585680711506"><ele>97.4</ele><time>2026-03-29T10:32:36Z</time></trkpt><trkpt lat="45.351550463085964" lon="9.201584513213696"><ele>96.80000000000001</ele><time>2026-03-29T10:32:38Z</time></trkpt><trkpt lat="45.35166026712482" lon="9.20158608070936"><ele>96.2</ele><time>2026-03-29T10:32:40Z</time></trkpt><trkpt lat="45.351767214005484" lon="9.201585030206203"><ele>95.6</ele><time>2026-03-29T10:32:42Z</time></trkpt><trkpt lat="45.351871749304856" lon="9.201585002937202"><ele>95.0</ele><time>2026-03-29T10:32:44Z</time></trkpt><trkpt lat="45.35197657551386" lon="9.201583162996029"><ele>95.0</ele><time>2026-03-29T10:32:46Z</time></trkpt><trkpt lat="45.352083812597684" lon="9.20157949164008"><ele>95.0</ele><time>2026-03-29T10:32:48Z</time></trkpt><trkpt lat="45.35219348120503" lon="9.201577675471372"><ele>95.0</ele><time>2026-03-29T10:32:50Z</time></trkpt><trkpt lat="45.35230321957033" lon="9.201573895759562"><ele>95.0</ele><time>2026-03-29T10:32:52Z</time></trkpt><trkpt lat="45.35241431018332" lon="9.201566989820108"><ele>95.0</ele><time>2026-03-29T10:32:54Z</time></trkpt><trkpt lat="45.352526983689216" lon="9.201562275831035"><ele>95.0</ele><time>2026-03-29T10:32:56Z</time></trkpt><trkpt lat="45.352636183098994" lon="9.201556053689131"><ele>95.0</ele><time>2026-03-29T10:32:58Z</time></trkpt><trkpt lat="45.352747449687016" lon="9.201539273385766"><ele>95.0</ele><time>2026-03-29T10:33:00Z</time></trkpt><trkpt lat="45.35285702854891" lon="9.201534797867163"><ele>95.0</ele><time>2026-03-29T10:33:02Z</time></trkpt><trkpt lat="45.352965377408125" lon="9.201540078071305"><ele>95.0</ele><time>2026-03-29T10:33:04Z</time></trkpt><trkpt lat="45.353082473509645" lon="9.201547131464249"><ele>95.0</ele><time>2026-03-29T10:33:06Z</time></trkpt><trkpt lat="45.35320405758459" lon="9.201551658023693"><ele>95.0</ele><time>2026-03-29T10:33:08Z</time></trkpt><trkpt lat="45.35331821290097" lon="9.201551517253451"><ele>95.0</ele><time>2026-03-29T10:33:10Z</time></trkpt><trkpt lat="45.3534317904288" lon="9.201552864336735"><ele>95.0</ele><time>2026-03-29T10:33:12Z</time></trkpt><trkpt lat="45.35354650365998" lon="9.201553093644193"><ele>95.0</ele><time>2026-03-29T10:33:14Z</time></trkpt><trkpt lat="45.353661871227345" lon="9.201544942738364"><ele>95.0</ele><time>2026-03-29T10:33:16Z</time></trkpt><trkpt lat="45.35377248105605" lon="9.201526961734617"><ele>95.0</ele><time>2026-03-29T10:33:18Z</time></trkpt><trkpt lat="45.35389358909408" lon="9.201515863589037"><ele>95.0</ele><time>2026-03-29T10:33:20Z</time></trkpt><trkpt lat="45.35400773882861" lon="9.201521329280284"><ele>95.0</ele><time>2026-03-29T10:33:22Z</time></trkpt><trkpt lat="45.35412304856593" lon="9.201549872923026"><ele>95.0</ele><time>2026-03-29T10:33:24Z</time></trkpt><trkpt lat="45.354241690676695" lon="9.201551196121207"><ele>95.0</ele><time>2026-03-29T10:33:26Z</time></trkpt><trkpt lat="45.35435579257449" lon="9.201552735810301"><ele>95.0</ele><time>2026-03-29T10:33:28Z</time></trkpt><trkpt lat="45.35446252651694" lon="9.201561082108096"><ele>95.0</ele><time>2026-03-29T10:33:30Z</time></trkpt><trkpt lat="45.354571510731326" lon="9.201560362390298"><ele>95.0</ele><time>2026-03-29T10:33:32Z</time></trkpt><trkpt lat="45.35467866809912" lon="9.201559976040691"><ele>95.0</ele><time>2026-03-29T10:33:34Z</time></trkpt><trkpt lat="45.35478363566788" lon="9.20156406550735"><ele>95.0</ele><time>2026-03-29T10:33:36Z</time></trkpt><trkpt lat="45.35489437984792" lon="9.201557908756826"><ele>95.0</ele><time>2026-03-29T10:33:38Z</time></trkpt><trkpt lat="45.35500092350828" lon="9.20156596537217"><ele>95.0</ele><time>2026-03-29T10:33:40Z</time></trkpt><trkpt lat="45.355116223944925" lon="9.201562570192575"><ele>95.0</ele><time>2026-03-29T10:33:42Z</time></trkpt><trkpt lat="45.35523271279344" lon="9.201571348900162"><ele>95.0</ele><time>2026-03-29T10:33:44Z</time></trkpt><trkpt lat="45.35534725933238" lon="9.201594187576186"><ele>95.0</ele><time>2026-03-29T10:33:46Z</time></trkpt><trkpt lat="45.35546580208559" lon="9.201595896417968"><ele>95.2</ele><time>2026-03-29T10:33:47.999Z</time></trkpt><trkpt lat="45.35558270206279" lon="9.201594726092472"><ele>95.4</ele><time>2026-03-29T10:33:49.999Z</time></trkpt><trkpt lat="45.355692648092784" lon="9.20159230609644"><ele>95.6</ele><time>2026-03-29T10:33:51.999Z</time></trkpt><trkpt lat="45.35580099468304" lon="9.201593743306278"><ele>95.8</ele><time>2026-03-29T10:33:53.999Z</time></trkpt><trkpt lat="45.355904119153415" lon="9.201590543438597"><ele>96.0</ele><time>2026-03-29T10:33:55.999Z</time></trkpt><trkpt lat="45.35600446963903" lon="9.201593483012925"><ele>96.0</ele><time>2026-03-29T10:33:57.999Z</time></trkpt><trkpt lat="45.356107241142794" lon="9.201590550227216"><ele>96.0</ele><time>2026-03-29T10:33:59.999Z</time></trkpt><trkpt lat="45.356217623037786" lon="9.201592573357487"><ele>96.0</ele><time>2026-03-29T10:34:01.999Z</time></trkpt><trkpt lat="45.35632775289211" lon="9.201600796995251"><ele>96.0</ele><time>2026-03-29T10:34:03.999Z</time></trkpt><trkpt lat="45.35643426184067" lon="9.201591635629846"><ele>96.0</ele><time>2026-03-29T10:34:05.999Z</time></trkpt><trkpt lat="45.35654320328293" lon="9.201573932260269"><ele>96.19999999999999</ele><time>2026-03-29T10:34:08Z</time></trkpt><trkpt lat="45.35664187639242" lon="9.201576074839302"><ele>96.39999999999999</ele><time>2026-03-29T10:34:10Z</time></trkpt><trkpt lat="45.35674158592365" lon="9.201572574606091"><ele>96.6</ele><time>2026-03-29T10:34:12Z</time></trkpt><trkpt lat="45.35685812384759" lon="9.201566983103664"><ele>96.8</ele><time>2026-03-29T10:34:14Z</time></trkpt><trkpt lat="45.356974959247296" lon="9.201547324789304"><ele>97.0</ele><time>2026-03-29T10:34:16Z</time></trkpt><trkpt lat="45.357094102416305" lon="9.201526404689469"><ele>97.0</ele><time>2026-03-29T10:34:18Z</time></trkpt><trkpt lat="45.357158957969766" lon="9.201512659289582"><ele>97.0</ele><time>2026-03-29T10:34:19Z</time></trkpt><trkpt lat="45.3572828295262" lon="9.201486727691263"><ele>97.0</ele><time>2026-03-29T10:34:21Z</time></trkpt><trkpt lat="45.35734657045993" lon="9.20148935996929"><ele>97.0</ele><time>2026-03-29T10:34:22Z</time></trkpt><trkpt lat="45.357464691095196" lon="9.201482801003676"><ele>97.0</ele><time>2026-03-29T10:34:24Z</time></trkpt><trkpt lat="45.35757740516924" lon="9.201482438970373"><ele>96.25</ele><time>2026-03-29T10:34:26Z</time></trkpt><trkpt lat="45.35769214608757" lon="9.201497397360829"><ele>95.5</ele><time>2026-03-29T10:34:28Z</time></trkpt><trkpt lat="45.35780557459734" lon="9.201538382710863"><ele>94.75</ele><time>2026-03-29T10:34:30Z</time></trkpt><trkpt lat="45.35792315130804" lon="9.201579117673035"><ele>94.0</ele><time>2026-03-29T10:34:32Z</time></trkpt><trkpt lat="45.358026759130105" lon="9.2016533595911"><ele>92.5</ele><time>2026-03-29T10:34:34Z</time></trkpt><trkpt lat="45.358135208532644" lon="9.201724546883764"><ele>91.0</ele><time>2026-03-29T10:34:36Z</time></trkpt><trkpt lat="45.35823097270772" lon="9.20182187582171"><ele>89.5</ele><time>2026-03-29T10:34:38Z</time></trkpt><trkpt lat="45.35834303913035" lon="9.201903681945113"><ele>88.0</ele><time>2026-03-29T10:34:40Z</time></trkpt><trkpt lat="45.358414952025896" lon="9.201982765625461"><ele>88.0</ele><time>2026-03-29T10:34:42Z</time></trkpt><trkpt lat="45.35849002318327" lon="9.20206660128993"><ele>88.0</ele><time>2026-03-29T10:34:44Z</time></trkpt><trkpt lat="45.35855887914101" lon="9.202142033500673"><ele>88.0</ele><time>2026-03-29T10:34:46Z</time></trkpt><trkpt lat="45.35860860879529" lon="9.202233841106068"><ele>88.0</ele><time>2026-03-29T10:34:48Z</time></trkpt><trkpt lat="45.35868453035983" lon="9.202332492543018"><ele>88.0</ele><time>2026-03-29T10:34:50Z</time></trkpt><trkpt lat="45.35874095461635" lon="9.202374692088934"><ele>88.0</ele><time>2026-03-29T10:34:51Z</time></trkpt><trkpt lat="45.35881702243183" lon="9.202461436408514"><ele>88.2</ele><time>2026-03-29T10:34:53Z</time></trkpt><trkpt lat="45.35889702561756" lon="9.202558295448805"><ele>88.4</ele><time>2026-03-29T10:34:55Z</time></trkpt><trkpt lat="45.35897554407667" lon="9.202626949532062"><ele>88.60000000000001</ele><time>2026-03-29T10:34:57Z</time></trkpt><trkpt lat="45.359057393976556" lon="9.202708934154"><ele>88.80000000000001</ele><time>2026-03-29T10:34:59Z</time></trkpt><trkpt lat="45.35913731271818" lon="9.202791836923698"><ele>89.0</ele><time>2026-03-29T10:35:01Z</time></trkpt><trkpt lat="45.359221664060776" lon="9.20287113274026"><ele>89.0</ele><time>2026-03-29T10:35:03Z</time></trkpt><trkpt lat="45.35930354830329" lon="9.20294400578992"><ele>89.0</ele><time>2026-03-29T10:35:05Z</time></trkpt><trkpt lat="45.35938466201345" lon="9.203006002727548"><ele>89.0</ele><time>2026-03-29T10:35:07Z</time></trkpt><trkpt lat="45.3594761997237" lon="9.203067501849505"><ele>89.0</ele><time>2026-03-29T10:35:09Z</time></trkpt><trkpt lat="45.35956086249679" lon="9.203153274176499"><ele>89.0</ele><time>2026-03-29T10:35:11Z</time></trkpt><trkpt lat="45.3596599807203" lon="9.203226768701656"><ele>89.2</ele><time>2026-03-29T10:35:13Z</time></trkpt><trkpt lat="45.35976172363195" lon="9.203336693447685"><ele>89.4</ele><time>2026-03-29T10:35:15Z</time></trkpt><trkpt lat="45.35981125593826" lon="9.203394157084803"><ele>89.6</ele><time>2026-03-29T10:35:16Z</time></trkpt><trkpt lat="45.359859549670624" lon="9.203453426277193"><ele>89.8</ele><time>2026-03-29T10:35:17Z</time></trkpt><trkpt lat="45.3599510817019" lon="9.203570919152742"><ele>90.0</ele><time>2026-03-29T10:35:19Z</time></trkpt><trkpt lat="45.36004105492545" lon="9.20367588825096"><ele>90.0</ele><time>2026-03-29T10:35:21Z</time></trkpt><trkpt lat="45.36011753821638" lon="9.203773631390035"><ele>90.0</ele><time>2026-03-29T10:35:23Z</time></trkpt><trkpt lat="45.36018510674822" lon="9.20385780107825"><ele>90.0</ele><time>2026-03-29T10:35:25Z</time></trkpt><trkpt lat="45.36025276514921" lon="9.203939659745757"><ele>90.0</ele><time>2026-03-29T10:35:27Z</time></trkpt><trkpt lat="45.36030393258252" lon="9.204036512206743"><ele>90.0</ele><time>2026-03-29T10:35:29Z</time></trkpt><trkpt lat="45.36037141122838" lon="9.204114918121233"><ele>90.0</ele><time>2026-03-29T10:35:31Z</time></trkpt><trkpt lat="45.36043467875821" lon="9.204193859843047"><ele>90.0</ele><time>2026-03-29T10:35:33Z</time></trkpt><trkpt lat="45.36052645095714" lon="9.204315209447817"><ele>90.0</ele><time>2026-03-29T10:35:36Z</time></trkpt><trkpt lat="45.3605780203534" lon="9.204422545976877"><ele>90.0</ele><time>2026-03-29T10:35:38Z</time></trkpt><trkpt lat="45.36063650786095" lon="9.204510230284194"><ele>90.0</ele><time>2026-03-29T10:35:40Z</time></trkpt><trkpt lat="45.36069032453694" lon="9.204617631938795"><ele>90.25</ele><time>2026-03-29T10:35:42Z</time></trkpt><trkpt lat="45.36075185975473" lon="9.204726250805951"><ele>90.5</ele><time>2026-03-29T10:35:44Z</time></trkpt><trkpt lat="45.360804444150226" lon="9.204866173252826"><ele>90.75</ele><time>2026-03-29T10:35:46Z</time></trkpt><trkpt lat="45.360855893542904" lon="9.205024764316146"><ele>91.0</ele><time>2026-03-29T10:35:48Z</time></trkpt><trkpt lat="45.36091211141959" lon="9.205182182588544"><ele>91.19999999999999</ele><time>2026-03-29T10:35:50Z</time></trkpt><trkpt lat="45.36096561087381" lon="9.20532294264993"><ele>91.39999999999999</ele><time>2026-03-29T10:35:52Z</time></trkpt><trkpt lat="45.36101432219014" lon="9.205455016002274"><ele>91.6</ele><time>2026-03-29T10:35:53.999Z</time></trkpt><trkpt lat="45.361072311389705" lon="9.20557308031826"><ele>91.8</ele><time>2026-03-29T10:35:55.999Z</time></trkpt><trkpt lat="45.361127865989765" lon="9.205686673793796"><ele>92.0</ele><time>2026-03-29T10:35:57.999Z</time></trkpt><trkpt lat="45.36120197793262" lon="9.20580524681888"><ele>92.39999999999999</ele><time>2026-03-29T10:35:59.999Z</time></trkpt><trkpt lat="45.361278172638904" lon="9.20590896483296"><ele>92.8</ele><time>2026-03-29T10:36:01.999Z</time></trkpt><trkpt lat="45.361360650595635" lon="9.206013759292384"><ele>93.2</ele><time>2026-03-29T10:36:03.999Z</time></trkpt><trkpt lat="45.36144733528196" lon="9.20610618907236"><ele>93.6</ele><time>2026-03-29T10:36:05.999Z</time></trkpt><trkpt lat="45.36153423636826" lon="9.2061959909042"><ele>94.0</ele><time>2026-03-29T10:36:07.999Z</time></trkpt><trkpt lat="45.36161496449086" lon="9.206273970004004"><ele>94.2</ele><time>2026-03-29T10:36:10Z</time></trkpt><trkpt lat="45.361697871136165" lon="9.206368004209846"><ele>94.4</ele><time>2026-03-29T10:36:12Z</time></trkpt><trkpt lat="45.3617830733491" lon="9.206455050683799"><ele>94.6</ele><time>2026-03-29T10:36:14Z</time></trkpt><trkpt lat="45.36185409354276" lon="9.206540606592823"><ele>94.8</ele><time>2026-03-29T10:36:16Z</time></trkpt><trkpt lat="45.3619258093826" lon="9.206639615536812"><ele>95.0</ele><time>2026-03-29T10:36:18Z</time></trkpt><trkpt lat="45.36200345190875" lon="9.206725906133086"><ele>95.0</ele><time>2026-03-29T10:36:20Z</time></trkpt><trkpt lat="45.362079916897045" lon="9.20680174822005"><ele>95.0</ele><time>2026-03-29T10:36:22Z</time></trkpt><trkpt lat="45.362161149395625" lon="9.206881771598285"><ele>95.0</ele><time>2026-03-29T10:36:24Z</time></trkpt><trkpt lat="45.362244732170005" lon="9.20695872138619"><ele>95.0</ele><time>2026-03-29T10:36:26Z</time></trkpt><trkpt lat="45.36232851085688" lon="9.207035025764464"><ele>95.0</ele><time>2026-03-29T10:36:28Z</time></trkpt><trkpt lat="45.36241918278095" lon="9.207114983864175"><ele>95.0</ele><time>2026-03-29T10:36:30Z</time></trkpt><trkpt lat="45.36251567763664" lon="9.207190541951762"><ele>95.0</ele><time>2026-03-29T10:36:32Z</time></trkpt><trkpt lat="45.36261435683025" lon="9.20726522763857"><ele>95.0</ele><time>2026-03-29T10:36:34Z</time></trkpt><trkpt lat="45.36271304989242" lon="9.207344965349595"><ele>95.0</ele><time>2026-03-29T10:36:36Z</time></trkpt><trkpt lat="45.36281205720382" lon="9.207405647790697"><ele>95.0</ele><time>2026-03-29T10:36:38Z</time></trkpt><trkpt lat="45.36291175498574" lon="9.207466490398508"><ele>95.4</ele><time>2026-03-29T10:36:40Z</time></trkpt><trkpt lat="45.36301173509484" lon="9.207527600635709"><ele>95.8</ele><time>2026-03-29T10:36:42Z</time></trkpt><trkpt lat="45.36311218597439" lon="9.207586730902749"><ele>96.19999999999999</ele><time>2026-03-29T10:36:44Z</time></trkpt><trkpt lat="45.36320934528525" lon="9.20764409709938"><ele>96.6</ele><time>2026-03-29T10:36:46Z</time></trkpt><trkpt lat="45.363306336841134" lon="9.207690525332719"><ele>97.0</ele><time>2026-03-29T10:36:48Z</time></trkpt><trkpt lat="45.363405643605056" lon="9.207705801379847"><ele>97.0</ele><time>2026-03-29T10:36:50Z</time></trkpt><trkpt lat="45.363507093165815" lon="9.207657903876024"><ele>97.0</ele><time>2026-03-29T10:36:52Z</time></trkpt><trkpt lat="45.36359429524143" lon="9.207556365068838"><ele>97.0</ele><time>2026-03-29T10:36:54Z</time></trkpt><trkpt lat="45.36366441041619" lon="9.20748355905213"><ele>97.0</ele><time>2026-03-29T10:36:56Z</time></trkpt><trkpt lat="45.36378578165653" lon="9.207480391211591"><ele>97.0</ele><time>2026-03-29T10:36:58Z</time></trkpt><trkpt lat="45.36386850666976" lon="9.207479810926491"><ele>97.0</ele><time>2026-03-29T10:36:59Z</time></trkpt><trkpt lat="45.363935443328344" lon="9.207590560350127"><ele>97.0</ele><time>2026-03-29T10:37:01Z</time></trkpt><trkpt lat="45.36400428336909" lon="9.207717673018365"><ele>97.0</ele><time>2026-03-29T10:37:03Z</time></trkpt><trkpt lat="45.364080066739746" lon="9.207825358352432"><ele>97.0</ele><time>2026-03-29T10:37:05Z</time></trkpt><trkpt lat="45.36415186073872" lon="9.207933641448882"><ele>97.0</ele><time>2026-03-29T10:37:07Z</time></trkpt><trkpt lat="45.36422008613503" lon="9.208036305086388"><ele>97.0</ele><time>2026-03-29T10:37:09Z</time></trkpt><trkpt lat="45.36430810261139" lon="9.208098560798232"><ele>97.0</ele><time>2026-03-29T10:37:11Z</time></trkpt><trkpt lat="45.36439804650712" lon="9.20815124735139"><ele>97.0</ele><time>2026-03-29T10:37:13Z</time></trkpt><trkpt lat="45.364513209111855" lon="9.208202946993422"><ele>97.0</ele><time>2026-03-29T10:37:15Z</time></trkpt><trkpt lat="45.36459984106672" lon="9.20826117792641"><ele>97.0</ele><time>2026-03-29T10:37:17Z</time></trkpt><trkpt lat="45.36469125865622" lon="9.20830442965026"><ele>97.33333333333334</ele><time>2026-03-29T10:37:19Z</time></trkpt><trkpt lat="45.36477545413261" lon="9.20833274528842"><ele>97.66666666666667</ele><time>2026-03-29T10:37:21Z</time></trkpt><trkpt lat="45.36486053076689" lon="9.208359383210007"><ele>98.0</ele><time>2026-03-29T10:37:23Z</time></trkpt><trkpt lat="45.364938079336575" lon="9.208383034336427"><ele>98.33333333333334</ele><time>2026-03-29T10:37:25Z</time></trkpt><trkpt lat="45.365015275757656" lon="9.208413466788745"><ele>98.66666666666667</ele><time>2026-03-29T10:37:27Z</time></trkpt><trkpt lat="45.365087813334924" lon="9.208438382333306"><ele>99.0</ele><time>2026-03-29T10:37:29Z</time></trkpt><trkpt lat="45.36515910892997" lon="9.208464527774845"><ele>99.0</ele><time>2026-03-29T10:37:31Z</time></trkpt><trkpt lat="45.365224955267834" lon="9.208489332071995"><ele>99.0</ele><time>2026-03-29T10:37:33Z</time></trkpt><trkpt lat="45.36528942991933" lon="9.20851953627945"><ele>99.0</ele><time>2026-03-29T10:37:35Z</time></trkpt><trkpt lat="45.3653670514676" lon="9.20855508812276"><ele>99.0</ele><time>2026-03-29T10:37:37Z</time></trkpt><trkpt lat="45.365441099089054" lon="9.208599274384001"><ele>99.0</ele><time>2026-03-29T10:37:39Z</time></trkpt><trkpt lat="45.365513018558005" lon="9.208635985702523"><ele>99.0</ele><time>2026-03-29T10:37:41Z</time></trkpt><trkpt lat="45.36558594549648" lon="9.20866657440918"><ele>98.83333333333333</ele><time>2026-03-29T10:37:43Z</time></trkpt><trkpt lat="45.36566093739261" lon="9.208712531634772"><ele>98.66666666666666</ele><time>2026-03-29T10:37:45Z</time></trkpt><trkpt lat="45.36574513100762" lon="9.208729482403333"><ele>98.5</ele><time>2026-03-29T10:37:47Z</time></trkpt><trkpt lat="45.36583444193318" lon="9.20873676424322"><ele>98.33333333333333</ele><time>2026-03-29T10:37:49Z</time></trkpt><trkpt lat="45.36592772298615" lon="9.20873552092198"><ele>98.16666666666666</ele><time>2026-03-29T10:37:51Z</time></trkpt><trkpt lat="45.36600564081976" lon="9.208741059178367"><ele>98.0</ele><time>2026-03-29T10:37:53Z</time></trkpt><trkpt lat="45.366088792449546" lon="9.20876110237365"><ele>98.0</ele><time>2026-03-29T10:37:55Z</time></trkpt><trkpt lat="45.366177598091305" lon="9.208795575469532"><ele>98.0</ele><time>2026-03-29T10:37:57Z</time></trkpt><trkpt lat="45.366275880521876" lon="9.208827423544903"><ele>98.0</ele><time>2026-03-29T10:37:59Z</time></trkpt><trkpt lat="45.36637802025467" lon="9.208860437327557"><ele>98.0</ele><time>2026-03-29T10:38:01Z</time></trkpt><trkpt lat="45.366475570941134" lon="9.208894254981217"><ele>98.0</ele><time>2026-03-29T10:38:03Z</time></trkpt><trkpt lat="45.36657230132715" lon="9.20892728957655"><ele>97.80000000000001</ele><time>2026-03-29T10:38:05Z</time></trkpt><trkpt lat="45.366663209937315" lon="9.208963610139284"><ele>97.6</ele><time>2026-03-29T10:38:07Z</time></trkpt><trkpt lat="45.366759134796936" lon="9.208993801365496"><ele>97.4</ele><time>2026-03-29T10:38:09Z</time></trkpt><trkpt lat="45.366860759204116" lon="9.208994774912394"><ele>97.19999999999999</ele><time>2026-03-29T10:38:11Z</time></trkpt><trkpt lat="45.36695747978351" lon="9.20896857506377"><ele>97.0</ele><time>2026-03-29T10:38:13Z</time></trkpt><trkpt lat="45.36704896240616" lon="9.208955998007607"><ele>97.00000000000001</ele><time>2026-03-29T10:38:15Z</time></trkpt><trkpt lat="45.367136704940705" lon="9.208922202300439"><ele>97.0</ele><time>2026-03-29T10:38:17Z</time></trkpt><trkpt lat="45.36717086903948" lon="9.208835569348617"><ele>97.0</ele><time>2026-03-29T10:38:19Z</time></trkpt><trkpt lat="45.367249119653295" lon="9.208805179744722"><ele>97.0</ele><time>2026-03-29T10:38:21Z</time></trkpt><trkpt lat="45.367328943584184" lon="9.208849142334767"><ele>97.00000000000001</ele><time>2026-03-29T10:38:23Z</time></trkpt><trkpt lat="45.36737438916581" lon="9.208966873096134"><ele>97.0</ele><time>2026-03-29T10:38:25Z</time></trkpt><trkpt lat="45.36744597350642" lon="9.209056850925815"><ele>97.39999999999999</ele><time>2026-03-29T10:38:27Z</time></trkpt><trkpt lat="45.367482699369404" lon="9.209189083065521"><ele>97.8</ele><time>2026-03-29T10:38:29Z</time></trkpt><trkpt lat="45.36753201834183" lon="9.2093179607157"><ele>98.2</ele><time>2026-03-29T10:38:31Z</time></trkpt><trkpt lat="45.36763677841062" lon="9.209411866047116"><ele>98.6</ele><time>2026-03-29T10:38:33Z</time></trkpt><trkpt lat="45.367697331880855" lon="9.209441192328203"><ele>99.0</ele><time>2026-03-29T10:38:34Z</time></trkpt><trkpt lat="45.36781898176464" lon="9.209473224484798"><ele>99.0</ele><time>2026-03-29T10:38:36Z</time></trkpt><trkpt lat="45.367940897906145" lon="9.209477643496822"><ele>99.0</ele><time>2026-03-29T10:38:38Z</time></trkpt><trkpt lat="45.368053524432675" lon="9.209476724847212"><ele>99.0</ele><time>2026-03-29T10:38:40Z</time></trkpt><trkpt lat="45.36816109638516" lon="9.209471857279098"><ele>99.0</ele><time>2026-03-29T10:38:42Z</time></trkpt><trkpt lat="45.36824898361452" lon="9.209431170053488"><ele>99.0</ele><time>2026-03-29T10:38:44Z</time></trkpt><trkpt lat="45.36831693606877" lon="9.209507207077838"><ele>99.4</ele><time>2026-03-29T10:38:46Z</time></trkpt><trkpt lat="45.368405504504196" lon="9.209562938790036"><ele>99.80000000000001</ele><time>2026-03-29T10:38:48Z</time></trkpt><trkpt lat="45.36846871779728" lon="9.20956905240264"><ele>100.19999999999999</ele><time>2026-03-29T10:38:49Z</time></trkpt><trkpt lat="45.36856634627868" lon="9.209619520604495"><ele>100.6</ele><time>2026-03-29T10:38:51Z</time></trkpt><trkpt lat="45.368668726165325" lon="9.20965133017748"><ele>101.0</ele><time>2026-03-29T10:38:53Z</time></trkpt><trkpt lat="45.368763418043734" lon="9.2096830277934"><ele>100.8</ele><time>2026-03-29T10:38:55Z</time></trkpt><trkpt lat="45.36886302580974" lon="9.209718598565884"><ele>100.6</ele><time>2026-03-29T10:38:57Z</time></trkpt><trkpt lat="45.36895638463569" lon="9.209755548634234"><ele>100.4</ele><time>2026-03-29T10:38:59Z</time></trkpt><trkpt lat="45.369048150080964" lon="9.209787977218918"><ele>100.2</ele><time>2026-03-29T10:39:01Z</time></trkpt><trkpt lat="45.36913493541437" lon="9.209819908940563"><ele>100.0</ele><time>2026-03-29T10:39:03Z</time></trkpt><trkpt lat="45.36921920016322" lon="9.209848912808617"><ele>100.00000000000001</ele><time>2026-03-29T10:39:05Z</time></trkpt><trkpt lat="45.36929548059327" lon="9.209881501643478"><ele>100.0</ele><time>2026-03-29T10:39:07Z</time></trkpt><trkpt lat="45.36936540071935" lon="9.209906823380475"><ele>100.0</ele><time>2026-03-29T10:39:09Z</time></trkpt><trkpt lat="45.36943178211833" lon="9.209928028363112"><ele>100.0</ele><time>2026-03-29T10:39:11Z</time></trkpt><trkpt lat="45.36952897157587" lon="9.209956996701306"><ele>100.00000000000001</ele><time>2026-03-29T10:39:14Z</time></trkpt><trkpt lat="45.36960864787292" lon="9.209958740952276"><ele>100.0</ele><time>2026-03-29T10:39:16Z</time></trkpt><trkpt lat="45.36969306315091" lon="9.209935993220737"><ele>100.00000000000001</ele><time>2026-03-29T10:39:18Z</time></trkpt><trkpt lat="45.36977742843912" lon="9.209903191876023"><ele>100.0</ele><time>2026-03-29T10:39:20Z</time></trkpt><trkpt lat="45.36985459579856" lon="9.209871978090002"><ele>100.0</ele><time>2026-03-29T10:39:22Z</time></trkpt><trkpt lat="45.369917485448156" lon="9.209855585367146"><ele>100.0</ele><time>2026-03-29T10:39:24Z</time></trkpt><trkpt lat="45.36997931378571" lon="9.209930157880988"><ele>100.00000000000001</ele><time>2026-03-29T10:39:27Z</time></trkpt><trkpt lat="45.37001526499554" lon="9.210022893715156"><ele>100.0</ele><time>2026-03-29T10:39:29Z</time></trkpt><trkpt lat="45.370088432412366" lon="9.210115339573019"><ele>100.00000000000001</ele><time>2026-03-29T10:39:31Z</time></trkpt><trkpt lat="45.37015289859723" lon="9.21020046120028"><ele>100.0</ele><time>2026-03-29T10:39:33Z</time></trkpt><trkpt lat="45.37021030644139" lon="9.21024476218294"><ele>100.0</ele><time>2026-03-29T10:39:35Z</time></trkpt><trkpt lat="45.37025644021926" lon="9.210330126547406"><ele>100.0</ele><time>2026-03-29T10:39:37Z</time></trkpt><trkpt lat="45.37025753352164" lon="9.210455809455887"><ele>100.00000000000001</ele><time>2026-03-29T10:39:41Z</time></trkpt><trkpt lat="45.370187663081154" lon="9.210525178664309"><ele>100.0</ele><time>2026-03-29T10:39:43.001Z</time></trkpt><trkpt lat="45.37009170062757" lon="9.210586632947196"><ele>99.4</ele><time>2026-03-29T10:39:45.001Z</time></trkpt><trkpt lat="45.37002528103318" lon="9.210702931017519"><ele>98.8</ele><time>2026-03-29T10:39:47.001Z</time></trkpt><trkpt lat="45.36995823183406" lon="9.210820227033611"><ele>98.19999999999999</ele><time>2026-03-29T10:39:49.001Z</time></trkpt><trkpt lat="45.36990823210997" lon="9.210943829865705"><ele>97.6</ele><time>2026-03-29T10:39:51.001Z</time></trkpt><trkpt lat="45.36985856286475" lon="9.21107583035356"><ele>97.0</ele><time>2026-03-29T10:39:53.001Z</time></trkpt><trkpt lat="45.36985161783491" lon="9.211239838894961"><ele>97.0</ele><time>2026-03-29T10:39:55.001Z</time></trkpt><trkpt lat="45.369815441767166" lon="9.211383895234105"><ele>97.0</ele><time>2026-03-29T10:39:57.001Z</time></trkpt><trkpt lat="45.36973776564748" lon="9.211501176998592"><ele>97.0</ele><time>2026-03-29T10:39:59.001Z</time></trkpt><trkpt lat="45.36967509920857" lon="9.211618451923023"><ele>97.0</ele><time>2026-03-29T10:40:01.001Z</time></trkpt><trkpt lat="45.369621592120474" lon="9.211738077499117"><ele>97.0</ele><time>2026-03-29T10:40:03.001Z</time></trkpt><trkpt lat="45.36957622654122" lon="9.211867040469379"><ele>97.19999999999999</ele><time>2026-03-29T10:40:05.001Z</time></trkpt><trkpt lat="45.36952701142" lon="9.211991676202192"><ele>97.4</ele><time>2026-03-29T10:40:07.001Z</time></trkpt><trkpt lat="45.36948226154763" lon="9.212123237137146"><ele>97.6</ele><time>2026-03-29T10:40:09.001Z</time></trkpt><trkpt lat="45.36945254594831" lon="9.212262755689835"><ele>97.80000000000001</ele><time>2026-03-29T10:40:11.001Z</time></trkpt><trkpt lat="45.36943329649431" lon="9.212390371861936"><ele>98.0</ele><time>2026-03-29T10:40:13.001Z</time></trkpt><trkpt lat="45.36943289456821" lon="9.212504725735382"><ele>97.66666666666666</ele><time>2026-03-29T10:40:16.001Z</time></trkpt><trkpt lat="45.36946207097333" lon="9.212584882674374"><ele>97.33333333333333</ele><time>2026-03-29T10:40:22.001Z</time></trkpt><trkpt lat="45.369497192710725" lon="9.212667125398227"><ele>97.0</ele><time>2026-03-29T10:40:25.001Z</time></trkpt><trkpt lat="45.36946100896362" lon="9.212771543729511"><ele>96.66666666666666</ele><time>2026-03-29T10:40:28.001Z</time></trkpt><trkpt lat="45.36944369846146" lon="9.212888112003217"><ele>96.33333333333333</ele><time>2026-03-29T10:40:30.001Z</time></trkpt><trkpt lat="45.369439178324306" lon="9.213036168898006"><ele>96.0</ele><time>2026-03-29T10:40:32.001Z</time></trkpt><trkpt lat="45.36944441159943" lon="9.213196816253607"><ele>95.6</ele><time>2026-03-29T10:40:34.001Z</time></trkpt><trkpt lat="45.36945467512085" lon="9.213345393779816"><ele>95.19999999999999</ele><time>2026-03-29T10:40:36.001Z</time></trkpt><trkpt lat="45.36947446470522" lon="9.213488100919456"><ele>94.80000000000001</ele><time>2026-03-29T10:40:38.001Z</time></trkpt><trkpt lat="45.36949922187017" lon="9.213622069122025"><ele>94.4</ele><time>2026-03-29T10:40:40.001Z</time></trkpt><trkpt lat="45.36952271658186" lon="9.213733848741622"><ele>94.0</ele><time>2026-03-29T10:40:42.001Z</time></trkpt><trkpt lat="45.36955733617717" lon="9.213857992141113"><ele>94.0</ele><time>2026-03-29T10:40:44.001Z</time></trkpt><trkpt lat="45.369594096547026" lon="9.213959885517333"><ele>94.0</ele><time>2026-03-29T10:40:46.001Z</time></trkpt><trkpt lat="45.36965787499254" lon="9.214024369596734"><ele>94.0</ele><time>2026-03-29T10:40:48.001Z</time></trkpt><trkpt lat="45.36969566368192" lon="9.214109676144789"><ele>94.0</ele><time>2026-03-29T10:40:50.001Z</time></trkpt><trkpt lat="45.36969826263189" lon="9.214236411070775"><ele>94.0</ele><time>2026-03-29T10:40:52.001Z</time></trkpt><trkpt lat="45.369725433563616" lon="9.21434533901985"><ele>94.0</ele><time>2026-03-29T10:40:54.001Z</time></trkpt><trkpt lat="45.36975054385048" lon="9.21444248160253"><ele>95.0</ele><time>2026-03-29T10:40:56.001Z</time></trkpt><trkpt lat="45.36982116309146" lon="9.214467190244674"><ele>96.0</ele><time>2026-03-29T10:40:59.001Z</time></trkpt><trkpt lat="45.3698686950408" lon="9.214363135213594"><ele>97.0</ele><time>2026-03-29T10:41:01.001Z</time></trkpt><trkpt lat="45.36995446817032" lon="9.214280961622805"><ele>98.0</ele><time>2026-03-29T10:41:03.001Z</time></trkpt><trkpt lat="45.37003336824774" lon="9.214195808526853"><ele>99.0</ele><time>2026-03-29T10:41:05.001Z</time></trkpt><trkpt lat="45.370118518790264" lon="9.214114302369843"><ele>99.0</ele><time>2026-03-29T10:41:07.001Z</time></trkpt><trkpt lat="45.3702004755942" lon="9.214052177729748"><ele>99.0</ele><time>2026-03-29T10:41:09.001Z</time></trkpt><trkpt lat="45.37028350106285" lon="9.214001299143899"><ele>99.0</ele><time>2026-03-29T10:41:11.001Z</time></trkpt><trkpt lat="45.370361957849354" lon="9.213972047479"><ele>99.0</ele><time>2026-03-29T10:41:13.001Z</time></trkpt><trkpt lat="45.37044135853331" lon="9.213910873727173"><ele>99.0</ele><time>2026-03-29T10:41:15.001Z</time></trkpt><trkpt lat="45.370527531389705" lon="9.213854292586673"><ele>99.4</ele><time>2026-03-29T10:41:17.001Z</time></trkpt><trkpt lat="45.37061512696174" lon="9.21379916697668"><ele>99.80000000000001</ele><time>2026-03-29T10:41:19.001Z</time></trkpt><trkpt lat="45.370702910649214" lon="9.213778808275027"><ele>100.19999999999999</ele><time>2026-03-29T10:41:21.001Z</time></trkpt><trkpt lat="45.37078937916914" lon="9.213748300823845"><ele>100.6</ele><time>2026-03-29T10:41:23.001Z</time></trkpt><trkpt lat="45.370870400544916" lon="9.21368435734922"><ele>101.0</ele><time>2026-03-29T10:41:25.001Z</time></trkpt><trkpt lat="45.370973551846085" lon="9.213676708328505"><ele>101.0</ele><time>2026-03-29T10:41:27.001Z</time></trkpt><trkpt lat="45.371069267085474" lon="9.213656356437761"><ele>101.0</ele><time>2026-03-29T10:41:29.001Z</time></trkpt><trkpt lat="45.37116623309405" lon="9.213634602153236"><ele>101.0</ele><time>2026-03-29T10:41:31.001Z</time></trkpt><trkpt lat="45.37126546681852" lon="9.213608378038609"><ele>101.0</ele><time>2026-03-29T10:41:33.001Z</time></trkpt><trkpt lat="45.37135954286587" lon="9.213582159047531"><ele>101.0</ele><time>2026-03-29T10:41:35.001Z</time></trkpt><trkpt lat="45.37145218055306" lon="9.21356423178201"><ele>100.99999999999999</ele><time>2026-03-29T10:41:37.001Z</time></trkpt><trkpt lat="45.37153741847649" lon="9.213541957755892"><ele>101.0</ele><time>2026-03-29T10:41:39.001Z</time></trkpt><trkpt lat="45.37161851317774" lon="9.213527010238929"><ele>101.0</ele><time>2026-03-29T10:41:41.001Z</time></trkpt><trkpt lat="45.371696826136144" lon="9.213541728650453"><ele>101.0</ele><time>2026-03-29T10:41:43.001Z</time></trkpt><trkpt lat="45.37177238076937" lon="9.213580522531315"><ele>100.99999999999999</ele><time>2026-03-29T10:41:45.001Z</time></trkpt><trkpt lat="45.37185815237575" lon="9.213596590384343"><ele>101.0</ele><time>2026-03-29T10:41:47.001Z</time></trkpt><trkpt lat="45.371961525214815" lon="9.213571194352715"><ele>100.99999999999999</ele><time>2026-03-29T10:41:49.001Z</time></trkpt><trkpt lat="45.37203763159077" lon="9.213491890509792"><ele>101.0</ele><time>2026-03-29T10:41:52.001Z</time></trkpt><trkpt lat="45.37208243689693" lon="9.213420839039046"><ele>101.0</ele><time>2026-03-29T10:41:54.001Z</time></trkpt><trkpt lat="45.372127555566905" lon="9.213346587183336"><ele>101.0</ele><time>2026-03-29T10:41:56.001Z</time></trkpt><trkpt lat="45.37222568425329" lon="9.213333122538916"><ele>100.99999999999999</ele><time>2026-03-29T10:41:58.001Z</time></trkpt><trkpt lat="45.37231083592679" lon="9.213289996204692"><ele>101.0</ele><time>2026-03-29T10:42:00.001Z</time></trkpt><trkpt lat="45.37239288954653" lon="9.213242499758845"><ele>100.83333333333333</ele><time>2026-03-29T10:42:02.001Z</time></trkpt><trkpt lat="45.37247011407626" lon="9.213182379139317"><ele>100.66666666666666</ele><time>2026-03-29T10:42:04.001Z</time></trkpt><trkpt lat="45.37254636870179" lon="9.213132086297916"><ele>100.5</ele><time>2026-03-29T10:42:06.001Z</time></trkpt><trkpt lat="45.37261966778089" lon="9.213090386790322"><ele>100.33333333333334</ele><time>2026-03-29T10:42:08.001Z</time></trkpt><trkpt lat="45.37268954087642" lon="9.213039110646328"><ele>100.16666666666667</ele><time>2026-03-29T10:42:10.001Z</time></trkpt><trkpt lat="45.37275199235114" lon="9.212997911131602"><ele>100.0</ele><time>2026-03-29T10:42:12.001Z</time></trkpt><trkpt lat="45.37280454994075" lon="9.213123976433664"><ele>100.00000000000001</ele><time>2026-03-29T10:42:15.001Z</time></trkpt><trkpt lat="45.37281011495988" lon="9.213256504400015"><ele>100.0</ele><time>2026-03-29T10:42:17.001Z</time></trkpt><trkpt lat="45.37283229310567" lon="9.213365176163759"><ele>100.0</ele><time>2026-03-29T10:42:19.001Z</time></trkpt><trkpt lat="45.37281858983222" lon="9.213470215211085"><ele>100.0</ele><time>2026-03-29T10:42:21.001Z</time></trkpt><trkpt lat="45.37286402350053" lon="9.213535568578596"><ele>100.00000000000001</ele><time>2026-03-29T10:42:24.001Z</time></trkpt><trkpt lat="45.372916560088825" lon="9.21361569056119"><ele>100.0</ele><time>2026-03-29T10:42:29.001Z</time></trkpt><trkpt lat="45.37294798449306" lon="9.213701931787107"><ele>100.4</ele><time>2026-03-29T10:42:31.001Z</time></trkpt><trkpt lat="45.37305070743358" lon="9.213701110726825"><ele>100.8</ele><time>2026-03-29T10:42:33.001Z</time></trkpt><trkpt lat="45.373163241357084" lon="9.213661250233468"><ele>101.19999999999999</ele><time>2026-03-29T10:42:35.001Z</time></trkpt><trkpt lat="45.37327798454904" lon="9.213656692135185"><ele>101.6</ele><time>2026-03-29T10:42:37.001Z</time></trkpt><trkpt lat="45.37338931630656" lon="9.21363387696386"><ele>102.0</ele><time>2026-03-29T10:42:39.001Z</time></trkpt><trkpt lat="45.373501018725285" lon="9.213614361877626"><ele>102.0</ele><time>2026-03-29T10:42:41.001Z</time></trkpt><trkpt lat="45.37361401021289" lon="9.213590209376964"><ele>102.0</ele><time>2026-03-29T10:42:43.001Z</time></trkpt><trkpt lat="45.373728011598466" lon="9.213535515086233"><ele>102.0</ele><time>2026-03-29T10:42:45.001Z</time></trkpt><trkpt lat="45.37382919069489" lon="9.213508492766257"><ele>102.0</ele><time>2026-03-29T10:42:47.001Z</time></trkpt><trkpt lat="45.3739316742756" lon="9.213446739544908"><ele>102.0</ele><time>2026-03-29T10:42:49.001Z</time></trkpt><trkpt lat="45.374029307439486" lon="9.213422950233898"><ele>101.6</ele><time>2026-03-29T10:42:51.001Z</time></trkpt><trkpt lat="45.37411425351594" lon="9.213407412912801"><ele>101.19999999999999</ele><time>2026-03-29T10:42:53.001Z</time></trkpt><trkpt lat="45.374184911634394" lon="9.213483286760463"><ele>100.8</ele><time>2026-03-29T10:42:55.001Z</time></trkpt><trkpt lat="45.37421408062431" lon="9.213614039784462"><ele>100.4</ele><time>2026-03-29T10:42:57.001Z</time></trkpt><trkpt lat="45.374243920820625" lon="9.213746110384713"><ele>100.0</ele><time>2026-03-29T10:42:59.001Z</time></trkpt><trkpt lat="45.37428151571588" lon="9.213873270065681"><ele>99.83333333333334</ele><time>2026-03-29T10:43:01.001Z</time></trkpt><trkpt lat="45.374306997006435" lon="9.214006325171674"><ele>99.66666666666667</ele><time>2026-03-29T10:43:03.001Z</time></trkpt><trkpt lat="45.37433925706636" lon="9.214128153523212"><ele>99.5</ele><time>2026-03-29T10:43:05.001Z</time></trkpt><trkpt lat="45.37436555588758" lon="9.21425213369265"><ele>99.33333333333334</ele><time>2026-03-29T10:43:07.001Z</time></trkpt><trkpt lat="45.37439612959805" lon="9.214354360280398"><ele>99.16666666666667</ele><time>2026-03-29T10:43:09.001Z</time></trkpt><trkpt lat="45.37445856131817" lon="9.214397241204948"><ele>99.0</ele><time>2026-03-29T10:43:11.001Z</time></trkpt><trkpt lat="45.37453096862932" lon="9.214362440073643"><ele>99.0</ele><time>2026-03-29T10:43:13.001Z</time></trkpt><trkpt lat="45.37460534877414" lon="9.214340119918818"><ele>99.0</ele><time>2026-03-29T10:43:15.001Z</time></trkpt><trkpt lat="45.374669400247065" lon="9.214318493794027"><ele>99.0</ele><time>2026-03-29T10:43:17.001Z</time></trkpt><trkpt lat="45.374765088611134" lon="9.21429429915734"><ele>99.0</ele><time>2026-03-29T10:43:19.001Z</time></trkpt><trkpt lat="45.37485256885186" lon="9.214272236866892"><ele>99.0</ele><time>2026-03-29T10:43:21.001Z</time></trkpt><trkpt lat="45.37493236201703" lon="9.214242875720355"><ele>99.0</ele><time>2026-03-29T10:43:23.001Z</time></trkpt><trkpt lat="45.3749991283315" lon="9.21428848957515"><ele>99.14285714285715</ele><time>2026-03-29T10:43:25.001Z</time></trkpt><trkpt lat="45.37505284584156" lon="9.214355106988801"><ele>99.28571428571428</ele><time>2026-03-29T10:43:27.001Z</time></trkpt><trkpt lat="45.37512088362563" lon="9.214402065744665"><ele>99.42857142857143</ele><time>2026-03-29T10:43:29.001Z</time></trkpt><trkpt lat="45.37517496218784" lon="9.21445285241776"><ele>99.57142857142858</ele><time>2026-03-29T10:43:31.001Z</time></trkpt><trkpt lat="45.375177912126965" lon="9.214566319597807"><ele>99.71428571428572</ele><time>2026-03-29T10:43:35.001Z</time></trkpt><trkpt lat="45.37521556800244" lon="9.21465811180394"><ele>99.85714285714286</ele><time>2026-03-29T10:43:37.001Z</time></trkpt><trkpt lat="45.37526158025743" lon="9.214756614982061"><ele>100.0</ele><time>2026-03-29T10:43:39.001Z</time></trkpt><trkpt lat="45.37533678364378" lon="9.214812329350305"><ele>100.16666666666667</ele><time>2026-03-29T10:43:41.001Z</time></trkpt><trkpt lat="45.375402300831276" lon="9.214881281767466"><ele>100.33333333333334</ele><time>2026-03-29T10:43:43.001Z</time></trkpt><trkpt lat="45.375438000044966" lon="9.214995506226773"><ele>100.5</ele><time>2026-03-29T10:43:45.001Z</time></trkpt><trkpt lat="45.3754588614877" lon="9.215116589616597"><ele>100.66666666666666</ele><time>2026-03-29T10:43:47.001Z</time></trkpt><trkpt lat="45.375479672827694" lon="9.21524458157785"><ele>100.83333333333333</ele><time>2026-03-29T10:43:49.001Z</time></trkpt><trkpt lat="45.37550239281746" lon="9.215374283083317"><ele>101.0</ele><time>2026-03-29T10:43:51.001Z</time></trkpt><trkpt lat="45.37553252526909" lon="9.215482219541144"><ele>101.0</ele><time>2026-03-29T10:43:53.001Z</time></trkpt><trkpt lat="45.37555801341904" lon="9.215568331425297"><ele>101.0</ele><time>2026-03-29T10:43:54.001Z</time></trkpt><trkpt lat="45.375578196374015" lon="9.21571747793448"><ele>101.0</ele><time>2026-03-29T10:43:56.001Z</time></trkpt><trkpt lat="45.375603659851826" lon="9.21586830100442"><ele>101.0</ele><time>2026-03-29T10:43:58.001Z</time></trkpt><trkpt lat="45.37562372076304" lon="9.216017250994058"><ele>101.0</ele><time>2026-03-29T10:44:00.001Z</time></trkpt><trkpt lat="45.37565047439431" lon="9.216161289378991"><ele>100.8</ele><time>2026-03-29T10:44:02.001Z</time></trkpt><trkpt lat="45.37567758632678" lon="9.216304858385758"><ele>100.6</ele><time>2026-03-29T10:44:04.001Z</time></trkpt><trkpt lat="45.375694350350166" lon="9.216449776867378"><ele>100.4</ele><time>2026-03-29T10:44:06.001Z</time></trkpt><trkpt lat="45.375711840699154" lon="9.21657188876045"><ele>100.2</ele><time>2026-03-29T10:44:08.001Z</time></trkpt><trkpt lat="45.37573464625075" lon="9.216699570275763"><ele>100.0</ele><time>2026-03-29T10:44:11.001Z</time></trkpt><trkpt lat="45.37582201258372" lon="9.21673211527582"><ele>100.6</ele><time>2026-03-29T10:44:13.001Z</time></trkpt><trkpt lat="45.37592534424547" lon="9.216685868785486"><ele>101.2</ele><time>2026-03-29T10:44:15.001Z</time></trkpt><trkpt lat="45.37602367959201" lon="9.216660643941815"><ele>101.80000000000001</ele><time>2026-03-29T10:44:17.001Z</time></trkpt><trkpt lat="45.37612065297464" lon="9.216634832502313"><ele>102.4</ele><time>2026-03-29T10:44:19.001Z</time></trkpt><trkpt lat="45.37621597773973" lon="9.216615258858983"><ele>103.0</ele><time>2026-03-29T10:44:21.001Z</time></trkpt><trkpt lat="45.37626094252255" lon="9.216773639349771"><ele>103.0</ele><time>2026-03-29T10:44:23.001Z</time></trkpt><trkpt lat="45.376265677402934" lon="9.216930505741876"><ele>103.0</ele><time>2026-03-29T10:44:25.001Z</time></trkpt><trkpt lat="45.376287275863554" lon="9.217082393844203"><ele>103.0</ele><time>2026-03-29T10:44:27.001Z</time></trkpt><trkpt lat="45.37630417272553" lon="9.217241157323631"><ele>103.0</ele><time>2026-03-29T10:44:29.001Z</time></trkpt><trkpt lat="45.37632688356732" lon="9.217392080123245"><ele>103.0</ele><time>2026-03-29T10:44:31.001Z</time></trkpt><trkpt lat="45.376438305641216" lon="9.217451354305595"><ele>103.0</ele><time>2026-03-29T10:44:33.001Z</time></trkpt><trkpt lat="45.37655353704382" lon="9.21739352173467"><ele>103.0</ele><time>2026-03-29T10:44:35.001Z</time></trkpt><trkpt lat="45.37666591237156" lon="9.2173672889873"><ele>103.0</ele><time>2026-03-29T10:44:37.001Z</time></trkpt><trkpt lat="45.37678306621782" lon="9.217333445116294"><ele>103.0</ele><time>2026-03-29T10:44:39.001Z</time></trkpt><trkpt lat="45.37690638578672" lon="9.217302374613412"><ele>103.0</ele><time>2026-03-29T10:44:41.001Z</time></trkpt><trkpt lat="45.37697048227568" lon="9.217284932837257"><ele>103.0</ele><time>2026-03-29T10:44:42.001Z</time></trkpt><trkpt lat="45.37709159404471" lon="9.217247299163224"><ele>103.0</ele><time>2026-03-29T10:44:44.001Z</time></trkpt><trkpt lat="45.37721033836883" lon="9.217216738970512"><ele>103.0</ele><time>2026-03-29T10:44:46.001Z</time></trkpt><trkpt lat="45.377329125445286" lon="9.217180681944377"><ele>103.0</ele><time>2026-03-29T10:44:48.001Z</time></trkpt><trkpt lat="45.3774487211046" lon="9.217155648427578"><ele>102.5</ele><time>2026-03-29T10:44:50.001Z</time></trkpt><trkpt lat="45.37756887101143" lon="9.217125543158877"><ele>102.0</ele><time>2026-03-29T10:44:52.001Z</time></trkpt><trkpt lat="45.37768338992213" lon="9.21708710510841"><ele>101.5</ele><time>2026-03-29T10:44:54.001Z</time></trkpt><trkpt lat="45.37785716187672" lon="9.217033765432223"><ele>101.0</ele><time>2026-03-29T10:44:57.001Z</time></trkpt><trkpt lat="45.37796931893506" lon="9.217006298703826"><ele>101.25</ele><time>2026-03-29T10:44:59.001Z</time></trkpt><trkpt lat="45.378083733179906" lon="9.216971547008008"><ele>101.5</ele><time>2026-03-29T10:45:01.001Z</time></trkpt><trkpt lat="45.37819748156852" lon="9.216935523917076"><ele>101.75</ele><time>2026-03-29T10:45:03.001Z</time></trkpt><trkpt lat="45.37830832150695" lon="9.216910353886071"><ele>102.0</ele><time>2026-03-29T10:45:05.001Z</time></trkpt><trkpt lat="45.37841838361545" lon="9.216872731424301"><ele>102.0</ele><time>2026-03-29T10:45:07.001Z</time></trkpt><trkpt lat="45.378525879774095" lon="9.216837237527807"><ele>102.0</ele><time>2026-03-29T10:45:09.001Z</time></trkpt><trkpt lat="45.37863316740145" lon="9.216812813680589"><ele>102.0</ele><time>2026-03-29T10:45:11.001Z</time></trkpt><trkpt lat="45.378736468601275" lon="9.216781212561353"><ele>102.0</ele><time>2026-03-29T10:45:13.001Z</time></trkpt><trkpt lat="45.37880614476704" lon="9.2167979749288"><ele>102.0</ele><time>2026-03-29T10:45:15.001Z</time></trkpt><trkpt lat="45.378833796836894" lon="9.21690677810596"><ele>102.0</ele><time>2026-03-29T10:45:17.001Z</time></trkpt><trkpt lat="45.37884462908027" lon="9.217030072460194"><ele>102.0</ele><time>2026-03-29T10:45:19.001Z</time></trkpt><trkpt lat="45.378869178020274" lon="9.217153452813125"><ele>102.0</ele><time>2026-03-29T10:45:21.001Z</time></trkpt><trkpt lat="45.378882576266264" lon="9.21728330442529"><ele>102.0</ele><time>2026-03-29T10:45:23.001Z</time></trkpt><trkpt lat="45.37890183904172" lon="9.217406380795701"><ele>102.0</ele><time>2026-03-29T10:45:25.001Z</time></trkpt><trkpt lat="45.37893243589013" lon="9.217526200003276"><ele>102.0</ele><time>2026-03-29T10:45:27.001Z</time></trkpt><trkpt lat="45.37896132422473" lon="9.217646460243417"><ele>101.39999999999999</ele><time>2026-03-29T10:45:29.001Z</time></trkpt><trkpt lat="45.37898146657289" lon="9.2177743691362"><ele>100.8</ele><time>2026-03-29T10:45:31.001Z</time></trkpt><trkpt lat="45.37900252136131" lon="9.217900324015819"><ele>100.2</ele><time>2026-03-29T10:45:33.001Z</time></trkpt><trkpt lat="45.379025357710844" lon="9.218023828541597"><ele>99.6</ele><time>2026-03-29T10:45:35.001Z</time></trkpt><trkpt lat="45.379047574558086" lon="9.218146098929981"><ele>99.0</ele><time>2026-03-29T10:45:37.001Z</time></trkpt><trkpt lat="45.379072265700756" lon="9.21827181976236"><ele>99.0</ele><time>2026-03-29T10:45:39.001Z</time></trkpt><trkpt lat="45.379093757756294" lon="9.21839361807684"><ele>99.0</ele><time>2026-03-29T10:45:41.001Z</time></trkpt><trkpt lat="45.37911964598544" lon="9.21850943713554"><ele>99.0</ele><time>2026-03-29T10:45:43.001Z</time></trkpt><trkpt lat="45.379138918202635" lon="9.218620904081842"><ele>99.0</ele><time>2026-03-29T10:45:45.001Z</time></trkpt><trkpt lat="45.379156150103306" lon="9.21871404609715"><ele>99.0</ele><time>2026-03-29T10:45:47.001Z</time></trkpt><trkpt lat="45.379179588641676" lon="9.218826306973918"><ele>99.0</ele><time>2026-03-29T10:45:50.001Z</time></trkpt><trkpt lat="45.37923695557278" lon="9.218871195633072"><ele>99.0</ele><time>2026-03-29T10:46:00.001Z</time></trkpt><trkpt lat="45.37929470308464" lon="9.218936657582656"><ele>99.0</ele><time>2026-03-29T10:46:02.001Z</time></trkpt><trkpt lat="45.37931262578994" lon="9.21905697649672"><ele>99.0</ele><time>2026-03-29T10:46:05.001Z</time></trkpt><trkpt lat="45.379333635742704" lon="9.219145878899429"><ele>99.0</ele><time>2026-03-29T10:46:07.001Z</time></trkpt><trkpt lat="45.37942307149331" lon="9.21911962409598"><ele>99.0</ele><time>2026-03-29T10:46:10.001Z</time></trkpt><trkpt lat="45.37950143973633" lon="9.219096893668649"><ele>99.0</ele><time>2026-03-29T10:46:19.001Z</time></trkpt><trkpt lat="45.379587412072105" lon="9.219079694886842"><ele>99.16666666666667</ele><time>2026-03-29T10:46:21.001Z</time></trkpt><trkpt lat="45.379685058335994" lon="9.219058695377957"><ele>99.33333333333334</ele><time>2026-03-29T10:46:23.001Z</time></trkpt><trkpt lat="45.379753763984716" lon="9.219060510373556"><ele>99.5</ele><time>2026-03-29T10:46:25.001Z</time></trkpt><trkpt lat="45.37984242419227" lon="9.219040830418342"><ele>99.66666666666667</ele><time>2026-03-29T10:46:27.001Z</time></trkpt><trkpt lat="45.379915148625365" lon="9.219021828839605"><ele>99.83333333333334</ele><time>2026-03-29T10:46:29.001Z</time></trkpt><trkpt lat="45.380023848905616" lon="9.21900256561943"><ele>100.0</ele><time>2026-03-29T10:46:31.001Z</time></trkpt><trkpt lat="45.38011867366896" lon="9.218985051153425"><ele>100.0</ele><time>2026-03-29T10:46:33.001Z</time></trkpt><trkpt lat="45.38021374135436" lon="9.21896694785687"><ele>100.0</ele><time>2026-03-29T10:46:35.001Z</time></trkpt><trkpt lat="45.38030785928211" lon="9.218950820816112"><ele>100.0</ele><time>2026-03-29T10:46:37.001Z</time></trkpt><trkpt lat="45.38040276685458" lon="9.218929983036647"><ele>100.0</ele><time>2026-03-29T10:46:39.001Z</time></trkpt><trkpt lat="45.38049548713286" lon="9.218902020592465"><ele>100.0</ele><time>2026-03-29T10:46:41.001Z</time></trkpt><trkpt lat="45.38058884752249" lon="9.2188764041157"><ele>100.8</ele><time>2026-03-29T10:46:43.001Z</time></trkpt><trkpt lat="45.380681852654014" lon="9.218857842391548"><ele>101.6</ele><time>2026-03-29T10:46:45.001Z</time></trkpt><trkpt lat="45.38077015644468" lon="9.218829689060463"><ele>102.4</ele><time>2026-03-29T10:46:47.001Z</time></trkpt><trkpt lat="45.38086331598371" lon="9.218809238236418"><ele>103.2</ele><time>2026-03-29T10:46:49.001Z</time></trkpt><trkpt lat="45.38095671531424" lon="9.218784058870495"><ele>104.0</ele><time>2026-03-29T10:46:51.001Z</time></trkpt><trkpt lat="45.38104884991528" lon="9.218765259313567"><ele>104.0</ele><time>2026-03-29T10:46:53.001Z</time></trkpt><trkpt lat="45.38114434805194" lon="9.218748782030321"><ele>104.0</ele><time>2026-03-29T10:46:55.001Z</time></trkpt><trkpt lat="45.38123588942016" lon="9.218728282828794"><ele>104.0</ele><time>2026-03-29T10:46:57.001Z</time></trkpt><trkpt lat="45.38132835401445" lon="9.218705098118157"><ele>104.0</ele><time>2026-03-29T10:46:59.001Z</time></trkpt><trkpt lat="45.381405683332616" lon="9.218711682605075"><ele>104.0</ele><time>2026-03-29T10:47:01.001Z</time></trkpt><trkpt lat="45.3814911286255" lon="9.218658898192158"><ele>103.83333333333333</ele><time>2026-03-29T10:47:03.001Z</time></trkpt><trkpt lat="45.38157806712985" lon="9.218656883248432"><ele>103.66666666666666</ele><time>2026-03-29T10:47:05.001Z</time></trkpt><trkpt lat="45.38166495120067" lon="9.218662147845661"><ele>103.5</ele><time>2026-03-29T10:47:07.001Z</time></trkpt><trkpt lat="45.38173491942798" lon="9.21863036796414"><ele>103.33333333333334</ele><time>2026-03-29T10:47:09.001Z</time></trkpt><trkpt lat="45.38180513543414" lon="9.218605436346248"><ele>103.16666666666667</ele><time>2026-03-29T10:47:11.001Z</time></trkpt><trkpt lat="45.38188190477087" lon="9.218587141831076"><ele>103.0</ele><time>2026-03-29T10:47:13.001Z</time></trkpt><trkpt lat="45.381935871052846" lon="9.2184811069992"><ele>103.0</ele><time>2026-03-29T10:47:15.001Z</time></trkpt><trkpt lat="45.381921199593236" lon="9.218345718043985"><ele>103.0</ele><time>2026-03-29T10:47:17.001Z</time></trkpt><trkpt lat="45.38190340514323" lon="9.218226767811512"><ele>103.0</ele><time>2026-03-29T10:47:19.001Z</time></trkpt><trkpt lat="45.38188340355522" lon="9.218119829194443"><ele>101.0</ele><time>2026-03-29T10:47:21.001Z</time></trkpt><trkpt lat="45.3818655428999" lon="9.218017596759623"><ele>101.0</ele><time>2026-03-29T10:47:23.001Z</time></trkpt><trkpt lat="45.38185463093292" lon="9.217928763264279"><ele>101.0</ele><time>2026-03-29T10:47:25.001Z</time></trkpt></trkseg></trk></gpx>